<?xml version="1.0" encoding="UTF-8" standalone="no" ?>
<gpx xmlns="http://www.topografix.com/GPX/1/1" xmlns:xsi="http://www.w3.org/2001/XMLSchema-instance" xsi:schemaLocation="http://www.topografix.com/GPX/1/1 http://www.topografix.com/GPX/1/1/gpx.xsd" version="1.1" creator="VisuGPX - https://www.visugpx.com">
  <metadata>
    <name>Pic de Bertagne</name>
    <desc><![CDATA[Itinéraire difficile mais très agréable. ]]></desc>
  </metadata>
  <trk>
    <name><![CDATA[Pic de Bertagne_1]]></name>
    <trkseg>
      <trkpt lat="43.30579" lon="5.66794">
        <ele>445.799987</ele>
        <time>2014-03-19T07:48:09Z</time>
      </trkpt>
      <trkpt lat="43.30579" lon="5.66793">
        <ele>447</ele>
        <time>2014-03-19T07:48:10Z</time>
      </trkpt>
      <trkpt lat="43.30575" lon="5.66804">
        <ele>425</ele>
        <time>2014-03-19T07:49:47Z</time>
      </trkpt>
      <trkpt lat="43.30575" lon="5.66805">
        <ele>424.6</ele>
        <time>2014-03-19T07:49:48Z</time>
      </trkpt>
      <trkpt lat="43.30567" lon="5.66809">
        <ele>423.8</ele>
        <time>2014-03-19T07:50:24Z</time>
      </trkpt>
      <trkpt lat="43.30563" lon="5.66808">
        <ele>420.3</ele>
        <time>2014-03-19T07:51:29Z</time>
      </trkpt>
      <trkpt lat="43.30563" lon="5.66808">
        <ele>420</ele>
        <time>2014-03-19T07:51:30Z</time>
      </trkpt>
      <trkpt lat="43.30555" lon="5.66811">
        <ele>417.8</ele>
        <time>2014-03-19T07:51:43Z</time>
      </trkpt>
      <trkpt lat="43.30552" lon="5.66813">
        <ele>418.5</ele>
        <time>2014-03-19T07:51:48Z</time>
      </trkpt>
      <trkpt lat="43.30548" lon="5.66816">
        <ele>420.5</ele>
        <time>2014-03-19T07:52:01Z</time>
      </trkpt>
      <trkpt lat="43.30547" lon="5.66822">
        <ele>424</ele>
        <time>2014-03-19T07:52:06Z</time>
      </trkpt>
      <trkpt lat="43.30545" lon="5.66827">
        <ele>424.2</ele>
        <time>2014-03-19T07:52:11Z</time>
      </trkpt>
      <trkpt lat="43.30542" lon="5.6683">
        <ele>424.8</ele>
        <time>2014-03-19T07:52:17Z</time>
      </trkpt>
      <trkpt lat="43.30538" lon="5.66833">
        <ele>424.3</ele>
        <time>2014-03-19T07:52:22Z</time>
      </trkpt>
      <trkpt lat="43.30534" lon="5.66835">
        <ele>423.2</ele>
        <time>2014-03-19T07:52:26Z</time>
      </trkpt>
      <trkpt lat="43.30531" lon="5.66836">
        <ele>422.7</ele>
        <time>2014-03-19T07:52:30Z</time>
      </trkpt>
      <trkpt lat="43.30527" lon="5.66837">
        <ele>421.3</ele>
        <time>2014-03-19T07:52:35Z</time>
      </trkpt>
      <trkpt lat="43.30526" lon="5.66837">
        <ele>421</ele>
        <time>2014-03-19T07:52:36Z</time>
      </trkpt>
      <trkpt lat="43.30532" lon="5.66843">
        <ele>423.6</ele>
        <time>2014-03-19T07:53:03Z</time>
      </trkpt>
      <trkpt lat="43.30536" lon="5.66843">
        <ele>424.2</ele>
        <time>2014-03-19T07:53:08Z</time>
      </trkpt>
      <trkpt lat="43.3054" lon="5.66843">
        <ele>426.7</ele>
        <time>2014-03-19T07:53:15Z</time>
      </trkpt>
      <trkpt lat="43.30543" lon="5.66841">
        <ele>427.7</ele>
        <time>2014-03-19T07:53:20Z</time>
      </trkpt>
      <trkpt lat="43.30546" lon="5.66839">
        <ele>426.5</ele>
        <time>2014-03-19T07:53:23Z</time>
      </trkpt>
      <trkpt lat="43.3055" lon="5.66839">
        <ele>425.2</ele>
        <time>2014-03-19T07:53:26Z</time>
      </trkpt>
      <trkpt lat="43.30553" lon="5.66838">
        <ele>425.1</ele>
        <time>2014-03-19T07:53:29Z</time>
      </trkpt>
      <trkpt lat="43.30557" lon="5.66837">
        <ele>424.3</ele>
        <time>2014-03-19T07:53:33Z</time>
      </trkpt>
      <trkpt lat="43.30561" lon="5.66836">
        <ele>424.1</ele>
        <time>2014-03-19T07:53:38Z</time>
      </trkpt>
      <trkpt lat="43.30562" lon="5.66836">
        <ele>424.2</ele>
        <time>2014-03-19T07:53:39Z</time>
      </trkpt>
      <trkpt lat="43.3057" lon="5.66835">
        <ele>425.2</ele>
        <time>2014-03-19T07:53:54Z</time>
      </trkpt>
      <trkpt lat="43.30574" lon="5.66836">
        <ele>433.6</ele>
        <time>2014-03-19T07:54:08Z</time>
      </trkpt>
      <trkpt lat="43.30578" lon="5.66839">
        <ele>434.8</ele>
        <time>2014-03-19T07:54:15Z</time>
      </trkpt>
      <trkpt lat="43.30577" lon="5.66845">
        <ele>435.7</ele>
        <time>2014-03-19T07:54:22Z</time>
      </trkpt>
      <trkpt lat="43.30575" lon="5.66849">
        <ele>435.7</ele>
        <time>2014-03-19T07:54:27Z</time>
      </trkpt>
      <trkpt lat="43.30573" lon="5.66854">
        <ele>434.3</ele>
        <time>2014-03-19T07:54:33Z</time>
      </trkpt>
      <trkpt lat="43.3057" lon="5.66858">
        <ele>434.7</ele>
        <time>2014-03-19T07:54:38Z</time>
      </trkpt>
      <trkpt lat="43.30568" lon="5.66862">
        <ele>435.5</ele>
        <time>2014-03-19T07:54:43Z</time>
      </trkpt>
      <trkpt lat="43.30567" lon="5.66862">
        <ele>435.5</ele>
        <time>2014-03-19T07:54:44Z</time>
      </trkpt>
      <trkpt lat="43.30564" lon="5.66872">
        <ele>434.8</ele>
        <time>2014-03-19T07:54:55Z</time>
      </trkpt>
      <trkpt lat="43.30562" lon="5.66877">
        <ele>436.7</ele>
        <time>2014-03-19T07:55:00Z</time>
      </trkpt>
      <trkpt lat="43.30561" lon="5.66882">
        <ele>438.5</ele>
        <time>2014-03-19T07:55:05Z</time>
      </trkpt>
      <trkpt lat="43.30558" lon="5.66887">
        <ele>439.7</ele>
        <time>2014-03-19T07:55:12Z</time>
      </trkpt>
      <trkpt lat="43.30557" lon="5.66892">
        <ele>440.5</ele>
        <time>2014-03-19T07:55:17Z</time>
      </trkpt>
      <trkpt lat="43.30557" lon="5.66897">
        <ele>441.6</ele>
        <time>2014-03-19T07:55:21Z</time>
      </trkpt>
      <trkpt lat="43.30556" lon="5.66903">
        <ele>442.3</ele>
        <time>2014-03-19T07:55:26Z</time>
      </trkpt>
      <trkpt lat="43.30556" lon="5.66909">
        <ele>443.5</ele>
        <time>2014-03-19T07:55:31Z</time>
      </trkpt>
      <trkpt lat="43.30555" lon="5.66914">
        <ele>443.2</ele>
        <time>2014-03-19T07:55:36Z</time>
      </trkpt>
      <trkpt lat="43.30555" lon="5.6692">
        <ele>443.8</ele>
        <time>2014-03-19T07:55:40Z</time>
      </trkpt>
      <trkpt lat="43.30554" lon="5.66925">
        <ele>445.6</ele>
        <time>2014-03-19T07:55:44Z</time>
      </trkpt>
      <trkpt lat="43.30554" lon="5.66931">
        <ele>446.1</ele>
        <time>2014-03-19T07:55:49Z</time>
      </trkpt>
      <trkpt lat="43.30554" lon="5.66933">
        <ele>446.1</ele>
        <time>2014-03-19T07:55:50Z</time>
      </trkpt>
      <trkpt lat="43.30553" lon="5.66943">
        <ele>446.5</ele>
        <time>2014-03-19T07:55:58Z</time>
      </trkpt>
      <trkpt lat="43.30552" lon="5.66948">
        <ele>447.5</ele>
        <time>2014-03-19T07:56:02Z</time>
      </trkpt>
      <trkpt lat="43.30551" lon="5.66953">
        <ele>446.7</ele>
        <time>2014-03-19T07:56:06Z</time>
      </trkpt>
      <trkpt lat="43.30548" lon="5.66956">
        <ele>447.2</ele>
        <time>2014-03-19T07:56:10Z</time>
      </trkpt>
      <trkpt lat="43.30544" lon="5.66957">
        <ele>447.5</ele>
        <time>2014-03-19T07:56:14Z</time>
      </trkpt>
      <trkpt lat="43.3054" lon="5.66959">
        <ele>447.8</ele>
        <time>2014-03-19T07:56:18Z</time>
      </trkpt>
      <trkpt lat="43.30536" lon="5.66959">
        <ele>448.2</ele>
        <time>2014-03-19T07:56:22Z</time>
      </trkpt>
      <trkpt lat="43.30532" lon="5.6696">
        <ele>448.5</ele>
        <time>2014-03-19T07:56:27Z</time>
      </trkpt>
      <trkpt lat="43.30528" lon="5.6696">
        <ele>448.8</ele>
        <time>2014-03-19T07:56:31Z</time>
      </trkpt>
      <trkpt lat="43.30525" lon="5.66963">
        <ele>449.2</ele>
        <time>2014-03-19T07:56:35Z</time>
      </trkpt>
      <trkpt lat="43.30521" lon="5.66964">
        <ele>449.2</ele>
        <time>2014-03-19T07:56:38Z</time>
      </trkpt>
      <trkpt lat="43.30518" lon="5.66968">
        <ele>449</ele>
        <time>2014-03-19T07:56:42Z</time>
      </trkpt>
      <trkpt lat="43.30515" lon="5.66972">
        <ele>448.7</ele>
        <time>2014-03-19T07:56:46Z</time>
      </trkpt>
      <trkpt lat="43.30513" lon="5.66975">
        <ele>448.5</ele>
        <time>2014-03-19T07:56:50Z</time>
      </trkpt>
      <trkpt lat="43.3051" lon="5.6698">
        <ele>447.8</ele>
        <time>2014-03-19T07:56:55Z</time>
      </trkpt>
      <trkpt lat="43.3051" lon="5.66981">
        <ele>447.7</ele>
        <time>2014-03-19T07:56:56Z</time>
      </trkpt>
      <trkpt lat="43.30504" lon="5.66987">
        <ele>448</ele>
        <time>2014-03-19T07:57:07Z</time>
      </trkpt>
      <trkpt lat="43.30501" lon="5.66991">
        <ele>449.2</ele>
        <time>2014-03-19T07:57:12Z</time>
      </trkpt>
      <trkpt lat="43.30498" lon="5.66994">
        <ele>450.5</ele>
        <time>2014-03-19T07:57:16Z</time>
      </trkpt>
      <trkpt lat="43.30495" lon="5.66998">
        <ele>451.2</ele>
        <time>2014-03-19T07:57:21Z</time>
      </trkpt>
      <trkpt lat="43.30492" lon="5.67002">
        <ele>452.5</ele>
        <time>2014-03-19T07:57:26Z</time>
      </trkpt>
      <trkpt lat="43.30488" lon="5.67004">
        <ele>454.2</ele>
        <time>2014-03-19T07:57:30Z</time>
      </trkpt>
      <trkpt lat="43.30485" lon="5.67007">
        <ele>455.1</ele>
        <time>2014-03-19T07:57:35Z</time>
      </trkpt>
      <trkpt lat="43.30481" lon="5.6701">
        <ele>455.5</ele>
        <time>2014-03-19T07:57:40Z</time>
      </trkpt>
      <trkpt lat="43.30478" lon="5.67013">
        <ele>455.1</ele>
        <time>2014-03-19T07:57:45Z</time>
      </trkpt>
      <trkpt lat="43.30474" lon="5.67015">
        <ele>455.1</ele>
        <time>2014-03-19T07:57:50Z</time>
      </trkpt>
      <trkpt lat="43.30471" lon="5.67019">
        <ele>455.2</ele>
        <time>2014-03-19T07:57:55Z</time>
      </trkpt>
      <trkpt lat="43.30468" lon="5.67023">
        <ele>455.3</ele>
        <time>2014-03-19T07:58:00Z</time>
      </trkpt>
      <trkpt lat="43.30468" lon="5.67024">
        <ele>455.3</ele>
        <time>2014-03-19T07:58:01Z</time>
      </trkpt>
      <trkpt lat="43.30463" lon="5.67032">
        <ele>457.3</ele>
        <time>2014-03-19T07:58:12Z</time>
      </trkpt>
      <trkpt lat="43.30459" lon="5.67036">
        <ele>459</ele>
        <time>2014-03-19T07:58:20Z</time>
      </trkpt>
      <trkpt lat="43.30456" lon="5.67039">
        <ele>462.7</ele>
        <time>2014-03-19T07:58:43Z</time>
      </trkpt>
      <trkpt lat="43.3046" lon="5.67039">
        <ele>463.2</ele>
        <time>2014-03-19T08:00:04Z</time>
      </trkpt>
      <trkpt lat="43.30461" lon="5.67039">
        <ele>463.5</ele>
        <time>2014-03-19T08:00:05Z</time>
      </trkpt>
      <trkpt lat="43.30468" lon="5.67042">
        <ele>466.2</ele>
        <time>2014-03-19T08:00:32Z</time>
      </trkpt>
      <trkpt lat="43.30472" lon="5.67042">
        <ele>466.3</ele>
        <time>2014-03-19T08:00:39Z</time>
      </trkpt>
      <trkpt lat="43.30476" lon="5.67039">
        <ele>467.2</ele>
        <time>2014-03-19T08:00:45Z</time>
      </trkpt>
      <trkpt lat="43.30479" lon="5.67038">
        <ele>467.7</ele>
        <time>2014-03-19T08:00:50Z</time>
      </trkpt>
      <trkpt lat="43.30483" lon="5.67037">
        <ele>468.8</ele>
        <time>2014-03-19T08:01:04Z</time>
      </trkpt>
      <trkpt lat="43.30487" lon="5.67037">
        <ele>470.2</ele>
        <time>2014-03-19T08:01:11Z</time>
      </trkpt>
      <trkpt lat="43.30488" lon="5.67037">
        <ele>470.2</ele>
        <time>2014-03-19T08:01:12Z</time>
      </trkpt>
      <trkpt lat="43.30495" lon="5.67039">
        <ele>472.8</ele>
        <time>2014-03-19T08:01:24Z</time>
      </trkpt>
      <trkpt lat="43.30498" lon="5.67043">
        <ele>473.7</ele>
        <time>2014-03-19T08:01:31Z</time>
      </trkpt>
      <trkpt lat="43.30502" lon="5.67046">
        <ele>474.7</ele>
        <time>2014-03-19T08:01:38Z</time>
      </trkpt>
      <trkpt lat="43.30506" lon="5.67048">
        <ele>476.1</ele>
        <time>2014-03-19T08:01:45Z</time>
      </trkpt>
      <trkpt lat="43.3051" lon="5.6705">
        <ele>477.2</ele>
        <time>2014-03-19T08:01:53Z</time>
      </trkpt>
      <trkpt lat="43.30514" lon="5.67051">
        <ele>478.3</ele>
        <time>2014-03-19T08:02:01Z</time>
      </trkpt>
      <trkpt lat="43.30519" lon="5.67051">
        <ele>479.3</ele>
        <time>2014-03-19T08:02:09Z</time>
      </trkpt>
      <trkpt lat="43.30522" lon="5.67053">
        <ele>480.8</ele>
        <time>2014-03-19T08:02:17Z</time>
      </trkpt>
      <trkpt lat="43.30523" lon="5.67053">
        <ele>481.1</ele>
        <time>2014-03-19T08:02:18Z</time>
      </trkpt>
      <trkpt lat="43.30531" lon="5.67055">
        <ele>483.3</ele>
        <time>2014-03-19T08:02:31Z</time>
      </trkpt>
      <trkpt lat="43.30535" lon="5.67057">
        <ele>484.1</ele>
        <time>2014-03-19T08:02:38Z</time>
      </trkpt>
      <trkpt lat="43.30539" lon="5.67059">
        <ele>485</ele>
        <time>2014-03-19T08:02:45Z</time>
      </trkpt>
      <trkpt lat="43.30543" lon="5.67061">
        <ele>486.7</ele>
        <time>2014-03-19T08:02:53Z</time>
      </trkpt>
      <trkpt lat="43.30547" lon="5.67061">
        <ele>488.8</ele>
        <time>2014-03-19T08:03:00Z</time>
      </trkpt>
      <trkpt lat="43.30551" lon="5.67061">
        <ele>490.3</ele>
        <time>2014-03-19T08:03:08Z</time>
      </trkpt>
      <trkpt lat="43.30555" lon="5.67062">
        <ele>491.2</ele>
        <time>2014-03-19T08:03:15Z</time>
      </trkpt>
      <trkpt lat="43.30559" lon="5.67065">
        <ele>491.7</ele>
        <time>2014-03-19T08:03:22Z</time>
      </trkpt>
      <trkpt lat="43.3056" lon="5.67065">
        <ele>491.7</ele>
        <time>2014-03-19T08:03:23Z</time>
      </trkpt>
      <trkpt lat="43.30566" lon="5.67069">
        <ele>491.7</ele>
        <time>2014-03-19T08:03:32Z</time>
      </trkpt>
      <trkpt lat="43.3057" lon="5.67071">
        <ele>492.3</ele>
        <time>2014-03-19T08:03:38Z</time>
      </trkpt>
      <trkpt lat="43.30574" lon="5.67073">
        <ele>493.2</ele>
        <time>2014-03-19T08:03:44Z</time>
      </trkpt>
      <trkpt lat="43.30577" lon="5.67076">
        <ele>494.1</ele>
        <time>2014-03-19T08:03:51Z</time>
      </trkpt>
      <trkpt lat="43.30581" lon="5.67079">
        <ele>495.2</ele>
        <time>2014-03-19T08:04:00Z</time>
      </trkpt>
      <trkpt lat="43.3058" lon="5.67085">
        <ele>495</ele>
        <time>2014-03-19T08:04:09Z</time>
      </trkpt>
      <trkpt lat="43.30583" lon="5.67089">
        <ele>498.2</ele>
        <time>2014-03-19T08:05:42Z</time>
      </trkpt>
      <trkpt lat="43.30583" lon="5.67089">
        <ele>498.3</ele>
        <time>2014-03-19T08:05:43Z</time>
      </trkpt>
      <trkpt lat="43.30591" lon="5.67088">
        <ele>500.2</ele>
        <time>2014-03-19T08:06:18Z</time>
      </trkpt>
      <trkpt lat="43.30595" lon="5.6709">
        <ele>501.7</ele>
        <time>2014-03-19T08:06:28Z</time>
      </trkpt>
      <trkpt lat="43.306" lon="5.67092">
        <ele>501.8</ele>
        <time>2014-03-19T08:06:38Z</time>
      </trkpt>
      <trkpt lat="43.30604" lon="5.67095">
        <ele>502</ele>
        <time>2014-03-19T08:06:45Z</time>
      </trkpt>
      <trkpt lat="43.30604" lon="5.67095">
        <ele>502</ele>
        <time>2014-03-19T08:06:46Z</time>
      </trkpt>
      <trkpt lat="43.30609" lon="5.67104">
        <ele>504.1</ele>
        <time>2014-03-19T08:07:04Z</time>
      </trkpt>
      <trkpt lat="43.30611" lon="5.67109">
        <ele>504.3</ele>
        <time>2014-03-19T08:07:25Z</time>
      </trkpt>
      <trkpt lat="43.30615" lon="5.67111">
        <ele>508.7</ele>
        <time>2014-03-19T08:09:12Z</time>
      </trkpt>
      <trkpt lat="43.30616" lon="5.67111">
        <ele>508.8</ele>
        <time>2014-03-19T08:09:13Z</time>
      </trkpt>
      <trkpt lat="43.30623" lon="5.67107">
        <ele>510</ele>
        <time>2014-03-19T08:09:23Z</time>
      </trkpt>
      <trkpt lat="43.30626" lon="5.67104">
        <ele>510.3</ele>
        <time>2014-03-19T08:09:28Z</time>
      </trkpt>
      <trkpt lat="43.30629" lon="5.67101">
        <ele>511</ele>
        <time>2014-03-19T08:09:33Z</time>
      </trkpt>
      <trkpt lat="43.30632" lon="5.67097">
        <ele>511.3</ele>
        <time>2014-03-19T08:09:39Z</time>
      </trkpt>
      <trkpt lat="43.30636" lon="5.67095">
        <ele>511.7</ele>
        <time>2014-03-19T08:09:44Z</time>
      </trkpt>
      <trkpt lat="43.30639" lon="5.67093">
        <ele>512.2</ele>
        <time>2014-03-19T08:09:50Z</time>
      </trkpt>
      <trkpt lat="43.30643" lon="5.67093">
        <ele>512.9</ele>
        <time>2014-03-19T08:09:56Z</time>
      </trkpt>
      <trkpt lat="43.30647" lon="5.67092">
        <ele>513.5</ele>
        <time>2014-03-19T08:10:03Z</time>
      </trkpt>
      <trkpt lat="43.30651" lon="5.6709">
        <ele>515</ele>
        <time>2014-03-19T08:10:10Z</time>
      </trkpt>
      <trkpt lat="43.30655" lon="5.67087">
        <ele>516.2</ele>
        <time>2014-03-19T08:10:17Z</time>
      </trkpt>
      <trkpt lat="43.30655" lon="5.67087">
        <ele>516.4</ele>
        <time>2014-03-19T08:10:18Z</time>
      </trkpt>
      <trkpt lat="43.30662" lon="5.67082">
        <ele>518.5</ele>
        <time>2014-03-19T08:10:31Z</time>
      </trkpt>
      <trkpt lat="43.30666" lon="5.67081">
        <ele>519</ele>
        <time>2014-03-19T08:10:36Z</time>
      </trkpt>
      <trkpt lat="43.3067" lon="5.67081">
        <ele>519.9</ele>
        <time>2014-03-19T08:10:43Z</time>
      </trkpt>
      <trkpt lat="43.30674" lon="5.67079">
        <ele>520.7</ele>
        <time>2014-03-19T08:10:50Z</time>
      </trkpt>
      <trkpt lat="43.30678" lon="5.67078">
        <ele>521.7</ele>
        <time>2014-03-19T08:10:57Z</time>
      </trkpt>
      <trkpt lat="43.30682" lon="5.67077">
        <ele>522.2</ele>
        <time>2014-03-19T08:11:04Z</time>
      </trkpt>
      <trkpt lat="43.30686" lon="5.67076">
        <ele>523</ele>
        <time>2014-03-19T08:11:10Z</time>
      </trkpt>
      <trkpt lat="43.3069" lon="5.67076">
        <ele>524</ele>
        <time>2014-03-19T08:11:16Z</time>
      </trkpt>
      <trkpt lat="43.30694" lon="5.67074">
        <ele>524.7</ele>
        <time>2014-03-19T08:11:21Z</time>
      </trkpt>
      <trkpt lat="43.30695" lon="5.67074">
        <ele>524.9</ele>
        <time>2014-03-19T08:11:22Z</time>
      </trkpt>
      <trkpt lat="43.30702" lon="5.67076">
        <ele>525.4</ele>
        <time>2014-03-19T08:11:32Z</time>
      </trkpt>
      <trkpt lat="43.30706" lon="5.67078">
        <ele>525.7</ele>
        <time>2014-03-19T08:11:38Z</time>
      </trkpt>
      <trkpt lat="43.3071" lon="5.67079">
        <ele>526</ele>
        <time>2014-03-19T08:11:43Z</time>
      </trkpt>
      <trkpt lat="43.30714" lon="5.6708">
        <ele>526.7</ele>
        <time>2014-03-19T08:11:49Z</time>
      </trkpt>
      <trkpt lat="43.30718" lon="5.67081">
        <ele>527.5</ele>
        <time>2014-03-19T08:11:55Z</time>
      </trkpt>
      <trkpt lat="43.30722" lon="5.67083">
        <ele>528.5</ele>
        <time>2014-03-19T08:12:02Z</time>
      </trkpt>
      <trkpt lat="43.30726" lon="5.67082">
        <ele>529.5</ele>
        <time>2014-03-19T08:12:10Z</time>
      </trkpt>
      <trkpt lat="43.3073" lon="5.67082">
        <ele>529.9</ele>
        <time>2014-03-19T08:12:14Z</time>
      </trkpt>
      <trkpt lat="43.30734" lon="5.67082">
        <ele>530.5</ele>
        <time>2014-03-19T08:12:19Z</time>
      </trkpt>
      <trkpt lat="43.30738" lon="5.67082">
        <ele>531</ele>
        <time>2014-03-19T08:12:23Z</time>
      </trkpt>
      <trkpt lat="43.30739" lon="5.67082">
        <ele>531</ele>
        <time>2014-03-19T08:12:24Z</time>
      </trkpt>
      <trkpt lat="43.30745" lon="5.67087">
        <ele>532.7</ele>
        <time>2014-03-19T08:12:36Z</time>
      </trkpt>
      <trkpt lat="43.30749" lon="5.67089">
        <ele>533</ele>
        <time>2014-03-19T08:12:42Z</time>
      </trkpt>
      <trkpt lat="43.30752" lon="5.6709">
        <ele>533.9</ele>
        <time>2014-03-19T08:12:50Z</time>
      </trkpt>
      <trkpt lat="43.30757" lon="5.67091">
        <ele>534.4</ele>
        <time>2014-03-19T08:12:58Z</time>
      </trkpt>
      <trkpt lat="43.30761" lon="5.67093">
        <ele>535.4</ele>
        <time>2014-03-19T08:13:05Z</time>
      </trkpt>
      <trkpt lat="43.30765" lon="5.67096">
        <ele>536.7</ele>
        <time>2014-03-19T08:13:13Z</time>
      </trkpt>
      <trkpt lat="43.30769" lon="5.67097">
        <ele>537.5</ele>
        <time>2014-03-19T08:13:18Z</time>
      </trkpt>
      <trkpt lat="43.30773" lon="5.671">
        <ele>537.9</ele>
        <time>2014-03-19T08:13:23Z</time>
      </trkpt>
      <trkpt lat="43.30777" lon="5.671">
        <ele>538.2</ele>
        <time>2014-03-19T08:13:28Z</time>
      </trkpt>
      <trkpt lat="43.30778" lon="5.671">
        <ele>538.5</ele>
        <time>2014-03-19T08:13:29Z</time>
      </trkpt>
      <trkpt lat="43.30785" lon="5.67103">
        <ele>539</ele>
        <time>2014-03-19T08:13:36Z</time>
      </trkpt>
      <trkpt lat="43.30789" lon="5.67104">
        <ele>539.7</ele>
        <time>2014-03-19T08:13:41Z</time>
      </trkpt>
      <trkpt lat="43.30793" lon="5.67104">
        <ele>541</ele>
        <time>2014-03-19T08:13:47Z</time>
      </trkpt>
      <trkpt lat="43.30798" lon="5.67104">
        <ele>542</ele>
        <time>2014-03-19T08:13:52Z</time>
      </trkpt>
      <trkpt lat="43.30802" lon="5.67104">
        <ele>543</ele>
        <time>2014-03-19T08:13:58Z</time>
      </trkpt>
      <trkpt lat="43.30806" lon="5.67105">
        <ele>544.2</ele>
        <time>2014-03-19T08:14:06Z</time>
      </trkpt>
      <trkpt lat="43.3081" lon="5.67105">
        <ele>545</ele>
        <time>2014-03-19T08:14:13Z</time>
      </trkpt>
      <trkpt lat="43.30814" lon="5.67105">
        <ele>545.7</ele>
        <time>2014-03-19T08:14:19Z</time>
      </trkpt>
      <trkpt lat="43.30818" lon="5.67105">
        <ele>546.5</ele>
        <time>2014-03-19T08:14:25Z</time>
      </trkpt>
      <trkpt lat="43.30822" lon="5.67108">
        <ele>547.4</ele>
        <time>2014-03-19T08:14:32Z</time>
      </trkpt>
      <trkpt lat="43.30823" lon="5.67108">
        <ele>547.5</ele>
        <time>2014-03-19T08:14:33Z</time>
      </trkpt>
      <trkpt lat="43.30829" lon="5.67113">
        <ele>548.2</ele>
        <time>2014-03-19T08:14:44Z</time>
      </trkpt>
      <trkpt lat="43.30833" lon="5.67115">
        <ele>548.7</ele>
        <time>2014-03-19T08:14:50Z</time>
      </trkpt>
      <trkpt lat="43.30837" lon="5.67117">
        <ele>549.4</ele>
        <time>2014-03-19T08:14:56Z</time>
      </trkpt>
      <trkpt lat="43.30841" lon="5.67119">
        <ele>550</ele>
        <time>2014-03-19T08:15:02Z</time>
      </trkpt>
      <trkpt lat="43.30845" lon="5.67119">
        <ele>550.7</ele>
        <time>2014-03-19T08:15:08Z</time>
      </trkpt>
      <trkpt lat="43.30849" lon="5.67119">
        <ele>551.4</ele>
        <time>2014-03-19T08:15:14Z</time>
      </trkpt>
      <trkpt lat="43.30853" lon="5.6712">
        <ele>551.5</ele>
        <time>2014-03-19T08:15:21Z</time>
      </trkpt>
      <trkpt lat="43.30857" lon="5.6712">
        <ele>552.2</ele>
        <time>2014-03-19T08:15:28Z</time>
      </trkpt>
      <trkpt lat="43.30861" lon="5.6712">
        <ele>553.5</ele>
        <time>2014-03-19T08:15:36Z</time>
      </trkpt>
      <trkpt lat="43.30862" lon="5.6712">
        <ele>553.7</ele>
        <time>2014-03-19T08:15:37Z</time>
      </trkpt>
      <trkpt lat="43.3087" lon="5.6712">
        <ele>556.2</ele>
        <time>2014-03-19T08:15:53Z</time>
      </trkpt>
      <trkpt lat="43.30874" lon="5.6712">
        <ele>557.9</ele>
        <time>2014-03-19T08:16:13Z</time>
      </trkpt>
      <trkpt lat="43.30877" lon="5.67122">
        <ele>551.9</ele>
        <time>2014-03-19T08:16:57Z</time>
      </trkpt>
      <trkpt lat="43.30878" lon="5.67122">
        <ele>552</ele>
        <time>2014-03-19T08:16:58Z</time>
      </trkpt>
      <trkpt lat="43.30885" lon="5.67124">
        <ele>554.2</ele>
        <time>2014-03-19T08:17:08Z</time>
      </trkpt>
      <trkpt lat="43.30889" lon="5.67126">
        <ele>556.2</ele>
        <time>2014-03-19T08:17:13Z</time>
      </trkpt>
      <trkpt lat="43.30893" lon="5.67127">
        <ele>557.7</ele>
        <time>2014-03-19T08:17:19Z</time>
      </trkpt>
      <trkpt lat="43.30898" lon="5.67127">
        <ele>557.7</ele>
        <time>2014-03-19T08:17:25Z</time>
      </trkpt>
      <trkpt lat="43.30902" lon="5.67129">
        <ele>556.5</ele>
        <time>2014-03-19T08:17:29Z</time>
      </trkpt>
      <trkpt lat="43.30905" lon="5.67132">
        <ele>557.2</ele>
        <time>2014-03-19T08:17:34Z</time>
      </trkpt>
      <trkpt lat="43.30908" lon="5.67135">
        <ele>558.7</ele>
        <time>2014-03-19T08:17:39Z</time>
      </trkpt>
      <trkpt lat="43.30912" lon="5.67135">
        <ele>560.4</ele>
        <time>2014-03-19T08:17:46Z</time>
      </trkpt>
      <trkpt lat="43.30917" lon="5.67134">
        <ele>561</ele>
        <time>2014-03-19T08:17:52Z</time>
      </trkpt>
      <trkpt lat="43.30921" lon="5.67133">
        <ele>562.9</ele>
        <time>2014-03-19T08:17:58Z</time>
      </trkpt>
      <trkpt lat="43.30921" lon="5.67132">
        <ele>563.5</ele>
        <time>2014-03-19T08:17:59Z</time>
      </trkpt>
      <trkpt lat="43.30929" lon="5.67129">
        <ele>565.2</ele>
        <time>2014-03-19T08:18:13Z</time>
      </trkpt>
      <trkpt lat="43.30932" lon="5.67128">
        <ele>567</ele>
        <time>2014-03-19T08:18:20Z</time>
      </trkpt>
      <trkpt lat="43.30936" lon="5.67128">
        <ele>567.5</ele>
        <time>2014-03-19T08:18:26Z</time>
      </trkpt>
      <trkpt lat="43.3094" lon="5.67125">
        <ele>568.9</ele>
        <time>2014-03-19T08:18:36Z</time>
      </trkpt>
      <trkpt lat="43.30944" lon="5.67121">
        <ele>571.5</ele>
        <time>2014-03-19T08:18:47Z</time>
      </trkpt>
      <trkpt lat="43.30947" lon="5.67118">
        <ele>572</ele>
        <time>2014-03-19T08:18:57Z</time>
      </trkpt>
      <trkpt lat="43.30951" lon="5.67118">
        <ele>575.2</ele>
        <time>2014-03-19T08:19:09Z</time>
      </trkpt>
      <trkpt lat="43.30952" lon="5.67118">
        <ele>574.5</ele>
        <time>2014-03-19T08:19:10Z</time>
      </trkpt>
      <trkpt lat="43.3096" lon="5.67115">
        <ele>578.4</ele>
        <time>2014-03-19T08:19:33Z</time>
      </trkpt>
      <trkpt lat="43.30963" lon="5.67112">
        <ele>577.7</ele>
        <time>2014-03-19T08:19:46Z</time>
      </trkpt>
      <trkpt lat="43.30968" lon="5.67112">
        <ele>586</ele>
        <time>2014-03-19T08:20:32Z</time>
      </trkpt>
      <trkpt lat="43.30968" lon="5.67112">
        <ele>585.5</ele>
        <time>2014-03-19T08:20:33Z</time>
      </trkpt>
      <trkpt lat="43.30976" lon="5.6711">
        <ele>587.2</ele>
        <time>2014-03-19T08:21:17Z</time>
      </trkpt>
      <trkpt lat="43.30978" lon="5.67105">
        <ele>590.9</ele>
        <time>2014-03-19T08:21:32Z</time>
      </trkpt>
      <trkpt lat="43.30979" lon="5.67099">
        <ele>592.5</ele>
        <time>2014-03-19T08:21:51Z</time>
      </trkpt>
      <trkpt lat="43.30979" lon="5.67098">
        <ele>592.5</ele>
        <time>2014-03-19T08:21:52Z</time>
      </trkpt>
      <trkpt lat="43.30988" lon="5.67097">
        <ele>598.2</ele>
        <time>2014-03-19T08:22:57Z</time>
      </trkpt>
      <trkpt lat="43.30988" lon="5.67097">
        <ele>598.5</ele>
        <time>2014-03-19T08:22:58Z</time>
      </trkpt>
      <trkpt lat="43.30995" lon="5.67095">
        <ele>602.2</ele>
        <time>2014-03-19T08:23:28Z</time>
      </trkpt>
      <trkpt lat="43.30999" lon="5.67096">
        <ele>604</ele>
        <time>2014-03-19T08:23:48Z</time>
      </trkpt>
      <trkpt lat="43.31003" lon="5.67096">
        <ele>607.2</ele>
        <time>2014-03-19T08:24:08Z</time>
      </trkpt>
      <trkpt lat="43.31004" lon="5.67096">
        <ele>607.5</ele>
        <time>2014-03-19T08:24:09Z</time>
      </trkpt>
      <trkpt lat="43.31011" lon="5.67096">
        <ele>611.4</ele>
        <time>2014-03-19T08:24:33Z</time>
      </trkpt>
      <trkpt lat="43.31016" lon="5.67098">
        <ele>612.7</ele>
        <time>2014-03-19T08:24:55Z</time>
      </trkpt>
      <trkpt lat="43.31012" lon="5.67095">
        <ele>622.5</ele>
        <time>2014-03-19T08:26:59Z</time>
      </trkpt>
      <trkpt lat="43.31012" lon="5.67095">
        <ele>622.9</ele>
        <time>2014-03-19T08:27:00Z</time>
      </trkpt>
      <trkpt lat="43.31016" lon="5.67098">
        <ele>613</ele>
        <time>2014-03-19T08:28:20Z</time>
      </trkpt>
      <trkpt lat="43.31022" lon="5.67105">
        <ele>616</ele>
        <time>2014-03-19T08:29:18Z</time>
      </trkpt>
      <trkpt lat="43.31025" lon="5.6711">
        <ele>618.7</ele>
        <time>2014-03-19T08:29:38Z</time>
      </trkpt>
      <trkpt lat="43.31025" lon="5.6711">
        <ele>618.5</ele>
        <time>2014-03-19T08:29:39Z</time>
      </trkpt>
      <trkpt lat="43.31032" lon="5.67112">
        <ele>617.2</ele>
        <time>2014-03-19T08:29:48Z</time>
      </trkpt>
      <trkpt lat="43.31037" lon="5.67113">
        <ele>615</ele>
        <time>2014-03-19T08:29:59Z</time>
      </trkpt>
      <trkpt lat="43.31041" lon="5.67113">
        <ele>615</ele>
        <time>2014-03-19T08:30:16Z</time>
      </trkpt>
      <trkpt lat="43.31044" lon="5.67114">
        <ele>615.4</ele>
        <time>2014-03-19T08:30:21Z</time>
      </trkpt>
      <trkpt lat="43.31049" lon="5.67115">
        <ele>616.7</ele>
        <time>2014-03-19T08:30:30Z</time>
      </trkpt>
      <trkpt lat="43.31053" lon="5.67117">
        <ele>619</ele>
        <time>2014-03-19T08:30:43Z</time>
      </trkpt>
      <trkpt lat="43.31053" lon="5.67117">
        <ele>619.2</ele>
        <time>2014-03-19T08:30:44Z</time>
      </trkpt>
      <trkpt lat="43.3106" lon="5.67123">
        <ele>619.2</ele>
        <time>2014-03-19T08:30:59Z</time>
      </trkpt>
      <trkpt lat="43.31065" lon="5.67123">
        <ele>621</ele>
        <time>2014-03-19T08:31:10Z</time>
      </trkpt>
      <trkpt lat="43.31069" lon="5.67123">
        <ele>622.9</ele>
        <time>2014-03-19T08:31:26Z</time>
      </trkpt>
      <trkpt lat="43.31073" lon="5.67126">
        <ele>625.9</ele>
        <time>2014-03-19T08:31:40Z</time>
      </trkpt>
      <trkpt lat="43.31077" lon="5.67128">
        <ele>627</ele>
        <time>2014-03-19T08:32:03Z</time>
      </trkpt>
      <trkpt lat="43.31077" lon="5.67129">
        <ele>627</ele>
        <time>2014-03-19T08:32:04Z</time>
      </trkpt>
      <trkpt lat="43.31083" lon="5.67137">
        <ele>633</ele>
        <time>2014-03-19T08:32:38Z</time>
      </trkpt>
      <trkpt lat="43.31087" lon="5.67139">
        <ele>635.2</ele>
        <time>2014-03-19T08:32:53Z</time>
      </trkpt>
      <trkpt lat="43.31092" lon="5.67141">
        <ele>635.9</ele>
        <time>2014-03-19T08:33:21Z</time>
      </trkpt>
      <trkpt lat="43.31092" lon="5.67141">
        <ele>636</ele>
        <time>2014-03-19T08:33:22Z</time>
      </trkpt>
      <trkpt lat="43.31099" lon="5.67146">
        <ele>639.5</ele>
        <time>2014-03-19T08:33:54Z</time>
      </trkpt>
      <trkpt lat="43.31102" lon="5.6715">
        <ele>640.7</ele>
        <time>2014-03-19T08:34:07Z</time>
      </trkpt>
      <trkpt lat="43.31106" lon="5.67151">
        <ele>641.7</ele>
        <time>2014-03-19T08:34:19Z</time>
      </trkpt>
      <trkpt lat="43.3111" lon="5.67154">
        <ele>643.5</ele>
        <time>2014-03-19T08:34:28Z</time>
      </trkpt>
      <trkpt lat="43.3111" lon="5.67155">
        <ele>643.5</ele>
        <time>2014-03-19T08:34:29Z</time>
      </trkpt>
      <trkpt lat="43.31114" lon="5.67164">
        <ele>648.2</ele>
        <time>2014-03-19T08:34:56Z</time>
      </trkpt>
      <trkpt lat="43.31118" lon="5.67166">
        <ele>650</ele>
        <time>2014-03-19T08:35:07Z</time>
      </trkpt>
      <trkpt lat="43.31121" lon="5.6717">
        <ele>651.5</ele>
        <time>2014-03-19T08:35:13Z</time>
      </trkpt>
      <trkpt lat="43.31125" lon="5.67173">
        <ele>653.2</ele>
        <time>2014-03-19T08:35:22Z</time>
      </trkpt>
      <trkpt lat="43.31128" lon="5.67176">
        <ele>654.9</ele>
        <time>2014-03-19T08:35:30Z</time>
      </trkpt>
      <trkpt lat="43.31128" lon="5.67177">
        <ele>655</ele>
        <time>2014-03-19T08:35:31Z</time>
      </trkpt>
      <trkpt lat="43.31134" lon="5.67184">
        <ele>656.7</ele>
        <time>2014-03-19T08:35:55Z</time>
      </trkpt>
      <trkpt lat="43.31137" lon="5.67187">
        <ele>656.4</ele>
        <time>2014-03-19T08:36:12Z</time>
      </trkpt>
      <trkpt lat="43.3114" lon="5.67191">
        <ele>657.7</ele>
        <time>2014-03-19T08:36:21Z</time>
      </trkpt>
      <trkpt lat="43.31145" lon="5.67193">
        <ele>658.7</ele>
        <time>2014-03-19T08:36:30Z</time>
      </trkpt>
      <trkpt lat="43.31148" lon="5.67197">
        <ele>659.7</ele>
        <time>2014-03-19T08:36:38Z</time>
      </trkpt>
      <trkpt lat="43.31148" lon="5.67197">
        <ele>659.7</ele>
        <time>2014-03-19T08:36:39Z</time>
      </trkpt>
      <trkpt lat="43.31155" lon="5.672">
        <ele>661</ele>
        <time>2014-03-19T08:36:55Z</time>
      </trkpt>
      <trkpt lat="43.31159" lon="5.67202">
        <ele>662.5</ele>
        <time>2014-03-19T08:37:05Z</time>
      </trkpt>
      <trkpt lat="43.31162" lon="5.67207">
        <ele>664.2</ele>
        <time>2014-03-19T08:37:15Z</time>
      </trkpt>
      <trkpt lat="43.31165" lon="5.67211">
        <ele>668.7</ele>
        <time>2014-03-19T08:37:38Z</time>
      </trkpt>
      <trkpt lat="43.31168" lon="5.67215">
        <ele>669</ele>
        <time>2014-03-19T08:37:47Z</time>
      </trkpt>
      <trkpt lat="43.31169" lon="5.67215">
        <ele>669</ele>
        <time>2014-03-19T08:37:48Z</time>
      </trkpt>
      <trkpt lat="43.31176" lon="5.67219">
        <ele>668.5</ele>
        <time>2014-03-19T08:38:00Z</time>
      </trkpt>
      <trkpt lat="43.3118" lon="5.67221">
        <ele>669.7</ele>
        <time>2014-03-19T08:38:09Z</time>
      </trkpt>
      <trkpt lat="43.31183" lon="5.67225">
        <ele>670</ele>
        <time>2014-03-19T08:38:15Z</time>
      </trkpt>
      <trkpt lat="43.31187" lon="5.67226">
        <ele>670.4</ele>
        <time>2014-03-19T08:38:23Z</time>
      </trkpt>
      <trkpt lat="43.31191" lon="5.67228">
        <ele>670.9</ele>
        <time>2014-03-19T08:38:29Z</time>
      </trkpt>
      <trkpt lat="43.31195" lon="5.6723">
        <ele>671.7</ele>
        <time>2014-03-19T08:38:35Z</time>
      </trkpt>
      <trkpt lat="43.31199" lon="5.67232">
        <ele>672.2</ele>
        <time>2014-03-19T08:38:41Z</time>
      </trkpt>
      <trkpt lat="43.31202" lon="5.67236">
        <ele>673</ele>
        <time>2014-03-19T08:38:49Z</time>
      </trkpt>
      <trkpt lat="43.31203" lon="5.67236">
        <ele>673.2</ele>
        <time>2014-03-19T08:38:50Z</time>
      </trkpt>
      <trkpt lat="43.3121" lon="5.6724">
        <ele>672.5</ele>
        <time>2014-03-19T08:39:05Z</time>
      </trkpt>
      <trkpt lat="43.31213" lon="5.67244">
        <ele>672.5</ele>
        <time>2014-03-19T08:39:12Z</time>
      </trkpt>
      <trkpt lat="43.31216" lon="5.67249">
        <ele>673</ele>
        <time>2014-03-19T08:39:32Z</time>
      </trkpt>
      <trkpt lat="43.31218" lon="5.67254">
        <ele>670.2</ele>
        <time>2014-03-19T08:39:54Z</time>
      </trkpt>
      <trkpt lat="43.31218" lon="5.67254">
        <ele>670.4</ele>
        <time>2014-03-19T08:39:55Z</time>
      </trkpt>
      <trkpt lat="43.31225" lon="5.67261">
        <ele>667.7</ele>
        <time>2014-03-19T08:40:32Z</time>
      </trkpt>
      <trkpt lat="43.31229" lon="5.67261">
        <ele>666.9</ele>
        <time>2014-03-19T08:40:40Z</time>
      </trkpt>
      <trkpt lat="43.31233" lon="5.6726">
        <ele>667.5</ele>
        <time>2014-03-19T08:40:45Z</time>
      </trkpt>
      <trkpt lat="43.31236" lon="5.67259">
        <ele>667.5</ele>
        <time>2014-03-19T08:40:49Z</time>
      </trkpt>
      <trkpt lat="43.3124" lon="5.67259">
        <ele>667</ele>
        <time>2014-03-19T08:40:56Z</time>
      </trkpt>
      <trkpt lat="43.31241" lon="5.67259">
        <ele>666.9</ele>
        <time>2014-03-19T08:40:57Z</time>
      </trkpt>
      <trkpt lat="43.31247" lon="5.67265">
        <ele>672.5</ele>
        <time>2014-03-19T08:43:16Z</time>
      </trkpt>
      <trkpt lat="43.31247" lon="5.67266">
        <ele>672.7</ele>
        <time>2014-03-19T08:43:17Z</time>
      </trkpt>
      <trkpt lat="43.3125" lon="5.67276">
        <ele>669.2</ele>
        <time>2014-03-19T08:43:33Z</time>
      </trkpt>
      <trkpt lat="43.31249" lon="5.67282">
        <ele>669</ele>
        <time>2014-03-19T08:43:39Z</time>
      </trkpt>
      <trkpt lat="43.3125" lon="5.67287">
        <ele>668.2</ele>
        <time>2014-03-19T08:43:44Z</time>
      </trkpt>
      <trkpt lat="43.31251" lon="5.67292">
        <ele>666.7</ele>
        <time>2014-03-19T08:43:49Z</time>
      </trkpt>
      <trkpt lat="43.31253" lon="5.67296">
        <ele>665</ele>
        <time>2014-03-19T08:43:54Z</time>
      </trkpt>
      <trkpt lat="43.31255" lon="5.67301">
        <ele>662.5</ele>
        <time>2014-03-19T08:43:59Z</time>
      </trkpt>
      <trkpt lat="43.31257" lon="5.67306">
        <ele>659.9</ele>
        <time>2014-03-19T08:44:04Z</time>
      </trkpt>
      <trkpt lat="43.31259" lon="5.67311">
        <ele>657.9</ele>
        <time>2014-03-19T08:44:09Z</time>
      </trkpt>
      <trkpt lat="43.3126" lon="5.67316">
        <ele>656.2</ele>
        <time>2014-03-19T08:44:13Z</time>
      </trkpt>
      <trkpt lat="43.3126" lon="5.67322">
        <ele>656.2</ele>
        <time>2014-03-19T08:44:17Z</time>
      </trkpt>
      <trkpt lat="43.31261" lon="5.67327">
        <ele>655.7</ele>
        <time>2014-03-19T08:44:21Z</time>
      </trkpt>
      <trkpt lat="43.31261" lon="5.67328">
        <ele>655.7</ele>
        <time>2014-03-19T08:44:22Z</time>
      </trkpt>
      <trkpt lat="43.31261" lon="5.67338">
        <ele>655.2</ele>
        <time>2014-03-19T08:44:29Z</time>
      </trkpt>
      <trkpt lat="43.3126" lon="5.67343">
        <ele>656.2</ele>
        <time>2014-03-19T08:44:33Z</time>
      </trkpt>
      <trkpt lat="43.31258" lon="5.67348">
        <ele>657.7</ele>
        <time>2014-03-19T08:44:36Z</time>
      </trkpt>
      <trkpt lat="43.31257" lon="5.67352">
        <ele>659</ele>
        <time>2014-03-19T08:44:39Z</time>
      </trkpt>
      <trkpt lat="43.31256" lon="5.67357">
        <ele>659.2</ele>
        <time>2014-03-19T08:44:43Z</time>
      </trkpt>
      <trkpt lat="43.31256" lon="5.67362">
        <ele>659.5</ele>
        <time>2014-03-19T08:44:47Z</time>
      </trkpt>
      <trkpt lat="43.31257" lon="5.67367">
        <ele>659.7</ele>
        <time>2014-03-19T08:44:51Z</time>
      </trkpt>
      <trkpt lat="43.31258" lon="5.67372">
        <ele>659.5</ele>
        <time>2014-03-19T08:44:55Z</time>
      </trkpt>
      <trkpt lat="43.31259" lon="5.67378">
        <ele>659.9</ele>
        <time>2014-03-19T08:44:59Z</time>
      </trkpt>
      <trkpt lat="43.31259" lon="5.67383">
        <ele>660.9</ele>
        <time>2014-03-19T08:45:03Z</time>
      </trkpt>
      <trkpt lat="43.3126" lon="5.67388">
        <ele>661.9</ele>
        <time>2014-03-19T08:45:07Z</time>
      </trkpt>
      <trkpt lat="43.3126" lon="5.67393">
        <ele>661.9</ele>
        <time>2014-03-19T08:45:11Z</time>
      </trkpt>
      <trkpt lat="43.31261" lon="5.67399">
        <ele>662</ele>
        <time>2014-03-19T08:45:15Z</time>
      </trkpt>
      <trkpt lat="43.31262" lon="5.67405">
        <ele>662.9</ele>
        <time>2014-03-19T08:45:19Z</time>
      </trkpt>
      <trkpt lat="43.31264" lon="5.67411">
        <ele>662.7</ele>
        <time>2014-03-19T08:45:24Z</time>
      </trkpt>
      <trkpt lat="43.31264" lon="5.67412">
        <ele>663.2</ele>
        <time>2014-03-19T08:45:25Z</time>
      </trkpt>
      <trkpt lat="43.31267" lon="5.6742">
        <ele>664.4</ele>
        <time>2014-03-19T08:45:32Z</time>
      </trkpt>
      <trkpt lat="43.31267" lon="5.67426">
        <ele>664.5</ele>
        <time>2014-03-19T08:45:36Z</time>
      </trkpt>
      <trkpt lat="43.31266" lon="5.67431">
        <ele>664.4</ele>
        <time>2014-03-19T08:45:41Z</time>
      </trkpt>
      <trkpt lat="43.31267" lon="5.67436">
        <ele>663.5</ele>
        <time>2014-03-19T08:45:45Z</time>
      </trkpt>
      <trkpt lat="43.31268" lon="5.67442">
        <ele>662.7</ele>
        <time>2014-03-19T08:45:49Z</time>
      </trkpt>
      <trkpt lat="43.31268" lon="5.67447">
        <ele>663.4</ele>
        <time>2014-03-19T08:45:53Z</time>
      </trkpt>
      <trkpt lat="43.31267" lon="5.67452">
        <ele>665.5</ele>
        <time>2014-03-19T08:45:57Z</time>
      </trkpt>
      <trkpt lat="43.31269" lon="5.67458">
        <ele>664</ele>
        <time>2014-03-19T08:46:02Z</time>
      </trkpt>
      <trkpt lat="43.3127" lon="5.67463">
        <ele>664.5</ele>
        <time>2014-03-19T08:46:06Z</time>
      </trkpt>
      <trkpt lat="43.31272" lon="5.67468">
        <ele>663.2</ele>
        <time>2014-03-19T08:46:10Z</time>
      </trkpt>
      <trkpt lat="43.31274" lon="5.67474">
        <ele>662.4</ele>
        <time>2014-03-19T08:46:14Z</time>
      </trkpt>
      <trkpt lat="43.31276" lon="5.67478">
        <ele>661.4</ele>
        <time>2014-03-19T08:46:17Z</time>
      </trkpt>
      <trkpt lat="43.31279" lon="5.67481">
        <ele>659.5</ele>
        <time>2014-03-19T08:46:20Z</time>
      </trkpt>
      <trkpt lat="43.31281" lon="5.67486">
        <ele>659.2</ele>
        <time>2014-03-19T08:46:24Z</time>
      </trkpt>
      <trkpt lat="43.31282" lon="5.67492">
        <ele>659.7</ele>
        <time>2014-03-19T08:46:28Z</time>
      </trkpt>
      <trkpt lat="43.31282" lon="5.67494">
        <ele>661.2</ele>
        <time>2014-03-19T08:46:29Z</time>
      </trkpt>
      <trkpt lat="43.31285" lon="5.67502">
        <ele>659</ele>
        <time>2014-03-19T08:46:36Z</time>
      </trkpt>
      <trkpt lat="43.31288" lon="5.67506">
        <ele>657.7</ele>
        <time>2014-03-19T08:46:39Z</time>
      </trkpt>
      <trkpt lat="43.3129" lon="5.67511">
        <ele>656.4</ele>
        <time>2014-03-19T08:46:43Z</time>
      </trkpt>
      <trkpt lat="43.31292" lon="5.67515">
        <ele>654.7</ele>
        <time>2014-03-19T08:46:47Z</time>
      </trkpt>
      <trkpt lat="43.31294" lon="5.6752">
        <ele>653.7</ele>
        <time>2014-03-19T08:46:51Z</time>
      </trkpt>
      <trkpt lat="43.31296" lon="5.67526">
        <ele>653.2</ele>
        <time>2014-03-19T08:46:55Z</time>
      </trkpt>
      <trkpt lat="43.31298" lon="5.67529">
        <ele>652.5</ele>
        <time>2014-03-19T08:46:58Z</time>
      </trkpt>
      <trkpt lat="43.313" lon="5.67533">
        <ele>650.5</ele>
        <time>2014-03-19T08:47:01Z</time>
      </trkpt>
      <trkpt lat="43.31303" lon="5.67537">
        <ele>648.9</ele>
        <time>2014-03-19T08:47:04Z</time>
      </trkpt>
      <trkpt lat="43.31305" lon="5.67542">
        <ele>648.5</ele>
        <time>2014-03-19T08:47:08Z</time>
      </trkpt>
      <trkpt lat="43.31306" lon="5.67548">
        <ele>648.5</ele>
        <time>2014-03-19T08:47:12Z</time>
      </trkpt>
      <trkpt lat="43.31307" lon="5.67553">
        <ele>647.9</ele>
        <time>2014-03-19T08:47:16Z</time>
      </trkpt>
      <trkpt lat="43.31308" lon="5.67558">
        <ele>647.5</ele>
        <time>2014-03-19T08:47:19Z</time>
      </trkpt>
      <trkpt lat="43.31309" lon="5.67563">
        <ele>647.7</ele>
        <time>2014-03-19T08:47:22Z</time>
      </trkpt>
      <trkpt lat="43.31308" lon="5.67568">
        <ele>648.4</ele>
        <time>2014-03-19T08:47:25Z</time>
      </trkpt>
      <trkpt lat="43.31308" lon="5.67573">
        <ele>648.2</ele>
        <time>2014-03-19T08:47:29Z</time>
      </trkpt>
      <trkpt lat="43.31308" lon="5.67575">
        <ele>648.5</ele>
        <time>2014-03-19T08:47:30Z</time>
      </trkpt>
      <trkpt lat="43.31304" lon="5.67581">
        <ele>656.2</ele>
        <time>2014-03-19T08:47:33Z</time>
      </trkpt>
      <trkpt lat="43.31301" lon="5.67585">
        <ele>657.5</ele>
        <time>2014-03-19T08:47:37Z</time>
      </trkpt>
      <trkpt lat="43.31298" lon="5.67588">
        <ele>656.9</ele>
        <time>2014-03-19T08:47:48Z</time>
      </trkpt>
      <trkpt lat="43.31296" lon="5.67594">
        <ele>659.7</ele>
        <time>2014-03-19T08:48:37Z</time>
      </trkpt>
      <trkpt lat="43.31296" lon="5.67594">
        <ele>659.7</ele>
        <time>2014-03-19T08:48:38Z</time>
      </trkpt>
      <trkpt lat="43.31303" lon="5.67601">
        <ele>666.7</ele>
        <time>2014-03-19T08:50:10Z</time>
      </trkpt>
      <trkpt lat="43.31304" lon="5.67601">
        <ele>666.2</ele>
        <time>2014-03-19T08:50:11Z</time>
      </trkpt>
      <trkpt lat="43.31304" lon="5.67607">
        <ele>667.4</ele>
        <time>2014-03-19T08:51:32Z</time>
      </trkpt>
      <trkpt lat="43.3131" lon="5.67614">
        <ele>663</ele>
        <time>2014-03-19T08:51:41Z</time>
      </trkpt>
      <trkpt lat="43.31312" lon="5.67618">
        <ele>660.9</ele>
        <time>2014-03-19T08:51:45Z</time>
      </trkpt>
      <trkpt lat="43.31315" lon="5.67623">
        <ele>658.7</ele>
        <time>2014-03-19T08:51:50Z</time>
      </trkpt>
      <trkpt lat="43.31316" lon="5.67628">
        <ele>656.5</ele>
        <time>2014-03-19T08:51:55Z</time>
      </trkpt>
      <trkpt lat="43.31317" lon="5.67634">
        <ele>655</ele>
        <time>2014-03-19T08:52:00Z</time>
      </trkpt>
      <trkpt lat="43.31317" lon="5.6764">
        <ele>655.2</ele>
        <time>2014-03-19T08:52:04Z</time>
      </trkpt>
      <trkpt lat="43.31317" lon="5.67645">
        <ele>652.7</ele>
        <time>2014-03-19T08:52:09Z</time>
      </trkpt>
      <trkpt lat="43.31314" lon="5.67648">
        <ele>653.7</ele>
        <time>2014-03-19T08:52:17Z</time>
      </trkpt>
      <trkpt lat="43.3131" lon="5.6765">
        <ele>653.7</ele>
        <time>2014-03-19T08:52:24Z</time>
      </trkpt>
      <trkpt lat="43.31307" lon="5.67654">
        <ele>653.7</ele>
        <time>2014-03-19T08:52:32Z</time>
      </trkpt>
      <trkpt lat="43.31304" lon="5.67659">
        <ele>654.9</ele>
        <time>2014-03-19T08:52:39Z</time>
      </trkpt>
      <trkpt lat="43.31304" lon="5.67659">
        <ele>655</ele>
        <time>2014-03-19T08:52:40Z</time>
      </trkpt>
      <trkpt lat="43.31304" lon="5.6767">
        <ele>658.5</ele>
        <time>2014-03-19T08:52:53Z</time>
      </trkpt>
      <trkpt lat="43.31304" lon="5.67676">
        <ele>659.7</ele>
        <time>2014-03-19T08:53:01Z</time>
      </trkpt>
      <trkpt lat="43.31304" lon="5.67681">
        <ele>661.7</ele>
        <time>2014-03-19T08:53:07Z</time>
      </trkpt>
      <trkpt lat="43.31305" lon="5.67687">
        <ele>663</ele>
        <time>2014-03-19T08:53:15Z</time>
      </trkpt>
      <trkpt lat="43.31307" lon="5.67692">
        <ele>664.4</ele>
        <time>2014-03-19T08:53:23Z</time>
      </trkpt>
      <trkpt lat="43.31308" lon="5.67698">
        <ele>665.7</ele>
        <time>2014-03-19T08:53:30Z</time>
      </trkpt>
      <trkpt lat="43.3131" lon="5.67703">
        <ele>666.9</ele>
        <time>2014-03-19T08:53:37Z</time>
      </trkpt>
      <trkpt lat="43.31312" lon="5.67709">
        <ele>667.9</ele>
        <time>2014-03-19T08:53:44Z</time>
      </trkpt>
      <trkpt lat="43.31312" lon="5.67709">
        <ele>668</ele>
        <time>2014-03-19T08:53:45Z</time>
      </trkpt>
      <trkpt lat="43.31316" lon="5.67718">
        <ele>670.2</ele>
        <time>2014-03-19T08:53:58Z</time>
      </trkpt>
      <trkpt lat="43.31318" lon="5.67723">
        <ele>670.7</ele>
        <time>2014-03-19T08:54:04Z</time>
      </trkpt>
      <trkpt lat="43.3132" lon="5.67727">
        <ele>669.7</ele>
        <time>2014-03-19T08:54:09Z</time>
      </trkpt>
      <trkpt lat="43.31322" lon="5.67733">
        <ele>670.2</ele>
        <time>2014-03-19T08:54:16Z</time>
      </trkpt>
      <trkpt lat="43.31324" lon="5.67738">
        <ele>671.2</ele>
        <time>2014-03-19T08:54:23Z</time>
      </trkpt>
      <trkpt lat="43.31325" lon="5.67743">
        <ele>673</ele>
        <time>2014-03-19T08:54:30Z</time>
      </trkpt>
      <trkpt lat="43.31325" lon="5.67749">
        <ele>674.9</ele>
        <time>2014-03-19T08:54:36Z</time>
      </trkpt>
      <trkpt lat="43.31325" lon="5.67755">
        <ele>675</ele>
        <time>2014-03-19T08:54:42Z</time>
      </trkpt>
      <trkpt lat="43.31325" lon="5.6776">
        <ele>675.5</ele>
        <time>2014-03-19T08:54:48Z</time>
      </trkpt>
      <trkpt lat="43.31325" lon="5.67761">
        <ele>675.4</ele>
        <time>2014-03-19T08:54:49Z</time>
      </trkpt>
      <trkpt lat="43.31324" lon="5.67771">
        <ele>673.5</ele>
        <time>2014-03-19T08:55:00Z</time>
      </trkpt>
      <trkpt lat="43.31322" lon="5.67776">
        <ele>674</ele>
        <time>2014-03-19T08:55:04Z</time>
      </trkpt>
      <trkpt lat="43.31321" lon="5.67782">
        <ele>673</ele>
        <time>2014-03-19T08:55:09Z</time>
      </trkpt>
      <trkpt lat="43.3132" lon="5.67787">
        <ele>671.9</ele>
        <time>2014-03-19T08:55:14Z</time>
      </trkpt>
      <trkpt lat="43.31319" lon="5.67792">
        <ele>671</ele>
        <time>2014-03-19T08:55:19Z</time>
      </trkpt>
      <trkpt lat="43.31317" lon="5.67798">
        <ele>672.2</ele>
        <time>2014-03-19T08:55:23Z</time>
      </trkpt>
      <trkpt lat="43.31317" lon="5.67803">
        <ele>671.2</ele>
        <time>2014-03-19T08:55:29Z</time>
      </trkpt>
      <trkpt lat="43.31316" lon="5.67809">
        <ele>675</ele>
        <time>2014-03-19T08:55:34Z</time>
      </trkpt>
      <trkpt lat="43.31318" lon="5.67814">
        <ele>675.7</ele>
        <time>2014-03-19T08:55:39Z</time>
      </trkpt>
      <trkpt lat="43.3132" lon="5.6782">
        <ele>678.9</ele>
        <time>2014-03-19T08:55:45Z</time>
      </trkpt>
      <trkpt lat="43.31321" lon="5.67825">
        <ele>681.7</ele>
        <time>2014-03-19T08:55:52Z</time>
      </trkpt>
      <trkpt lat="43.31321" lon="5.67826">
        <ele>681.7</ele>
        <time>2014-03-19T08:55:53Z</time>
      </trkpt>
      <trkpt lat="43.31322" lon="5.67836">
        <ele>684.7</ele>
        <time>2014-03-19T08:56:04Z</time>
      </trkpt>
      <trkpt lat="43.31323" lon="5.67842">
        <ele>685.5</ele>
        <time>2014-03-19T08:56:11Z</time>
      </trkpt>
      <trkpt lat="43.31324" lon="5.67847">
        <ele>685.2</ele>
        <time>2014-03-19T08:56:18Z</time>
      </trkpt>
      <trkpt lat="43.31325" lon="5.67853">
        <ele>687.9</ele>
        <time>2014-03-19T08:56:26Z</time>
      </trkpt>
      <trkpt lat="43.31324" lon="5.67858">
        <ele>694.5</ele>
        <time>2014-03-19T08:56:33Z</time>
      </trkpt>
      <trkpt lat="43.31326" lon="5.67863">
        <ele>694</ele>
        <time>2014-03-19T08:56:40Z</time>
      </trkpt>
      <trkpt lat="43.31327" lon="5.67869">
        <ele>694</ele>
        <time>2014-03-19T08:56:46Z</time>
      </trkpt>
      <trkpt lat="43.31329" lon="5.67874">
        <ele>694.2</ele>
        <time>2014-03-19T08:56:52Z</time>
      </trkpt>
      <trkpt lat="43.31329" lon="5.6788">
        <ele>697.5</ele>
        <time>2014-03-19T08:57:00Z</time>
      </trkpt>
      <trkpt lat="43.3133" lon="5.67881">
        <ele>697.5</ele>
        <time>2014-03-19T08:57:01Z</time>
      </trkpt>
      <trkpt lat="43.31331" lon="5.67891">
        <ele>702.4</ele>
        <time>2014-03-19T08:57:17Z</time>
      </trkpt>
      <trkpt lat="43.31335" lon="5.67894">
        <ele>701.7</ele>
        <time>2014-03-19T08:57:27Z</time>
      </trkpt>
      <trkpt lat="43.31339" lon="5.67896">
        <ele>702</ele>
        <time>2014-03-19T08:57:32Z</time>
      </trkpt>
      <trkpt lat="43.31342" lon="5.67901">
        <ele>701</ele>
        <time>2014-03-19T08:57:38Z</time>
      </trkpt>
      <trkpt lat="43.31341" lon="5.67907">
        <ele>702.2</ele>
        <time>2014-03-19T08:57:49Z</time>
      </trkpt>
      <trkpt lat="43.31338" lon="5.67911">
        <ele>702.9</ele>
        <time>2014-03-19T08:57:57Z</time>
      </trkpt>
      <trkpt lat="43.31335" lon="5.67914">
        <ele>704.7</ele>
        <time>2014-03-19T08:58:06Z</time>
      </trkpt>
      <trkpt lat="43.31334" lon="5.67915">
        <ele>704.5</ele>
        <time>2014-03-19T08:58:07Z</time>
      </trkpt>
      <trkpt lat="43.31331" lon="5.67925">
        <ele>707.7</ele>
        <time>2014-03-19T08:58:23Z</time>
      </trkpt>
      <trkpt lat="43.3133" lon="5.6793">
        <ele>709.7</ele>
        <time>2014-03-19T08:58:31Z</time>
      </trkpt>
      <trkpt lat="43.31331" lon="5.67936">
        <ele>710.2</ele>
        <time>2014-03-19T08:58:38Z</time>
      </trkpt>
      <trkpt lat="43.3133" lon="5.67942">
        <ele>714.2</ele>
        <time>2014-03-19T08:58:50Z</time>
      </trkpt>
      <trkpt lat="43.31327" lon="5.67947">
        <ele>718.4</ele>
        <time>2014-03-19T08:59:02Z</time>
      </trkpt>
      <trkpt lat="43.31325" lon="5.67953">
        <ele>722</ele>
        <time>2014-03-19T08:59:19Z</time>
      </trkpt>
      <trkpt lat="43.31325" lon="5.67953">
        <ele>722</ele>
        <time>2014-03-19T08:59:20Z</time>
      </trkpt>
      <trkpt lat="43.31326" lon="5.67964">
        <ele>725.7</ele>
        <time>2014-03-19T08:59:34Z</time>
      </trkpt>
      <trkpt lat="43.31328" lon="5.67969">
        <ele>726.5</ele>
        <time>2014-03-19T08:59:41Z</time>
      </trkpt>
      <trkpt lat="43.31331" lon="5.67974">
        <ele>724.7</ele>
        <time>2014-03-19T08:59:49Z</time>
      </trkpt>
      <trkpt lat="43.31334" lon="5.67978">
        <ele>724.9</ele>
        <time>2014-03-19T08:59:57Z</time>
      </trkpt>
      <trkpt lat="43.31334" lon="5.67984">
        <ele>726.7</ele>
        <time>2014-03-19T09:00:09Z</time>
      </trkpt>
      <trkpt lat="43.31335" lon="5.6799">
        <ele>727.9</ele>
        <time>2014-03-19T09:00:19Z</time>
      </trkpt>
      <trkpt lat="43.3133" lon="5.67992">
        <ele>732.2</ele>
        <time>2014-03-19T09:00:31Z</time>
      </trkpt>
      <trkpt lat="43.3133" lon="5.67991">
        <ele>732.4</ele>
        <time>2014-03-19T09:00:32Z</time>
      </trkpt>
      <trkpt lat="43.31322" lon="5.67993">
        <ele>735.5</ele>
        <time>2014-03-19T09:00:53Z</time>
      </trkpt>
      <trkpt lat="43.31318" lon="5.67996">
        <ele>737.9</ele>
        <time>2014-03-19T09:01:07Z</time>
      </trkpt>
      <trkpt lat="43.31316" lon="5.68">
        <ele>738.5</ele>
        <time>2014-03-19T09:01:13Z</time>
      </trkpt>
      <trkpt lat="43.31315" lon="5.68006">
        <ele>744</ele>
        <time>2014-03-19T09:01:27Z</time>
      </trkpt>
      <trkpt lat="43.31312" lon="5.68008">
        <ele>746.2</ele>
        <time>2014-03-19T09:01:32Z</time>
      </trkpt>
      <trkpt lat="43.31309" lon="5.6801">
        <ele>746</ele>
        <time>2014-03-19T09:01:38Z</time>
      </trkpt>
      <trkpt lat="43.31308" lon="5.6801">
        <ele>745.5</ele>
        <time>2014-03-19T09:01:39Z</time>
      </trkpt>
      <trkpt lat="43.31301" lon="5.68012">
        <ele>741.5</ele>
        <time>2014-03-19T09:01:45Z</time>
      </trkpt>
      <trkpt lat="43.313" lon="5.68014">
        <ele>741</ele>
        <time>2014-03-19T09:01:46Z</time>
      </trkpt>
      <trkpt lat="43.313" lon="5.6802">
        <ele>740</ele>
        <time>2014-03-19T09:01:49Z</time>
      </trkpt>
      <trkpt lat="43.31299" lon="5.68025">
        <ele>739</ele>
        <time>2014-03-19T09:01:53Z</time>
      </trkpt>
      <trkpt lat="43.31298" lon="5.6803">
        <ele>738</ele>
        <time>2014-03-19T09:01:57Z</time>
      </trkpt>
      <trkpt lat="43.31298" lon="5.68033">
        <ele>737.5</ele>
        <time>2014-03-19T09:01:59Z</time>
      </trkpt>
      <trkpt lat="43.31301" lon="5.6806">
        <ele>735.7</ele>
        <time>2014-03-19T09:02:00Z</time>
      </trkpt>
      <trkpt lat="43.31299" lon="5.68067">
        <ele>735.5</ele>
        <time>2014-03-19T09:02:01Z</time>
      </trkpt>
      <trkpt lat="43.31306" lon="5.6807">
        <ele>735.5</ele>
        <time>2014-03-19T09:02:02Z</time>
      </trkpt>
      <trkpt lat="43.31308" lon="5.68069">
        <ele>735.5</ele>
        <time>2014-03-19T09:02:03Z</time>
      </trkpt>
      <trkpt lat="43.31312" lon="5.68067">
        <ele>735.5</ele>
        <time>2014-03-19T09:02:06Z</time>
      </trkpt>
      <trkpt lat="43.31309" lon="5.68067">
        <ele>742.5</ele>
        <time>2014-03-19T09:02:10Z</time>
      </trkpt>
      <trkpt lat="43.31306" lon="5.68065">
        <ele>743.4</ele>
        <time>2014-03-19T09:02:12Z</time>
      </trkpt>
      <trkpt lat="43.31302" lon="5.68066">
        <ele>751</ele>
        <time>2014-03-19T09:02:22Z</time>
      </trkpt>
      <trkpt lat="43.31306" lon="5.6807">
        <ele>751.5</ele>
        <time>2014-03-19T09:02:37Z</time>
      </trkpt>
      <trkpt lat="43.31304" lon="5.68074">
        <ele>739.2</ele>
        <time>2014-03-19T09:03:58Z</time>
      </trkpt>
      <trkpt lat="43.31303" lon="5.68075">
        <ele>738.7</ele>
        <time>2014-03-19T09:03:59Z</time>
      </trkpt>
      <trkpt lat="43.31302" lon="5.68085">
        <ele>735.2</ele>
        <time>2014-03-19T09:04:10Z</time>
      </trkpt>
      <trkpt lat="43.31303" lon="5.6809">
        <ele>737.2</ele>
        <time>2014-03-19T09:04:17Z</time>
      </trkpt>
      <trkpt lat="43.31302" lon="5.68095">
        <ele>735.9</ele>
        <time>2014-03-19T09:04:28Z</time>
      </trkpt>
      <trkpt lat="43.31299" lon="5.681">
        <ele>737.4</ele>
        <time>2014-03-19T09:04:36Z</time>
      </trkpt>
      <trkpt lat="43.31296" lon="5.68104">
        <ele>738</ele>
        <time>2014-03-19T09:04:45Z</time>
      </trkpt>
      <trkpt lat="43.31293" lon="5.68108">
        <ele>738.7</ele>
        <time>2014-03-19T09:04:53Z</time>
      </trkpt>
      <trkpt lat="43.31291" lon="5.68103">
        <ele>747.7</ele>
        <time>2014-03-19T09:06:37Z</time>
      </trkpt>
      <trkpt lat="43.31291" lon="5.68103">
        <ele>747.7</ele>
        <time>2014-03-19T09:06:38Z</time>
      </trkpt>
      <trkpt lat="43.31288" lon="5.68107">
        <ele>742.4</ele>
        <time>2014-03-19T09:09:40Z</time>
      </trkpt>
      <trkpt lat="43.31283" lon="5.68115">
        <ele>738</ele>
        <time>2014-03-19T09:10:29Z</time>
      </trkpt>
      <trkpt lat="43.3128" lon="5.68119">
        <ele>738.2</ele>
        <time>2014-03-19T09:10:34Z</time>
      </trkpt>
      <trkpt lat="43.31276" lon="5.68123">
        <ele>739.2</ele>
        <time>2014-03-19T09:10:39Z</time>
      </trkpt>
      <trkpt lat="43.31273" lon="5.68127">
        <ele>740</ele>
        <time>2014-03-19T09:10:44Z</time>
      </trkpt>
      <trkpt lat="43.31273" lon="5.68127">
        <ele>740.2</ele>
        <time>2014-03-19T09:10:45Z</time>
      </trkpt>
      <trkpt lat="43.31268" lon="5.68134">
        <ele>740.5</ele>
        <time>2014-03-19T09:10:54Z</time>
      </trkpt>
      <trkpt lat="43.31266" lon="5.6814">
        <ele>740.4</ele>
        <time>2014-03-19T09:10:59Z</time>
      </trkpt>
      <trkpt lat="43.31263" lon="5.68144">
        <ele>739.4</ele>
        <time>2014-03-19T09:11:06Z</time>
      </trkpt>
      <trkpt lat="43.31259" lon="5.68145">
        <ele>740</ele>
        <time>2014-03-19T09:11:11Z</time>
      </trkpt>
      <trkpt lat="43.31255" lon="5.68146">
        <ele>740</ele>
        <time>2014-03-19T09:12:05Z</time>
      </trkpt>
      <trkpt lat="43.31254" lon="5.68145">
        <ele>739.9</ele>
        <time>2014-03-19T09:12:06Z</time>
      </trkpt>
      <trkpt lat="43.31261" lon="5.68139">
        <ele>740.2</ele>
        <time>2014-03-19T09:12:43Z</time>
      </trkpt>
      <trkpt lat="43.31264" lon="5.68135">
        <ele>740.7</ele>
        <time>2014-03-19T09:12:52Z</time>
      </trkpt>
      <trkpt lat="43.31269" lon="5.68133">
        <ele>741.4</ele>
        <time>2014-03-19T09:13:00Z</time>
      </trkpt>
      <trkpt lat="43.31272" lon="5.6813">
        <ele>741.5</ele>
        <time>2014-03-19T09:13:14Z</time>
      </trkpt>
      <trkpt lat="43.31272" lon="5.68129">
        <ele>741.4</ele>
        <time>2014-03-19T09:13:15Z</time>
      </trkpt>
      <trkpt lat="43.31276" lon="5.68121">
        <ele>739.7</ele>
        <time>2014-03-19T09:13:25Z</time>
      </trkpt>
      <trkpt lat="43.31279" lon="5.68117">
        <ele>738.7</ele>
        <time>2014-03-19T09:13:31Z</time>
      </trkpt>
      <trkpt lat="43.31282" lon="5.68113">
        <ele>738.7</ele>
        <time>2014-03-19T09:13:38Z</time>
      </trkpt>
      <trkpt lat="43.31285" lon="5.68111">
        <ele>741.7</ele>
        <time>2014-03-19T09:13:51Z</time>
      </trkpt>
      <trkpt lat="43.31289" lon="5.68108">
        <ele>740.7</ele>
        <time>2014-03-19T09:14:01Z</time>
      </trkpt>
      <trkpt lat="43.31293" lon="5.68107">
        <ele>742.5</ele>
        <time>2014-03-19T09:14:22Z</time>
      </trkpt>
      <trkpt lat="43.31294" lon="5.68107">
        <ele>742.5</ele>
        <time>2014-03-19T09:14:23Z</time>
      </trkpt>
      <trkpt lat="43.31302" lon="5.68109">
        <ele>744.5</ele>
        <time>2014-03-19T09:14:36Z</time>
      </trkpt>
      <trkpt lat="43.31306" lon="5.6811">
        <ele>743.9</ele>
        <time>2014-03-19T09:14:44Z</time>
      </trkpt>
      <trkpt lat="43.31309" lon="5.68112">
        <ele>741.5</ele>
        <time>2014-03-19T09:14:49Z</time>
      </trkpt>
      <trkpt lat="43.31313" lon="5.68115">
        <ele>741.7</ele>
        <time>2014-03-19T09:14:54Z</time>
      </trkpt>
      <trkpt lat="43.31316" lon="5.68118">
        <ele>740.7</ele>
        <time>2014-03-19T09:14:59Z</time>
      </trkpt>
      <trkpt lat="43.31319" lon="5.68122">
        <ele>739.9</ele>
        <time>2014-03-19T09:15:04Z</time>
      </trkpt>
      <trkpt lat="43.31322" lon="5.68126">
        <ele>738.5</ele>
        <time>2014-03-19T09:15:09Z</time>
      </trkpt>
      <trkpt lat="43.31325" lon="5.6813">
        <ele>739.2</ele>
        <time>2014-03-19T09:15:14Z</time>
      </trkpt>
      <trkpt lat="43.31329" lon="5.68133">
        <ele>739.2</ele>
        <time>2014-03-19T09:15:20Z</time>
      </trkpt>
      <trkpt lat="43.31332" lon="5.68135">
        <ele>740</ele>
        <time>2014-03-19T09:15:26Z</time>
      </trkpt>
      <trkpt lat="43.31333" lon="5.68136">
        <ele>739.9</ele>
        <time>2014-03-19T09:15:27Z</time>
      </trkpt>
      <trkpt lat="43.31339" lon="5.68141">
        <ele>737.7</ele>
        <time>2014-03-19T09:15:36Z</time>
      </trkpt>
      <trkpt lat="43.31342" lon="5.68145">
        <ele>737.5</ele>
        <time>2014-03-19T09:15:40Z</time>
      </trkpt>
      <trkpt lat="43.31346" lon="5.68147">
        <ele>736.9</ele>
        <time>2014-03-19T09:15:45Z</time>
      </trkpt>
      <trkpt lat="43.31349" lon="5.68148">
        <ele>735.9</ele>
        <time>2014-03-19T09:15:50Z</time>
      </trkpt>
      <trkpt lat="43.31353" lon="5.68151">
        <ele>737.5</ele>
        <time>2014-03-19T09:15:55Z</time>
      </trkpt>
      <trkpt lat="43.31357" lon="5.68154">
        <ele>738.2</ele>
        <time>2014-03-19T09:16:00Z</time>
      </trkpt>
      <trkpt lat="43.31361" lon="5.68154">
        <ele>739.2</ele>
        <time>2014-03-19T09:16:06Z</time>
      </trkpt>
      <trkpt lat="43.31364" lon="5.68154">
        <ele>740.2</ele>
        <time>2014-03-19T09:16:10Z</time>
      </trkpt>
      <trkpt lat="43.31367" lon="5.68156">
        <ele>739.5</ele>
        <time>2014-03-19T09:16:13Z</time>
      </trkpt>
      <trkpt lat="43.3137" lon="5.68159">
        <ele>741.5</ele>
        <time>2014-03-19T09:16:17Z</time>
      </trkpt>
      <trkpt lat="43.31373" lon="5.68163">
        <ele>743.4</ele>
        <time>2014-03-19T09:16:22Z</time>
      </trkpt>
      <trkpt lat="43.31376" lon="5.68166">
        <ele>744</ele>
        <time>2014-03-19T09:16:27Z</time>
      </trkpt>
      <trkpt lat="43.31377" lon="5.68166">
        <ele>744.5</ele>
        <time>2014-03-19T09:16:28Z</time>
      </trkpt>
      <trkpt lat="43.31383" lon="5.68173">
        <ele>747</ele>
        <time>2014-03-19T09:16:38Z</time>
      </trkpt>
      <trkpt lat="43.31387" lon="5.68175">
        <ele>748.2</ele>
        <time>2014-03-19T09:16:44Z</time>
      </trkpt>
      <trkpt lat="43.3139" lon="5.68179">
        <ele>751</ele>
        <time>2014-03-19T09:16:51Z</time>
      </trkpt>
      <trkpt lat="43.31392" lon="5.68183">
        <ele>753.9</ele>
        <time>2014-03-19T09:17:00Z</time>
      </trkpt>
      <trkpt lat="43.31397" lon="5.68183">
        <ele>757.7</ele>
        <time>2014-03-19T09:17:09Z</time>
      </trkpt>
      <trkpt lat="43.31401" lon="5.68185">
        <ele>759.2</ele>
        <time>2014-03-19T09:17:17Z</time>
      </trkpt>
      <trkpt lat="43.31404" lon="5.68187">
        <ele>760.5</ele>
        <time>2014-03-19T09:17:27Z</time>
      </trkpt>
      <trkpt lat="43.31409" lon="5.68188">
        <ele>761.7</ele>
        <time>2014-03-19T09:17:37Z</time>
      </trkpt>
      <trkpt lat="43.31409" lon="5.68189">
        <ele>762</ele>
        <time>2014-03-19T09:17:38Z</time>
      </trkpt>
      <trkpt lat="43.31414" lon="5.68197">
        <ele>765.4</ele>
        <time>2014-03-19T09:17:53Z</time>
      </trkpt>
      <trkpt lat="43.31418" lon="5.68201">
        <ele>766.5</ele>
        <time>2014-03-19T09:18:02Z</time>
      </trkpt>
      <trkpt lat="43.3142" lon="5.68205">
        <ele>766.5</ele>
        <time>2014-03-19T09:18:10Z</time>
      </trkpt>
      <trkpt lat="43.31422" lon="5.6821">
        <ele>766.5</ele>
        <time>2014-03-19T09:18:16Z</time>
      </trkpt>
      <trkpt lat="43.31423" lon="5.68216">
        <ele>765.5</ele>
        <time>2014-03-19T09:18:24Z</time>
      </trkpt>
      <trkpt lat="43.31424" lon="5.68222">
        <ele>765.9</ele>
        <time>2014-03-19T09:18:29Z</time>
      </trkpt>
      <trkpt lat="43.31427" lon="5.68227">
        <ele>767.2</ele>
        <time>2014-03-19T09:18:35Z</time>
      </trkpt>
      <trkpt lat="43.31429" lon="5.68231">
        <ele>767.7</ele>
        <time>2014-03-19T09:18:40Z</time>
      </trkpt>
      <trkpt lat="43.31429" lon="5.68232">
        <ele>768</ele>
        <time>2014-03-19T09:18:41Z</time>
      </trkpt>
      <trkpt lat="43.31434" lon="5.6824">
        <ele>770.2</ele>
        <time>2014-03-19T09:18:52Z</time>
      </trkpt>
      <trkpt lat="43.31436" lon="5.68245">
        <ele>772.2</ele>
        <time>2014-03-19T09:18:59Z</time>
      </trkpt>
      <trkpt lat="43.31438" lon="5.6825">
        <ele>773</ele>
        <time>2014-03-19T09:19:04Z</time>
      </trkpt>
      <trkpt lat="43.31441" lon="5.68254">
        <ele>774.7</ele>
        <time>2014-03-19T09:19:10Z</time>
      </trkpt>
      <trkpt lat="43.31445" lon="5.68257">
        <ele>776.2</ele>
        <time>2014-03-19T09:19:17Z</time>
      </trkpt>
      <trkpt lat="43.31448" lon="5.68261">
        <ele>777.2</ele>
        <time>2014-03-19T09:19:23Z</time>
      </trkpt>
      <trkpt lat="43.31451" lon="5.68266">
        <ele>777.9</ele>
        <time>2014-03-19T09:19:29Z</time>
      </trkpt>
      <trkpt lat="43.31454" lon="5.68269">
        <ele>778.7</ele>
        <time>2014-03-19T09:19:34Z</time>
      </trkpt>
      <trkpt lat="43.31457" lon="5.68273">
        <ele>779.4</ele>
        <time>2014-03-19T09:19:40Z</time>
      </trkpt>
      <trkpt lat="43.3146" lon="5.68277">
        <ele>778.7</ele>
        <time>2014-03-19T09:19:45Z</time>
      </trkpt>
      <trkpt lat="43.3146" lon="5.68277">
        <ele>778.7</ele>
        <time>2014-03-19T09:19:46Z</time>
      </trkpt>
      <trkpt lat="43.31463" lon="5.68287">
        <ele>778</ele>
        <time>2014-03-19T09:19:56Z</time>
      </trkpt>
      <trkpt lat="43.31465" lon="5.68292">
        <ele>777.9</ele>
        <time>2014-03-19T09:20:01Z</time>
      </trkpt>
      <trkpt lat="43.31469" lon="5.68295">
        <ele>778.5</ele>
        <time>2014-03-19T09:20:07Z</time>
      </trkpt>
      <trkpt lat="43.31472" lon="5.68298">
        <ele>781.4</ele>
        <time>2014-03-19T09:20:15Z</time>
      </trkpt>
      <trkpt lat="43.31474" lon="5.68303">
        <ele>781.7</ele>
        <time>2014-03-19T09:20:21Z</time>
      </trkpt>
      <trkpt lat="43.31476" lon="5.68308">
        <ele>781.5</ele>
        <time>2014-03-19T09:20:26Z</time>
      </trkpt>
      <trkpt lat="43.31478" lon="5.68312">
        <ele>782.4</ele>
        <time>2014-03-19T09:20:30Z</time>
      </trkpt>
      <trkpt lat="43.31481" lon="5.68316">
        <ele>782.2</ele>
        <time>2014-03-19T09:20:35Z</time>
      </trkpt>
      <trkpt lat="43.31483" lon="5.68321">
        <ele>782.5</ele>
        <time>2014-03-19T09:20:40Z</time>
      </trkpt>
      <trkpt lat="43.31485" lon="5.68326">
        <ele>781.7</ele>
        <time>2014-03-19T09:20:46Z</time>
      </trkpt>
      <trkpt lat="43.31485" lon="5.68327">
        <ele>781.7</ele>
        <time>2014-03-19T09:20:47Z</time>
      </trkpt>
      <trkpt lat="43.3149" lon="5.68335">
        <ele>782.5</ele>
        <time>2014-03-19T09:20:57Z</time>
      </trkpt>
      <trkpt lat="43.31493" lon="5.68339">
        <ele>785</ele>
        <time>2014-03-19T09:21:05Z</time>
      </trkpt>
      <trkpt lat="43.31496" lon="5.68344">
        <ele>786.7</ele>
        <time>2014-03-19T09:21:13Z</time>
      </trkpt>
      <trkpt lat="43.31497" lon="5.6835">
        <ele>788.9</ele>
        <time>2014-03-19T09:21:20Z</time>
      </trkpt>
      <trkpt lat="43.31499" lon="5.68354">
        <ele>790</ele>
        <time>2014-03-19T09:21:26Z</time>
      </trkpt>
      <trkpt lat="43.31502" lon="5.68358">
        <ele>790.5</ele>
        <time>2014-03-19T09:21:32Z</time>
      </trkpt>
      <trkpt lat="43.31504" lon="5.68362">
        <ele>790.2</ele>
        <time>2014-03-19T09:21:38Z</time>
      </trkpt>
      <trkpt lat="43.31506" lon="5.68367">
        <ele>791.5</ele>
        <time>2014-03-19T09:21:44Z</time>
      </trkpt>
      <trkpt lat="43.31507" lon="5.68373">
        <ele>793.2</ele>
        <time>2014-03-19T09:21:51Z</time>
      </trkpt>
      <trkpt lat="43.31506" lon="5.68374">
        <ele>793.5</ele>
        <time>2014-03-19T09:21:52Z</time>
      </trkpt>
      <trkpt lat="43.31506" lon="5.68383">
        <ele>796.5</ele>
        <time>2014-03-19T09:22:04Z</time>
      </trkpt>
      <trkpt lat="43.31507" lon="5.68389">
        <ele>797</ele>
        <time>2014-03-19T09:22:09Z</time>
      </trkpt>
      <trkpt lat="43.31507" lon="5.68394">
        <ele>797</ele>
        <time>2014-03-19T09:22:15Z</time>
      </trkpt>
      <trkpt lat="43.31507" lon="5.684">
        <ele>797.2</ele>
        <time>2014-03-19T09:22:21Z</time>
      </trkpt>
      <trkpt lat="43.31509" lon="5.68405">
        <ele>795.9</ele>
        <time>2014-03-19T09:22:27Z</time>
      </trkpt>
      <trkpt lat="43.31507" lon="5.6841">
        <ele>800.2</ele>
        <time>2014-03-19T09:22:48Z</time>
      </trkpt>
      <trkpt lat="43.31508" lon="5.68416">
        <ele>800.2</ele>
        <time>2014-03-19T09:22:55Z</time>
      </trkpt>
      <trkpt lat="43.31509" lon="5.68416">
        <ele>800.2</ele>
        <time>2014-03-19T09:22:56Z</time>
      </trkpt>
      <trkpt lat="43.31512" lon="5.68427">
        <ele>804.5</ele>
        <time>2014-03-19T09:23:12Z</time>
      </trkpt>
      <trkpt lat="43.31514" lon="5.68431">
        <ele>806.2</ele>
        <time>2014-03-19T09:23:22Z</time>
      </trkpt>
      <trkpt lat="43.31517" lon="5.68435">
        <ele>809</ele>
        <time>2014-03-19T09:23:31Z</time>
      </trkpt>
      <trkpt lat="43.31519" lon="5.68441">
        <ele>811.9</ele>
        <time>2014-03-19T09:23:39Z</time>
      </trkpt>
      <trkpt lat="43.31522" lon="5.68445">
        <ele>813</ele>
        <time>2014-03-19T09:23:48Z</time>
      </trkpt>
      <trkpt lat="43.31524" lon="5.6845">
        <ele>813</ele>
        <time>2014-03-19T09:23:55Z</time>
      </trkpt>
      <trkpt lat="43.31526" lon="5.68455">
        <ele>816.5</ele>
        <time>2014-03-19T09:24:04Z</time>
      </trkpt>
      <trkpt lat="43.31526" lon="5.68456">
        <ele>817</ele>
        <time>2014-03-19T09:24:05Z</time>
      </trkpt>
      <trkpt lat="43.31531" lon="5.68464">
        <ele>820</ele>
        <time>2014-03-19T09:24:22Z</time>
      </trkpt>
      <trkpt lat="43.31533" lon="5.6847">
        <ele>822.2</ele>
        <time>2014-03-19T09:24:32Z</time>
      </trkpt>
      <trkpt lat="43.31535" lon="5.68475">
        <ele>822.7</ele>
        <time>2014-03-19T09:24:43Z</time>
      </trkpt>
      <trkpt lat="43.31536" lon="5.68481">
        <ele>822.5</ele>
        <time>2014-03-19T09:24:53Z</time>
      </trkpt>
      <trkpt lat="43.31538" lon="5.68486">
        <ele>826.2</ele>
        <time>2014-03-19T09:25:05Z</time>
      </trkpt>
      <trkpt lat="43.31539" lon="5.68487">
        <ele>826.5</ele>
        <time>2014-03-19T09:25:06Z</time>
      </trkpt>
      <trkpt lat="43.31543" lon="5.68495">
        <ele>827.7</ele>
        <time>2014-03-19T09:25:29Z</time>
      </trkpt>
      <trkpt lat="43.31546" lon="5.685">
        <ele>827.7</ele>
        <time>2014-03-19T09:25:41Z</time>
      </trkpt>
      <trkpt lat="43.31549" lon="5.68504">
        <ele>828.2</ele>
        <time>2014-03-19T09:25:49Z</time>
      </trkpt>
      <trkpt lat="43.31551" lon="5.68509">
        <ele>829</ele>
        <time>2014-03-19T09:25:57Z</time>
      </trkpt>
      <trkpt lat="43.31555" lon="5.68512">
        <ele>829.5</ele>
        <time>2014-03-19T09:26:06Z</time>
      </trkpt>
      <trkpt lat="43.31555" lon="5.68512">
        <ele>830</ele>
        <time>2014-03-19T09:26:07Z</time>
      </trkpt>
      <trkpt lat="43.31562" lon="5.68519">
        <ele>837</ele>
        <time>2014-03-19T09:26:27Z</time>
      </trkpt>
      <trkpt lat="43.31566" lon="5.68521">
        <ele>839</ele>
        <time>2014-03-19T09:26:35Z</time>
      </trkpt>
      <trkpt lat="43.31568" lon="5.68526">
        <ele>840.2</ele>
        <time>2014-03-19T09:26:45Z</time>
      </trkpt>
      <trkpt lat="43.3157" lon="5.68531">
        <ele>843.2</ele>
        <time>2014-03-19T09:26:52Z</time>
      </trkpt>
      <trkpt lat="43.31572" lon="5.68536">
        <ele>843.5</ele>
        <time>2014-03-19T09:27:01Z</time>
      </trkpt>
      <trkpt lat="43.31574" lon="5.68541">
        <ele>844.4</ele>
        <time>2014-03-19T09:27:11Z</time>
      </trkpt>
      <trkpt lat="43.31574" lon="5.68541">
        <ele>844.2</ele>
        <time>2014-03-19T09:27:12Z</time>
      </trkpt>
      <trkpt lat="43.31582" lon="5.68545">
        <ele>850.7</ele>
        <time>2014-03-19T09:27:54Z</time>
      </trkpt>
      <trkpt lat="43.31585" lon="5.6855">
        <ele>853</ele>
        <time>2014-03-19T09:28:05Z</time>
      </trkpt>
      <trkpt lat="43.31588" lon="5.68554">
        <ele>854.7</ele>
        <time>2014-03-19T09:28:16Z</time>
      </trkpt>
      <trkpt lat="43.31588" lon="5.68554">
        <ele>855</ele>
        <time>2014-03-19T09:28:17Z</time>
      </trkpt>
      <trkpt lat="43.31593" lon="5.68564">
        <ele>857.7</ele>
        <time>2014-03-19T09:28:44Z</time>
      </trkpt>
      <trkpt lat="43.31597" lon="5.68566">
        <ele>859.7</ele>
        <time>2014-03-19T09:28:56Z</time>
      </trkpt>
      <trkpt lat="43.31601" lon="5.68566">
        <ele>860.7</ele>
        <time>2014-03-19T09:29:05Z</time>
      </trkpt>
      <trkpt lat="43.31604" lon="5.6857">
        <ele>862</ele>
        <time>2014-03-19T09:29:12Z</time>
      </trkpt>
      <trkpt lat="43.31608" lon="5.68573">
        <ele>862.9</ele>
        <time>2014-03-19T09:29:20Z</time>
      </trkpt>
      <trkpt lat="43.31608" lon="5.68573">
        <ele>862.9</ele>
        <time>2014-03-19T09:29:21Z</time>
      </trkpt>
      <trkpt lat="43.31614" lon="5.68581">
        <ele>865</ele>
        <time>2014-03-19T09:29:34Z</time>
      </trkpt>
      <trkpt lat="43.31617" lon="5.68585">
        <ele>866</ele>
        <time>2014-03-19T09:29:41Z</time>
      </trkpt>
      <trkpt lat="43.31619" lon="5.6859">
        <ele>867</ele>
        <time>2014-03-19T09:29:49Z</time>
      </trkpt>
      <trkpt lat="43.31622" lon="5.68594">
        <ele>867</ele>
        <time>2014-03-19T09:29:57Z</time>
      </trkpt>
      <trkpt lat="43.31625" lon="5.68598">
        <ele>867.5</ele>
        <time>2014-03-19T09:30:06Z</time>
      </trkpt>
      <trkpt lat="43.31629" lon="5.68602">
        <ele>868.2</ele>
        <time>2014-03-19T09:30:25Z</time>
      </trkpt>
      <trkpt lat="43.31629" lon="5.68602">
        <ele>868</ele>
        <time>2014-03-19T09:30:26Z</time>
      </trkpt>
      <trkpt lat="43.31634" lon="5.68608">
        <ele>870.2</ele>
        <time>2014-03-19T09:35:58Z</time>
      </trkpt>
      <trkpt lat="43.31634" lon="5.68609">
        <ele>870.2</ele>
        <time>2014-03-19T09:35:59Z</time>
      </trkpt>
      <trkpt lat="43.31633" lon="5.68619">
        <ele>869.2</ele>
        <time>2014-03-19T09:36:11Z</time>
      </trkpt>
      <trkpt lat="43.3163" lon="5.68624">
        <ele>869.5</ele>
        <time>2014-03-19T09:36:21Z</time>
      </trkpt>
      <trkpt lat="43.31628" lon="5.68629">
        <ele>871</ele>
        <time>2014-03-19T09:36:34Z</time>
      </trkpt>
      <trkpt lat="43.31628" lon="5.68635">
        <ele>872</ele>
        <time>2014-03-19T09:36:42Z</time>
      </trkpt>
      <trkpt lat="43.31626" lon="5.6864">
        <ele>873.2</ele>
        <time>2014-03-19T09:36:50Z</time>
      </trkpt>
      <trkpt lat="43.31625" lon="5.68645">
        <ele>875.2</ele>
        <time>2014-03-19T09:36:59Z</time>
      </trkpt>
      <trkpt lat="43.31624" lon="5.68646">
        <ele>875.4</ele>
        <time>2014-03-19T09:37:00Z</time>
      </trkpt>
      <trkpt lat="43.31621" lon="5.68656">
        <ele>877.2</ele>
        <time>2014-03-19T09:37:13Z</time>
      </trkpt>
      <trkpt lat="43.3162" lon="5.68661">
        <ele>877.7</ele>
        <time>2014-03-19T09:37:22Z</time>
      </trkpt>
      <trkpt lat="43.3162" lon="5.68666">
        <ele>878.9</ele>
        <time>2014-03-19T09:37:28Z</time>
      </trkpt>
      <trkpt lat="43.3162" lon="5.68672">
        <ele>879.5</ele>
        <time>2014-03-19T09:37:36Z</time>
      </trkpt>
      <trkpt lat="43.31622" lon="5.68677">
        <ele>881.5</ele>
        <time>2014-03-19T09:37:49Z</time>
      </trkpt>
      <trkpt lat="43.31624" lon="5.68683">
        <ele>882.5</ele>
        <time>2014-03-19T09:38:00Z</time>
      </trkpt>
      <trkpt lat="43.31624" lon="5.68684">
        <ele>882.4</ele>
        <time>2014-03-19T09:38:01Z</time>
      </trkpt>
      <trkpt lat="43.31624" lon="5.68693">
        <ele>882.5</ele>
        <time>2014-03-19T09:38:14Z</time>
      </trkpt>
      <trkpt lat="43.31623" lon="5.68698">
        <ele>883.5</ele>
        <time>2014-03-19T09:38:20Z</time>
      </trkpt>
      <trkpt lat="43.31625" lon="5.68703">
        <ele>883.7</ele>
        <time>2014-03-19T09:38:25Z</time>
      </trkpt>
      <trkpt lat="43.31627" lon="5.68707">
        <ele>883.7</ele>
        <time>2014-03-19T09:38:29Z</time>
      </trkpt>
      <trkpt lat="43.31629" lon="5.68712">
        <ele>883.5</ele>
        <time>2014-03-19T09:38:34Z</time>
      </trkpt>
      <trkpt lat="43.31631" lon="5.68716">
        <ele>883.5</ele>
        <time>2014-03-19T09:38:38Z</time>
      </trkpt>
      <trkpt lat="43.31633" lon="5.6872">
        <ele>883.2</ele>
        <time>2014-03-19T09:38:42Z</time>
      </trkpt>
      <trkpt lat="43.31633" lon="5.68725">
        <ele>883.2</ele>
        <time>2014-03-19T09:38:47Z</time>
      </trkpt>
      <trkpt lat="43.31634" lon="5.6873">
        <ele>883</ele>
        <time>2014-03-19T09:38:51Z</time>
      </trkpt>
      <trkpt lat="43.31636" lon="5.68735">
        <ele>883.5</ele>
        <time>2014-03-19T09:38:56Z</time>
      </trkpt>
      <trkpt lat="43.31637" lon="5.6874">
        <ele>883.4</ele>
        <time>2014-03-19T09:39:01Z</time>
      </trkpt>
      <trkpt lat="43.31637" lon="5.68741">
        <ele>883.2</ele>
        <time>2014-03-19T09:39:02Z</time>
      </trkpt>
      <trkpt lat="43.31641" lon="5.68749">
        <ele>882.7</ele>
        <time>2014-03-19T09:39:09Z</time>
      </trkpt>
      <trkpt lat="43.31643" lon="5.68753">
        <ele>882.5</ele>
        <time>2014-03-19T09:39:13Z</time>
      </trkpt>
      <trkpt lat="43.31645" lon="5.68758">
        <ele>882.7</ele>
        <time>2014-03-19T09:39:17Z</time>
      </trkpt>
      <trkpt lat="43.31646" lon="5.68763">
        <ele>882.4</ele>
        <time>2014-03-19T09:39:21Z</time>
      </trkpt>
      <trkpt lat="43.31645" lon="5.68769">
        <ele>882.5</ele>
        <time>2014-03-19T09:39:26Z</time>
      </trkpt>
      <trkpt lat="43.31644" lon="5.68774">
        <ele>882.4</ele>
        <time>2014-03-19T09:39:30Z</time>
      </trkpt>
      <trkpt lat="43.31643" lon="5.68779">
        <ele>881.9</ele>
        <time>2014-03-19T09:39:35Z</time>
      </trkpt>
      <trkpt lat="43.31643" lon="5.68785">
        <ele>881.5</ele>
        <time>2014-03-19T09:39:39Z</time>
      </trkpt>
      <trkpt lat="43.31642" lon="5.68789">
        <ele>881.5</ele>
        <time>2014-03-19T09:39:42Z</time>
      </trkpt>
      <trkpt lat="43.31641" lon="5.68794">
        <ele>881.5</ele>
        <time>2014-03-19T09:39:45Z</time>
      </trkpt>
      <trkpt lat="43.3164" lon="5.688">
        <ele>881.2</ele>
        <time>2014-03-19T09:39:49Z</time>
      </trkpt>
      <trkpt lat="43.31639" lon="5.68804">
        <ele>881</ele>
        <time>2014-03-19T09:39:52Z</time>
      </trkpt>
      <trkpt lat="43.31639" lon="5.6881">
        <ele>881.5</ele>
        <time>2014-03-19T09:39:56Z</time>
      </trkpt>
      <trkpt lat="43.31637" lon="5.68815">
        <ele>881.7</ele>
        <time>2014-03-19T09:40:00Z</time>
      </trkpt>
      <trkpt lat="43.31635" lon="5.6882">
        <ele>882.7</ele>
        <time>2014-03-19T09:40:08Z</time>
      </trkpt>
      <trkpt lat="43.31635" lon="5.6882">
        <ele>883</ele>
        <time>2014-03-19T09:40:09Z</time>
      </trkpt>
      <trkpt lat="43.31633" lon="5.68831">
        <ele>884.7</ele>
        <time>2014-03-19T09:40:42Z</time>
      </trkpt>
      <trkpt lat="43.31631" lon="5.68836">
        <ele>885.7</ele>
        <time>2014-03-19T09:40:53Z</time>
      </trkpt>
      <trkpt lat="43.3163" lon="5.68841">
        <ele>886.4</ele>
        <time>2014-03-19T09:40:58Z</time>
      </trkpt>
      <trkpt lat="43.31627" lon="5.68844">
        <ele>886.7</ele>
        <time>2014-03-19T09:41:02Z</time>
      </trkpt>
      <trkpt lat="43.31624" lon="5.68848">
        <ele>887.2</ele>
        <time>2014-03-19T09:41:06Z</time>
      </trkpt>
      <trkpt lat="43.31622" lon="5.68852">
        <ele>887.4</ele>
        <time>2014-03-19T09:41:09Z</time>
      </trkpt>
      <trkpt lat="43.31621" lon="5.68853">
        <ele>887.2</ele>
        <time>2014-03-19T09:41:10Z</time>
      </trkpt>
      <trkpt lat="43.31616" lon="5.68861">
        <ele>887.2</ele>
        <time>2014-03-19T09:41:17Z</time>
      </trkpt>
      <trkpt lat="43.31614" lon="5.68866">
        <ele>887.2</ele>
        <time>2014-03-19T09:41:21Z</time>
      </trkpt>
      <trkpt lat="43.31612" lon="5.6887">
        <ele>887.2</ele>
        <time>2014-03-19T09:41:25Z</time>
      </trkpt>
      <trkpt lat="43.3161" lon="5.68875">
        <ele>887.5</ele>
        <time>2014-03-19T09:41:29Z</time>
      </trkpt>
      <trkpt lat="43.31609" lon="5.6888">
        <ele>887.7</ele>
        <time>2014-03-19T09:41:34Z</time>
      </trkpt>
      <trkpt lat="43.31607" lon="5.68885">
        <ele>888.2</ele>
        <time>2014-03-19T09:41:40Z</time>
      </trkpt>
      <trkpt lat="43.31605" lon="5.68891">
        <ele>888.7</ele>
        <time>2014-03-19T09:41:46Z</time>
      </trkpt>
      <trkpt lat="43.31604" lon="5.68896">
        <ele>888.5</ele>
        <time>2014-03-19T09:41:53Z</time>
      </trkpt>
      <trkpt lat="43.31601" lon="5.68901">
        <ele>889.5</ele>
        <time>2014-03-19T09:42:04Z</time>
      </trkpt>
      <trkpt lat="43.316" lon="5.68907">
        <ele>891.7</ele>
        <time>2014-03-19T09:42:13Z</time>
      </trkpt>
      <trkpt lat="43.316" lon="5.68907">
        <ele>891.9</ele>
        <time>2014-03-19T09:42:14Z</time>
      </trkpt>
      <trkpt lat="43.31595" lon="5.68917">
        <ele>891.7</ele>
        <time>2014-03-19T09:42:51Z</time>
      </trkpt>
      <trkpt lat="43.31593" lon="5.68922">
        <ele>888.9</ele>
        <time>2014-03-19T09:43:13Z</time>
      </trkpt>
      <trkpt lat="43.3159" lon="5.68926">
        <ele>885.5</ele>
        <time>2014-03-19T09:43:45Z</time>
      </trkpt>
      <trkpt lat="43.3159" lon="5.68926">
        <ele>885.2</ele>
        <time>2014-03-19T09:43:46Z</time>
      </trkpt>
      <trkpt lat="43.31584" lon="5.68934">
        <ele>883.2</ele>
        <time>2014-03-19T09:44:29Z</time>
      </trkpt>
      <trkpt lat="43.3158" lon="5.68936">
        <ele>881.7</ele>
        <time>2014-03-19T09:44:45Z</time>
      </trkpt>
      <trkpt lat="43.31576" lon="5.68937">
        <ele>880.5</ele>
        <time>2014-03-19T09:44:57Z</time>
      </trkpt>
      <trkpt lat="43.31575" lon="5.68938">
        <ele>880.5</ele>
        <time>2014-03-19T09:44:58Z</time>
      </trkpt>
      <trkpt lat="43.31567" lon="5.68937">
        <ele>877.5</ele>
        <time>2014-03-19T09:45:13Z</time>
      </trkpt>
      <trkpt lat="43.31563" lon="5.68937">
        <ele>876.2</ele>
        <time>2014-03-19T09:45:18Z</time>
      </trkpt>
      <trkpt lat="43.3156" lon="5.68937">
        <ele>875.7</ele>
        <time>2014-03-19T09:45:22Z</time>
      </trkpt>
      <trkpt lat="43.31556" lon="5.68939">
        <ele>875.5</ele>
        <time>2014-03-19T09:45:26Z</time>
      </trkpt>
      <trkpt lat="43.31553" lon="5.68942">
        <ele>876</ele>
        <time>2014-03-19T09:45:31Z</time>
      </trkpt>
      <trkpt lat="43.3155" lon="5.68946">
        <ele>877.5</ele>
        <time>2014-03-19T09:45:36Z</time>
      </trkpt>
      <trkpt lat="43.31545" lon="5.68945">
        <ele>876.5</ele>
        <time>2014-03-19T09:45:41Z</time>
      </trkpt>
      <trkpt lat="43.31541" lon="5.68943">
        <ele>877.7</ele>
        <time>2014-03-19T09:45:46Z</time>
      </trkpt>
      <trkpt lat="43.31537" lon="5.68943">
        <ele>878.2</ele>
        <time>2014-03-19T09:45:52Z</time>
      </trkpt>
      <trkpt lat="43.31534" lon="5.68946">
        <ele>876.2</ele>
        <time>2014-03-19T09:45:56Z</time>
      </trkpt>
      <trkpt lat="43.3153" lon="5.68949">
        <ele>877.2</ele>
        <time>2014-03-19T09:46:07Z</time>
      </trkpt>
      <trkpt lat="43.3153" lon="5.68949">
        <ele>877.9</ele>
        <time>2014-03-19T09:46:08Z</time>
      </trkpt>
      <trkpt lat="43.31523" lon="5.68951">
        <ele>879</ele>
        <time>2014-03-19T09:46:24Z</time>
      </trkpt>
      <trkpt lat="43.31519" lon="5.68949">
        <ele>878.5</ele>
        <time>2014-03-19T09:46:30Z</time>
      </trkpt>
      <trkpt lat="43.31515" lon="5.68947">
        <ele>878.5</ele>
        <time>2014-03-19T09:46:36Z</time>
      </trkpt>
      <trkpt lat="43.31512" lon="5.68944">
        <ele>879</ele>
        <time>2014-03-19T09:46:42Z</time>
      </trkpt>
      <trkpt lat="43.31508" lon="5.68942">
        <ele>878.2</ele>
        <time>2014-03-19T09:46:48Z</time>
      </trkpt>
      <trkpt lat="43.31504" lon="5.68943">
        <ele>880</ele>
        <time>2014-03-19T09:47:25Z</time>
      </trkpt>
      <trkpt lat="43.31503" lon="5.68944">
        <ele>881</ele>
        <time>2014-03-19T09:47:26Z</time>
      </trkpt>
      <trkpt lat="43.315" lon="5.68945">
        <ele>871.5</ele>
        <time>2014-03-19T09:48:47Z</time>
      </trkpt>
      <trkpt lat="43.315" lon="5.68945">
        <ele>871.7</ele>
        <time>2014-03-19T09:48:48Z</time>
      </trkpt>
      <trkpt lat="43.31505" lon="5.68942">
        <ele>870.2</ele>
        <time>2014-03-19T09:49:47Z</time>
      </trkpt>
      <trkpt lat="43.31502" lon="5.68946">
        <ele>867.7</ele>
        <time>2014-03-19T09:50:26Z</time>
      </trkpt>
      <trkpt lat="43.31502" lon="5.68947">
        <ele>868.5</ele>
        <time>2014-03-19T09:50:27Z</time>
      </trkpt>
      <trkpt lat="43.31506" lon="5.68956">
        <ele>870.4</ele>
        <time>2014-03-19T09:50:35Z</time>
      </trkpt>
      <trkpt lat="43.31509" lon="5.6896">
        <ele>873.9</ele>
        <time>2014-03-19T09:50:39Z</time>
      </trkpt>
      <trkpt lat="43.31512" lon="5.68963">
        <ele>875</ele>
        <time>2014-03-19T09:50:43Z</time>
      </trkpt>
      <trkpt lat="43.31515" lon="5.68967">
        <ele>873</ele>
        <time>2014-03-19T09:50:47Z</time>
      </trkpt>
      <trkpt lat="43.31517" lon="5.68972">
        <ele>872.5</ele>
        <time>2014-03-19T09:50:54Z</time>
      </trkpt>
      <trkpt lat="43.3152" lon="5.68977">
        <ele>873.4</ele>
        <time>2014-03-19T09:50:59Z</time>
      </trkpt>
      <trkpt lat="43.31524" lon="5.68981">
        <ele>874.4</ele>
        <time>2014-03-19T09:51:08Z</time>
      </trkpt>
      <trkpt lat="43.31527" lon="5.68983">
        <ele>873.4</ele>
        <time>2014-03-19T09:51:16Z</time>
      </trkpt>
      <trkpt lat="43.3153" lon="5.68986">
        <ele>871.5</ele>
        <time>2014-03-19T09:51:20Z</time>
      </trkpt>
      <trkpt lat="43.31533" lon="5.6899">
        <ele>870.5</ele>
        <time>2014-03-19T09:51:23Z</time>
      </trkpt>
      <trkpt lat="43.31536" lon="5.68994">
        <ele>870.9</ele>
        <time>2014-03-19T09:51:27Z</time>
      </trkpt>
      <trkpt lat="43.31536" lon="5.68994">
        <ele>871.2</ele>
        <time>2014-03-19T09:51:28Z</time>
      </trkpt>
      <trkpt lat="43.31542" lon="5.69002">
        <ele>873</ele>
        <time>2014-03-19T09:51:36Z</time>
      </trkpt>
      <trkpt lat="43.31543" lon="5.69008">
        <ele>873.5</ele>
        <time>2014-03-19T09:51:41Z</time>
      </trkpt>
      <trkpt lat="43.31546" lon="5.69012">
        <ele>873</ele>
        <time>2014-03-19T09:51:50Z</time>
      </trkpt>
      <trkpt lat="43.31548" lon="5.69017">
        <ele>872.7</ele>
        <time>2014-03-19T09:51:55Z</time>
      </trkpt>
      <trkpt lat="43.31551" lon="5.69021">
        <ele>871.5</ele>
        <time>2014-03-19T09:52:00Z</time>
      </trkpt>
      <trkpt lat="43.31553" lon="5.69025">
        <ele>869.5</ele>
        <time>2014-03-19T09:52:04Z</time>
      </trkpt>
      <trkpt lat="43.31555" lon="5.6903">
        <ele>868.2</ele>
        <time>2014-03-19T09:52:08Z</time>
      </trkpt>
      <trkpt lat="43.31557" lon="5.69034">
        <ele>867.5</ele>
        <time>2014-03-19T09:52:11Z</time>
      </trkpt>
      <trkpt lat="43.31559" lon="5.69039">
        <ele>867.2</ele>
        <time>2014-03-19T09:52:14Z</time>
      </trkpt>
      <trkpt lat="43.31561" lon="5.69044">
        <ele>866.5</ele>
        <time>2014-03-19T09:52:17Z</time>
      </trkpt>
      <trkpt lat="43.31562" lon="5.69048">
        <ele>866.4</ele>
        <time>2014-03-19T09:52:19Z</time>
      </trkpt>
      <trkpt lat="43.31562" lon="5.69053">
        <ele>865.7</ele>
        <time>2014-03-19T09:52:21Z</time>
      </trkpt>
      <trkpt lat="43.31563" lon="5.69058">
        <ele>865.7</ele>
        <time>2014-03-19T09:52:24Z</time>
      </trkpt>
      <trkpt lat="43.31565" lon="5.69063">
        <ele>865</ele>
        <time>2014-03-19T09:52:27Z</time>
      </trkpt>
      <trkpt lat="43.31566" lon="5.69067">
        <ele>864.4</ele>
        <time>2014-03-19T09:52:30Z</time>
      </trkpt>
      <trkpt lat="43.31567" lon="5.69069">
        <ele>863.9</ele>
        <time>2014-03-19T09:52:31Z</time>
      </trkpt>
      <trkpt lat="43.31571" lon="5.69075">
        <ele>860.5</ele>
        <time>2014-03-19T09:52:37Z</time>
      </trkpt>
      <trkpt lat="43.31573" lon="5.69081">
        <ele>858.7</ele>
        <time>2014-03-19T09:52:41Z</time>
      </trkpt>
      <trkpt lat="43.31574" lon="5.69085">
        <ele>857.7</ele>
        <time>2014-03-19T09:52:44Z</time>
      </trkpt>
      <trkpt lat="43.31575" lon="5.6909">
        <ele>857.2</ele>
        <time>2014-03-19T09:52:47Z</time>
      </trkpt>
      <trkpt lat="43.31577" lon="5.69094">
        <ele>856.9</ele>
        <time>2014-03-19T09:52:50Z</time>
      </trkpt>
      <trkpt lat="43.31577" lon="5.69098">
        <ele>858</ele>
        <time>2014-03-19T09:52:52Z</time>
      </trkpt>
      <trkpt lat="43.31578" lon="5.69104">
        <ele>859.4</ele>
        <time>2014-03-19T09:52:55Z</time>
      </trkpt>
      <trkpt lat="43.31579" lon="5.69108">
        <ele>860.9</ele>
        <time>2014-03-19T09:52:57Z</time>
      </trkpt>
      <trkpt lat="43.3158" lon="5.69114">
        <ele>859</ele>
        <time>2014-03-19T09:53:01Z</time>
      </trkpt>
      <trkpt lat="43.31583" lon="5.69119">
        <ele>857.7</ele>
        <time>2014-03-19T09:53:05Z</time>
      </trkpt>
      <trkpt lat="43.31585" lon="5.69124">
        <ele>856</ele>
        <time>2014-03-19T09:53:09Z</time>
      </trkpt>
      <trkpt lat="43.31585" lon="5.69129">
        <ele>857.2</ele>
        <time>2014-03-19T09:53:12Z</time>
      </trkpt>
      <trkpt lat="43.31587" lon="5.69134">
        <ele>855.7</ele>
        <time>2014-03-19T09:53:16Z</time>
      </trkpt>
      <trkpt lat="43.31589" lon="5.6914">
        <ele>854.2</ele>
        <time>2014-03-19T09:53:20Z</time>
      </trkpt>
      <trkpt lat="43.3159" lon="5.69145">
        <ele>853.7</ele>
        <time>2014-03-19T09:53:23Z</time>
      </trkpt>
      <trkpt lat="43.31591" lon="5.6915">
        <ele>854</ele>
        <time>2014-03-19T09:53:26Z</time>
      </trkpt>
      <trkpt lat="43.31592" lon="5.69156">
        <ele>854.4</ele>
        <time>2014-03-19T09:53:29Z</time>
      </trkpt>
      <trkpt lat="43.31593" lon="5.6916">
        <ele>854.2</ele>
        <time>2014-03-19T09:53:32Z</time>
      </trkpt>
      <trkpt lat="43.31593" lon="5.69162">
        <ele>854.4</ele>
        <time>2014-03-19T09:53:33Z</time>
      </trkpt>
      <trkpt lat="43.31595" lon="5.69169">
        <ele>854</ele>
        <time>2014-03-19T09:53:38Z</time>
      </trkpt>
      <trkpt lat="43.31596" lon="5.69174">
        <ele>854.2</ele>
        <time>2014-03-19T09:53:41Z</time>
      </trkpt>
      <trkpt lat="43.31598" lon="5.69179">
        <ele>854</ele>
        <time>2014-03-19T09:53:45Z</time>
      </trkpt>
      <trkpt lat="43.31598" lon="5.69185">
        <ele>855.5</ele>
        <time>2014-03-19T09:53:48Z</time>
      </trkpt>
      <trkpt lat="43.31598" lon="5.6919">
        <ele>855.4</ele>
        <time>2014-03-19T09:53:51Z</time>
      </trkpt>
      <trkpt lat="43.31598" lon="5.69196">
        <ele>856.4</ele>
        <time>2014-03-19T09:53:54Z</time>
      </trkpt>
      <trkpt lat="43.31599" lon="5.69201">
        <ele>855.7</ele>
        <time>2014-03-19T09:53:58Z</time>
      </trkpt>
      <trkpt lat="43.316" lon="5.69206">
        <ele>854.7</ele>
        <time>2014-03-19T09:54:02Z</time>
      </trkpt>
      <trkpt lat="43.316" lon="5.69211">
        <ele>854.5</ele>
        <time>2014-03-19T09:54:05Z</time>
      </trkpt>
      <trkpt lat="43.31601" lon="5.69216">
        <ele>853.7</ele>
        <time>2014-03-19T09:54:08Z</time>
      </trkpt>
      <trkpt lat="43.31602" lon="5.69221">
        <ele>852.2</ele>
        <time>2014-03-19T09:54:12Z</time>
      </trkpt>
      <trkpt lat="43.31603" lon="5.69226">
        <ele>852.2</ele>
        <time>2014-03-19T09:54:15Z</time>
      </trkpt>
      <trkpt lat="43.31605" lon="5.69232">
        <ele>851.2</ele>
        <time>2014-03-19T09:54:19Z</time>
      </trkpt>
      <trkpt lat="43.31607" lon="5.69237">
        <ele>851.4</ele>
        <time>2014-03-19T09:54:22Z</time>
      </trkpt>
      <trkpt lat="43.31608" lon="5.69241">
        <ele>851.2</ele>
        <time>2014-03-19T09:54:25Z</time>
      </trkpt>
      <trkpt lat="43.3161" lon="5.69246">
        <ele>851.2</ele>
        <time>2014-03-19T09:54:28Z</time>
      </trkpt>
      <trkpt lat="43.31611" lon="5.69251">
        <ele>850.7</ele>
        <time>2014-03-19T09:54:31Z</time>
      </trkpt>
      <trkpt lat="43.31612" lon="5.69256">
        <ele>847.7</ele>
        <time>2014-03-19T09:54:35Z</time>
      </trkpt>
      <trkpt lat="43.31613" lon="5.69258">
        <ele>846.9</ele>
        <time>2014-03-19T09:54:36Z</time>
      </trkpt>
      <trkpt lat="43.31616" lon="5.69264">
        <ele>845.5</ele>
        <time>2014-03-19T09:54:41Z</time>
      </trkpt>
      <trkpt lat="43.31619" lon="5.69269">
        <ele>845.5</ele>
        <time>2014-03-19T09:54:44Z</time>
      </trkpt>
      <trkpt lat="43.31621" lon="5.69273">
        <ele>845.2</ele>
        <time>2014-03-19T09:54:47Z</time>
      </trkpt>
      <trkpt lat="43.31622" lon="5.69277">
        <ele>844.7</ele>
        <time>2014-03-19T09:54:50Z</time>
      </trkpt>
      <trkpt lat="43.31624" lon="5.69282">
        <ele>845.5</ele>
        <time>2014-03-19T09:54:53Z</time>
      </trkpt>
      <trkpt lat="43.31625" lon="5.69286">
        <ele>844.7</ele>
        <time>2014-03-19T09:54:56Z</time>
      </trkpt>
      <trkpt lat="43.31627" lon="5.69291">
        <ele>843.7</ele>
        <time>2014-03-19T09:54:59Z</time>
      </trkpt>
      <trkpt lat="43.3163" lon="5.69294">
        <ele>843</ele>
        <time>2014-03-19T09:55:02Z</time>
      </trkpt>
      <trkpt lat="43.31632" lon="5.69298">
        <ele>842</ele>
        <time>2014-03-19T09:55:05Z</time>
      </trkpt>
      <trkpt lat="43.31632" lon="5.69303">
        <ele>843.5</ele>
        <time>2014-03-19T09:55:08Z</time>
      </trkpt>
      <trkpt lat="43.31634" lon="5.69308">
        <ele>843.2</ele>
        <time>2014-03-19T09:55:11Z</time>
      </trkpt>
      <trkpt lat="43.31635" lon="5.69313">
        <ele>844</ele>
        <time>2014-03-19T09:55:14Z</time>
      </trkpt>
      <trkpt lat="43.31636" lon="5.69318">
        <ele>843.5</ele>
        <time>2014-03-19T09:55:18Z</time>
      </trkpt>
      <trkpt lat="43.31639" lon="5.69323">
        <ele>842</ele>
        <time>2014-03-19T09:55:22Z</time>
      </trkpt>
      <trkpt lat="43.31639" lon="5.69329">
        <ele>842</ele>
        <time>2014-03-19T09:55:26Z</time>
      </trkpt>
      <trkpt lat="43.31638" lon="5.69334">
        <ele>844.9</ele>
        <time>2014-03-19T09:55:29Z</time>
      </trkpt>
      <trkpt lat="43.31639" lon="5.6934">
        <ele>845.2</ele>
        <time>2014-03-19T09:55:33Z</time>
      </trkpt>
      <trkpt lat="43.31638" lon="5.69346">
        <ele>844.5</ele>
        <time>2014-03-19T09:55:36Z</time>
      </trkpt>
      <trkpt lat="43.31637" lon="5.69347">
        <ele>844.2</ele>
        <time>2014-03-19T09:55:37Z</time>
      </trkpt>
      <trkpt lat="43.31638" lon="5.69356">
        <ele>843.7</ele>
        <time>2014-03-19T09:55:56Z</time>
      </trkpt>
      <trkpt lat="43.31633" lon="5.69354">
        <ele>839.7</ele>
        <time>2014-03-19T09:56:14Z</time>
      </trkpt>
      <trkpt lat="43.31629" lon="5.69355">
        <ele>832.4</ele>
        <time>2014-03-19T09:56:30Z</time>
      </trkpt>
      <trkpt lat="43.31629" lon="5.69361">
        <ele>832.7</ele>
        <time>2014-03-19T09:56:41Z</time>
      </trkpt>
      <trkpt lat="43.31629" lon="5.69362">
        <ele>832.7</ele>
        <time>2014-03-19T09:56:42Z</time>
      </trkpt>
      <trkpt lat="43.31627" lon="5.69373">
        <ele>824</ele>
        <time>2014-03-19T09:57:20Z</time>
      </trkpt>
      <trkpt lat="43.3163" lon="5.69368">
        <ele>836.2</ele>
        <time>2014-03-19T09:59:27Z</time>
      </trkpt>
      <trkpt lat="43.31631" lon="5.69368">
        <ele>837.5</ele>
        <time>2014-03-19T09:59:28Z</time>
      </trkpt>
      <trkpt lat="43.31628" lon="5.69363">
        <ele>832.4</ele>
        <time>2014-03-19T10:00:56Z</time>
      </trkpt>
      <trkpt lat="43.31629" lon="5.69373">
        <ele>832.5</ele>
        <time>2014-03-19T10:01:25Z</time>
      </trkpt>
      <trkpt lat="43.31628" lon="5.69378">
        <ele>829.7</ele>
        <time>2014-03-19T10:01:29Z</time>
      </trkpt>
      <trkpt lat="43.31627" lon="5.69383">
        <ele>831.9</ele>
        <time>2014-03-19T10:01:32Z</time>
      </trkpt>
      <trkpt lat="43.31626" lon="5.69387">
        <ele>831.5</ele>
        <time>2014-03-19T10:01:35Z</time>
      </trkpt>
      <trkpt lat="43.31625" lon="5.69392">
        <ele>832.7</ele>
        <time>2014-03-19T10:01:38Z</time>
      </trkpt>
      <trkpt lat="43.31625" lon="5.69398">
        <ele>835.2</ele>
        <time>2014-03-19T10:01:42Z</time>
      </trkpt>
      <trkpt lat="43.31624" lon="5.69402">
        <ele>835.7</ele>
        <time>2014-03-19T10:01:44Z</time>
      </trkpt>
      <trkpt lat="43.31624" lon="5.69407">
        <ele>836.7</ele>
        <time>2014-03-19T10:01:47Z</time>
      </trkpt>
      <trkpt lat="43.31622" lon="5.69413">
        <ele>833.2</ele>
        <time>2014-03-19T10:01:51Z</time>
      </trkpt>
      <trkpt lat="43.31621" lon="5.69417">
        <ele>829.7</ele>
        <time>2014-03-19T10:01:54Z</time>
      </trkpt>
      <trkpt lat="43.31621" lon="5.69423">
        <ele>829</ele>
        <time>2014-03-19T10:01:58Z</time>
      </trkpt>
      <trkpt lat="43.31621" lon="5.69428">
        <ele>829.7</ele>
        <time>2014-03-19T10:02:01Z</time>
      </trkpt>
      <trkpt lat="43.31621" lon="5.6943">
        <ele>830.2</ele>
        <time>2014-03-19T10:02:02Z</time>
      </trkpt>
      <trkpt lat="43.3162" lon="5.69438">
        <ele>830.5</ele>
        <time>2014-03-19T10:02:07Z</time>
      </trkpt>
      <trkpt lat="43.31621" lon="5.69444">
        <ele>832</ele>
        <time>2014-03-19T10:02:10Z</time>
      </trkpt>
      <trkpt lat="43.31622" lon="5.69449">
        <ele>831.4</ele>
        <time>2014-03-19T10:02:13Z</time>
      </trkpt>
      <trkpt lat="43.31622" lon="5.69454">
        <ele>830.2</ele>
        <time>2014-03-19T10:02:16Z</time>
      </trkpt>
      <trkpt lat="43.31622" lon="5.69459">
        <ele>830</ele>
        <time>2014-03-19T10:02:19Z</time>
      </trkpt>
      <trkpt lat="43.31622" lon="5.69463">
        <ele>830.5</ele>
        <time>2014-03-19T10:02:21Z</time>
      </trkpt>
      <trkpt lat="43.31623" lon="5.69468">
        <ele>832.7</ele>
        <time>2014-03-19T10:02:24Z</time>
      </trkpt>
      <trkpt lat="43.31624" lon="5.69473">
        <ele>835.7</ele>
        <time>2014-03-19T10:02:26Z</time>
      </trkpt>
      <trkpt lat="43.31626" lon="5.69478">
        <ele>837.9</ele>
        <time>2014-03-19T10:02:29Z</time>
      </trkpt>
      <trkpt lat="43.31627" lon="5.69482">
        <ele>838.2</ele>
        <time>2014-03-19T10:02:32Z</time>
      </trkpt>
      <trkpt lat="43.31627" lon="5.69488">
        <ele>839.7</ele>
        <time>2014-03-19T10:02:35Z</time>
      </trkpt>
      <trkpt lat="43.31628" lon="5.69493">
        <ele>839.4</ele>
        <time>2014-03-19T10:02:39Z</time>
      </trkpt>
      <trkpt lat="43.31628" lon="5.69498">
        <ele>837.9</ele>
        <time>2014-03-19T10:02:42Z</time>
      </trkpt>
      <trkpt lat="43.31627" lon="5.69504">
        <ele>836.4</ele>
        <time>2014-03-19T10:02:46Z</time>
      </trkpt>
      <trkpt lat="43.31626" lon="5.69509">
        <ele>834.9</ele>
        <time>2014-03-19T10:02:50Z</time>
      </trkpt>
      <trkpt lat="43.31625" lon="5.69513">
        <ele>836.2</ele>
        <time>2014-03-19T10:02:53Z</time>
      </trkpt>
      <trkpt lat="43.31623" lon="5.69519">
        <ele>835.9</ele>
        <time>2014-03-19T10:02:57Z</time>
      </trkpt>
      <trkpt lat="43.31622" lon="5.69524">
        <ele>835.2</ele>
        <time>2014-03-19T10:03:01Z</time>
      </trkpt>
      <trkpt lat="43.31621" lon="5.69529">
        <ele>833.2</ele>
        <time>2014-03-19T10:03:06Z</time>
      </trkpt>
      <trkpt lat="43.31621" lon="5.6953">
        <ele>833</ele>
        <time>2014-03-19T10:03:07Z</time>
      </trkpt>
      <trkpt lat="43.31621" lon="5.69539">
        <ele>830.5</ele>
        <time>2014-03-19T10:03:16Z</time>
      </trkpt>
      <trkpt lat="43.31621" lon="5.69545">
        <ele>829.9</ele>
        <time>2014-03-19T10:03:22Z</time>
      </trkpt>
      <trkpt lat="43.3162" lon="5.69551">
        <ele>829.7</ele>
        <time>2014-03-19T10:03:29Z</time>
      </trkpt>
      <trkpt lat="43.3162" lon="5.69556">
        <ele>831</ele>
        <time>2014-03-19T10:03:33Z</time>
      </trkpt>
      <trkpt lat="43.3162" lon="5.69561">
        <ele>830.4</ele>
        <time>2014-03-19T10:03:36Z</time>
      </trkpt>
      <trkpt lat="43.3162" lon="5.69566">
        <ele>830.7</ele>
        <time>2014-03-19T10:03:39Z</time>
      </trkpt>
      <trkpt lat="43.31618" lon="5.69571">
        <ele>831.5</ele>
        <time>2014-03-19T10:03:41Z</time>
      </trkpt>
      <trkpt lat="43.31617" lon="5.69576">
        <ele>829.7</ele>
        <time>2014-03-19T10:03:44Z</time>
      </trkpt>
      <trkpt lat="43.31617" lon="5.69581">
        <ele>831</ele>
        <time>2014-03-19T10:03:47Z</time>
      </trkpt>
      <trkpt lat="43.31616" lon="5.69586">
        <ele>831.9</ele>
        <time>2014-03-19T10:03:50Z</time>
      </trkpt>
      <trkpt lat="43.31616" lon="5.69592">
        <ele>833</ele>
        <time>2014-03-19T10:03:54Z</time>
      </trkpt>
      <trkpt lat="43.31615" lon="5.69597">
        <ele>833.4</ele>
        <time>2014-03-19T10:03:58Z</time>
      </trkpt>
      <trkpt lat="43.31615" lon="5.69603">
        <ele>834</ele>
        <time>2014-03-19T10:04:02Z</time>
      </trkpt>
      <trkpt lat="43.31616" lon="5.69608">
        <ele>834.9</ele>
        <time>2014-03-19T10:04:05Z</time>
      </trkpt>
      <trkpt lat="43.31616" lon="5.69613">
        <ele>833.4</ele>
        <time>2014-03-19T10:04:09Z</time>
      </trkpt>
      <trkpt lat="43.31616" lon="5.69614">
        <ele>833.2</ele>
        <time>2014-03-19T10:04:10Z</time>
      </trkpt>
      <trkpt lat="43.31615" lon="5.69623">
        <ele>830.5</ele>
        <time>2014-03-19T10:04:15Z</time>
      </trkpt>
      <trkpt lat="43.31614" lon="5.69627">
        <ele>831.2</ele>
        <time>2014-03-19T10:04:17Z</time>
      </trkpt>
      <trkpt lat="43.31614" lon="5.69632">
        <ele>829.7</ele>
        <time>2014-03-19T10:04:20Z</time>
      </trkpt>
      <trkpt lat="43.31616" lon="5.69638">
        <ele>829.5</ele>
        <time>2014-03-19T10:04:24Z</time>
      </trkpt>
      <trkpt lat="43.31616" lon="5.69643">
        <ele>828.7</ele>
        <time>2014-03-19T10:04:27Z</time>
      </trkpt>
      <trkpt lat="43.31616" lon="5.69648">
        <ele>828.2</ele>
        <time>2014-03-19T10:04:30Z</time>
      </trkpt>
      <trkpt lat="43.31616" lon="5.69654">
        <ele>828.2</ele>
        <time>2014-03-19T10:04:33Z</time>
      </trkpt>
      <trkpt lat="43.31616" lon="5.6966">
        <ele>827.2</ele>
        <time>2014-03-19T10:04:37Z</time>
      </trkpt>
      <trkpt lat="43.31616" lon="5.69664">
        <ele>826.7</ele>
        <time>2014-03-19T10:04:40Z</time>
      </trkpt>
      <trkpt lat="43.31616" lon="5.69668">
        <ele>826.9</ele>
        <time>2014-03-19T10:04:42Z</time>
      </trkpt>
      <trkpt lat="43.31616" lon="5.69673">
        <ele>828.7</ele>
        <time>2014-03-19T10:04:44Z</time>
      </trkpt>
      <trkpt lat="43.31616" lon="5.69678">
        <ele>828.5</ele>
        <time>2014-03-19T10:04:48Z</time>
      </trkpt>
      <trkpt lat="43.31616" lon="5.69684">
        <ele>826.7</ele>
        <time>2014-03-19T10:04:52Z</time>
      </trkpt>
      <trkpt lat="43.31616" lon="5.69691">
        <ele>825.9</ele>
        <time>2014-03-19T10:04:56Z</time>
      </trkpt>
      <trkpt lat="43.31617" lon="5.69696">
        <ele>825.2</ele>
        <time>2014-03-19T10:05:00Z</time>
      </trkpt>
      <trkpt lat="43.31618" lon="5.69702">
        <ele>825</ele>
        <time>2014-03-19T10:05:04Z</time>
      </trkpt>
      <trkpt lat="43.31618" lon="5.69707">
        <ele>826</ele>
        <time>2014-03-19T10:05:07Z</time>
      </trkpt>
      <trkpt lat="43.31618" lon="5.69713">
        <ele>826.7</ele>
        <time>2014-03-19T10:05:10Z</time>
      </trkpt>
      <trkpt lat="43.31619" lon="5.69714">
        <ele>826.5</ele>
        <time>2014-03-19T10:05:11Z</time>
      </trkpt>
      <trkpt lat="43.31617" lon="5.69724">
        <ele>827.2</ele>
        <time>2014-03-19T10:05:18Z</time>
      </trkpt>
      <trkpt lat="43.31618" lon="5.69729">
        <ele>828.4</ele>
        <time>2014-03-19T10:05:21Z</time>
      </trkpt>
      <trkpt lat="43.31619" lon="5.69734">
        <ele>830.5</ele>
        <time>2014-03-19T10:05:24Z</time>
      </trkpt>
      <trkpt lat="43.31617" lon="5.6974">
        <ele>832.7</ele>
        <time>2014-03-19T10:05:28Z</time>
      </trkpt>
      <trkpt lat="43.31618" lon="5.69745">
        <ele>833.7</ele>
        <time>2014-03-19T10:05:31Z</time>
      </trkpt>
      <trkpt lat="43.31619" lon="5.69749">
        <ele>835</ele>
        <time>2014-03-19T10:05:34Z</time>
      </trkpt>
      <trkpt lat="43.31621" lon="5.69754">
        <ele>836.2</ele>
        <time>2014-03-19T10:05:37Z</time>
      </trkpt>
      <trkpt lat="43.31621" lon="5.69759">
        <ele>837.5</ele>
        <time>2014-03-19T10:05:40Z</time>
      </trkpt>
      <trkpt lat="43.31622" lon="5.69765">
        <ele>839.4</ele>
        <time>2014-03-19T10:05:43Z</time>
      </trkpt>
      <trkpt lat="43.31622" lon="5.6977">
        <ele>840.5</ele>
        <time>2014-03-19T10:05:46Z</time>
      </trkpt>
      <trkpt lat="43.31623" lon="5.69775">
        <ele>840.9</ele>
        <time>2014-03-19T10:05:49Z</time>
      </trkpt>
      <trkpt lat="43.31624" lon="5.6978">
        <ele>841.5</ele>
        <time>2014-03-19T10:05:52Z</time>
      </trkpt>
      <trkpt lat="43.31625" lon="5.69786">
        <ele>841.4</ele>
        <time>2014-03-19T10:05:56Z</time>
      </trkpt>
      <trkpt lat="43.31625" lon="5.69792">
        <ele>838.4</ele>
        <time>2014-03-19T10:06:01Z</time>
      </trkpt>
      <trkpt lat="43.31625" lon="5.69798">
        <ele>837.2</ele>
        <time>2014-03-19T10:06:05Z</time>
      </trkpt>
      <trkpt lat="43.31625" lon="5.69802">
        <ele>836.5</ele>
        <time>2014-03-19T10:06:09Z</time>
      </trkpt>
      <trkpt lat="43.31624" lon="5.69806">
        <ele>838.2</ele>
        <time>2014-03-19T10:06:11Z</time>
      </trkpt>
      <trkpt lat="43.31624" lon="5.69809">
        <ele>839.2</ele>
        <time>2014-03-19T10:06:12Z</time>
      </trkpt>
      <trkpt lat="43.31623" lon="5.69818">
        <ele>838</ele>
        <time>2014-03-19T10:06:19Z</time>
      </trkpt>
      <trkpt lat="43.31623" lon="5.69823">
        <ele>839</ele>
        <time>2014-03-19T10:06:22Z</time>
      </trkpt>
      <trkpt lat="43.31624" lon="5.69829">
        <ele>840.5</ele>
        <time>2014-03-19T10:06:25Z</time>
      </trkpt>
      <trkpt lat="43.31623" lon="5.69835">
        <ele>841.7</ele>
        <time>2014-03-19T10:06:28Z</time>
      </trkpt>
      <trkpt lat="43.31623" lon="5.6984">
        <ele>838.4</ele>
        <time>2014-03-19T10:06:33Z</time>
      </trkpt>
      <trkpt lat="43.31623" lon="5.69845">
        <ele>835.5</ele>
        <time>2014-03-19T10:06:37Z</time>
      </trkpt>
      <trkpt lat="43.31621" lon="5.69849">
        <ele>835.7</ele>
        <time>2014-03-19T10:06:39Z</time>
      </trkpt>
      <trkpt lat="43.3162" lon="5.69853">
        <ele>836.5</ele>
        <time>2014-03-19T10:06:41Z</time>
      </trkpt>
      <trkpt lat="43.3162" lon="5.69858">
        <ele>835.2</ele>
        <time>2014-03-19T10:06:44Z</time>
      </trkpt>
      <trkpt lat="43.31619" lon="5.69863">
        <ele>834.7</ele>
        <time>2014-03-19T10:06:47Z</time>
      </trkpt>
      <trkpt lat="43.31621" lon="5.69868">
        <ele>835.2</ele>
        <time>2014-03-19T10:06:50Z</time>
      </trkpt>
      <trkpt lat="43.31622" lon="5.69872">
        <ele>837.2</ele>
        <time>2014-03-19T10:06:52Z</time>
      </trkpt>
      <trkpt lat="43.31623" lon="5.69877">
        <ele>837.7</ele>
        <time>2014-03-19T10:06:55Z</time>
      </trkpt>
      <trkpt lat="43.31623" lon="5.69882">
        <ele>839.2</ele>
        <time>2014-03-19T10:06:58Z</time>
      </trkpt>
      <trkpt lat="43.31623" lon="5.69888">
        <ele>836.7</ele>
        <time>2014-03-19T10:07:02Z</time>
      </trkpt>
      <trkpt lat="43.31624" lon="5.69893">
        <ele>836</ele>
        <time>2014-03-19T10:07:05Z</time>
      </trkpt>
      <trkpt lat="43.31624" lon="5.69898">
        <ele>833.5</ele>
        <time>2014-03-19T10:07:09Z</time>
      </trkpt>
      <trkpt lat="43.31626" lon="5.69903">
        <ele>833.4</ele>
        <time>2014-03-19T10:07:13Z</time>
      </trkpt>
      <trkpt lat="43.31626" lon="5.69905">
        <ele>833.2</ele>
        <time>2014-03-19T10:07:14Z</time>
      </trkpt>
      <trkpt lat="43.31628" lon="5.69914">
        <ele>832.5</ele>
        <time>2014-03-19T10:07:20Z</time>
      </trkpt>
      <trkpt lat="43.3163" lon="5.69919">
        <ele>833.5</ele>
        <time>2014-03-19T10:07:23Z</time>
      </trkpt>
      <trkpt lat="43.3163" lon="5.69924">
        <ele>834.9</ele>
        <time>2014-03-19T10:07:26Z</time>
      </trkpt>
      <trkpt lat="43.3163" lon="5.69929">
        <ele>835.9</ele>
        <time>2014-03-19T10:07:28Z</time>
      </trkpt>
      <trkpt lat="43.3163" lon="5.69934">
        <ele>835.7</ele>
        <time>2014-03-19T10:07:31Z</time>
      </trkpt>
      <trkpt lat="43.31631" lon="5.6994">
        <ele>834.5</ele>
        <time>2014-03-19T10:07:35Z</time>
      </trkpt>
      <trkpt lat="43.31631" lon="5.69945">
        <ele>834</ele>
        <time>2014-03-19T10:07:39Z</time>
      </trkpt>
      <trkpt lat="43.31632" lon="5.6995">
        <ele>833.5</ele>
        <time>2014-03-19T10:07:42Z</time>
      </trkpt>
      <trkpt lat="43.31633" lon="5.69956">
        <ele>834.5</ele>
        <time>2014-03-19T10:07:46Z</time>
      </trkpt>
      <trkpt lat="43.31633" lon="5.69961">
        <ele>834.7</ele>
        <time>2014-03-19T10:07:49Z</time>
      </trkpt>
      <trkpt lat="43.31634" lon="5.69967">
        <ele>836.2</ele>
        <time>2014-03-19T10:07:53Z</time>
      </trkpt>
      <trkpt lat="43.31634" lon="5.69972">
        <ele>837</ele>
        <time>2014-03-19T10:07:56Z</time>
      </trkpt>
      <trkpt lat="43.31634" lon="5.69978">
        <ele>837.4</ele>
        <time>2014-03-19T10:08:00Z</time>
      </trkpt>
      <trkpt lat="43.31635" lon="5.69983">
        <ele>838.4</ele>
        <time>2014-03-19T10:08:03Z</time>
      </trkpt>
      <trkpt lat="43.31635" lon="5.69988">
        <ele>837.7</ele>
        <time>2014-03-19T10:08:07Z</time>
      </trkpt>
      <trkpt lat="43.31634" lon="5.69993">
        <ele>837</ele>
        <time>2014-03-19T10:08:11Z</time>
      </trkpt>
      <trkpt lat="43.31634" lon="5.69998">
        <ele>838</ele>
        <time>2014-03-19T10:08:13Z</time>
      </trkpt>
      <trkpt lat="43.31634" lon="5.70002">
        <ele>839.2</ele>
        <time>2014-03-19T10:08:15Z</time>
      </trkpt>
      <trkpt lat="43.31635" lon="5.70004">
        <ele>840.2</ele>
        <time>2014-03-19T10:08:16Z</time>
      </trkpt>
      <trkpt lat="43.31636" lon="5.70012">
        <ele>840.9</ele>
        <time>2014-03-19T10:08:21Z</time>
      </trkpt>
      <trkpt lat="43.31637" lon="5.70017">
        <ele>841.5</ele>
        <time>2014-03-19T10:08:24Z</time>
      </trkpt>
      <trkpt lat="43.31638" lon="5.70022">
        <ele>840</ele>
        <time>2014-03-19T10:08:28Z</time>
      </trkpt>
      <trkpt lat="43.3164" lon="5.70028">
        <ele>840.2</ele>
        <time>2014-03-19T10:08:32Z</time>
      </trkpt>
      <trkpt lat="43.31642" lon="5.70032">
        <ele>838</ele>
        <time>2014-03-19T10:08:36Z</time>
      </trkpt>
      <trkpt lat="43.31644" lon="5.70037">
        <ele>836.4</ele>
        <time>2014-03-19T10:08:40Z</time>
      </trkpt>
      <trkpt lat="43.31645" lon="5.70042">
        <ele>837.2</ele>
        <time>2014-03-19T10:08:43Z</time>
      </trkpt>
      <trkpt lat="43.31646" lon="5.70047">
        <ele>837.9</ele>
        <time>2014-03-19T10:08:46Z</time>
      </trkpt>
      <trkpt lat="43.31646" lon="5.70053">
        <ele>838.5</ele>
        <time>2014-03-19T10:08:49Z</time>
      </trkpt>
      <trkpt lat="43.31648" lon="5.70058">
        <ele>838.9</ele>
        <time>2014-03-19T10:08:52Z</time>
      </trkpt>
      <trkpt lat="43.31649" lon="5.70064">
        <ele>838</ele>
        <time>2014-03-19T10:08:56Z</time>
      </trkpt>
      <trkpt lat="43.3165" lon="5.7007">
        <ele>835.7</ele>
        <time>2014-03-19T10:09:00Z</time>
      </trkpt>
      <trkpt lat="43.31651" lon="5.70075">
        <ele>836</ele>
        <time>2014-03-19T10:09:03Z</time>
      </trkpt>
      <trkpt lat="43.31652" lon="5.70079">
        <ele>837.5</ele>
        <time>2014-03-19T10:09:06Z</time>
      </trkpt>
      <trkpt lat="43.31653" lon="5.70084">
        <ele>837.5</ele>
        <time>2014-03-19T10:09:09Z</time>
      </trkpt>
      <trkpt lat="43.31655" lon="5.70088">
        <ele>837.5</ele>
        <time>2014-03-19T10:09:12Z</time>
      </trkpt>
      <trkpt lat="43.31656" lon="5.70093">
        <ele>837</ele>
        <time>2014-03-19T10:09:15Z</time>
      </trkpt>
      <trkpt lat="43.31657" lon="5.70099">
        <ele>836.2</ele>
        <time>2014-03-19T10:09:19Z</time>
      </trkpt>
      <trkpt lat="43.31657" lon="5.701">
        <ele>835.7</ele>
        <time>2014-03-19T10:09:20Z</time>
      </trkpt>
      <trkpt lat="43.31659" lon="5.7011">
        <ele>834</ele>
        <time>2014-03-19T10:09:26Z</time>
      </trkpt>
      <trkpt lat="43.31659" lon="5.70115">
        <ele>833.4</ele>
        <time>2014-03-19T10:09:29Z</time>
      </trkpt>
      <trkpt lat="43.31658" lon="5.70119">
        <ele>834.5</ele>
        <time>2014-03-19T10:09:31Z</time>
      </trkpt>
      <trkpt lat="43.3166" lon="5.70124">
        <ele>835.2</ele>
        <time>2014-03-19T10:09:34Z</time>
      </trkpt>
      <trkpt lat="43.3166" lon="5.7013">
        <ele>836.5</ele>
        <time>2014-03-19T10:09:38Z</time>
      </trkpt>
      <trkpt lat="43.31661" lon="5.70136">
        <ele>836</ele>
        <time>2014-03-19T10:09:42Z</time>
      </trkpt>
      <trkpt lat="43.3166" lon="5.7014">
        <ele>835.2</ele>
        <time>2014-03-19T10:09:45Z</time>
      </trkpt>
      <trkpt lat="43.3166" lon="5.70146">
        <ele>835</ele>
        <time>2014-03-19T10:09:48Z</time>
      </trkpt>
      <trkpt lat="43.31661" lon="5.70151">
        <ele>837</ele>
        <time>2014-03-19T10:09:51Z</time>
      </trkpt>
      <trkpt lat="43.31662" lon="5.70156">
        <ele>837.5</ele>
        <time>2014-03-19T10:09:54Z</time>
      </trkpt>
      <trkpt lat="43.31664" lon="5.7016">
        <ele>838.5</ele>
        <time>2014-03-19T10:09:57Z</time>
      </trkpt>
      <trkpt lat="43.31667" lon="5.70164">
        <ele>837</ele>
        <time>2014-03-19T10:10:01Z</time>
      </trkpt>
      <trkpt lat="43.31669" lon="5.70169">
        <ele>836.2</ele>
        <time>2014-03-19T10:10:05Z</time>
      </trkpt>
      <trkpt lat="43.31671" lon="5.70173">
        <ele>835.9</ele>
        <time>2014-03-19T10:10:08Z</time>
      </trkpt>
      <trkpt lat="43.31672" lon="5.70178">
        <ele>836.5</ele>
        <time>2014-03-19T10:10:11Z</time>
      </trkpt>
      <trkpt lat="43.31674" lon="5.70183">
        <ele>838.7</ele>
        <time>2014-03-19T10:10:14Z</time>
      </trkpt>
      <trkpt lat="43.31674" lon="5.70187">
        <ele>841</ele>
        <time>2014-03-19T10:10:16Z</time>
      </trkpt>
      <trkpt lat="43.31676" lon="5.70192">
        <ele>840.7</ele>
        <time>2014-03-19T10:10:19Z</time>
      </trkpt>
      <trkpt lat="43.31677" lon="5.70196">
        <ele>840.2</ele>
        <time>2014-03-19T10:10:22Z</time>
      </trkpt>
      <trkpt lat="43.31677" lon="5.70198">
        <ele>840.2</ele>
        <time>2014-03-19T10:10:23Z</time>
      </trkpt>
      <trkpt lat="43.31679" lon="5.70206">
        <ele>839.2</ele>
        <time>2014-03-19T10:10:28Z</time>
      </trkpt>
      <trkpt lat="43.3168" lon="5.7021">
        <ele>839.7</ele>
        <time>2014-03-19T10:10:31Z</time>
      </trkpt>
      <trkpt lat="43.31682" lon="5.70216">
        <ele>840.4</ele>
        <time>2014-03-19T10:10:35Z</time>
      </trkpt>
      <trkpt lat="43.31683" lon="5.70221">
        <ele>840.7</ele>
        <time>2014-03-19T10:10:39Z</time>
      </trkpt>
      <trkpt lat="43.31685" lon="5.70226">
        <ele>839</ele>
        <time>2014-03-19T10:10:43Z</time>
      </trkpt>
      <trkpt lat="43.31686" lon="5.7023">
        <ele>837.5</ele>
        <time>2014-03-19T10:10:47Z</time>
      </trkpt>
      <trkpt lat="43.31688" lon="5.70235">
        <ele>836.7</ele>
        <time>2014-03-19T10:10:51Z</time>
      </trkpt>
      <trkpt lat="43.31691" lon="5.7024">
        <ele>837.5</ele>
        <time>2014-03-19T10:10:55Z</time>
      </trkpt>
      <trkpt lat="43.31692" lon="5.70246">
        <ele>838.5</ele>
        <time>2014-03-19T10:10:59Z</time>
      </trkpt>
      <trkpt lat="43.31693" lon="5.70251">
        <ele>839</ele>
        <time>2014-03-19T10:11:03Z</time>
      </trkpt>
      <trkpt lat="43.31694" lon="5.70256">
        <ele>839.7</ele>
        <time>2014-03-19T10:11:08Z</time>
      </trkpt>
      <trkpt lat="43.31697" lon="5.70261">
        <ele>839</ele>
        <time>2014-03-19T10:11:12Z</time>
      </trkpt>
      <trkpt lat="43.31697" lon="5.70266">
        <ele>838</ele>
        <time>2014-03-19T10:11:16Z</time>
      </trkpt>
      <trkpt lat="43.31699" lon="5.70271">
        <ele>838.2</ele>
        <time>2014-03-19T10:11:19Z</time>
      </trkpt>
      <trkpt lat="43.31701" lon="5.70276">
        <ele>839</ele>
        <time>2014-03-19T10:11:23Z</time>
      </trkpt>
      <trkpt lat="43.31701" lon="5.70277">
        <ele>839</ele>
        <time>2014-03-19T10:11:24Z</time>
      </trkpt>
      <trkpt lat="43.31704" lon="5.70286">
        <ele>839.2</ele>
        <time>2014-03-19T10:11:31Z</time>
      </trkpt>
      <trkpt lat="43.31704" lon="5.70291">
        <ele>839</ele>
        <time>2014-03-19T10:11:34Z</time>
      </trkpt>
      <trkpt lat="43.31705" lon="5.70296">
        <ele>840</ele>
        <time>2014-03-19T10:11:37Z</time>
      </trkpt>
      <trkpt lat="43.31707" lon="5.70301">
        <ele>840.5</ele>
        <time>2014-03-19T10:11:41Z</time>
      </trkpt>
      <trkpt lat="43.31709" lon="5.70305">
        <ele>839.9</ele>
        <time>2014-03-19T10:11:45Z</time>
      </trkpt>
      <trkpt lat="43.3171" lon="5.7031">
        <ele>839</ele>
        <time>2014-03-19T10:11:48Z</time>
      </trkpt>
      <trkpt lat="43.31712" lon="5.70315">
        <ele>838</ele>
        <time>2014-03-19T10:11:52Z</time>
      </trkpt>
      <trkpt lat="43.31713" lon="5.7032">
        <ele>837</ele>
        <time>2014-03-19T10:11:56Z</time>
      </trkpt>
      <trkpt lat="43.31715" lon="5.70325">
        <ele>835.7</ele>
        <time>2014-03-19T10:12:00Z</time>
      </trkpt>
      <trkpt lat="43.31717" lon="5.7033">
        <ele>834.7</ele>
        <time>2014-03-19T10:12:04Z</time>
      </trkpt>
      <trkpt lat="43.31717" lon="5.70336">
        <ele>836.2</ele>
        <time>2014-03-19T10:12:07Z</time>
      </trkpt>
      <trkpt lat="43.31718" lon="5.7034">
        <ele>836.2</ele>
        <time>2014-03-19T10:12:10Z</time>
      </trkpt>
      <trkpt lat="43.31718" lon="5.70343">
        <ele>836.4</ele>
        <time>2014-03-19T10:12:11Z</time>
      </trkpt>
      <trkpt lat="43.31717" lon="5.70347">
        <ele>836.7</ele>
        <time>2014-03-19T10:12:12Z</time>
      </trkpt>
      <trkpt lat="43.31717" lon="5.70352">
        <ele>835.7</ele>
        <time>2014-03-19T10:12:15Z</time>
      </trkpt>
      <trkpt lat="43.31718" lon="5.70357">
        <ele>837.5</ele>
        <time>2014-03-19T10:12:18Z</time>
      </trkpt>
      <trkpt lat="43.3172" lon="5.70362">
        <ele>838.5</ele>
        <time>2014-03-19T10:12:23Z</time>
      </trkpt>
      <trkpt lat="43.3172" lon="5.70367">
        <ele>838.9</ele>
        <time>2014-03-19T10:12:27Z</time>
      </trkpt>
      <trkpt lat="43.3172" lon="5.70369">
        <ele>838.9</ele>
        <time>2014-03-19T10:12:28Z</time>
      </trkpt>
      <trkpt lat="43.31722" lon="5.70377">
        <ele>838.5</ele>
        <time>2014-03-19T10:12:33Z</time>
      </trkpt>
      <trkpt lat="43.31724" lon="5.70382">
        <ele>839.2</ele>
        <time>2014-03-19T10:12:37Z</time>
      </trkpt>
      <trkpt lat="43.31725" lon="5.70387">
        <ele>840.4</ele>
        <time>2014-03-19T10:12:40Z</time>
      </trkpt>
      <trkpt lat="43.31726" lon="5.70392">
        <ele>841.2</ele>
        <time>2014-03-19T10:12:44Z</time>
      </trkpt>
      <trkpt lat="43.31728" lon="5.70398">
        <ele>841.7</ele>
        <time>2014-03-19T10:12:48Z</time>
      </trkpt>
      <trkpt lat="43.3173" lon="5.70403">
        <ele>841.5</ele>
        <time>2014-03-19T10:12:52Z</time>
      </trkpt>
      <trkpt lat="43.31731" lon="5.70409">
        <ele>841.7</ele>
        <time>2014-03-19T10:12:56Z</time>
      </trkpt>
      <trkpt lat="43.31733" lon="5.70413">
        <ele>841.2</ele>
        <time>2014-03-19T10:13:00Z</time>
      </trkpt>
      <trkpt lat="43.31736" lon="5.70417">
        <ele>841</ele>
        <time>2014-03-19T10:13:04Z</time>
      </trkpt>
      <trkpt lat="43.31737" lon="5.70423">
        <ele>841</ele>
        <time>2014-03-19T10:13:08Z</time>
      </trkpt>
      <trkpt lat="43.31738" lon="5.70428">
        <ele>840.7</ele>
        <time>2014-03-19T10:13:12Z</time>
      </trkpt>
      <trkpt lat="43.31738" lon="5.70433">
        <ele>840.5</ele>
        <time>2014-03-19T10:13:15Z</time>
      </trkpt>
      <trkpt lat="43.31738" lon="5.70439">
        <ele>840.2</ele>
        <time>2014-03-19T10:13:19Z</time>
      </trkpt>
      <trkpt lat="43.31738" lon="5.70444">
        <ele>840.7</ele>
        <time>2014-03-19T10:13:22Z</time>
      </trkpt>
      <trkpt lat="43.31739" lon="5.70449">
        <ele>841</ele>
        <time>2014-03-19T10:13:25Z</time>
      </trkpt>
      <trkpt lat="43.31741" lon="5.70453">
        <ele>841.5</ele>
        <time>2014-03-19T10:13:29Z</time>
      </trkpt>
      <trkpt lat="43.31742" lon="5.70454">
        <ele>841.5</ele>
        <time>2014-03-19T10:13:30Z</time>
      </trkpt>
      <trkpt lat="43.31745" lon="5.70463">
        <ele>843</ele>
        <time>2014-03-19T10:13:36Z</time>
      </trkpt>
      <trkpt lat="43.31746" lon="5.70468">
        <ele>844.7</ele>
        <time>2014-03-19T10:13:39Z</time>
      </trkpt>
      <trkpt lat="43.31748" lon="5.70474">
        <ele>845.2</ele>
        <time>2014-03-19T10:13:43Z</time>
      </trkpt>
      <trkpt lat="43.3175" lon="5.70478">
        <ele>846</ele>
        <time>2014-03-19T10:13:46Z</time>
      </trkpt>
      <trkpt lat="43.31751" lon="5.70482">
        <ele>845.4</ele>
        <time>2014-03-19T10:13:49Z</time>
      </trkpt>
      <trkpt lat="43.31753" lon="5.70487">
        <ele>844.9</ele>
        <time>2014-03-19T10:13:52Z</time>
      </trkpt>
      <trkpt lat="43.31754" lon="5.70492">
        <ele>845</ele>
        <time>2014-03-19T10:13:55Z</time>
      </trkpt>
      <trkpt lat="43.31754" lon="5.70497">
        <ele>847.9</ele>
        <time>2014-03-19T10:13:57Z</time>
      </trkpt>
      <trkpt lat="43.31755" lon="5.70501">
        <ele>848.9</ele>
        <time>2014-03-19T10:14:00Z</time>
      </trkpt>
      <trkpt lat="43.31756" lon="5.70506">
        <ele>849.4</ele>
        <time>2014-03-19T10:14:04Z</time>
      </trkpt>
      <trkpt lat="43.31759" lon="5.70511">
        <ele>848.5</ele>
        <time>2014-03-19T10:14:09Z</time>
      </trkpt>
      <trkpt lat="43.31761" lon="5.70517">
        <ele>848.2</ele>
        <time>2014-03-19T10:14:13Z</time>
      </trkpt>
      <trkpt lat="43.31762" lon="5.70521">
        <ele>848.5</ele>
        <time>2014-03-19T10:14:16Z</time>
      </trkpt>
      <trkpt lat="43.31765" lon="5.70526">
        <ele>849.5</ele>
        <time>2014-03-19T10:14:20Z</time>
      </trkpt>
      <trkpt lat="43.31766" lon="5.70532">
        <ele>849.2</ele>
        <time>2014-03-19T10:14:24Z</time>
      </trkpt>
      <trkpt lat="43.31767" lon="5.70537">
        <ele>847.9</ele>
        <time>2014-03-19T10:14:28Z</time>
      </trkpt>
      <trkpt lat="43.31769" lon="5.70542">
        <ele>847.7</ele>
        <time>2014-03-19T10:14:32Z</time>
      </trkpt>
      <trkpt lat="43.31769" lon="5.70544">
        <ele>847.7</ele>
        <time>2014-03-19T10:14:33Z</time>
      </trkpt>
      <trkpt lat="43.31772" lon="5.70552">
        <ele>847.9</ele>
        <time>2014-03-19T10:14:39Z</time>
      </trkpt>
      <trkpt lat="43.31773" lon="5.70558">
        <ele>847.7</ele>
        <time>2014-03-19T10:14:43Z</time>
      </trkpt>
      <trkpt lat="43.31774" lon="5.70563">
        <ele>847.9</ele>
        <time>2014-03-19T10:14:47Z</time>
      </trkpt>
      <trkpt lat="43.31776" lon="5.70567">
        <ele>848.4</ele>
        <time>2014-03-19T10:14:50Z</time>
      </trkpt>
      <trkpt lat="43.31776" lon="5.70572">
        <ele>850.2</ele>
        <time>2014-03-19T10:14:53Z</time>
      </trkpt>
      <trkpt lat="43.31778" lon="5.70576">
        <ele>850.9</ele>
        <time>2014-03-19T10:14:57Z</time>
      </trkpt>
      <trkpt lat="43.3178" lon="5.70582">
        <ele>849.7</ele>
        <time>2014-03-19T10:15:02Z</time>
      </trkpt>
      <trkpt lat="43.31781" lon="5.70587">
        <ele>850.5</ele>
        <time>2014-03-19T10:15:06Z</time>
      </trkpt>
      <trkpt lat="43.31782" lon="5.70593">
        <ele>850.5</ele>
        <time>2014-03-19T10:15:10Z</time>
      </trkpt>
      <trkpt lat="43.31782" lon="5.70597">
        <ele>850</ele>
        <time>2014-03-19T10:15:14Z</time>
      </trkpt>
      <trkpt lat="43.31783" lon="5.70603">
        <ele>851</ele>
        <time>2014-03-19T10:15:17Z</time>
      </trkpt>
      <trkpt lat="43.31784" lon="5.70608">
        <ele>851.4</ele>
        <time>2014-03-19T10:15:20Z</time>
      </trkpt>
      <trkpt lat="43.31785" lon="5.70613">
        <ele>849.2</ele>
        <time>2014-03-19T10:15:24Z</time>
      </trkpt>
      <trkpt lat="43.31787" lon="5.70618">
        <ele>848</ele>
        <time>2014-03-19T10:15:28Z</time>
      </trkpt>
      <trkpt lat="43.31789" lon="5.70623">
        <ele>848.5</ele>
        <time>2014-03-19T10:15:31Z</time>
      </trkpt>
      <trkpt lat="43.3179" lon="5.70628">
        <ele>847.7</ele>
        <time>2014-03-19T10:15:35Z</time>
      </trkpt>
      <trkpt lat="43.31791" lon="5.7063">
        <ele>847.4</ele>
        <time>2014-03-19T10:15:36Z</time>
      </trkpt>
      <trkpt lat="43.31793" lon="5.70638">
        <ele>849.4</ele>
        <time>2014-03-19T10:15:41Z</time>
      </trkpt>
      <trkpt lat="43.31794" lon="5.70644">
        <ele>848.7</ele>
        <time>2014-03-19T10:15:45Z</time>
      </trkpt>
      <trkpt lat="43.31796" lon="5.70649">
        <ele>848.5</ele>
        <time>2014-03-19T10:15:49Z</time>
      </trkpt>
      <trkpt lat="43.31797" lon="5.70654">
        <ele>847.7</ele>
        <time>2014-03-19T10:15:53Z</time>
      </trkpt>
      <trkpt lat="43.31798" lon="5.70659">
        <ele>847.2</ele>
        <time>2014-03-19T10:15:57Z</time>
      </trkpt>
      <trkpt lat="43.31799" lon="5.70663">
        <ele>847.9</ele>
        <time>2014-03-19T10:16:00Z</time>
      </trkpt>
      <trkpt lat="43.318" lon="5.70668">
        <ele>848.5</ele>
        <time>2014-03-19T10:16:03Z</time>
      </trkpt>
      <trkpt lat="43.31801" lon="5.70673">
        <ele>849.2</ele>
        <time>2014-03-19T10:16:06Z</time>
      </trkpt>
      <trkpt lat="43.31802" lon="5.70678">
        <ele>849</ele>
        <time>2014-03-19T10:16:10Z</time>
      </trkpt>
      <trkpt lat="43.31803" lon="5.70684">
        <ele>848.7</ele>
        <time>2014-03-19T10:16:14Z</time>
      </trkpt>
      <trkpt lat="43.31804" lon="5.70689">
        <ele>848.7</ele>
        <time>2014-03-19T10:16:18Z</time>
      </trkpt>
      <trkpt lat="43.31805" lon="5.70694">
        <ele>848</ele>
        <time>2014-03-19T10:16:22Z</time>
      </trkpt>
      <trkpt lat="43.31807" lon="5.70699">
        <ele>847.5</ele>
        <time>2014-03-19T10:16:26Z</time>
      </trkpt>
      <trkpt lat="43.31808" lon="5.70704">
        <ele>847</ele>
        <time>2014-03-19T10:16:30Z</time>
      </trkpt>
      <trkpt lat="43.31809" lon="5.70709">
        <ele>847.7</ele>
        <time>2014-03-19T10:16:33Z</time>
      </trkpt>
      <trkpt lat="43.31811" lon="5.70714">
        <ele>846.9</ele>
        <time>2014-03-19T10:16:37Z</time>
      </trkpt>
      <trkpt lat="43.31811" lon="5.70715">
        <ele>847.5</ele>
        <time>2014-03-19T10:16:38Z</time>
      </trkpt>
      <trkpt lat="43.31813" lon="5.70723">
        <ele>847.4</ele>
        <time>2014-03-19T10:16:43Z</time>
      </trkpt>
      <trkpt lat="43.31813" lon="5.70728">
        <ele>848.2</ele>
        <time>2014-03-19T10:16:46Z</time>
      </trkpt>
      <trkpt lat="43.31814" lon="5.70733">
        <ele>848.5</ele>
        <time>2014-03-19T10:16:49Z</time>
      </trkpt>
      <trkpt lat="43.31814" lon="5.70737">
        <ele>848</ele>
        <time>2014-03-19T10:16:52Z</time>
      </trkpt>
      <trkpt lat="43.31815" lon="5.70742">
        <ele>848.9</ele>
        <time>2014-03-19T10:16:55Z</time>
      </trkpt>
      <trkpt lat="43.31815" lon="5.70748">
        <ele>848.4</ele>
        <time>2014-03-19T10:16:59Z</time>
      </trkpt>
      <trkpt lat="43.31814" lon="5.70753">
        <ele>850</ele>
        <time>2014-03-19T10:17:01Z</time>
      </trkpt>
      <trkpt lat="43.31814" lon="5.70759">
        <ele>851</ele>
        <time>2014-03-19T10:17:04Z</time>
      </trkpt>
      <trkpt lat="43.31814" lon="5.70764">
        <ele>850.7</ele>
        <time>2014-03-19T10:17:08Z</time>
      </trkpt>
      <trkpt lat="43.31815" lon="5.70768">
        <ele>851</ele>
        <time>2014-03-19T10:17:11Z</time>
      </trkpt>
      <trkpt lat="43.31815" lon="5.70774">
        <ele>850.9</ele>
        <time>2014-03-19T10:17:15Z</time>
      </trkpt>
      <trkpt lat="43.31816" lon="5.70778">
        <ele>850.7</ele>
        <time>2014-03-19T10:17:18Z</time>
      </trkpt>
      <trkpt lat="43.31816" lon="5.70785">
        <ele>850.7</ele>
        <time>2014-03-19T10:17:22Z</time>
      </trkpt>
      <trkpt lat="43.31816" lon="5.70788">
        <ele>850.7</ele>
        <time>2014-03-19T10:17:24Z</time>
      </trkpt>
      <trkpt lat="43.31815" lon="5.70794">
        <ele>852.4</ele>
        <time>2014-03-19T10:17:26Z</time>
      </trkpt>
      <trkpt lat="43.31817" lon="5.70799">
        <ele>854.7</ele>
        <time>2014-03-19T10:17:30Z</time>
      </trkpt>
      <trkpt lat="43.31817" lon="5.70804">
        <ele>853.2</ele>
        <time>2014-03-19T10:17:34Z</time>
      </trkpt>
      <trkpt lat="43.31818" lon="5.70809">
        <ele>854.7</ele>
        <time>2014-03-19T10:17:37Z</time>
      </trkpt>
      <trkpt lat="43.31818" lon="5.70814">
        <ele>855</ele>
        <time>2014-03-19T10:17:40Z</time>
      </trkpt>
      <trkpt lat="43.31818" lon="5.70816">
        <ele>854.7</ele>
        <time>2014-03-19T10:17:41Z</time>
      </trkpt>
      <trkpt lat="43.31819" lon="5.70825">
        <ele>855.7</ele>
        <time>2014-03-19T10:17:47Z</time>
      </trkpt>
      <trkpt lat="43.31819" lon="5.7083">
        <ele>856.5</ele>
        <time>2014-03-19T10:17:51Z</time>
      </trkpt>
      <trkpt lat="43.31818" lon="5.70836">
        <ele>854.9</ele>
        <time>2014-03-19T10:17:55Z</time>
      </trkpt>
      <trkpt lat="43.31818" lon="5.70841">
        <ele>855</ele>
        <time>2014-03-19T10:17:59Z</time>
      </trkpt>
      <trkpt lat="43.31818" lon="5.70846">
        <ele>854.9</ele>
        <time>2014-03-19T10:18:02Z</time>
      </trkpt>
      <trkpt lat="43.31818" lon="5.70852">
        <ele>857.2</ele>
        <time>2014-03-19T10:18:05Z</time>
      </trkpt>
      <trkpt lat="43.31818" lon="5.70856">
        <ele>856.7</ele>
        <time>2014-03-19T10:18:08Z</time>
      </trkpt>
      <trkpt lat="43.31817" lon="5.70862">
        <ele>857.5</ele>
        <time>2014-03-19T10:18:10Z</time>
      </trkpt>
      <trkpt lat="43.31816" lon="5.70867">
        <ele>858.4</ele>
        <time>2014-03-19T10:18:12Z</time>
      </trkpt>
      <trkpt lat="43.31817" lon="5.70872">
        <ele>859</ele>
        <time>2014-03-19T10:18:15Z</time>
      </trkpt>
      <trkpt lat="43.31818" lon="5.70878">
        <ele>857.5</ele>
        <time>2014-03-19T10:18:20Z</time>
      </trkpt>
      <trkpt lat="43.31818" lon="5.70883">
        <ele>858.2</ele>
        <time>2014-03-19T10:18:23Z</time>
      </trkpt>
      <trkpt lat="43.31818" lon="5.70889">
        <ele>858.7</ele>
        <time>2014-03-19T10:18:26Z</time>
      </trkpt>
      <trkpt lat="43.31818" lon="5.70893">
        <ele>859</ele>
        <time>2014-03-19T10:18:28Z</time>
      </trkpt>
      <trkpt lat="43.31817" lon="5.70899">
        <ele>858.7</ele>
        <time>2014-03-19T10:18:31Z</time>
      </trkpt>
      <trkpt lat="43.31817" lon="5.70904">
        <ele>856.7</ele>
        <time>2014-03-19T10:18:35Z</time>
      </trkpt>
      <trkpt lat="43.31818" lon="5.7091">
        <ele>856</ele>
        <time>2014-03-19T10:18:39Z</time>
      </trkpt>
      <trkpt lat="43.31818" lon="5.70916">
        <ele>854</ele>
        <time>2014-03-19T10:18:43Z</time>
      </trkpt>
      <trkpt lat="43.31818" lon="5.70917">
        <ele>853.7</ele>
        <time>2014-03-19T10:18:44Z</time>
      </trkpt>
      <trkpt lat="43.31817" lon="5.70926">
        <ele>852.2</ele>
        <time>2014-03-19T10:18:50Z</time>
      </trkpt>
      <trkpt lat="43.31816" lon="5.70932">
        <ele>852.5</ele>
        <time>2014-03-19T10:18:53Z</time>
      </trkpt>
      <trkpt lat="43.31817" lon="5.70937">
        <ele>851.4</ele>
        <time>2014-03-19T10:18:57Z</time>
      </trkpt>
      <trkpt lat="43.31818" lon="5.70942">
        <ele>853.4</ele>
        <time>2014-03-19T10:19:01Z</time>
      </trkpt>
      <trkpt lat="43.31819" lon="5.70947">
        <ele>853</ele>
        <time>2014-03-19T10:19:05Z</time>
      </trkpt>
      <trkpt lat="43.31818" lon="5.70954">
        <ele>853.2</ele>
        <time>2014-03-19T10:19:09Z</time>
      </trkpt>
      <trkpt lat="43.31818" lon="5.70959">
        <ele>853.5</ele>
        <time>2014-03-19T10:19:12Z</time>
      </trkpt>
      <trkpt lat="43.31817" lon="5.70963">
        <ele>853.5</ele>
        <time>2014-03-19T10:19:14Z</time>
      </trkpt>
      <trkpt lat="43.31815" lon="5.70968">
        <ele>854.9</ele>
        <time>2014-03-19T10:19:17Z</time>
      </trkpt>
      <trkpt lat="43.31815" lon="5.70973">
        <ele>856.9</ele>
        <time>2014-03-19T10:19:20Z</time>
      </trkpt>
      <trkpt lat="43.31814" lon="5.70978">
        <ele>857.7</ele>
        <time>2014-03-19T10:19:24Z</time>
      </trkpt>
      <trkpt lat="43.31814" lon="5.70983">
        <ele>857.7</ele>
        <time>2014-03-19T10:19:27Z</time>
      </trkpt>
      <trkpt lat="43.31813" lon="5.70988">
        <ele>857.2</ele>
        <time>2014-03-19T10:19:30Z</time>
      </trkpt>
      <trkpt lat="43.31813" lon="5.70994">
        <ele>858.2</ele>
        <time>2014-03-19T10:19:33Z</time>
      </trkpt>
      <trkpt lat="43.31814" lon="5.70999">
        <ele>858</ele>
        <time>2014-03-19T10:19:36Z</time>
      </trkpt>
      <trkpt lat="43.31814" lon="5.71004">
        <ele>858.4</ele>
        <time>2014-03-19T10:19:39Z</time>
      </trkpt>
      <trkpt lat="43.31816" lon="5.71009">
        <ele>858.7</ele>
        <time>2014-03-19T10:19:42Z</time>
      </trkpt>
      <trkpt lat="43.31817" lon="5.71014">
        <ele>858.2</ele>
        <time>2014-03-19T10:19:45Z</time>
      </trkpt>
      <trkpt lat="43.31817" lon="5.71015">
        <ele>857.9</ele>
        <time>2014-03-19T10:19:46Z</time>
      </trkpt>
      <trkpt lat="43.31821" lon="5.71023">
        <ele>858.9</ele>
        <time>2014-03-19T10:19:51Z</time>
      </trkpt>
      <trkpt lat="43.31823" lon="5.71026">
        <ele>857.7</ele>
        <time>2014-03-19T10:19:55Z</time>
      </trkpt>
      <trkpt lat="43.31825" lon="5.71031">
        <ele>857.2</ele>
        <time>2014-03-19T10:20:00Z</time>
      </trkpt>
      <trkpt lat="43.31828" lon="5.71034">
        <ele>858.2</ele>
        <time>2014-03-19T10:20:03Z</time>
      </trkpt>
      <trkpt lat="43.31831" lon="5.71038">
        <ele>857.9</ele>
        <time>2014-03-19T10:20:06Z</time>
      </trkpt>
      <trkpt lat="43.31832" lon="5.71042">
        <ele>858</ele>
        <time>2014-03-19T10:20:09Z</time>
      </trkpt>
      <trkpt lat="43.31835" lon="5.71046">
        <ele>858.2</ele>
        <time>2014-03-19T10:20:12Z</time>
      </trkpt>
      <trkpt lat="43.31838" lon="5.7105">
        <ele>856.5</ele>
        <time>2014-03-19T10:20:16Z</time>
      </trkpt>
      <trkpt lat="43.3184" lon="5.71055">
        <ele>857</ele>
        <time>2014-03-19T10:20:20Z</time>
      </trkpt>
      <trkpt lat="43.31843" lon="5.71058">
        <ele>858.4</ele>
        <time>2014-03-19T10:20:23Z</time>
      </trkpt>
      <trkpt lat="43.31846" lon="5.71062">
        <ele>858.2</ele>
        <time>2014-03-19T10:20:27Z</time>
      </trkpt>
      <trkpt lat="43.31849" lon="5.71066">
        <ele>858.5</ele>
        <time>2014-03-19T10:20:30Z</time>
      </trkpt>
      <trkpt lat="43.31851" lon="5.71071">
        <ele>862.2</ele>
        <time>2014-03-19T10:20:34Z</time>
      </trkpt>
      <trkpt lat="43.31854" lon="5.71073">
        <ele>864.2</ele>
        <time>2014-03-19T10:20:37Z</time>
      </trkpt>
      <trkpt lat="43.31857" lon="5.71077">
        <ele>863.7</ele>
        <time>2014-03-19T10:20:40Z</time>
      </trkpt>
      <trkpt lat="43.31859" lon="5.71081">
        <ele>865</ele>
        <time>2014-03-19T10:20:43Z</time>
      </trkpt>
      <trkpt lat="43.31863" lon="5.71085">
        <ele>865.5</ele>
        <time>2014-03-19T10:20:47Z</time>
      </trkpt>
      <trkpt lat="43.31863" lon="5.71085">
        <ele>865.9</ele>
        <time>2014-03-19T10:20:48Z</time>
      </trkpt>
      <trkpt lat="43.3187" lon="5.71088">
        <ele>869.2</ele>
        <time>2014-03-19T10:20:53Z</time>
      </trkpt>
      <trkpt lat="43.31873" lon="5.71089">
        <ele>872.2</ele>
        <time>2014-03-19T10:20:56Z</time>
      </trkpt>
      <trkpt lat="43.31878" lon="5.71089">
        <ele>873</ele>
        <time>2014-03-19T10:20:59Z</time>
      </trkpt>
      <trkpt lat="43.31881" lon="5.7109">
        <ele>872.7</ele>
        <time>2014-03-19T10:21:02Z</time>
      </trkpt>
      <trkpt lat="43.31885" lon="5.7109">
        <ele>873.5</ele>
        <time>2014-03-19T10:21:05Z</time>
      </trkpt>
      <trkpt lat="43.31888" lon="5.71093">
        <ele>868.9</ele>
        <time>2014-03-19T10:21:08Z</time>
      </trkpt>
      <trkpt lat="43.3189" lon="5.71098">
        <ele>863.7</ele>
        <time>2014-03-19T10:21:12Z</time>
      </trkpt>
      <trkpt lat="43.31891" lon="5.71104">
        <ele>860.5</ele>
        <time>2014-03-19T10:21:16Z</time>
      </trkpt>
      <trkpt lat="43.31893" lon="5.71109">
        <ele>858.7</ele>
        <time>2014-03-19T10:21:20Z</time>
      </trkpt>
      <trkpt lat="43.31894" lon="5.71114">
        <ele>859.9</ele>
        <time>2014-03-19T10:21:23Z</time>
      </trkpt>
      <trkpt lat="43.31896" lon="5.71118">
        <ele>862</ele>
        <time>2014-03-19T10:21:26Z</time>
      </trkpt>
      <trkpt lat="43.31897" lon="5.71123">
        <ele>862</ele>
        <time>2014-03-19T10:21:30Z</time>
      </trkpt>
      <trkpt lat="43.31898" lon="5.71128">
        <ele>863.2</ele>
        <time>2014-03-19T10:21:34Z</time>
      </trkpt>
      <trkpt lat="43.31899" lon="5.71132">
        <ele>863.9</ele>
        <time>2014-03-19T10:21:37Z</time>
      </trkpt>
      <trkpt lat="43.319" lon="5.71136">
        <ele>864.9</ele>
        <time>2014-03-19T10:21:39Z</time>
      </trkpt>
      <trkpt lat="43.319" lon="5.71142">
        <ele>865.5</ele>
        <time>2014-03-19T10:21:42Z</time>
      </trkpt>
      <trkpt lat="43.319" lon="5.71147">
        <ele>866.5</ele>
        <time>2014-03-19T10:21:45Z</time>
      </trkpt>
      <trkpt lat="43.31899" lon="5.71153">
        <ele>866.7</ele>
        <time>2014-03-19T10:21:49Z</time>
      </trkpt>
      <trkpt lat="43.31899" lon="5.71153">
        <ele>866.7</ele>
        <time>2014-03-19T10:21:50Z</time>
      </trkpt>
      <trkpt lat="43.31902" lon="5.71162">
        <ele>867</ele>
        <time>2014-03-19T10:21:58Z</time>
      </trkpt>
      <trkpt lat="43.31902" lon="5.71167">
        <ele>866.5</ele>
        <time>2014-03-19T10:22:02Z</time>
      </trkpt>
      <trkpt lat="43.31901" lon="5.71172">
        <ele>865.7</ele>
        <time>2014-03-19T10:22:04Z</time>
      </trkpt>
      <trkpt lat="43.319" lon="5.71177">
        <ele>865</ele>
        <time>2014-03-19T10:22:07Z</time>
      </trkpt>
      <trkpt lat="43.31899" lon="5.71182">
        <ele>866.2</ele>
        <time>2014-03-19T10:22:09Z</time>
      </trkpt>
      <trkpt lat="43.31899" lon="5.71187">
        <ele>867.2</ele>
        <time>2014-03-19T10:22:11Z</time>
      </trkpt>
      <trkpt lat="43.31897" lon="5.71191">
        <ele>868</ele>
        <time>2014-03-19T10:22:13Z</time>
      </trkpt>
      <trkpt lat="43.31897" lon="5.71195">
        <ele>867.7</ele>
        <time>2014-03-19T10:22:16Z</time>
      </trkpt>
      <trkpt lat="43.31895" lon="5.712">
        <ele>867.5</ele>
        <time>2014-03-19T10:22:19Z</time>
      </trkpt>
      <trkpt lat="43.31893" lon="5.71205">
        <ele>867.4</ele>
        <time>2014-03-19T10:22:23Z</time>
      </trkpt>
      <trkpt lat="43.31891" lon="5.7121">
        <ele>867.9</ele>
        <time>2014-03-19T10:22:27Z</time>
      </trkpt>
      <trkpt lat="43.31889" lon="5.71215">
        <ele>867.5</ele>
        <time>2014-03-19T10:22:31Z</time>
      </trkpt>
      <trkpt lat="43.31887" lon="5.7122">
        <ele>868</ele>
        <time>2014-03-19T10:22:35Z</time>
      </trkpt>
      <trkpt lat="43.31885" lon="5.71225">
        <ele>868.5</ele>
        <time>2014-03-19T10:22:39Z</time>
      </trkpt>
      <trkpt lat="43.31882" lon="5.71229">
        <ele>867</ele>
        <time>2014-03-19T10:22:43Z</time>
      </trkpt>
      <trkpt lat="43.31879" lon="5.71233">
        <ele>866</ele>
        <time>2014-03-19T10:22:47Z</time>
      </trkpt>
      <trkpt lat="43.31877" lon="5.71237">
        <ele>866.2</ele>
        <time>2014-03-19T10:22:53Z</time>
      </trkpt>
      <trkpt lat="43.31876" lon="5.71239">
        <ele>867.2</ele>
        <time>2014-03-19T10:22:54Z</time>
      </trkpt>
      <trkpt lat="43.31873" lon="5.71246">
        <ele>870.5</ele>
        <time>2014-03-19T10:22:58Z</time>
      </trkpt>
      <trkpt lat="43.31871" lon="5.7125">
        <ele>872</ele>
        <time>2014-03-19T10:23:00Z</time>
      </trkpt>
      <trkpt lat="43.31869" lon="5.71254">
        <ele>873.2</ele>
        <time>2014-03-19T10:23:02Z</time>
      </trkpt>
      <trkpt lat="43.31866" lon="5.71259">
        <ele>873.9</ele>
        <time>2014-03-19T10:23:05Z</time>
      </trkpt>
      <trkpt lat="43.31864" lon="5.71263">
        <ele>873.4</ele>
        <time>2014-03-19T10:23:09Z</time>
      </trkpt>
      <trkpt lat="43.31863" lon="5.71268">
        <ele>874.2</ele>
        <time>2014-03-19T10:23:13Z</time>
      </trkpt>
      <trkpt lat="43.31861" lon="5.71272">
        <ele>872.2</ele>
        <time>2014-03-19T10:23:16Z</time>
      </trkpt>
      <trkpt lat="43.3186" lon="5.71278">
        <ele>872.7</ele>
        <time>2014-03-19T10:23:19Z</time>
      </trkpt>
      <trkpt lat="43.31859" lon="5.71283">
        <ele>871.7</ele>
        <time>2014-03-19T10:23:24Z</time>
      </trkpt>
      <trkpt lat="43.31858" lon="5.71285">
        <ele>872.4</ele>
        <time>2014-03-19T10:23:25Z</time>
      </trkpt>
      <trkpt lat="43.31857" lon="5.71289">
        <ele>873.5</ele>
        <time>2014-03-19T10:23:26Z</time>
      </trkpt>
      <trkpt lat="43.31856" lon="5.71293">
        <ele>873.7</ele>
        <time>2014-03-19T10:23:28Z</time>
      </trkpt>
      <trkpt lat="43.31855" lon="5.71299">
        <ele>874.7</ele>
        <time>2014-03-19T10:23:32Z</time>
      </trkpt>
      <trkpt lat="43.31854" lon="5.71304">
        <ele>874</ele>
        <time>2014-03-19T10:23:36Z</time>
      </trkpt>
      <trkpt lat="43.31854" lon="5.7131">
        <ele>873.2</ele>
        <time>2014-03-19T10:23:41Z</time>
      </trkpt>
      <trkpt lat="43.31854" lon="5.71315">
        <ele>872.7</ele>
        <time>2014-03-19T10:23:46Z</time>
      </trkpt>
      <trkpt lat="43.31854" lon="5.71321">
        <ele>872.5</ele>
        <time>2014-03-19T10:23:51Z</time>
      </trkpt>
      <trkpt lat="43.31855" lon="5.71327">
        <ele>871.5</ele>
        <time>2014-03-19T10:23:56Z</time>
      </trkpt>
      <trkpt lat="43.31855" lon="5.71328">
        <ele>871.7</ele>
        <time>2014-03-19T10:23:57Z</time>
      </trkpt>
      <trkpt lat="43.31853" lon="5.71338">
        <ele>870.9</ele>
        <time>2014-03-19T10:24:03Z</time>
      </trkpt>
      <trkpt lat="43.31853" lon="5.71343">
        <ele>871</ele>
        <time>2014-03-19T10:24:06Z</time>
      </trkpt>
      <trkpt lat="43.31852" lon="5.71349">
        <ele>871</ele>
        <time>2014-03-19T10:24:09Z</time>
      </trkpt>
      <trkpt lat="43.31854" lon="5.71352">
        <ele>873</ele>
        <time>2014-03-19T10:24:12Z</time>
      </trkpt>
      <trkpt lat="43.31853" lon="5.71357">
        <ele>873.7</ele>
        <time>2014-03-19T10:24:14Z</time>
      </trkpt>
      <trkpt lat="43.31853" lon="5.71361">
        <ele>874</ele>
        <time>2014-03-19T10:24:16Z</time>
      </trkpt>
      <trkpt lat="43.31852" lon="5.71366">
        <ele>875.2</ele>
        <time>2014-03-19T10:24:18Z</time>
      </trkpt>
      <trkpt lat="43.3185" lon="5.71372">
        <ele>875.2</ele>
        <time>2014-03-19T10:24:21Z</time>
      </trkpt>
      <trkpt lat="43.31849" lon="5.71377">
        <ele>873.5</ele>
        <time>2014-03-19T10:24:25Z</time>
      </trkpt>
      <trkpt lat="43.31848" lon="5.71382">
        <ele>871.5</ele>
        <time>2014-03-19T10:24:28Z</time>
      </trkpt>
      <trkpt lat="43.31849" lon="5.71388">
        <ele>872.7</ele>
        <time>2014-03-19T10:24:32Z</time>
      </trkpt>
      <trkpt lat="43.3185" lon="5.71393">
        <ele>871.5</ele>
        <time>2014-03-19T10:24:38Z</time>
      </trkpt>
      <trkpt lat="43.31851" lon="5.71399">
        <ele>873.9</ele>
        <time>2014-03-19T10:24:42Z</time>
      </trkpt>
      <trkpt lat="43.3185" lon="5.71403">
        <ele>875</ele>
        <time>2014-03-19T10:24:45Z</time>
      </trkpt>
      <trkpt lat="43.31848" lon="5.71408">
        <ele>873.2</ele>
        <time>2014-03-19T10:24:48Z</time>
      </trkpt>
      <trkpt lat="43.31848" lon="5.71412">
        <ele>873.9</ele>
        <time>2014-03-19T10:24:51Z</time>
      </trkpt>
      <trkpt lat="43.31848" lon="5.71417">
        <ele>875.4</ele>
        <time>2014-03-19T10:24:55Z</time>
      </trkpt>
      <trkpt lat="43.31848" lon="5.71423">
        <ele>876.5</ele>
        <time>2014-03-19T10:24:58Z</time>
      </trkpt>
      <trkpt lat="43.31848" lon="5.71424">
        <ele>876.7</ele>
        <time>2014-03-19T10:24:59Z</time>
      </trkpt>
      <trkpt lat="43.31849" lon="5.71434">
        <ele>879</ele>
        <time>2014-03-19T10:25:05Z</time>
      </trkpt>
      <trkpt lat="43.31849" lon="5.7144">
        <ele>878.5</ele>
        <time>2014-03-19T10:25:09Z</time>
      </trkpt>
      <trkpt lat="43.31848" lon="5.71444">
        <ele>878.5</ele>
        <time>2014-03-19T10:25:11Z</time>
      </trkpt>
      <trkpt lat="43.31847" lon="5.71448">
        <ele>877.5</ele>
        <time>2014-03-19T10:25:14Z</time>
      </trkpt>
      <trkpt lat="43.31847" lon="5.71453">
        <ele>879.4</ele>
        <time>2014-03-19T10:25:17Z</time>
      </trkpt>
      <trkpt lat="43.31847" lon="5.71459">
        <ele>879.5</ele>
        <time>2014-03-19T10:25:21Z</time>
      </trkpt>
      <trkpt lat="43.31848" lon="5.71463">
        <ele>881.2</ele>
        <time>2014-03-19T10:25:24Z</time>
      </trkpt>
      <trkpt lat="43.31847" lon="5.71469">
        <ele>882.2</ele>
        <time>2014-03-19T10:25:28Z</time>
      </trkpt>
      <trkpt lat="43.31848" lon="5.71474">
        <ele>883.5</ele>
        <time>2014-03-19T10:25:31Z</time>
      </trkpt>
      <trkpt lat="43.31848" lon="5.7148">
        <ele>883.7</ele>
        <time>2014-03-19T10:25:34Z</time>
      </trkpt>
      <trkpt lat="43.31848" lon="5.71486">
        <ele>883</ele>
        <time>2014-03-19T10:25:39Z</time>
      </trkpt>
      <trkpt lat="43.31849" lon="5.71491">
        <ele>880.4</ele>
        <time>2014-03-19T10:25:43Z</time>
      </trkpt>
      <trkpt lat="43.3185" lon="5.71496">
        <ele>878.7</ele>
        <time>2014-03-19T10:25:47Z</time>
      </trkpt>
      <trkpt lat="43.31849" lon="5.71501">
        <ele>878.7</ele>
        <time>2014-03-19T10:25:50Z</time>
      </trkpt>
      <trkpt lat="43.3185" lon="5.71506">
        <ele>877.5</ele>
        <time>2014-03-19T10:25:54Z</time>
      </trkpt>
      <trkpt lat="43.31851" lon="5.71512">
        <ele>877.2</ele>
        <time>2014-03-19T10:25:58Z</time>
      </trkpt>
      <trkpt lat="43.31851" lon="5.71518">
        <ele>878.4</ele>
        <time>2014-03-19T10:26:01Z</time>
      </trkpt>
      <trkpt lat="43.31851" lon="5.71519">
        <ele>878.5</ele>
        <time>2014-03-19T10:26:02Z</time>
      </trkpt>
      <trkpt lat="43.31852" lon="5.71527">
        <ele>879.2</ele>
        <time>2014-03-19T10:26:08Z</time>
      </trkpt>
      <trkpt lat="43.31851" lon="5.71533">
        <ele>878.4</ele>
        <time>2014-03-19T10:26:11Z</time>
      </trkpt>
      <trkpt lat="43.3185" lon="5.71538">
        <ele>877.7</ele>
        <time>2014-03-19T10:26:14Z</time>
      </trkpt>
      <trkpt lat="43.31852" lon="5.71544">
        <ele>875</ele>
        <time>2014-03-19T10:26:19Z</time>
      </trkpt>
      <trkpt lat="43.31853" lon="5.71549">
        <ele>873.5</ele>
        <time>2014-03-19T10:26:23Z</time>
      </trkpt>
      <trkpt lat="43.31854" lon="5.71553">
        <ele>873</ele>
        <time>2014-03-19T10:26:26Z</time>
      </trkpt>
      <trkpt lat="43.31855" lon="5.71558">
        <ele>873.5</ele>
        <time>2014-03-19T10:26:29Z</time>
      </trkpt>
      <trkpt lat="43.31857" lon="5.71563">
        <ele>873.2</ele>
        <time>2014-03-19T10:26:33Z</time>
      </trkpt>
      <trkpt lat="43.31859" lon="5.71568">
        <ele>873.5</ele>
        <time>2014-03-19T10:26:37Z</time>
      </trkpt>
      <trkpt lat="43.31861" lon="5.71573">
        <ele>872.7</ele>
        <time>2014-03-19T10:26:41Z</time>
      </trkpt>
      <trkpt lat="43.31861" lon="5.71578">
        <ele>873.2</ele>
        <time>2014-03-19T10:26:44Z</time>
      </trkpt>
      <trkpt lat="43.31862" lon="5.71582">
        <ele>873.5</ele>
        <time>2014-03-19T10:26:47Z</time>
      </trkpt>
      <trkpt lat="43.31863" lon="5.71587">
        <ele>874.9</ele>
        <time>2014-03-19T10:26:50Z</time>
      </trkpt>
      <trkpt lat="43.31864" lon="5.71591">
        <ele>876.4</ele>
        <time>2014-03-19T10:26:53Z</time>
      </trkpt>
      <trkpt lat="43.31866" lon="5.71595">
        <ele>876.5</ele>
        <time>2014-03-19T10:26:56Z</time>
      </trkpt>
      <trkpt lat="43.31869" lon="5.71598">
        <ele>877.2</ele>
        <time>2014-03-19T10:26:59Z</time>
      </trkpt>
      <trkpt lat="43.31871" lon="5.71603">
        <ele>879.7</ele>
        <time>2014-03-19T10:27:03Z</time>
      </trkpt>
      <trkpt lat="43.31871" lon="5.71605">
        <ele>880</ele>
        <time>2014-03-19T10:27:04Z</time>
      </trkpt>
      <trkpt lat="43.31876" lon="5.71612">
        <ele>880.7</ele>
        <time>2014-03-19T10:27:10Z</time>
      </trkpt>
      <trkpt lat="43.3188" lon="5.71613">
        <ele>883.7</ele>
        <time>2014-03-19T10:27:12Z</time>
      </trkpt>
      <trkpt lat="43.31884" lon="5.71616">
        <ele>886.5</ele>
        <time>2014-03-19T10:27:14Z</time>
      </trkpt>
      <trkpt lat="43.31886" lon="5.71616">
        <ele>887.5</ele>
        <time>2014-03-19T10:27:15Z</time>
      </trkpt>
      <trkpt lat="43.31888" lon="5.71616">
        <ele>889.4</ele>
        <time>2014-03-19T10:27:16Z</time>
      </trkpt>
      <trkpt lat="43.31893" lon="5.71617">
        <ele>892</ele>
        <time>2014-03-19T10:27:18Z</time>
      </trkpt>
      <trkpt lat="43.31897" lon="5.7162">
        <ele>894</ele>
        <time>2014-03-19T10:27:21Z</time>
      </trkpt>
      <trkpt lat="43.319" lon="5.71622">
        <ele>895.4</ele>
        <time>2014-03-19T10:27:24Z</time>
      </trkpt>
      <trkpt lat="43.31903" lon="5.71626">
        <ele>896.2</ele>
        <time>2014-03-19T10:27:28Z</time>
      </trkpt>
      <trkpt lat="43.31906" lon="5.71628">
        <ele>895</ele>
        <time>2014-03-19T10:27:31Z</time>
      </trkpt>
      <trkpt lat="43.31909" lon="5.71631">
        <ele>894</ele>
        <time>2014-03-19T10:27:34Z</time>
      </trkpt>
      <trkpt lat="43.31911" lon="5.71636">
        <ele>893</ele>
        <time>2014-03-19T10:27:37Z</time>
      </trkpt>
      <trkpt lat="43.31914" lon="5.7164">
        <ele>890.7</ele>
        <time>2014-03-19T10:27:41Z</time>
      </trkpt>
      <trkpt lat="43.31918" lon="5.71644">
        <ele>889.2</ele>
        <time>2014-03-19T10:27:45Z</time>
      </trkpt>
      <trkpt lat="43.3192" lon="5.71648">
        <ele>889.5</ele>
        <time>2014-03-19T10:27:49Z</time>
      </trkpt>
      <trkpt lat="43.31923" lon="5.71652">
        <ele>889.4</ele>
        <time>2014-03-19T10:27:53Z</time>
      </trkpt>
      <trkpt lat="43.31926" lon="5.71655">
        <ele>888.9</ele>
        <time>2014-03-19T10:27:56Z</time>
      </trkpt>
      <trkpt lat="43.31927" lon="5.7166">
        <ele>889</ele>
        <time>2014-03-19T10:28:00Z</time>
      </trkpt>
      <trkpt lat="43.31929" lon="5.71665">
        <ele>887.5</ele>
        <time>2014-03-19T10:28:05Z</time>
      </trkpt>
      <trkpt lat="43.31929" lon="5.71667">
        <ele>887.4</ele>
        <time>2014-03-19T10:28:06Z</time>
      </trkpt>
      <trkpt lat="43.31931" lon="5.71676">
        <ele>888.7</ele>
        <time>2014-03-19T10:28:13Z</time>
      </trkpt>
      <trkpt lat="43.31931" lon="5.71681">
        <ele>889.9</ele>
        <time>2014-03-19T10:28:16Z</time>
      </trkpt>
      <trkpt lat="43.31932" lon="5.71686">
        <ele>889.5</ele>
        <time>2014-03-19T10:28:20Z</time>
      </trkpt>
      <trkpt lat="43.31933" lon="5.71692">
        <ele>890.2</ele>
        <time>2014-03-19T10:28:24Z</time>
      </trkpt>
      <trkpt lat="43.31935" lon="5.71697">
        <ele>891.5</ele>
        <time>2014-03-19T10:28:28Z</time>
      </trkpt>
      <trkpt lat="43.31936" lon="5.71703">
        <ele>892.7</ele>
        <time>2014-03-19T10:28:32Z</time>
      </trkpt>
      <trkpt lat="43.31936" lon="5.71708">
        <ele>891.2</ele>
        <time>2014-03-19T10:28:36Z</time>
      </trkpt>
      <trkpt lat="43.31935" lon="5.71713">
        <ele>891.2</ele>
        <time>2014-03-19T10:28:40Z</time>
      </trkpt>
      <trkpt lat="43.31935" lon="5.71718">
        <ele>890.2</ele>
        <time>2014-03-19T10:28:44Z</time>
      </trkpt>
      <trkpt lat="43.31935" lon="5.71723">
        <ele>889.9</ele>
        <time>2014-03-19T10:28:47Z</time>
      </trkpt>
      <trkpt lat="43.31935" lon="5.71728">
        <ele>889.2</ele>
        <time>2014-03-19T10:28:50Z</time>
      </trkpt>
      <trkpt lat="43.31935" lon="5.71733">
        <ele>888.7</ele>
        <time>2014-03-19T10:28:54Z</time>
      </trkpt>
      <trkpt lat="43.31934" lon="5.71738">
        <ele>889.5</ele>
        <time>2014-03-19T10:28:57Z</time>
      </trkpt>
      <trkpt lat="43.31934" lon="5.71744">
        <ele>890.2</ele>
        <time>2014-03-19T10:29:01Z</time>
      </trkpt>
      <trkpt lat="43.31932" lon="5.71749">
        <ele>890.5</ele>
        <time>2014-03-19T10:29:05Z</time>
      </trkpt>
      <trkpt lat="43.31931" lon="5.71753">
        <ele>890.5</ele>
        <time>2014-03-19T10:29:08Z</time>
      </trkpt>
      <trkpt lat="43.3193" lon="5.71754">
        <ele>890.5</ele>
        <time>2014-03-19T10:29:09Z</time>
      </trkpt>
      <trkpt lat="43.31927" lon="5.7176">
        <ele>890.2</ele>
        <time>2014-03-19T10:29:14Z</time>
      </trkpt>
      <trkpt lat="43.31924" lon="5.71765">
        <ele>890.7</ele>
        <time>2014-03-19T10:29:18Z</time>
      </trkpt>
      <trkpt lat="43.31922" lon="5.7177">
        <ele>891.4</ele>
        <time>2014-03-19T10:29:22Z</time>
      </trkpt>
      <trkpt lat="43.31921" lon="5.71774">
        <ele>892.7</ele>
        <time>2014-03-19T10:29:25Z</time>
      </trkpt>
      <trkpt lat="43.31919" lon="5.71778">
        <ele>895</ele>
        <time>2014-03-19T10:29:27Z</time>
      </trkpt>
      <trkpt lat="43.31917" lon="5.71783">
        <ele>896.9</ele>
        <time>2014-03-19T10:29:31Z</time>
      </trkpt>
      <trkpt lat="43.31914" lon="5.71787">
        <ele>897</ele>
        <time>2014-03-19T10:29:35Z</time>
      </trkpt>
      <trkpt lat="43.31911" lon="5.71791">
        <ele>896.2</ele>
        <time>2014-03-19T10:29:39Z</time>
      </trkpt>
      <trkpt lat="43.31909" lon="5.71796">
        <ele>896.9</ele>
        <time>2014-03-19T10:29:42Z</time>
      </trkpt>
      <trkpt lat="43.31907" lon="5.718">
        <ele>897.4</ele>
        <time>2014-03-19T10:29:45Z</time>
      </trkpt>
      <trkpt lat="43.31904" lon="5.71805">
        <ele>900</ele>
        <time>2014-03-19T10:29:49Z</time>
      </trkpt>
      <trkpt lat="43.31902" lon="5.71809">
        <ele>900.7</ele>
        <time>2014-03-19T10:29:53Z</time>
      </trkpt>
      <trkpt lat="43.31899" lon="5.71812">
        <ele>901</ele>
        <time>2014-03-19T10:29:57Z</time>
      </trkpt>
      <trkpt lat="43.31898" lon="5.71817">
        <ele>902.4</ele>
        <time>2014-03-19T10:30:01Z</time>
      </trkpt>
      <trkpt lat="43.31897" lon="5.71823">
        <ele>901.4</ele>
        <time>2014-03-19T10:30:05Z</time>
      </trkpt>
      <trkpt lat="43.31897" lon="5.71828">
        <ele>900</ele>
        <time>2014-03-19T10:30:08Z</time>
      </trkpt>
      <trkpt lat="43.31897" lon="5.71833">
        <ele>901.4</ele>
        <time>2014-03-19T10:30:12Z</time>
      </trkpt>
      <trkpt lat="43.31897" lon="5.71834">
        <ele>901.5</ele>
        <time>2014-03-19T10:30:13Z</time>
      </trkpt>
      <trkpt lat="43.31899" lon="5.71842">
        <ele>900.4</ele>
        <time>2014-03-19T10:30:19Z</time>
      </trkpt>
      <trkpt lat="43.31901" lon="5.71847">
        <ele>900.7</ele>
        <time>2014-03-19T10:30:22Z</time>
      </trkpt>
      <trkpt lat="43.31902" lon="5.71852">
        <ele>901.5</ele>
        <time>2014-03-19T10:30:25Z</time>
      </trkpt>
      <trkpt lat="43.31905" lon="5.71853">
        <ele>902.2</ele>
        <time>2014-03-19T10:30:27Z</time>
      </trkpt>
      <trkpt lat="43.31908" lon="5.71855">
        <ele>904.4</ele>
        <time>2014-03-19T10:30:29Z</time>
      </trkpt>
      <trkpt lat="43.31909" lon="5.7186">
        <ele>905.2</ele>
        <time>2014-03-19T10:30:32Z</time>
      </trkpt>
      <trkpt lat="43.3191" lon="5.71865">
        <ele>902.9</ele>
        <time>2014-03-19T10:30:36Z</time>
      </trkpt>
      <trkpt lat="43.31913" lon="5.71867">
        <ele>904.5</ele>
        <time>2014-03-19T10:30:38Z</time>
      </trkpt>
      <trkpt lat="43.31915" lon="5.71871">
        <ele>905</ele>
        <time>2014-03-19T10:30:41Z</time>
      </trkpt>
      <trkpt lat="43.31918" lon="5.71874">
        <ele>907</ele>
        <time>2014-03-19T10:30:44Z</time>
      </trkpt>
      <trkpt lat="43.31921" lon="5.71878">
        <ele>908.7</ele>
        <time>2014-03-19T10:30:47Z</time>
      </trkpt>
      <trkpt lat="43.31924" lon="5.71882">
        <ele>907.9</ele>
        <time>2014-03-19T10:30:51Z</time>
      </trkpt>
      <trkpt lat="43.31927" lon="5.71885">
        <ele>908.7</ele>
        <time>2014-03-19T10:30:54Z</time>
      </trkpt>
      <trkpt lat="43.3193" lon="5.71889">
        <ele>909.2</ele>
        <time>2014-03-19T10:30:58Z</time>
      </trkpt>
      <trkpt lat="43.31933" lon="5.71893">
        <ele>909.9</ele>
        <time>2014-03-19T10:31:02Z</time>
      </trkpt>
      <trkpt lat="43.31935" lon="5.71897">
        <ele>907.4</ele>
        <time>2014-03-19T10:31:05Z</time>
      </trkpt>
      <trkpt lat="43.31938" lon="5.71898">
        <ele>904.7</ele>
        <time>2014-03-19T10:31:08Z</time>
      </trkpt>
      <trkpt lat="43.31941" lon="5.71902">
        <ele>903.7</ele>
        <time>2014-03-19T10:31:11Z</time>
      </trkpt>
      <trkpt lat="43.31944" lon="5.71906">
        <ele>904</ele>
        <time>2014-03-19T10:31:15Z</time>
      </trkpt>
      <trkpt lat="43.31945" lon="5.71906">
        <ele>904.2</ele>
        <time>2014-03-19T10:31:16Z</time>
      </trkpt>
      <trkpt lat="43.31951" lon="5.71912">
        <ele>906.5</ele>
        <time>2014-03-19T10:31:22Z</time>
      </trkpt>
      <trkpt lat="43.31953" lon="5.71917">
        <ele>905.7</ele>
        <time>2014-03-19T10:31:26Z</time>
      </trkpt>
      <trkpt lat="43.31955" lon="5.71922">
        <ele>905</ele>
        <time>2014-03-19T10:31:30Z</time>
      </trkpt>
      <trkpt lat="43.31958" lon="5.71926">
        <ele>903.2</ele>
        <time>2014-03-19T10:31:34Z</time>
      </trkpt>
      <trkpt lat="43.31959" lon="5.71931">
        <ele>902.7</ele>
        <time>2014-03-19T10:31:38Z</time>
      </trkpt>
      <trkpt lat="43.31961" lon="5.71936">
        <ele>903.7</ele>
        <time>2014-03-19T10:31:42Z</time>
      </trkpt>
      <trkpt lat="43.31961" lon="5.71941">
        <ele>903.2</ele>
        <time>2014-03-19T10:31:45Z</time>
      </trkpt>
      <trkpt lat="43.31963" lon="5.71946">
        <ele>904.5</ele>
        <time>2014-03-19T10:31:48Z</time>
      </trkpt>
      <trkpt lat="43.31963" lon="5.71952">
        <ele>904.2</ele>
        <time>2014-03-19T10:31:52Z</time>
      </trkpt>
      <trkpt lat="43.31963" lon="5.71957">
        <ele>903</ele>
        <time>2014-03-19T10:31:55Z</time>
      </trkpt>
      <trkpt lat="43.31963" lon="5.71962">
        <ele>903.2</ele>
        <time>2014-03-19T10:31:58Z</time>
      </trkpt>
      <trkpt lat="43.31964" lon="5.71967">
        <ele>903.5</ele>
        <time>2014-03-19T10:32:01Z</time>
      </trkpt>
      <trkpt lat="43.31963" lon="5.71973">
        <ele>902.7</ele>
        <time>2014-03-19T10:32:05Z</time>
      </trkpt>
      <trkpt lat="43.31962" lon="5.71977">
        <ele>901.5</ele>
        <time>2014-03-19T10:32:08Z</time>
      </trkpt>
      <trkpt lat="43.31962" lon="5.71983">
        <ele>900.7</ele>
        <time>2014-03-19T10:32:13Z</time>
      </trkpt>
      <trkpt lat="43.31962" lon="5.71988">
        <ele>900.7</ele>
        <time>2014-03-19T10:32:16Z</time>
      </trkpt>
      <trkpt lat="43.31961" lon="5.7199">
        <ele>900.9</ele>
        <time>2014-03-19T10:32:17Z</time>
      </trkpt>
      <trkpt lat="43.31962" lon="5.71999">
        <ele>902.9</ele>
        <time>2014-03-19T10:32:23Z</time>
      </trkpt>
      <trkpt lat="43.31963" lon="5.72004">
        <ele>904.7</ele>
        <time>2014-03-19T10:32:27Z</time>
      </trkpt>
      <trkpt lat="43.31964" lon="5.72009">
        <ele>906.2</ele>
        <time>2014-03-19T10:32:31Z</time>
      </trkpt>
      <trkpt lat="43.31964" lon="5.72015">
        <ele>907</ele>
        <time>2014-03-19T10:32:35Z</time>
      </trkpt>
      <trkpt lat="43.31963" lon="5.72021">
        <ele>907.5</ele>
        <time>2014-03-19T10:32:39Z</time>
      </trkpt>
      <trkpt lat="43.31964" lon="5.72027">
        <ele>909.2</ele>
        <time>2014-03-19T10:32:43Z</time>
      </trkpt>
      <trkpt lat="43.31964" lon="5.72033">
        <ele>911.4</ele>
        <time>2014-03-19T10:32:47Z</time>
      </trkpt>
      <trkpt lat="43.31965" lon="5.72038">
        <ele>912.9</ele>
        <time>2014-03-19T10:32:51Z</time>
      </trkpt>
      <trkpt lat="43.31965" lon="5.72044">
        <ele>915</ele>
        <time>2014-03-19T10:32:55Z</time>
      </trkpt>
      <trkpt lat="43.31966" lon="5.7205">
        <ele>914.2</ele>
        <time>2014-03-19T10:32:59Z</time>
      </trkpt>
      <trkpt lat="43.31966" lon="5.72055">
        <ele>912.4</ele>
        <time>2014-03-19T10:33:03Z</time>
      </trkpt>
      <trkpt lat="43.31966" lon="5.72059">
        <ele>912.2</ele>
        <time>2014-03-19T10:33:05Z</time>
      </trkpt>
      <trkpt lat="43.31966" lon="5.72064">
        <ele>912.4</ele>
        <time>2014-03-19T10:33:07Z</time>
      </trkpt>
      <trkpt lat="43.31965" lon="5.72068">
        <ele>912.5</ele>
        <time>2014-03-19T10:33:09Z</time>
      </trkpt>
      <trkpt lat="43.31966" lon="5.72072">
        <ele>913</ele>
        <time>2014-03-19T10:33:11Z</time>
      </trkpt>
      <trkpt lat="43.31967" lon="5.72076">
        <ele>914</ele>
        <time>2014-03-19T10:33:13Z</time>
      </trkpt>
      <trkpt lat="43.31967" lon="5.72081">
        <ele>914.2</ele>
        <time>2014-03-19T10:33:16Z</time>
      </trkpt>
      <trkpt lat="43.31968" lon="5.72085">
        <ele>913</ele>
        <time>2014-03-19T10:33:19Z</time>
      </trkpt>
      <trkpt lat="43.31968" lon="5.72088">
        <ele>913</ele>
        <time>2014-03-19T10:33:20Z</time>
      </trkpt>
      <trkpt lat="43.3197" lon="5.72096">
        <ele>914.5</ele>
        <time>2014-03-19T10:33:26Z</time>
      </trkpt>
      <trkpt lat="43.31971" lon="5.72101">
        <ele>915.4</ele>
        <time>2014-03-19T10:33:29Z</time>
      </trkpt>
      <trkpt lat="43.31972" lon="5.72106">
        <ele>915</ele>
        <time>2014-03-19T10:33:32Z</time>
      </trkpt>
      <trkpt lat="43.31973" lon="5.72111">
        <ele>915.9</ele>
        <time>2014-03-19T10:33:35Z</time>
      </trkpt>
      <trkpt lat="43.31974" lon="5.72115">
        <ele>916.7</ele>
        <time>2014-03-19T10:33:38Z</time>
      </trkpt>
      <trkpt lat="43.31976" lon="5.7212">
        <ele>916.4</ele>
        <time>2014-03-19T10:33:41Z</time>
      </trkpt>
      <trkpt lat="43.31976" lon="5.72124">
        <ele>915</ele>
        <time>2014-03-19T10:33:44Z</time>
      </trkpt>
      <trkpt lat="43.31976" lon="5.72129">
        <ele>915.5</ele>
        <time>2014-03-19T10:33:47Z</time>
      </trkpt>
      <trkpt lat="43.31978" lon="5.72134">
        <ele>916.7</ele>
        <time>2014-03-19T10:33:50Z</time>
      </trkpt>
      <trkpt lat="43.31979" lon="5.72139">
        <ele>918.2</ele>
        <time>2014-03-19T10:33:53Z</time>
      </trkpt>
      <trkpt lat="43.3198" lon="5.72143">
        <ele>919</ele>
        <time>2014-03-19T10:33:55Z</time>
      </trkpt>
      <trkpt lat="43.3198" lon="5.72148">
        <ele>920.5</ele>
        <time>2014-03-19T10:33:58Z</time>
      </trkpt>
      <trkpt lat="43.3198" lon="5.72153">
        <ele>921.5</ele>
        <time>2014-03-19T10:34:01Z</time>
      </trkpt>
      <trkpt lat="43.31981" lon="5.72158">
        <ele>921.5</ele>
        <time>2014-03-19T10:34:04Z</time>
      </trkpt>
      <trkpt lat="43.31982" lon="5.72163">
        <ele>922</ele>
        <time>2014-03-19T10:34:07Z</time>
      </trkpt>
      <trkpt lat="43.31981" lon="5.7217">
        <ele>922.2</ele>
        <time>2014-03-19T10:34:10Z</time>
      </trkpt>
      <trkpt lat="43.31983" lon="5.72174">
        <ele>921</ele>
        <time>2014-03-19T10:34:14Z</time>
      </trkpt>
      <trkpt lat="43.31986" lon="5.72178">
        <ele>920</ele>
        <time>2014-03-19T10:34:19Z</time>
      </trkpt>
      <trkpt lat="43.31986" lon="5.72184">
        <ele>919.5</ele>
        <time>2014-03-19T10:34:23Z</time>
      </trkpt>
      <trkpt lat="43.31987" lon="5.72185">
        <ele>919.5</ele>
        <time>2014-03-19T10:34:24Z</time>
      </trkpt>
      <trkpt lat="43.3199" lon="5.72193">
        <ele>920.9</ele>
        <time>2014-03-19T10:34:30Z</time>
      </trkpt>
      <trkpt lat="43.3199" lon="5.72198">
        <ele>922.4</ele>
        <time>2014-03-19T10:34:33Z</time>
      </trkpt>
      <trkpt lat="43.3199" lon="5.72202">
        <ele>922.7</ele>
        <time>2014-03-19T10:34:35Z</time>
      </trkpt>
      <trkpt lat="43.3199" lon="5.72208">
        <ele>921.2</ele>
        <time>2014-03-19T10:34:39Z</time>
      </trkpt>
      <trkpt lat="43.31993" lon="5.72212">
        <ele>919.2</ele>
        <time>2014-03-19T10:34:43Z</time>
      </trkpt>
      <trkpt lat="43.31994" lon="5.72218">
        <ele>920</ele>
        <time>2014-03-19T10:34:47Z</time>
      </trkpt>
      <trkpt lat="43.31994" lon="5.72224">
        <ele>919.7</ele>
        <time>2014-03-19T10:34:51Z</time>
      </trkpt>
      <trkpt lat="43.31995" lon="5.72229">
        <ele>919.7</ele>
        <time>2014-03-19T10:34:54Z</time>
      </trkpt>
      <trkpt lat="43.31995" lon="5.72235">
        <ele>920</ele>
        <time>2014-03-19T10:34:58Z</time>
      </trkpt>
      <trkpt lat="43.31997" lon="5.7224">
        <ele>920.2</ele>
        <time>2014-03-19T10:35:03Z</time>
      </trkpt>
      <trkpt lat="43.32" lon="5.72244">
        <ele>919.7</ele>
        <time>2014-03-19T10:35:08Z</time>
      </trkpt>
      <trkpt lat="43.32001" lon="5.72249">
        <ele>920.5</ele>
        <time>2014-03-19T10:35:12Z</time>
      </trkpt>
      <trkpt lat="43.32002" lon="5.72255">
        <ele>919.2</ele>
        <time>2014-03-19T10:35:17Z</time>
      </trkpt>
      <trkpt lat="43.32001" lon="5.7226">
        <ele>920.5</ele>
        <time>2014-03-19T10:35:19Z</time>
      </trkpt>
      <trkpt lat="43.32" lon="5.72266">
        <ele>921.5</ele>
        <time>2014-03-19T10:35:21Z</time>
      </trkpt>
      <trkpt lat="43.32" lon="5.7227">
        <ele>920.5</ele>
        <time>2014-03-19T10:35:23Z</time>
      </trkpt>
      <trkpt lat="43.31999" lon="5.72274">
        <ele>919.9</ele>
        <time>2014-03-19T10:35:25Z</time>
      </trkpt>
      <trkpt lat="43.31999" lon="5.72276">
        <ele>919.4</ele>
        <time>2014-03-19T10:35:26Z</time>
      </trkpt>
      <trkpt lat="43.32003" lon="5.72283">
        <ele>917.9</ele>
        <time>2014-03-19T10:35:32Z</time>
      </trkpt>
      <trkpt lat="43.32005" lon="5.72286">
        <ele>917.2</ele>
        <time>2014-03-19T10:35:35Z</time>
      </trkpt>
      <trkpt lat="43.32007" lon="5.72291">
        <ele>917.4</ele>
        <time>2014-03-19T10:35:38Z</time>
      </trkpt>
      <trkpt lat="43.32006" lon="5.72295">
        <ele>917.2</ele>
        <time>2014-03-19T10:35:40Z</time>
      </trkpt>
      <trkpt lat="43.32006" lon="5.723">
        <ele>917.9</ele>
        <time>2014-03-19T10:35:42Z</time>
      </trkpt>
      <trkpt lat="43.32008" lon="5.72305">
        <ele>918.2</ele>
        <time>2014-03-19T10:35:46Z</time>
      </trkpt>
      <trkpt lat="43.3201" lon="5.7231">
        <ele>916.7</ele>
        <time>2014-03-19T10:35:52Z</time>
      </trkpt>
      <trkpt lat="43.32014" lon="5.72312">
        <ele>915</ele>
        <time>2014-03-19T10:35:58Z</time>
      </trkpt>
      <trkpt lat="43.32016" lon="5.72318">
        <ele>915.5</ele>
        <time>2014-03-19T10:36:05Z</time>
      </trkpt>
      <trkpt lat="43.32015" lon="5.72323">
        <ele>916.5</ele>
        <time>2014-03-19T10:36:13Z</time>
      </trkpt>
      <trkpt lat="43.32016" lon="5.72329">
        <ele>915.7</ele>
        <time>2014-03-19T10:36:23Z</time>
      </trkpt>
      <trkpt lat="43.32017" lon="5.72334">
        <ele>915.4</ele>
        <time>2014-03-19T10:36:31Z</time>
      </trkpt>
      <trkpt lat="43.32017" lon="5.72336">
        <ele>916.4</ele>
        <time>2014-03-19T10:36:32Z</time>
      </trkpt>
      <trkpt lat="43.32019" lon="5.72344">
        <ele>915</ele>
        <time>2014-03-19T10:36:41Z</time>
      </trkpt>
      <trkpt lat="43.32019" lon="5.7235">
        <ele>915.2</ele>
        <time>2014-03-19T10:36:45Z</time>
      </trkpt>
      <trkpt lat="43.32019" lon="5.72355">
        <ele>915.2</ele>
        <time>2014-03-19T10:36:48Z</time>
      </trkpt>
      <trkpt lat="43.32017" lon="5.7236">
        <ele>914.9</ele>
        <time>2014-03-19T10:36:50Z</time>
      </trkpt>
      <trkpt lat="43.32016" lon="5.72366">
        <ele>915</ele>
        <time>2014-03-19T10:36:53Z</time>
      </trkpt>
      <trkpt lat="43.32018" lon="5.72372">
        <ele>910.4</ele>
        <time>2014-03-19T10:36:58Z</time>
      </trkpt>
      <trkpt lat="43.3202" lon="5.72376">
        <ele>906.2</ele>
        <time>2014-03-19T10:37:04Z</time>
      </trkpt>
      <trkpt lat="43.32023" lon="5.72379">
        <ele>905.9</ele>
        <time>2014-03-19T10:37:07Z</time>
      </trkpt>
      <trkpt lat="43.32022" lon="5.72383">
        <ele>907.4</ele>
        <time>2014-03-19T10:37:08Z</time>
      </trkpt>
      <trkpt lat="43.32021" lon="5.72388">
        <ele>908.7</ele>
        <time>2014-03-19T10:37:10Z</time>
      </trkpt>
      <trkpt lat="43.32023" lon="5.72393">
        <ele>907.2</ele>
        <time>2014-03-19T10:37:15Z</time>
      </trkpt>
      <trkpt lat="43.32023" lon="5.72399">
        <ele>907.5</ele>
        <time>2014-03-19T10:37:19Z</time>
      </trkpt>
      <trkpt lat="43.32024" lon="5.72405">
        <ele>907.7</ele>
        <time>2014-03-19T10:37:22Z</time>
      </trkpt>
      <trkpt lat="43.32024" lon="5.7241">
        <ele>906.5</ele>
        <time>2014-03-19T10:37:25Z</time>
      </trkpt>
      <trkpt lat="43.32025" lon="5.72414">
        <ele>907</ele>
        <time>2014-03-19T10:37:27Z</time>
      </trkpt>
      <trkpt lat="43.32025" lon="5.72418">
        <ele>907.5</ele>
        <time>2014-03-19T10:37:29Z</time>
      </trkpt>
      <trkpt lat="43.32024" lon="5.72423">
        <ele>908.5</ele>
        <time>2014-03-19T10:37:31Z</time>
      </trkpt>
      <trkpt lat="43.32024" lon="5.72428">
        <ele>908.5</ele>
        <time>2014-03-19T10:37:33Z</time>
      </trkpt>
      <trkpt lat="43.32024" lon="5.7243">
        <ele>908.5</ele>
        <time>2014-03-19T10:37:34Z</time>
      </trkpt>
      <trkpt lat="43.32025" lon="5.72438">
        <ele>909.2</ele>
        <time>2014-03-19T10:37:38Z</time>
      </trkpt>
      <trkpt lat="43.32026" lon="5.72443">
        <ele>910.5</ele>
        <time>2014-03-19T10:37:41Z</time>
      </trkpt>
      <trkpt lat="43.32026" lon="5.72448">
        <ele>911</ele>
        <time>2014-03-19T10:37:44Z</time>
      </trkpt>
      <trkpt lat="43.32028" lon="5.72453">
        <ele>911.5</ele>
        <time>2014-03-19T10:37:48Z</time>
      </trkpt>
      <trkpt lat="43.32029" lon="5.72459">
        <ele>911.4</ele>
        <time>2014-03-19T10:37:52Z</time>
      </trkpt>
      <trkpt lat="43.3203" lon="5.72465">
        <ele>912</ele>
        <time>2014-03-19T10:37:56Z</time>
      </trkpt>
      <trkpt lat="43.32032" lon="5.72469">
        <ele>911.4</ele>
        <time>2014-03-19T10:37:59Z</time>
      </trkpt>
      <trkpt lat="43.32035" lon="5.72474">
        <ele>910.7</ele>
        <time>2014-03-19T10:38:04Z</time>
      </trkpt>
      <trkpt lat="43.32035" lon="5.7248">
        <ele>909.4</ele>
        <time>2014-03-19T10:38:08Z</time>
      </trkpt>
      <trkpt lat="43.32037" lon="5.72484">
        <ele>905</ele>
        <time>2014-03-19T10:38:13Z</time>
      </trkpt>
      <trkpt lat="43.32041" lon="5.72485">
        <ele>906.4</ele>
        <time>2014-03-19T10:38:16Z</time>
      </trkpt>
      <trkpt lat="43.32044" lon="5.72489">
        <ele>904.2</ele>
        <time>2014-03-19T10:38:20Z</time>
      </trkpt>
      <trkpt lat="43.32045" lon="5.72494">
        <ele>904.7</ele>
        <time>2014-03-19T10:38:23Z</time>
      </trkpt>
      <trkpt lat="43.32047" lon="5.72499">
        <ele>903.4</ele>
        <time>2014-03-19T10:38:27Z</time>
      </trkpt>
      <trkpt lat="43.32048" lon="5.72505">
        <ele>900</ele>
        <time>2014-03-19T10:38:32Z</time>
      </trkpt>
      <trkpt lat="43.32047" lon="5.7251">
        <ele>900.9</ele>
        <time>2014-03-19T10:38:34Z</time>
      </trkpt>
      <trkpt lat="43.32047" lon="5.72511">
        <ele>900.5</ele>
        <time>2014-03-19T10:38:35Z</time>
      </trkpt>
      <trkpt lat="43.32049" lon="5.7252">
        <ele>900.7</ele>
        <time>2014-03-19T10:38:42Z</time>
      </trkpt>
      <trkpt lat="43.32052" lon="5.72524">
        <ele>903.7</ele>
        <time>2014-03-19T10:38:46Z</time>
      </trkpt>
      <trkpt lat="43.32054" lon="5.72529">
        <ele>908.2</ele>
        <time>2014-03-19T10:38:50Z</time>
      </trkpt>
      <trkpt lat="43.32054" lon="5.72533">
        <ele>907.7</ele>
        <time>2014-03-19T10:38:52Z</time>
      </trkpt>
      <trkpt lat="43.32054" lon="5.72539">
        <ele>907.9</ele>
        <time>2014-03-19T10:38:56Z</time>
      </trkpt>
      <trkpt lat="43.32053" lon="5.72545">
        <ele>908</ele>
        <time>2014-03-19T10:38:59Z</time>
      </trkpt>
      <trkpt lat="43.32053" lon="5.72549">
        <ele>907.7</ele>
        <time>2014-03-19T10:39:01Z</time>
      </trkpt>
      <trkpt lat="43.32052" lon="5.72553">
        <ele>906.2</ele>
        <time>2014-03-19T10:39:03Z</time>
      </trkpt>
      <trkpt lat="43.32051" lon="5.72558">
        <ele>904.7</ele>
        <time>2014-03-19T10:39:06Z</time>
      </trkpt>
      <trkpt lat="43.32052" lon="5.72564">
        <ele>906.7</ele>
        <time>2014-03-19T10:39:08Z</time>
      </trkpt>
      <trkpt lat="43.32051" lon="5.72569">
        <ele>904.7</ele>
        <time>2014-03-19T10:39:11Z</time>
      </trkpt>
      <trkpt lat="43.32052" lon="5.72575">
        <ele>905.2</ele>
        <time>2014-03-19T10:39:14Z</time>
      </trkpt>
      <trkpt lat="43.32052" lon="5.7258">
        <ele>904.5</ele>
        <time>2014-03-19T10:39:16Z</time>
      </trkpt>
      <trkpt lat="43.32051" lon="5.72586">
        <ele>905.7</ele>
        <time>2014-03-19T10:39:19Z</time>
      </trkpt>
      <trkpt lat="43.3205" lon="5.7259">
        <ele>905.7</ele>
        <time>2014-03-19T10:39:22Z</time>
      </trkpt>
      <trkpt lat="43.32049" lon="5.72596">
        <ele>906.2</ele>
        <time>2014-03-19T10:39:24Z</time>
      </trkpt>
      <trkpt lat="43.32051" lon="5.72601">
        <ele>906.7</ele>
        <time>2014-03-19T10:39:27Z</time>
      </trkpt>
      <trkpt lat="43.32051" lon="5.72605">
        <ele>907.9</ele>
        <time>2014-03-19T10:39:30Z</time>
      </trkpt>
      <trkpt lat="43.32052" lon="5.72611">
        <ele>908.4</ele>
        <time>2014-03-19T10:39:33Z</time>
      </trkpt>
      <trkpt lat="43.32052" lon="5.72615">
        <ele>907.2</ele>
        <time>2014-03-19T10:39:35Z</time>
      </trkpt>
      <trkpt lat="43.32051" lon="5.72617">
        <ele>906</ele>
        <time>2014-03-19T10:39:36Z</time>
      </trkpt>
      <trkpt lat="43.32051" lon="5.72624">
        <ele>900.9</ele>
        <time>2014-03-19T10:39:40Z</time>
      </trkpt>
      <trkpt lat="43.32052" lon="5.7263">
        <ele>898.4</ele>
        <time>2014-03-19T10:39:44Z</time>
      </trkpt>
      <trkpt lat="43.32053" lon="5.72635">
        <ele>896.7</ele>
        <time>2014-03-19T10:39:48Z</time>
      </trkpt>
      <trkpt lat="43.32053" lon="5.72641">
        <ele>898</ele>
        <time>2014-03-19T10:39:51Z</time>
      </trkpt>
      <trkpt lat="43.32055" lon="5.72646">
        <ele>898.2</ele>
        <time>2014-03-19T10:39:55Z</time>
      </trkpt>
      <trkpt lat="43.32056" lon="5.72652">
        <ele>898.2</ele>
        <time>2014-03-19T10:39:58Z</time>
      </trkpt>
      <trkpt lat="43.32057" lon="5.72657">
        <ele>898.7</ele>
        <time>2014-03-19T10:40:01Z</time>
      </trkpt>
      <trkpt lat="43.32059" lon="5.72661">
        <ele>897.7</ele>
        <time>2014-03-19T10:40:05Z</time>
      </trkpt>
      <trkpt lat="43.32061" lon="5.72666">
        <ele>895</ele>
        <time>2014-03-19T10:40:09Z</time>
      </trkpt>
      <trkpt lat="43.32063" lon="5.72671">
        <ele>891.2</ele>
        <time>2014-03-19T10:40:14Z</time>
      </trkpt>
      <trkpt lat="43.32064" lon="5.72676">
        <ele>890.5</ele>
        <time>2014-03-19T10:40:17Z</time>
      </trkpt>
      <trkpt lat="43.32066" lon="5.72681">
        <ele>890</ele>
        <time>2014-03-19T10:40:20Z</time>
      </trkpt>
      <trkpt lat="43.32068" lon="5.72686">
        <ele>888</ele>
        <time>2014-03-19T10:40:24Z</time>
      </trkpt>
      <trkpt lat="43.32069" lon="5.7269">
        <ele>885.5</ele>
        <time>2014-03-19T10:40:27Z</time>
      </trkpt>
      <trkpt lat="43.3207" lon="5.72694">
        <ele>887.5</ele>
        <time>2014-03-19T10:40:29Z</time>
      </trkpt>
      <trkpt lat="43.32072" lon="5.72698">
        <ele>888.9</ele>
        <time>2014-03-19T10:40:31Z</time>
      </trkpt>
      <trkpt lat="43.32073" lon="5.72702">
        <ele>890.2</ele>
        <time>2014-03-19T10:40:33Z</time>
      </trkpt>
      <trkpt lat="43.32076" lon="5.72707">
        <ele>891.2</ele>
        <time>2014-03-19T10:40:36Z</time>
      </trkpt>
      <trkpt lat="43.32076" lon="5.72708">
        <ele>891</ele>
        <time>2014-03-19T10:40:37Z</time>
      </trkpt>
      <trkpt lat="43.32079" lon="5.72715">
        <ele>891.5</ele>
        <time>2014-03-19T10:40:42Z</time>
      </trkpt>
      <trkpt lat="43.32081" lon="5.7272">
        <ele>891</ele>
        <time>2014-03-19T10:40:45Z</time>
      </trkpt>
      <trkpt lat="43.32083" lon="5.72724">
        <ele>891</ele>
        <time>2014-03-19T10:40:49Z</time>
      </trkpt>
      <trkpt lat="43.32084" lon="5.72729">
        <ele>889.2</ele>
        <time>2014-03-19T10:40:53Z</time>
      </trkpt>
      <trkpt lat="43.32085" lon="5.72734">
        <ele>889.2</ele>
        <time>2014-03-19T10:40:56Z</time>
      </trkpt>
      <trkpt lat="43.32086" lon="5.7274">
        <ele>886.7</ele>
        <time>2014-03-19T10:41:00Z</time>
      </trkpt>
      <trkpt lat="43.32086" lon="5.72746">
        <ele>882.7</ele>
        <time>2014-03-19T10:41:05Z</time>
      </trkpt>
      <trkpt lat="43.32086" lon="5.72752">
        <ele>883.7</ele>
        <time>2014-03-19T10:41:08Z</time>
      </trkpt>
      <trkpt lat="43.32087" lon="5.72757">
        <ele>884.7</ele>
        <time>2014-03-19T10:41:11Z</time>
      </trkpt>
      <trkpt lat="43.32088" lon="5.72762">
        <ele>884.5</ele>
        <time>2014-03-19T10:41:14Z</time>
      </trkpt>
      <trkpt lat="43.32089" lon="5.72768">
        <ele>886.2</ele>
        <time>2014-03-19T10:41:18Z</time>
      </trkpt>
      <trkpt lat="43.32089" lon="5.72773">
        <ele>886.2</ele>
        <time>2014-03-19T10:41:21Z</time>
      </trkpt>
      <trkpt lat="43.32089" lon="5.72779">
        <ele>886.5</ele>
        <time>2014-03-19T10:41:24Z</time>
      </trkpt>
      <trkpt lat="43.32089" lon="5.72784">
        <ele>887.9</ele>
        <time>2014-03-19T10:41:26Z</time>
      </trkpt>
      <trkpt lat="43.32089" lon="5.7279">
        <ele>886.7</ele>
        <time>2014-03-19T10:41:30Z</time>
      </trkpt>
      <trkpt lat="43.32089" lon="5.72796">
        <ele>885.9</ele>
        <time>2014-03-19T10:41:33Z</time>
      </trkpt>
      <trkpt lat="43.32089" lon="5.72801">
        <ele>885.2</ele>
        <time>2014-03-19T10:41:36Z</time>
      </trkpt>
      <trkpt lat="43.32089" lon="5.72806">
        <ele>884.5</ele>
        <time>2014-03-19T10:41:39Z</time>
      </trkpt>
      <trkpt lat="43.32089" lon="5.72808">
        <ele>884.5</ele>
        <time>2014-03-19T10:41:40Z</time>
      </trkpt>
      <trkpt lat="43.32087" lon="5.72816">
        <ele>883.2</ele>
        <time>2014-03-19T10:41:46Z</time>
      </trkpt>
      <trkpt lat="43.32086" lon="5.72821">
        <ele>883.2</ele>
        <time>2014-03-19T10:41:50Z</time>
      </trkpt>
      <trkpt lat="43.32085" lon="5.72824">
        <ele>883.5</ele>
        <time>2014-03-19T10:41:52Z</time>
      </trkpt>
      <trkpt lat="43.32083" lon="5.72827">
        <ele>884.7</ele>
        <time>2014-03-19T10:41:53Z</time>
      </trkpt>
      <trkpt lat="43.3208" lon="5.72832">
        <ele>884.7</ele>
        <time>2014-03-19T10:41:55Z</time>
      </trkpt>
      <trkpt lat="43.32076" lon="5.72834">
        <ele>881.2</ele>
        <time>2014-03-19T10:41:59Z</time>
      </trkpt>
      <trkpt lat="43.32072" lon="5.72835">
        <ele>877.5</ele>
        <time>2014-03-19T10:42:03Z</time>
      </trkpt>
      <trkpt lat="43.32069" lon="5.72835">
        <ele>874.5</ele>
        <time>2014-03-19T10:42:07Z</time>
      </trkpt>
      <trkpt lat="43.32065" lon="5.72834">
        <ele>871.2</ele>
        <time>2014-03-19T10:42:12Z</time>
      </trkpt>
      <trkpt lat="43.32062" lon="5.72836">
        <ele>868.7</ele>
        <time>2014-03-19T10:42:15Z</time>
      </trkpt>
      <trkpt lat="43.32058" lon="5.72837">
        <ele>863</ele>
        <time>2014-03-19T10:42:19Z</time>
      </trkpt>
      <trkpt lat="43.32054" lon="5.72837">
        <ele>853</ele>
        <time>2014-03-19T10:42:26Z</time>
      </trkpt>
      <trkpt lat="43.3205" lon="5.72839">
        <ele>848.7</ele>
        <time>2014-03-19T10:42:30Z</time>
      </trkpt>
      <trkpt lat="43.32046" lon="5.72839">
        <ele>842.2</ele>
        <time>2014-03-19T10:42:35Z</time>
      </trkpt>
      <trkpt lat="43.32043" lon="5.7284">
        <ele>838.4</ele>
        <time>2014-03-19T10:42:40Z</time>
      </trkpt>
      <trkpt lat="43.32042" lon="5.72841">
        <ele>837.7</ele>
        <time>2014-03-19T10:42:41Z</time>
      </trkpt>
      <trkpt lat="43.32034" lon="5.72842">
        <ele>829</ele>
        <time>2014-03-19T10:42:51Z</time>
      </trkpt>
      <trkpt lat="43.3203" lon="5.72844">
        <ele>824.5</ele>
        <time>2014-03-19T10:42:56Z</time>
      </trkpt>
      <trkpt lat="43.32026" lon="5.72847">
        <ele>821</ele>
        <time>2014-03-19T10:43:02Z</time>
      </trkpt>
      <trkpt lat="43.32022" lon="5.72846">
        <ele>826.5</ele>
        <time>2014-03-19T10:43:05Z</time>
      </trkpt>
      <trkpt lat="43.32019" lon="5.72846">
        <ele>831.2</ele>
        <time>2014-03-19T10:43:06Z</time>
      </trkpt>
      <trkpt lat="43.32016" lon="5.72845">
        <ele>836.5</ele>
        <time>2014-03-19T10:43:07Z</time>
      </trkpt>
      <trkpt lat="43.32012" lon="5.72845">
        <ele>845.2</ele>
        <time>2014-03-19T10:43:09Z</time>
      </trkpt>
      <trkpt lat="43.32013" lon="5.72851">
        <ele>864</ele>
        <time>2014-03-19T10:43:24Z</time>
      </trkpt>
      <trkpt lat="43.32011" lon="5.72856">
        <ele>866.7</ele>
        <time>2014-03-19T10:43:28Z</time>
      </trkpt>
      <trkpt lat="43.32011" lon="5.72861">
        <ele>869.7</ele>
        <time>2014-03-19T10:43:33Z</time>
      </trkpt>
      <trkpt lat="43.3201" lon="5.72866">
        <ele>870.5</ele>
        <time>2014-03-19T10:43:37Z</time>
      </trkpt>
      <trkpt lat="43.32009" lon="5.72872">
        <ele>872.2</ele>
        <time>2014-03-19T10:43:41Z</time>
      </trkpt>
      <trkpt lat="43.3201" lon="5.72873">
        <ele>873.2</ele>
        <time>2014-03-19T10:43:42Z</time>
      </trkpt>
      <trkpt lat="43.32009" lon="5.72881">
        <ele>875.4</ele>
        <time>2014-03-19T10:43:55Z</time>
      </trkpt>
      <trkpt lat="43.32007" lon="5.72887">
        <ele>877.7</ele>
        <time>2014-03-19T10:44:05Z</time>
      </trkpt>
      <trkpt lat="43.32011" lon="5.72886">
        <ele>880.7</ele>
        <time>2014-03-19T10:44:20Z</time>
      </trkpt>
      <trkpt lat="43.32008" lon="5.7289">
        <ele>875.5</ele>
        <time>2014-03-19T10:44:34Z</time>
      </trkpt>
      <trkpt lat="43.32006" lon="5.72895">
        <ele>874.5</ele>
        <time>2014-03-19T10:44:44Z</time>
      </trkpt>
      <trkpt lat="43.32006" lon="5.72895">
        <ele>874.7</ele>
        <time>2014-03-19T10:44:45Z</time>
      </trkpt>
      <trkpt lat="43.32005" lon="5.72884">
        <ele>870.7</ele>
        <time>2014-03-19T10:44:58Z</time>
      </trkpt>
      <trkpt lat="43.32005" lon="5.72878">
        <ele>872</ele>
        <time>2014-03-19T10:45:04Z</time>
      </trkpt>
      <trkpt lat="43.32004" lon="5.72872">
        <ele>870.9</ele>
        <time>2014-03-19T10:45:10Z</time>
      </trkpt>
      <trkpt lat="43.32004" lon="5.72866">
        <ele>875.2</ele>
        <time>2014-03-19T10:45:26Z</time>
      </trkpt>
      <trkpt lat="43.32001" lon="5.72864">
        <ele>873.2</ele>
        <time>2014-03-19T10:45:32Z</time>
      </trkpt>
      <trkpt lat="43.31998" lon="5.7286">
        <ele>869.2</ele>
        <time>2014-03-19T10:45:39Z</time>
      </trkpt>
      <trkpt lat="43.31995" lon="5.72856">
        <ele>867.2</ele>
        <time>2014-03-19T10:45:47Z</time>
      </trkpt>
      <trkpt lat="43.31994" lon="5.72856">
        <ele>867.7</ele>
        <time>2014-03-19T10:45:48Z</time>
      </trkpt>
      <trkpt lat="43.31991" lon="5.72849">
        <ele>872</ele>
        <time>2014-03-19T10:45:57Z</time>
      </trkpt>
      <trkpt lat="43.3199" lon="5.72843">
        <ele>873.4</ele>
        <time>2014-03-19T10:46:03Z</time>
      </trkpt>
      <trkpt lat="43.31988" lon="5.72838">
        <ele>872.5</ele>
        <time>2014-03-19T10:46:09Z</time>
      </trkpt>
      <trkpt lat="43.31987" lon="5.72833">
        <ele>870.9</ele>
        <time>2014-03-19T10:46:16Z</time>
      </trkpt>
      <trkpt lat="43.31986" lon="5.72827">
        <ele>870.2</ele>
        <time>2014-03-19T10:46:23Z</time>
      </trkpt>
      <trkpt lat="43.31985" lon="5.72822">
        <ele>868.2</ele>
        <time>2014-03-19T10:46:29Z</time>
      </trkpt>
      <trkpt lat="43.31983" lon="5.72818">
        <ele>869.2</ele>
        <time>2014-03-19T10:46:34Z</time>
      </trkpt>
      <trkpt lat="43.3198" lon="5.72813">
        <ele>869.7</ele>
        <time>2014-03-19T10:46:39Z</time>
      </trkpt>
      <trkpt lat="43.31977" lon="5.72809">
        <ele>870</ele>
        <time>2014-03-19T10:46:45Z</time>
      </trkpt>
      <trkpt lat="43.31976" lon="5.72804">
        <ele>869.5</ele>
        <time>2014-03-19T10:46:51Z</time>
      </trkpt>
      <trkpt lat="43.31975" lon="5.72803">
        <ele>869.2</ele>
        <time>2014-03-19T10:46:52Z</time>
      </trkpt>
      <trkpt lat="43.31974" lon="5.72792">
        <ele>871.5</ele>
        <time>2014-03-19T10:47:02Z</time>
      </trkpt>
      <trkpt lat="43.31973" lon="5.72787">
        <ele>871.7</ele>
        <time>2014-03-19T10:47:07Z</time>
      </trkpt>
      <trkpt lat="43.31972" lon="5.72782">
        <ele>871.5</ele>
        <time>2014-03-19T10:47:11Z</time>
      </trkpt>
      <trkpt lat="43.3197" lon="5.72777">
        <ele>870.2</ele>
        <time>2014-03-19T10:47:16Z</time>
      </trkpt>
      <trkpt lat="43.31967" lon="5.72773">
        <ele>870.2</ele>
        <time>2014-03-19T10:47:21Z</time>
      </trkpt>
      <trkpt lat="43.31964" lon="5.72769">
        <ele>874.7</ele>
        <time>2014-03-19T10:47:28Z</time>
      </trkpt>
      <trkpt lat="43.31962" lon="5.72764">
        <ele>874.5</ele>
        <time>2014-03-19T10:47:33Z</time>
      </trkpt>
      <trkpt lat="43.31961" lon="5.72758">
        <ele>875.4</ele>
        <time>2014-03-19T10:47:38Z</time>
      </trkpt>
      <trkpt lat="43.3196" lon="5.72753">
        <ele>876.5</ele>
        <time>2014-03-19T10:47:43Z</time>
      </trkpt>
      <trkpt lat="43.31957" lon="5.72748">
        <ele>876</ele>
        <time>2014-03-19T10:47:47Z</time>
      </trkpt>
      <trkpt lat="43.31954" lon="5.72744">
        <ele>874.7</ele>
        <time>2014-03-19T10:47:52Z</time>
      </trkpt>
      <trkpt lat="43.31954" lon="5.72743">
        <ele>875</ele>
        <time>2014-03-19T10:47:53Z</time>
      </trkpt>
      <trkpt lat="43.31951" lon="5.72733">
        <ele>878.2</ele>
        <time>2014-03-19T10:48:01Z</time>
      </trkpt>
      <trkpt lat="43.31948" lon="5.72731">
        <ele>881.5</ele>
        <time>2014-03-19T10:48:06Z</time>
      </trkpt>
      <trkpt lat="43.31946" lon="5.72726">
        <ele>883.7</ele>
        <time>2014-03-19T10:48:10Z</time>
      </trkpt>
      <trkpt lat="43.31944" lon="5.72722">
        <ele>886.5</ele>
        <time>2014-03-19T10:48:15Z</time>
      </trkpt>
      <trkpt lat="43.31942" lon="5.72716">
        <ele>887.5</ele>
        <time>2014-03-19T10:48:21Z</time>
      </trkpt>
      <trkpt lat="43.31941" lon="5.72711">
        <ele>888.5</ele>
        <time>2014-03-19T10:48:26Z</time>
      </trkpt>
      <trkpt lat="43.31941" lon="5.72705">
        <ele>890</ele>
        <time>2014-03-19T10:48:32Z</time>
      </trkpt>
      <trkpt lat="43.3194" lon="5.72699">
        <ele>890</ele>
        <time>2014-03-19T10:48:37Z</time>
      </trkpt>
      <trkpt lat="43.31938" lon="5.72694">
        <ele>889.7</ele>
        <time>2014-03-19T10:48:42Z</time>
      </trkpt>
      <trkpt lat="43.31938" lon="5.72687">
        <ele>889.9</ele>
        <time>2014-03-19T10:48:47Z</time>
      </trkpt>
      <trkpt lat="43.31938" lon="5.72682">
        <ele>889.5</ele>
        <time>2014-03-19T10:48:52Z</time>
      </trkpt>
      <trkpt lat="43.31937" lon="5.72676">
        <ele>889.5</ele>
        <time>2014-03-19T10:48:56Z</time>
      </trkpt>
      <trkpt lat="43.31936" lon="5.72675">
        <ele>889.7</ele>
        <time>2014-03-19T10:48:57Z</time>
      </trkpt>
      <trkpt lat="43.31937" lon="5.72666">
        <ele>890.2</ele>
        <time>2014-03-19T10:49:04Z</time>
      </trkpt>
      <trkpt lat="43.31938" lon="5.7266">
        <ele>890.9</ele>
        <time>2014-03-19T10:49:09Z</time>
      </trkpt>
      <trkpt lat="43.31938" lon="5.72655">
        <ele>892.9</ele>
        <time>2014-03-19T10:49:13Z</time>
      </trkpt>
      <trkpt lat="43.31939" lon="5.72649">
        <ele>894.4</ele>
        <time>2014-03-19T10:49:18Z</time>
      </trkpt>
      <trkpt lat="43.31939" lon="5.72644">
        <ele>895.5</ele>
        <time>2014-03-19T10:49:22Z</time>
      </trkpt>
      <trkpt lat="43.31939" lon="5.72638">
        <ele>896.7</ele>
        <time>2014-03-19T10:49:27Z</time>
      </trkpt>
      <trkpt lat="43.31938" lon="5.72633">
        <ele>898.4</ele>
        <time>2014-03-19T10:49:32Z</time>
      </trkpt>
      <trkpt lat="43.31936" lon="5.72628">
        <ele>901</ele>
        <time>2014-03-19T10:49:36Z</time>
      </trkpt>
      <trkpt lat="43.31935" lon="5.72623">
        <ele>898.7</ele>
        <time>2014-03-19T10:49:44Z</time>
      </trkpt>
      <trkpt lat="43.31934" lon="5.72618">
        <ele>900.5</ele>
        <time>2014-03-19T10:49:47Z</time>
      </trkpt>
      <trkpt lat="43.31932" lon="5.72614">
        <ele>901</ele>
        <time>2014-03-19T10:49:50Z</time>
      </trkpt>
      <trkpt lat="43.31931" lon="5.72608">
        <ele>901.2</ele>
        <time>2014-03-19T10:49:54Z</time>
      </trkpt>
      <trkpt lat="43.31928" lon="5.72603">
        <ele>901.4</ele>
        <time>2014-03-19T10:49:58Z</time>
      </trkpt>
      <trkpt lat="43.31928" lon="5.72602">
        <ele>901.4</ele>
        <time>2014-03-19T10:49:59Z</time>
      </trkpt>
      <trkpt lat="43.31926" lon="5.72593">
        <ele>902</ele>
        <time>2014-03-19T10:50:08Z</time>
      </trkpt>
      <trkpt lat="43.31924" lon="5.72588">
        <ele>903.2</ele>
        <time>2014-03-19T10:50:12Z</time>
      </trkpt>
      <trkpt lat="43.31922" lon="5.72583">
        <ele>903</ele>
        <time>2014-03-19T10:50:16Z</time>
      </trkpt>
      <trkpt lat="43.31919" lon="5.7258">
        <ele>901.2</ele>
        <time>2014-03-19T10:50:21Z</time>
      </trkpt>
      <trkpt lat="43.31915" lon="5.72577">
        <ele>898.4</ele>
        <time>2014-03-19T10:50:26Z</time>
      </trkpt>
      <trkpt lat="43.31912" lon="5.72573">
        <ele>897.7</ele>
        <time>2014-03-19T10:50:30Z</time>
      </trkpt>
      <trkpt lat="43.31909" lon="5.7257">
        <ele>898.4</ele>
        <time>2014-03-19T10:50:34Z</time>
      </trkpt>
      <trkpt lat="43.31906" lon="5.72566">
        <ele>899</ele>
        <time>2014-03-19T10:50:40Z</time>
      </trkpt>
      <trkpt lat="43.31906" lon="5.7256">
        <ele>899.2</ele>
        <time>2014-03-19T10:50:45Z</time>
      </trkpt>
      <trkpt lat="43.31906" lon="5.72555">
        <ele>900.2</ele>
        <time>2014-03-19T10:50:49Z</time>
      </trkpt>
      <trkpt lat="43.31904" lon="5.7255">
        <ele>900</ele>
        <time>2014-03-19T10:50:52Z</time>
      </trkpt>
      <trkpt lat="43.31904" lon="5.72545">
        <ele>901.2</ele>
        <time>2014-03-19T10:50:57Z</time>
      </trkpt>
      <trkpt lat="43.31904" lon="5.72539">
        <ele>899.5</ele>
        <time>2014-03-19T10:51:03Z</time>
      </trkpt>
      <trkpt lat="43.31904" lon="5.72538">
        <ele>900.5</ele>
        <time>2014-03-19T10:51:04Z</time>
      </trkpt>
      <trkpt lat="43.319" lon="5.7253">
        <ele>901.2</ele>
        <time>2014-03-19T10:51:12Z</time>
      </trkpt>
      <trkpt lat="43.31898" lon="5.72525">
        <ele>897</ele>
        <time>2014-03-19T10:51:22Z</time>
      </trkpt>
      <trkpt lat="43.31895" lon="5.7252">
        <ele>897.5</ele>
        <time>2014-03-19T10:51:26Z</time>
      </trkpt>
      <trkpt lat="43.31896" lon="5.72514">
        <ele>898.7</ele>
        <time>2014-03-19T10:51:32Z</time>
      </trkpt>
      <trkpt lat="43.31896" lon="5.72508">
        <ele>900</ele>
        <time>2014-03-19T10:51:38Z</time>
      </trkpt>
      <trkpt lat="43.31896" lon="5.72502">
        <ele>899</ele>
        <time>2014-03-19T10:51:45Z</time>
      </trkpt>
      <trkpt lat="43.31896" lon="5.72496">
        <ele>897.5</ele>
        <time>2014-03-19T10:51:52Z</time>
      </trkpt>
      <trkpt lat="43.31894" lon="5.72491">
        <ele>893.5</ele>
        <time>2014-03-19T10:51:59Z</time>
      </trkpt>
      <trkpt lat="43.31891" lon="5.72487">
        <ele>891.5</ele>
        <time>2014-03-19T10:52:05Z</time>
      </trkpt>
      <trkpt lat="43.31891" lon="5.72486">
        <ele>891</ele>
        <time>2014-03-19T10:52:06Z</time>
      </trkpt>
      <trkpt lat="43.31885" lon="5.72479">
        <ele>893.2</ele>
        <time>2014-03-19T10:52:14Z</time>
      </trkpt>
      <trkpt lat="43.31885" lon="5.72474">
        <ele>892.9</ele>
        <time>2014-03-19T10:52:19Z</time>
      </trkpt>
      <trkpt lat="43.31884" lon="5.72468">
        <ele>892.7</ele>
        <time>2014-03-19T10:52:24Z</time>
      </trkpt>
      <trkpt lat="43.31884" lon="5.72463">
        <ele>894.2</ele>
        <time>2014-03-19T10:52:29Z</time>
      </trkpt>
      <trkpt lat="43.31884" lon="5.72457">
        <ele>894.9</ele>
        <time>2014-03-19T10:52:34Z</time>
      </trkpt>
      <trkpt lat="43.31884" lon="5.72452">
        <ele>896.5</ele>
        <time>2014-03-19T10:52:38Z</time>
      </trkpt>
      <trkpt lat="43.31886" lon="5.72448">
        <ele>899.2</ele>
        <time>2014-03-19T10:52:41Z</time>
      </trkpt>
      <trkpt lat="43.31886" lon="5.72443">
        <ele>903.5</ele>
        <time>2014-03-19T10:52:44Z</time>
      </trkpt>
      <trkpt lat="43.31887" lon="5.72439">
        <ele>903.7</ele>
        <time>2014-03-19T10:52:47Z</time>
      </trkpt>
      <trkpt lat="43.31889" lon="5.72434">
        <ele>904.5</ele>
        <time>2014-03-19T10:52:51Z</time>
      </trkpt>
      <trkpt lat="43.31889" lon="5.72428">
        <ele>906.4</ele>
        <time>2014-03-19T10:52:56Z</time>
      </trkpt>
      <trkpt lat="43.3189" lon="5.72423">
        <ele>909</ele>
        <time>2014-03-19T10:53:01Z</time>
      </trkpt>
      <trkpt lat="43.3189" lon="5.72418">
        <ele>909.5</ele>
        <time>2014-03-19T10:53:05Z</time>
      </trkpt>
      <trkpt lat="43.31892" lon="5.72412">
        <ele>910</ele>
        <time>2014-03-19T10:53:09Z</time>
      </trkpt>
      <trkpt lat="43.31892" lon="5.72411">
        <ele>910.4</ele>
        <time>2014-03-19T10:53:10Z</time>
      </trkpt>
      <trkpt lat="43.31893" lon="5.72402">
        <ele>908.7</ele>
        <time>2014-03-19T10:53:16Z</time>
      </trkpt>
      <trkpt lat="43.31894" lon="5.72396">
        <ele>908.7</ele>
        <time>2014-03-19T10:53:22Z</time>
      </trkpt>
      <trkpt lat="43.31894" lon="5.72391">
        <ele>910.5</ele>
        <time>2014-03-19T10:53:28Z</time>
      </trkpt>
      <trkpt lat="43.31894" lon="5.72385">
        <ele>916.9</ele>
        <time>2014-03-19T10:53:34Z</time>
      </trkpt>
      <trkpt lat="43.31895" lon="5.7238">
        <ele>918.5</ele>
        <time>2014-03-19T10:53:38Z</time>
      </trkpt>
      <trkpt lat="43.31895" lon="5.72375">
        <ele>918.2</ele>
        <time>2014-03-19T10:53:42Z</time>
      </trkpt>
      <trkpt lat="43.31895" lon="5.72369">
        <ele>917.7</ele>
        <time>2014-03-19T10:53:47Z</time>
      </trkpt>
      <trkpt lat="43.31894" lon="5.72364">
        <ele>916.2</ele>
        <time>2014-03-19T10:53:53Z</time>
      </trkpt>
      <trkpt lat="43.31894" lon="5.72358">
        <ele>916.4</ele>
        <time>2014-03-19T10:53:59Z</time>
      </trkpt>
      <trkpt lat="43.31893" lon="5.72352">
        <ele>918</ele>
        <time>2014-03-19T10:54:05Z</time>
      </trkpt>
      <trkpt lat="43.31894" lon="5.72346">
        <ele>917.5</ele>
        <time>2014-03-19T10:54:12Z</time>
      </trkpt>
      <trkpt lat="43.31894" lon="5.72346">
        <ele>917.2</ele>
        <time>2014-03-19T10:54:13Z</time>
      </trkpt>
      <trkpt lat="43.31892" lon="5.72337">
        <ele>924.5</ele>
        <time>2014-03-19T10:54:21Z</time>
      </trkpt>
      <trkpt lat="43.3189" lon="5.72331">
        <ele>932.2</ele>
        <time>2014-03-19T10:54:28Z</time>
      </trkpt>
      <trkpt lat="43.31889" lon="5.72325">
        <ele>936.9</ele>
        <time>2014-03-19T10:54:44Z</time>
      </trkpt>
      <trkpt lat="43.31887" lon="5.7232">
        <ele>939.5</ele>
        <time>2014-03-19T10:54:51Z</time>
      </trkpt>
      <trkpt lat="43.31884" lon="5.72316">
        <ele>938.9</ele>
        <time>2014-03-19T10:54:57Z</time>
      </trkpt>
      <trkpt lat="43.3188" lon="5.72314">
        <ele>938</ele>
        <time>2014-03-19T10:55:03Z</time>
      </trkpt>
      <trkpt lat="43.31881" lon="5.72309">
        <ele>938.2</ele>
        <time>2014-03-19T10:55:08Z</time>
      </trkpt>
      <trkpt lat="43.31881" lon="5.72304">
        <ele>939.2</ele>
        <time>2014-03-19T10:55:12Z</time>
      </trkpt>
      <trkpt lat="43.31881" lon="5.72298">
        <ele>941.2</ele>
        <time>2014-03-19T10:55:17Z</time>
      </trkpt>
      <trkpt lat="43.3188" lon="5.72297">
        <ele>941.4</ele>
        <time>2014-03-19T10:55:18Z</time>
      </trkpt>
      <trkpt lat="43.31881" lon="5.72287">
        <ele>942.5</ele>
        <time>2014-03-19T10:55:28Z</time>
      </trkpt>
      <trkpt lat="43.31881" lon="5.72282">
        <ele>943.7</ele>
        <time>2014-03-19T10:55:33Z</time>
      </trkpt>
      <trkpt lat="43.31878" lon="5.72278">
        <ele>943</ele>
        <time>2014-03-19T10:55:37Z</time>
      </trkpt>
      <trkpt lat="43.31875" lon="5.72274">
        <ele>943.7</ele>
        <time>2014-03-19T10:55:42Z</time>
      </trkpt>
      <trkpt lat="43.31877" lon="5.72269">
        <ele>946.2</ele>
        <time>2014-03-19T10:55:49Z</time>
      </trkpt>
      <trkpt lat="43.31879" lon="5.72263">
        <ele>950.2</ele>
        <time>2014-03-19T10:55:58Z</time>
      </trkpt>
      <trkpt lat="43.31881" lon="5.72258">
        <ele>950.2</ele>
        <time>2014-03-19T10:56:05Z</time>
      </trkpt>
      <trkpt lat="43.31881" lon="5.72252">
        <ele>949.5</ele>
        <time>2014-03-19T10:56:12Z</time>
      </trkpt>
      <trkpt lat="43.31882" lon="5.72246">
        <ele>950.5</ele>
        <time>2014-03-19T10:56:18Z</time>
      </trkpt>
      <trkpt lat="43.31882" lon="5.72246">
        <ele>950.9</ele>
        <time>2014-03-19T10:56:19Z</time>
      </trkpt>
      <trkpt lat="43.31881" lon="5.72236">
        <ele>951.2</ele>
        <time>2014-03-19T10:56:29Z</time>
      </trkpt>
      <trkpt lat="43.31881" lon="5.7223">
        <ele>950.5</ele>
        <time>2014-03-19T10:56:35Z</time>
      </trkpt>
      <trkpt lat="43.3188" lon="5.72225">
        <ele>950</ele>
        <time>2014-03-19T10:56:40Z</time>
      </trkpt>
      <trkpt lat="43.31879" lon="5.7222">
        <ele>950</ele>
        <time>2014-03-19T10:56:45Z</time>
      </trkpt>
      <trkpt lat="43.3188" lon="5.72215">
        <ele>948.9</ele>
        <time>2014-03-19T10:56:50Z</time>
      </trkpt>
      <trkpt lat="43.31881" lon="5.72209">
        <ele>952.5</ele>
        <time>2014-03-19T10:56:55Z</time>
      </trkpt>
      <trkpt lat="43.31881" lon="5.72203">
        <ele>951.4</ele>
        <time>2014-03-19T10:57:02Z</time>
      </trkpt>
      <trkpt lat="43.31879" lon="5.72199">
        <ele>950</ele>
        <time>2014-03-19T10:57:07Z</time>
      </trkpt>
      <trkpt lat="43.31878" lon="5.72194">
        <ele>950.4</ele>
        <time>2014-03-19T10:57:12Z</time>
      </trkpt>
      <trkpt lat="43.31878" lon="5.72188">
        <ele>950.5</ele>
        <time>2014-03-19T10:57:17Z</time>
      </trkpt>
      <trkpt lat="43.31876" lon="5.72183">
        <ele>951.2</ele>
        <time>2014-03-19T10:57:29Z</time>
      </trkpt>
      <trkpt lat="43.31876" lon="5.72183">
        <ele>951.5</ele>
        <time>2014-03-19T10:57:30Z</time>
      </trkpt>
      <trkpt lat="43.31872" lon="5.72182">
        <ele>963.5</ele>
        <time>2014-03-19T10:58:34Z</time>
      </trkpt>
      <trkpt lat="43.31875" lon="5.72177">
        <ele>971.5</ele>
        <time>2014-03-19T11:00:18Z</time>
      </trkpt>
      <trkpt lat="43.31872" lon="5.72173">
        <ele>966</ele>
        <time>2014-03-19T11:01:23Z</time>
      </trkpt>
      <trkpt lat="43.31869" lon="5.72163">
        <ele>962.4</ele>
        <time>2014-03-19T11:01:34Z</time>
      </trkpt>
      <trkpt lat="43.31868" lon="5.72158">
        <ele>961.5</ele>
        <time>2014-03-19T11:01:39Z</time>
      </trkpt>
      <trkpt lat="43.31866" lon="5.72153">
        <ele>960.4</ele>
        <time>2014-03-19T11:01:45Z</time>
      </trkpt>
      <trkpt lat="43.31865" lon="5.72147">
        <ele>959.9</ele>
        <time>2014-03-19T11:01:52Z</time>
      </trkpt>
      <trkpt lat="43.31863" lon="5.72142">
        <ele>958.5</ele>
        <time>2014-03-19T11:01:58Z</time>
      </trkpt>
      <trkpt lat="43.31859" lon="5.72139">
        <ele>956.5</ele>
        <time>2014-03-19T11:02:08Z</time>
      </trkpt>
      <trkpt lat="43.31856" lon="5.72135">
        <ele>956.2</ele>
        <time>2014-03-19T11:02:15Z</time>
      </trkpt>
      <trkpt lat="43.31855" lon="5.72129">
        <ele>957.2</ele>
        <time>2014-03-19T11:02:21Z</time>
      </trkpt>
      <trkpt lat="43.31853" lon="5.72124">
        <ele>958.5</ele>
        <time>2014-03-19T11:02:29Z</time>
      </trkpt>
      <trkpt lat="43.31853" lon="5.72124">
        <ele>958.7</ele>
        <time>2014-03-19T11:02:30Z</time>
      </trkpt>
      <trkpt lat="43.31845" lon="5.7212">
        <ele>959.7</ele>
        <time>2014-03-19T11:02:47Z</time>
      </trkpt>
      <trkpt lat="43.31842" lon="5.72116">
        <ele>961.4</ele>
        <time>2014-03-19T11:02:57Z</time>
      </trkpt>
      <trkpt lat="43.31838" lon="5.72115">
        <ele>962.2</ele>
        <time>2014-03-19T11:03:12Z</time>
      </trkpt>
      <trkpt lat="43.31834" lon="5.72116">
        <ele>965.2</ele>
        <time>2014-03-19T11:03:22Z</time>
      </trkpt>
      <trkpt lat="43.3183" lon="5.72114">
        <ele>968</ele>
        <time>2014-03-19T11:03:35Z</time>
      </trkpt>
      <trkpt lat="43.31829" lon="5.72115">
        <ele>968.4</ele>
        <time>2014-03-19T11:03:36Z</time>
      </trkpt>
      <trkpt lat="43.31821" lon="5.72118">
        <ele>984</ele>
        <time>2014-03-19T11:04:32Z</time>
      </trkpt>
      <trkpt lat="43.31819" lon="5.72113">
        <ele>987</ele>
        <time>2014-03-19T11:05:00Z</time>
      </trkpt>
      <trkpt lat="43.31819" lon="5.72113">
        <ele>986.7</ele>
        <time>2014-03-19T11:05:01Z</time>
      </trkpt>
      <trkpt lat="43.31812" lon="5.72109">
        <ele>990.4</ele>
        <time>2014-03-19T11:06:14Z</time>
      </trkpt>
      <trkpt lat="43.31811" lon="5.72108">
        <ele>990.2</ele>
        <time>2014-03-19T11:06:15Z</time>
      </trkpt>
      <trkpt lat="43.31804" lon="5.72104">
        <ele>993.5</ele>
        <time>2014-03-19T11:06:51Z</time>
      </trkpt>
      <trkpt lat="43.31801" lon="5.721">
        <ele>996.2</ele>
        <time>2014-03-19T11:07:13Z</time>
      </trkpt>
      <trkpt lat="43.31798" lon="5.72104">
        <ele>1000.2</ele>
        <time>2014-03-19T11:07:34Z</time>
      </trkpt>
      <trkpt lat="43.31798" lon="5.72105">
        <ele>1000.5</ele>
        <time>2014-03-19T11:07:35Z</time>
      </trkpt>
      <trkpt lat="43.3179" lon="5.72102">
        <ele>1001.5</ele>
        <time>2014-03-19T11:07:50Z</time>
      </trkpt>
      <trkpt lat="43.31787" lon="5.72098">
        <ele>1001.7</ele>
        <time>2014-03-19T11:07:57Z</time>
      </trkpt>
      <trkpt lat="43.31782" lon="5.72097">
        <ele>1001.7</ele>
        <time>2014-03-19T11:08:06Z</time>
      </trkpt>
      <trkpt lat="43.31779" lon="5.72094">
        <ele>1002</ele>
        <time>2014-03-19T11:08:16Z</time>
      </trkpt>
      <trkpt lat="43.31774" lon="5.72094">
        <ele>1008.5</ele>
        <time>2014-03-19T11:08:33Z</time>
      </trkpt>
      <trkpt lat="43.31771" lon="5.72098">
        <ele>1012.4</ele>
        <time>2014-03-19T11:08:49Z</time>
      </trkpt>
      <trkpt lat="43.3177" lon="5.72098">
        <ele>1012.5</ele>
        <time>2014-03-19T11:08:50Z</time>
      </trkpt>
      <trkpt lat="43.31764" lon="5.72103">
        <ele>1016.4</ele>
        <time>2014-03-19T11:09:11Z</time>
      </trkpt>
      <trkpt lat="43.31759" lon="5.72103">
        <ele>1016</ele>
        <time>2014-03-19T11:09:37Z</time>
      </trkpt>
      <trkpt lat="43.31756" lon="5.72099">
        <ele>1019</ele>
        <time>2014-03-19T11:10:00Z</time>
      </trkpt>
      <trkpt lat="43.31756" lon="5.72099">
        <ele>1019</ele>
        <time>2014-03-19T11:10:01Z</time>
      </trkpt>
      <trkpt lat="43.31748" lon="5.72105">
        <ele>1022.2</ele>
        <time>2014-03-19T11:10:49Z</time>
      </trkpt>
      <trkpt lat="43.31744" lon="5.72106">
        <ele>1022</ele>
        <time>2014-03-19T11:11:21Z</time>
      </trkpt>
      <trkpt lat="43.31744" lon="5.72107">
        <ele>1021.9</ele>
        <time>2014-03-19T11:11:22Z</time>
      </trkpt>
      <trkpt lat="43.31744" lon="5.72109">
        <ele>1022</ele>
        <time>2014-03-19T11:12:15Z</time>
      </trkpt>
      <trkpt lat="43.31743" lon="5.72112">
        <ele>1019.2</ele>
        <time>2014-03-19T12:28:37Z</time>
      </trkpt>
      <trkpt lat="43.31743" lon="5.72113">
        <ele>1019.5</ele>
        <time>2014-03-19T12:28:38Z</time>
      </trkpt>
      <trkpt lat="43.31746" lon="5.72108">
        <ele>1019.9</ele>
        <time>2014-03-19T12:29:33Z</time>
      </trkpt>
      <trkpt lat="43.31746" lon="5.72108">
        <ele>1019.9</ele>
        <time>2014-03-19T12:29:34Z</time>
      </trkpt>
      <trkpt lat="43.31741" lon="5.7211">
        <ele>1024.9</ele>
        <time>2014-03-19T12:30:45Z</time>
      </trkpt>
      <trkpt lat="43.31734" lon="5.72112">
        <ele>1025.5</ele>
        <time>2014-03-19T12:31:00Z</time>
      </trkpt>
      <trkpt lat="43.3173" lon="5.72112">
        <ele>1025.8</ele>
        <time>2014-03-19T12:31:06Z</time>
      </trkpt>
      <trkpt lat="43.31726" lon="5.72116">
        <ele>1026.3</ele>
        <time>2014-03-19T12:31:15Z</time>
      </trkpt>
      <trkpt lat="43.31722" lon="5.72116">
        <ele>1027</ele>
        <time>2014-03-19T12:31:22Z</time>
      </trkpt>
      <trkpt lat="43.3172" lon="5.72112">
        <ele>1027</ele>
        <time>2014-03-19T12:31:41Z</time>
      </trkpt>
      <trkpt lat="43.31717" lon="5.72108">
        <ele>1027</ele>
        <time>2014-03-19T12:31:48Z</time>
      </trkpt>
      <trkpt lat="43.31717" lon="5.72107">
        <ele>1027.1</ele>
        <time>2014-03-19T12:31:49Z</time>
      </trkpt>
      <trkpt lat="43.31711" lon="5.72101">
        <ele>1027.1</ele>
        <time>2014-03-19T12:32:02Z</time>
      </trkpt>
      <trkpt lat="43.31709" lon="5.72096">
        <ele>1027.1</ele>
        <time>2014-03-19T12:32:08Z</time>
      </trkpt>
      <trkpt lat="43.31709" lon="5.72091">
        <ele>1026.8</ele>
        <time>2014-03-19T12:32:14Z</time>
      </trkpt>
      <trkpt lat="43.31708" lon="5.72085">
        <ele>1026.8</ele>
        <time>2014-03-19T12:32:21Z</time>
      </trkpt>
      <trkpt lat="43.31706" lon="5.72081">
        <ele>1027</ele>
        <time>2014-03-19T12:32:26Z</time>
      </trkpt>
      <trkpt lat="43.31704" lon="5.72075">
        <ele>1027.4</ele>
        <time>2014-03-19T12:32:32Z</time>
      </trkpt>
      <trkpt lat="43.31703" lon="5.7207">
        <ele>1027.8</ele>
        <time>2014-03-19T12:32:37Z</time>
      </trkpt>
      <trkpt lat="43.31702" lon="5.72065">
        <ele>1027.9</ele>
        <time>2014-03-19T12:32:42Z</time>
      </trkpt>
      <trkpt lat="43.31701" lon="5.72059">
        <ele>1027.8</ele>
        <time>2014-03-19T12:32:48Z</time>
      </trkpt>
      <trkpt lat="43.317" lon="5.72054">
        <ele>1028.4</ele>
        <time>2014-03-19T12:32:53Z</time>
      </trkpt>
      <trkpt lat="43.31699" lon="5.72053">
        <ele>1028.4</ele>
        <time>2014-03-19T12:32:54Z</time>
      </trkpt>
      <trkpt lat="43.31696" lon="5.72045">
        <ele>1029.3</ele>
        <time>2014-03-19T12:33:02Z</time>
      </trkpt>
      <trkpt lat="43.31694" lon="5.72041">
        <ele>1029.4</ele>
        <time>2014-03-19T12:33:06Z</time>
      </trkpt>
      <trkpt lat="43.31693" lon="5.72036">
        <ele>1029.4</ele>
        <time>2014-03-19T12:33:11Z</time>
      </trkpt>
      <trkpt lat="43.31692" lon="5.7203">
        <ele>1029.6</ele>
        <time>2014-03-19T12:33:16Z</time>
      </trkpt>
      <trkpt lat="43.3169" lon="5.72026">
        <ele>1030</ele>
        <time>2014-03-19T12:33:20Z</time>
      </trkpt>
      <trkpt lat="43.31688" lon="5.7202">
        <ele>1030</ele>
        <time>2014-03-19T12:33:25Z</time>
      </trkpt>
      <trkpt lat="43.31687" lon="5.72015">
        <ele>1030.5</ele>
        <time>2014-03-19T12:33:30Z</time>
      </trkpt>
      <trkpt lat="43.31686" lon="5.7201">
        <ele>1030.6</ele>
        <time>2014-03-19T12:33:35Z</time>
      </trkpt>
      <trkpt lat="43.31685" lon="5.72005">
        <ele>1031</ele>
        <time>2014-03-19T12:33:39Z</time>
      </trkpt>
      <trkpt lat="43.31684" lon="5.72">
        <ele>1032</ele>
        <time>2014-03-19T12:33:43Z</time>
      </trkpt>
      <trkpt lat="43.31683" lon="5.71994">
        <ele>1032.3</ele>
        <time>2014-03-19T12:33:48Z</time>
      </trkpt>
      <trkpt lat="43.31682" lon="5.71989">
        <ele>1032.4</ele>
        <time>2014-03-19T12:33:54Z</time>
      </trkpt>
      <trkpt lat="43.31682" lon="5.71988">
        <ele>1032.3</ele>
        <time>2014-03-19T12:33:55Z</time>
      </trkpt>
      <trkpt lat="43.3168" lon="5.71978">
        <ele>1033.1</ele>
        <time>2014-03-19T12:34:02Z</time>
      </trkpt>
      <trkpt lat="43.3168" lon="5.71972">
        <ele>1033</ele>
        <time>2014-03-19T12:34:06Z</time>
      </trkpt>
      <trkpt lat="43.31679" lon="5.71967">
        <ele>1033.1</ele>
        <time>2014-03-19T12:34:10Z</time>
      </trkpt>
      <trkpt lat="43.31678" lon="5.71962">
        <ele>1033.5</ele>
        <time>2014-03-19T12:34:14Z</time>
      </trkpt>
      <trkpt lat="43.31675" lon="5.71957">
        <ele>1033.6</ele>
        <time>2014-03-19T12:34:19Z</time>
      </trkpt>
      <trkpt lat="43.31675" lon="5.71951">
        <ele>1033.6</ele>
        <time>2014-03-19T12:34:24Z</time>
      </trkpt>
      <trkpt lat="43.31674" lon="5.71946">
        <ele>1033.9</ele>
        <time>2014-03-19T12:34:29Z</time>
      </trkpt>
      <trkpt lat="43.31674" lon="5.7194">
        <ele>1034</ele>
        <time>2014-03-19T12:34:34Z</time>
      </trkpt>
      <trkpt lat="43.31673" lon="5.71935">
        <ele>1035.4</ele>
        <time>2014-03-19T12:34:38Z</time>
      </trkpt>
      <trkpt lat="43.31671" lon="5.71929">
        <ele>1035.5</ele>
        <time>2014-03-19T12:34:43Z</time>
      </trkpt>
      <trkpt lat="43.31671" lon="5.71924">
        <ele>1035.8</ele>
        <time>2014-03-19T12:34:47Z</time>
      </trkpt>
      <trkpt lat="43.3167" lon="5.71919">
        <ele>1035.8</ele>
        <time>2014-03-19T12:34:52Z</time>
      </trkpt>
      <trkpt lat="43.31668" lon="5.71913">
        <ele>1036.5</ele>
        <time>2014-03-19T12:34:57Z</time>
      </trkpt>
      <trkpt lat="43.31668" lon="5.71912">
        <ele>1036.5</ele>
        <time>2014-03-19T12:34:58Z</time>
      </trkpt>
      <trkpt lat="43.31666" lon="5.71902">
        <ele>1037.1</ele>
        <time>2014-03-19T12:35:07Z</time>
      </trkpt>
      <trkpt lat="43.31665" lon="5.71897">
        <ele>1038</ele>
        <time>2014-03-19T12:35:12Z</time>
      </trkpt>
      <trkpt lat="43.31664" lon="5.71891">
        <ele>1038.9</ele>
        <time>2014-03-19T12:35:17Z</time>
      </trkpt>
      <trkpt lat="43.31663" lon="5.71885">
        <ele>1039.4</ele>
        <time>2014-03-19T12:35:22Z</time>
      </trkpt>
      <trkpt lat="43.31662" lon="5.7188">
        <ele>1040</ele>
        <time>2014-03-19T12:35:26Z</time>
      </trkpt>
      <trkpt lat="43.3166" lon="5.71875">
        <ele>1039.6</ele>
        <time>2014-03-19T12:35:31Z</time>
      </trkpt>
      <trkpt lat="43.31659" lon="5.7187">
        <ele>1039.8</ele>
        <time>2014-03-19T12:35:36Z</time>
      </trkpt>
      <trkpt lat="43.31657" lon="5.71865">
        <ele>1039.5</ele>
        <time>2014-03-19T12:35:41Z</time>
      </trkpt>
      <trkpt lat="43.31656" lon="5.71859">
        <ele>1039.4</ele>
        <time>2014-03-19T12:35:46Z</time>
      </trkpt>
      <trkpt lat="43.31655" lon="5.71854">
        <ele>1039</ele>
        <time>2014-03-19T12:35:50Z</time>
      </trkpt>
      <trkpt lat="43.31653" lon="5.7185">
        <ele>1038.5</ele>
        <time>2014-03-19T12:35:55Z</time>
      </trkpt>
      <trkpt lat="43.31651" lon="5.71844">
        <ele>1038.3</ele>
        <time>2014-03-19T12:36:00Z</time>
      </trkpt>
      <trkpt lat="43.31651" lon="5.71843">
        <ele>1038.3</ele>
        <time>2014-03-19T12:36:01Z</time>
      </trkpt>
      <trkpt lat="43.31648" lon="5.71835">
        <ele>1037.5</ele>
        <time>2014-03-19T12:36:09Z</time>
      </trkpt>
      <trkpt lat="43.31645" lon="5.7183">
        <ele>1037.4</ele>
        <time>2014-03-19T12:36:14Z</time>
      </trkpt>
      <trkpt lat="43.31643" lon="5.71825">
        <ele>1038.4</ele>
        <time>2014-03-19T12:36:20Z</time>
      </trkpt>
      <trkpt lat="43.31641" lon="5.7182">
        <ele>1039</ele>
        <time>2014-03-19T12:36:26Z</time>
      </trkpt>
      <trkpt lat="43.3164" lon="5.71814">
        <ele>1038.9</ele>
        <time>2014-03-19T12:36:31Z</time>
      </trkpt>
      <trkpt lat="43.31639" lon="5.71809">
        <ele>1039.3</ele>
        <time>2014-03-19T12:36:35Z</time>
      </trkpt>
      <trkpt lat="43.31637" lon="5.71804">
        <ele>1039</ele>
        <time>2014-03-19T12:36:40Z</time>
      </trkpt>
      <trkpt lat="43.31636" lon="5.71799">
        <ele>1038.5</ele>
        <time>2014-03-19T12:36:45Z</time>
      </trkpt>
      <trkpt lat="43.31634" lon="5.71794">
        <ele>1037.9</ele>
        <time>2014-03-19T12:36:50Z</time>
      </trkpt>
      <trkpt lat="43.31632" lon="5.71789">
        <ele>1037</ele>
        <time>2014-03-19T12:36:55Z</time>
      </trkpt>
      <trkpt lat="43.3163" lon="5.71785">
        <ele>1036.5</ele>
        <time>2014-03-19T12:37:00Z</time>
      </trkpt>
      <trkpt lat="43.31629" lon="5.7178">
        <ele>1036.5</ele>
        <time>2014-03-19T12:37:04Z</time>
      </trkpt>
      <trkpt lat="43.31628" lon="5.71779">
        <ele>1036.5</ele>
        <time>2014-03-19T12:37:05Z</time>
      </trkpt>
      <trkpt lat="43.31625" lon="5.7177">
        <ele>1035.4</ele>
        <time>2014-03-19T12:37:14Z</time>
      </trkpt>
      <trkpt lat="43.31624" lon="5.71764">
        <ele>1034.8</ele>
        <time>2014-03-19T12:37:19Z</time>
      </trkpt>
      <trkpt lat="43.31622" lon="5.71759">
        <ele>1034.1</ele>
        <time>2014-03-19T12:37:25Z</time>
      </trkpt>
      <trkpt lat="43.3162" lon="5.71754">
        <ele>1034.1</ele>
        <time>2014-03-19T12:37:29Z</time>
      </trkpt>
      <trkpt lat="43.31619" lon="5.71748">
        <ele>1033.6</ele>
        <time>2014-03-19T12:37:34Z</time>
      </trkpt>
      <trkpt lat="43.31617" lon="5.71743">
        <ele>1033</ele>
        <time>2014-03-19T12:37:39Z</time>
      </trkpt>
      <trkpt lat="43.31616" lon="5.71738">
        <ele>1032.5</ele>
        <time>2014-03-19T12:37:45Z</time>
      </trkpt>
      <trkpt lat="43.31614" lon="5.71733">
        <ele>1032</ele>
        <time>2014-03-19T12:37:50Z</time>
      </trkpt>
      <trkpt lat="43.31613" lon="5.71728">
        <ele>1031.8</ele>
        <time>2014-03-19T12:37:54Z</time>
      </trkpt>
      <trkpt lat="43.31612" lon="5.71723">
        <ele>1031.5</ele>
        <time>2014-03-19T12:37:59Z</time>
      </trkpt>
      <trkpt lat="43.31611" lon="5.71718">
        <ele>1031.4</ele>
        <time>2014-03-19T12:38:03Z</time>
      </trkpt>
      <trkpt lat="43.31609" lon="5.71714">
        <ele>1031</ele>
        <time>2014-03-19T12:38:07Z</time>
      </trkpt>
      <trkpt lat="43.31609" lon="5.71713">
        <ele>1031.3</ele>
        <time>2014-03-19T12:38:08Z</time>
      </trkpt>
      <trkpt lat="43.31607" lon="5.71703">
        <ele>1031.3</ele>
        <time>2014-03-19T12:38:15Z</time>
      </trkpt>
      <trkpt lat="43.31606" lon="5.71698">
        <ele>1031</ele>
        <time>2014-03-19T12:38:19Z</time>
      </trkpt>
      <trkpt lat="43.31604" lon="5.71693">
        <ele>1030.6</ele>
        <time>2014-03-19T12:38:24Z</time>
      </trkpt>
      <trkpt lat="43.31603" lon="5.71687">
        <ele>1030.5</ele>
        <time>2014-03-19T12:38:29Z</time>
      </trkpt>
      <trkpt lat="43.316" lon="5.71684">
        <ele>1030</ele>
        <time>2014-03-19T12:38:33Z</time>
      </trkpt>
      <trkpt lat="43.31597" lon="5.7168">
        <ele>1029.8</ele>
        <time>2014-03-19T12:38:37Z</time>
      </trkpt>
      <trkpt lat="43.31595" lon="5.71675">
        <ele>1029.4</ele>
        <time>2014-03-19T12:38:42Z</time>
      </trkpt>
      <trkpt lat="43.31594" lon="5.7167">
        <ele>1029</ele>
        <time>2014-03-19T12:38:46Z</time>
      </trkpt>
      <trkpt lat="43.31593" lon="5.71664">
        <ele>1028.6</ele>
        <time>2014-03-19T12:38:51Z</time>
      </trkpt>
      <trkpt lat="43.31591" lon="5.71659">
        <ele>1028.3</ele>
        <time>2014-03-19T12:38:56Z</time>
      </trkpt>
      <trkpt lat="43.31589" lon="5.71655">
        <ele>1027.9</ele>
        <time>2014-03-19T12:39:00Z</time>
      </trkpt>
      <trkpt lat="43.31588" lon="5.71649">
        <ele>1027.4</ele>
        <time>2014-03-19T12:39:05Z</time>
      </trkpt>
      <trkpt lat="43.31586" lon="5.71644">
        <ele>1026.9</ele>
        <time>2014-03-19T12:39:10Z</time>
      </trkpt>
      <trkpt lat="43.31585" lon="5.71643">
        <ele>1026.8</ele>
        <time>2014-03-19T12:39:11Z</time>
      </trkpt>
      <trkpt lat="43.31581" lon="5.71636">
        <ele>1026.5</ele>
        <time>2014-03-19T12:39:18Z</time>
      </trkpt>
      <trkpt lat="43.31579" lon="5.71632">
        <ele>1026.1</ele>
        <time>2014-03-19T12:39:22Z</time>
      </trkpt>
      <trkpt lat="43.31577" lon="5.71627">
        <ele>1025.6</ele>
        <time>2014-03-19T12:39:26Z</time>
      </trkpt>
      <trkpt lat="43.31575" lon="5.71623">
        <ele>1025.3</ele>
        <time>2014-03-19T12:39:30Z</time>
      </trkpt>
      <trkpt lat="43.31574" lon="5.71617">
        <ele>1024.6</ele>
        <time>2014-03-19T12:39:36Z</time>
      </trkpt>
      <trkpt lat="43.31573" lon="5.71611">
        <ele>1024.4</ele>
        <time>2014-03-19T12:39:48Z</time>
      </trkpt>
      <trkpt lat="43.31571" lon="5.71606">
        <ele>1023.5</ele>
        <time>2014-03-19T12:39:53Z</time>
      </trkpt>
      <trkpt lat="43.31572" lon="5.71601">
        <ele>1022.2</ele>
        <time>2014-03-19T12:39:58Z</time>
      </trkpt>
      <trkpt lat="43.31571" lon="5.71595">
        <ele>1021.4</ele>
        <time>2014-03-19T12:40:03Z</time>
      </trkpt>
      <trkpt lat="43.31572" lon="5.71589">
        <ele>1021</ele>
        <time>2014-03-19T12:40:08Z</time>
      </trkpt>
      <trkpt lat="43.31573" lon="5.71583">
        <ele>1020.7</ele>
        <time>2014-03-19T12:40:14Z</time>
      </trkpt>
      <trkpt lat="43.31572" lon="5.71582">
        <ele>1020.5</ele>
        <time>2014-03-19T12:40:15Z</time>
      </trkpt>
      <trkpt lat="43.31574" lon="5.71572">
        <ele>1020</ele>
        <time>2014-03-19T12:40:23Z</time>
      </trkpt>
      <trkpt lat="43.31574" lon="5.71566">
        <ele>1019.4</ele>
        <time>2014-03-19T12:40:28Z</time>
      </trkpt>
      <trkpt lat="43.31573" lon="5.71561">
        <ele>1019.2</ele>
        <time>2014-03-19T12:40:32Z</time>
      </trkpt>
      <trkpt lat="43.31571" lon="5.71556">
        <ele>1018.5</ele>
        <time>2014-03-19T12:40:39Z</time>
      </trkpt>
      <trkpt lat="43.31569" lon="5.71551">
        <ele>1017.5</ele>
        <time>2014-03-19T12:40:45Z</time>
      </trkpt>
      <trkpt lat="43.31568" lon="5.71546">
        <ele>1016</ele>
        <time>2014-03-19T12:40:53Z</time>
      </trkpt>
      <trkpt lat="43.31566" lon="5.7154">
        <ele>1015.5</ele>
        <time>2014-03-19T12:40:59Z</time>
      </trkpt>
      <trkpt lat="43.31564" lon="5.71535">
        <ele>1016</ele>
        <time>2014-03-19T12:41:05Z</time>
      </trkpt>
      <trkpt lat="43.31561" lon="5.7153">
        <ele>1016.5</ele>
        <time>2014-03-19T12:41:11Z</time>
      </trkpt>
      <trkpt lat="43.31559" lon="5.71526">
        <ele>1016.7</ele>
        <time>2014-03-19T12:41:16Z</time>
      </trkpt>
      <trkpt lat="43.31558" lon="5.71525">
        <ele>1016.7</ele>
        <time>2014-03-19T12:41:17Z</time>
      </trkpt>
      <trkpt lat="43.31555" lon="5.71516">
        <ele>1017.2</ele>
        <time>2014-03-19T12:41:26Z</time>
      </trkpt>
      <trkpt lat="43.31555" lon="5.7151">
        <ele>1016.9</ele>
        <time>2014-03-19T12:41:31Z</time>
      </trkpt>
      <trkpt lat="43.31554" lon="5.71505">
        <ele>1016</ele>
        <time>2014-03-19T12:41:36Z</time>
      </trkpt>
      <trkpt lat="43.31552" lon="5.71499">
        <ele>1015</ele>
        <time>2014-03-19T12:41:41Z</time>
      </trkpt>
      <trkpt lat="43.31552" lon="5.71494">
        <ele>1014.5</ele>
        <time>2014-03-19T12:41:46Z</time>
      </trkpt>
      <trkpt lat="43.3155" lon="5.71489">
        <ele>1013.5</ele>
        <time>2014-03-19T12:41:51Z</time>
      </trkpt>
      <trkpt lat="43.3155" lon="5.71483">
        <ele>1013</ele>
        <time>2014-03-19T12:41:55Z</time>
      </trkpt>
      <trkpt lat="43.31549" lon="5.71477">
        <ele>1012.9</ele>
        <time>2014-03-19T12:42:00Z</time>
      </trkpt>
      <trkpt lat="43.31549" lon="5.71472">
        <ele>1012.2</ele>
        <time>2014-03-19T12:42:05Z</time>
      </trkpt>
      <trkpt lat="43.31548" lon="5.71467">
        <ele>1011.7</ele>
        <time>2014-03-19T12:42:10Z</time>
      </trkpt>
      <trkpt lat="43.31547" lon="5.71461">
        <ele>1011</ele>
        <time>2014-03-19T12:42:15Z</time>
      </trkpt>
      <trkpt lat="43.31546" lon="5.71456">
        <ele>1010.5</ele>
        <time>2014-03-19T12:42:20Z</time>
      </trkpt>
      <trkpt lat="43.31546" lon="5.71455">
        <ele>1010.2</ele>
        <time>2014-03-19T12:42:21Z</time>
      </trkpt>
      <trkpt lat="43.31544" lon="5.71444">
        <ele>1009.2</ele>
        <time>2014-03-19T12:42:31Z</time>
      </trkpt>
      <trkpt lat="43.31544" lon="5.71439">
        <ele>1009</ele>
        <time>2014-03-19T12:42:35Z</time>
      </trkpt>
      <trkpt lat="43.31544" lon="5.71433">
        <ele>1009</ele>
        <time>2014-03-19T12:42:39Z</time>
      </trkpt>
      <trkpt lat="43.31543" lon="5.71429">
        <ele>1008.7</ele>
        <time>2014-03-19T12:42:43Z</time>
      </trkpt>
      <trkpt lat="43.31542" lon="5.71423">
        <ele>1008.4</ele>
        <time>2014-03-19T12:42:47Z</time>
      </trkpt>
      <trkpt lat="43.31541" lon="5.71418">
        <ele>1008</ele>
        <time>2014-03-19T12:42:52Z</time>
      </trkpt>
      <trkpt lat="43.31539" lon="5.71413">
        <ele>1007</ele>
        <time>2014-03-19T12:42:58Z</time>
      </trkpt>
      <trkpt lat="43.31538" lon="5.71407">
        <ele>1006.5</ele>
        <time>2014-03-19T12:43:03Z</time>
      </trkpt>
      <trkpt lat="43.31536" lon="5.71402">
        <ele>1006.4</ele>
        <time>2014-03-19T12:43:08Z</time>
      </trkpt>
      <trkpt lat="43.31535" lon="5.71396">
        <ele>1005.7</ele>
        <time>2014-03-19T12:43:14Z</time>
      </trkpt>
      <trkpt lat="43.31535" lon="5.7139">
        <ele>1004.5</ele>
        <time>2014-03-19T12:43:20Z</time>
      </trkpt>
      <trkpt lat="43.31535" lon="5.71384">
        <ele>1003.2</ele>
        <time>2014-03-19T12:43:27Z</time>
      </trkpt>
      <trkpt lat="43.31535" lon="5.71384">
        <ele>1003.2</ele>
        <time>2014-03-19T12:43:28Z</time>
      </trkpt>
      <trkpt lat="43.31535" lon="5.71372">
        <ele>1002.7</ele>
        <time>2014-03-19T12:43:42Z</time>
      </trkpt>
      <trkpt lat="43.31536" lon="5.71367">
        <ele>1002.2</ele>
        <time>2014-03-19T12:43:48Z</time>
      </trkpt>
      <trkpt lat="43.31536" lon="5.71361">
        <ele>1000.7</ele>
        <time>2014-03-19T12:43:55Z</time>
      </trkpt>
      <trkpt lat="43.31533" lon="5.71357">
        <ele>1001.7</ele>
        <time>2014-03-19T12:44:01Z</time>
      </trkpt>
      <trkpt lat="43.3153" lon="5.71352">
        <ele>1001.2</ele>
        <time>2014-03-19T12:44:07Z</time>
      </trkpt>
      <trkpt lat="43.31527" lon="5.71349">
        <ele>1000.7</ele>
        <time>2014-03-19T12:44:11Z</time>
      </trkpt>
      <trkpt lat="43.31524" lon="5.71345">
        <ele>1000</ele>
        <time>2014-03-19T12:44:17Z</time>
      </trkpt>
      <trkpt lat="43.31522" lon="5.7134">
        <ele>1000</ele>
        <time>2014-03-19T12:44:23Z</time>
      </trkpt>
      <trkpt lat="43.3152" lon="5.71336">
        <ele>998.4</ele>
        <time>2014-03-19T12:44:30Z</time>
      </trkpt>
      <trkpt lat="43.31519" lon="5.71335">
        <ele>998.2</ele>
        <time>2014-03-19T12:44:31Z</time>
      </trkpt>
      <trkpt lat="43.31515" lon="5.71326">
        <ele>998.2</ele>
        <time>2014-03-19T12:44:42Z</time>
      </trkpt>
      <trkpt lat="43.31514" lon="5.71321">
        <ele>998</ele>
        <time>2014-03-19T12:44:46Z</time>
      </trkpt>
      <trkpt lat="43.31512" lon="5.71317">
        <ele>998.5</ele>
        <time>2014-03-19T12:44:50Z</time>
      </trkpt>
      <trkpt lat="43.3151" lon="5.71311">
        <ele>1000.2</ele>
        <time>2014-03-19T12:44:54Z</time>
      </trkpt>
      <trkpt lat="43.31508" lon="5.71307">
        <ele>1000</ele>
        <time>2014-03-19T12:44:59Z</time>
      </trkpt>
      <trkpt lat="43.31505" lon="5.71302">
        <ele>999.5</ele>
        <time>2014-03-19T12:45:06Z</time>
      </trkpt>
      <trkpt lat="43.31501" lon="5.713">
        <ele>997.5</ele>
        <time>2014-03-19T12:45:15Z</time>
      </trkpt>
      <trkpt lat="43.31498" lon="5.71297">
        <ele>997</ele>
        <time>2014-03-19T12:45:21Z</time>
      </trkpt>
      <trkpt lat="43.31495" lon="5.71293">
        <ele>997</ele>
        <time>2014-03-19T12:45:26Z</time>
      </trkpt>
      <trkpt lat="43.31493" lon="5.71289">
        <ele>997.2</ele>
        <time>2014-03-19T12:45:32Z</time>
      </trkpt>
      <trkpt lat="43.31492" lon="5.71288">
        <ele>997</ele>
        <time>2014-03-19T12:45:33Z</time>
      </trkpt>
      <trkpt lat="43.31486" lon="5.71281">
        <ele>996.7</ele>
        <time>2014-03-19T12:45:45Z</time>
      </trkpt>
      <trkpt lat="43.31483" lon="5.71278">
        <ele>994.7</ele>
        <time>2014-03-19T12:45:54Z</time>
      </trkpt>
      <trkpt lat="43.31481" lon="5.71273">
        <ele>994</ele>
        <time>2014-03-19T12:46:04Z</time>
      </trkpt>
      <trkpt lat="43.31479" lon="5.71268">
        <ele>994.5</ele>
        <time>2014-03-19T12:46:09Z</time>
      </trkpt>
      <trkpt lat="43.31476" lon="5.71265">
        <ele>995</ele>
        <time>2014-03-19T12:46:14Z</time>
      </trkpt>
      <trkpt lat="43.31473" lon="5.7126">
        <ele>994.5</ele>
        <time>2014-03-19T12:46:19Z</time>
      </trkpt>
      <trkpt lat="43.31472" lon="5.71255">
        <ele>995.7</ele>
        <time>2014-03-19T12:46:24Z</time>
      </trkpt>
      <trkpt lat="43.31471" lon="5.71249">
        <ele>995.9</ele>
        <time>2014-03-19T12:46:29Z</time>
      </trkpt>
      <trkpt lat="43.31469" lon="5.71243">
        <ele>994.5</ele>
        <time>2014-03-19T12:46:35Z</time>
      </trkpt>
      <trkpt lat="43.31469" lon="5.71243">
        <ele>994.2</ele>
        <time>2014-03-19T12:46:36Z</time>
      </trkpt>
      <trkpt lat="43.31464" lon="5.71234">
        <ele>994</ele>
        <time>2014-03-19T12:46:45Z</time>
      </trkpt>
      <trkpt lat="43.31462" lon="5.71229">
        <ele>995</ele>
        <time>2014-03-19T12:46:51Z</time>
      </trkpt>
      <trkpt lat="43.31459" lon="5.71225">
        <ele>995.4</ele>
        <time>2014-03-19T12:46:56Z</time>
      </trkpt>
      <trkpt lat="43.31457" lon="5.71221">
        <ele>994</ele>
        <time>2014-03-19T12:47:00Z</time>
      </trkpt>
      <trkpt lat="43.31455" lon="5.71215">
        <ele>994.7</ele>
        <time>2014-03-19T12:47:04Z</time>
      </trkpt>
      <trkpt lat="43.31453" lon="5.7121">
        <ele>996</ele>
        <time>2014-03-19T12:47:08Z</time>
      </trkpt>
      <trkpt lat="43.31452" lon="5.71204">
        <ele>994.2</ele>
        <time>2014-03-19T12:47:16Z</time>
      </trkpt>
      <trkpt lat="43.31451" lon="5.71199">
        <ele>993.5</ele>
        <time>2014-03-19T12:47:20Z</time>
      </trkpt>
      <trkpt lat="43.3145" lon="5.71194">
        <ele>993.7</ele>
        <time>2014-03-19T12:47:24Z</time>
      </trkpt>
      <trkpt lat="43.31449" lon="5.71189">
        <ele>992.9</ele>
        <time>2014-03-19T12:47:30Z</time>
      </trkpt>
      <trkpt lat="43.31449" lon="5.71183">
        <ele>990.7</ele>
        <time>2014-03-19T12:47:36Z</time>
      </trkpt>
      <trkpt lat="43.31449" lon="5.71182">
        <ele>990.5</ele>
        <time>2014-03-19T12:47:37Z</time>
      </trkpt>
      <trkpt lat="43.31447" lon="5.71172">
        <ele>991</ele>
        <time>2014-03-19T12:47:43Z</time>
      </trkpt>
      <trkpt lat="43.31446" lon="5.71167">
        <ele>990.9</ele>
        <time>2014-03-19T12:47:47Z</time>
      </trkpt>
      <trkpt lat="43.31446" lon="5.71161">
        <ele>992.2</ele>
        <time>2014-03-19T12:47:52Z</time>
      </trkpt>
      <trkpt lat="43.31446" lon="5.71156">
        <ele>991.7</ele>
        <time>2014-03-19T12:47:58Z</time>
      </trkpt>
      <trkpt lat="43.31445" lon="5.7115">
        <ele>990.5</ele>
        <time>2014-03-19T12:48:02Z</time>
      </trkpt>
      <trkpt lat="43.31444" lon="5.71145">
        <ele>989.5</ele>
        <time>2014-03-19T12:48:07Z</time>
      </trkpt>
      <trkpt lat="43.31442" lon="5.71139">
        <ele>988.5</ele>
        <time>2014-03-19T12:48:12Z</time>
      </trkpt>
      <trkpt lat="43.31441" lon="5.71134">
        <ele>988.7</ele>
        <time>2014-03-19T12:48:16Z</time>
      </trkpt>
      <trkpt lat="43.3144" lon="5.71129">
        <ele>988.4</ele>
        <time>2014-03-19T12:48:20Z</time>
      </trkpt>
      <trkpt lat="43.31438" lon="5.71124">
        <ele>989</ele>
        <time>2014-03-19T12:48:24Z</time>
      </trkpt>
      <trkpt lat="43.31436" lon="5.71119">
        <ele>988.5</ele>
        <time>2014-03-19T12:48:28Z</time>
      </trkpt>
      <trkpt lat="43.31433" lon="5.71114">
        <ele>987.4</ele>
        <time>2014-03-19T12:48:34Z</time>
      </trkpt>
      <trkpt lat="43.31431" lon="5.71109">
        <ele>986.5</ele>
        <time>2014-03-19T12:48:40Z</time>
      </trkpt>
      <trkpt lat="43.3143" lon="5.71108">
        <ele>986.9</ele>
        <time>2014-03-19T12:48:41Z</time>
      </trkpt>
      <trkpt lat="43.31426" lon="5.71101">
        <ele>987.7</ele>
        <time>2014-03-19T12:48:47Z</time>
      </trkpt>
      <trkpt lat="43.31424" lon="5.71096">
        <ele>988.7</ele>
        <time>2014-03-19T12:48:51Z</time>
      </trkpt>
      <trkpt lat="43.31423" lon="5.71091">
        <ele>990.7</ele>
        <time>2014-03-19T12:48:56Z</time>
      </trkpt>
      <trkpt lat="43.31422" lon="5.71086">
        <ele>990.5</ele>
        <time>2014-03-19T12:49:01Z</time>
      </trkpt>
      <trkpt lat="43.3142" lon="5.71081">
        <ele>990.5</ele>
        <time>2014-03-19T12:49:06Z</time>
      </trkpt>
      <trkpt lat="43.31418" lon="5.71075">
        <ele>989.9</ele>
        <time>2014-03-19T12:49:12Z</time>
      </trkpt>
      <trkpt lat="43.31416" lon="5.71071">
        <ele>989</ele>
        <time>2014-03-19T12:49:17Z</time>
      </trkpt>
      <trkpt lat="43.31415" lon="5.71066">
        <ele>988.7</ele>
        <time>2014-03-19T12:49:22Z</time>
      </trkpt>
      <trkpt lat="43.31414" lon="5.7106">
        <ele>988.7</ele>
        <time>2014-03-19T12:49:27Z</time>
      </trkpt>
      <trkpt lat="43.31412" lon="5.71055">
        <ele>988.4</ele>
        <time>2014-03-19T12:49:32Z</time>
      </trkpt>
      <trkpt lat="43.3141" lon="5.7105">
        <ele>988</ele>
        <time>2014-03-19T12:49:37Z</time>
      </trkpt>
      <trkpt lat="43.31408" lon="5.71044">
        <ele>987.2</ele>
        <time>2014-03-19T12:49:44Z</time>
      </trkpt>
      <trkpt lat="43.31407" lon="5.71043">
        <ele>987.4</ele>
        <time>2014-03-19T12:49:45Z</time>
      </trkpt>
      <trkpt lat="43.31402" lon="5.71036">
        <ele>988</ele>
        <time>2014-03-19T12:49:53Z</time>
      </trkpt>
      <trkpt lat="43.31401" lon="5.71032">
        <ele>988</ele>
        <time>2014-03-19T12:49:57Z</time>
      </trkpt>
      <trkpt lat="43.314" lon="5.71026">
        <ele>988</ele>
        <time>2014-03-19T12:50:02Z</time>
      </trkpt>
      <trkpt lat="43.31399" lon="5.71021">
        <ele>985.7</ele>
        <time>2014-03-19T12:50:12Z</time>
      </trkpt>
      <trkpt lat="43.31398" lon="5.71015">
        <ele>985.4</ele>
        <time>2014-03-19T12:52:50Z</time>
      </trkpt>
      <trkpt lat="43.31398" lon="5.71014">
        <ele>985.4</ele>
        <time>2014-03-19T12:52:51Z</time>
      </trkpt>
      <trkpt lat="43.31394" lon="5.71005">
        <ele>986</ele>
        <time>2014-03-19T12:55:01Z</time>
      </trkpt>
      <trkpt lat="43.31394" lon="5.71004">
        <ele>986</ele>
        <time>2014-03-19T12:55:02Z</time>
      </trkpt>
      <trkpt lat="43.31393" lon="5.70994">
        <ele>985</ele>
        <time>2014-03-19T12:55:13Z</time>
      </trkpt>
      <trkpt lat="43.31393" lon="5.70988">
        <ele>984.2</ele>
        <time>2014-03-19T12:55:20Z</time>
      </trkpt>
      <trkpt lat="43.3139" lon="5.70983">
        <ele>984</ele>
        <time>2014-03-19T12:55:26Z</time>
      </trkpt>
      <trkpt lat="43.31388" lon="5.70978">
        <ele>985</ele>
        <time>2014-03-19T12:55:32Z</time>
      </trkpt>
      <trkpt lat="43.31385" lon="5.70974">
        <ele>985.2</ele>
        <time>2014-03-19T12:55:38Z</time>
      </trkpt>
      <trkpt lat="43.31382" lon="5.7097">
        <ele>985</ele>
        <time>2014-03-19T12:55:44Z</time>
      </trkpt>
      <trkpt lat="43.3138" lon="5.70965">
        <ele>985.2</ele>
        <time>2014-03-19T12:55:49Z</time>
      </trkpt>
      <trkpt lat="43.31378" lon="5.70961">
        <ele>985</ele>
        <time>2014-03-19T12:55:53Z</time>
      </trkpt>
      <trkpt lat="43.31376" lon="5.70957">
        <ele>984.7</ele>
        <time>2014-03-19T12:55:57Z</time>
      </trkpt>
      <trkpt lat="43.31375" lon="5.70951">
        <ele>984.5</ele>
        <time>2014-03-19T12:56:02Z</time>
      </trkpt>
      <trkpt lat="43.31375" lon="5.70949">
        <ele>984.5</ele>
        <time>2014-03-19T12:56:03Z</time>
      </trkpt>
      <trkpt lat="43.31373" lon="5.70939">
        <ele>983.5</ele>
        <time>2014-03-19T12:56:11Z</time>
      </trkpt>
      <trkpt lat="43.31372" lon="5.70934">
        <ele>983.5</ele>
        <time>2014-03-19T12:56:15Z</time>
      </trkpt>
      <trkpt lat="43.3137" lon="5.7093">
        <ele>983</ele>
        <time>2014-03-19T12:56:19Z</time>
      </trkpt>
      <trkpt lat="43.31368" lon="5.70924">
        <ele>982.4</ele>
        <time>2014-03-19T12:56:23Z</time>
      </trkpt>
      <trkpt lat="43.31367" lon="5.7092">
        <ele>981.9</ele>
        <time>2014-03-19T12:56:27Z</time>
      </trkpt>
      <trkpt lat="43.31365" lon="5.70915">
        <ele>981</ele>
        <time>2014-03-19T12:56:32Z</time>
      </trkpt>
      <trkpt lat="43.31363" lon="5.7091">
        <ele>980.5</ele>
        <time>2014-03-19T12:56:36Z</time>
      </trkpt>
      <trkpt lat="43.3136" lon="5.70905">
        <ele>980</ele>
        <time>2014-03-19T12:56:40Z</time>
      </trkpt>
      <trkpt lat="43.31358" lon="5.70901">
        <ele>979.7</ele>
        <time>2014-03-19T12:56:43Z</time>
      </trkpt>
      <trkpt lat="43.31356" lon="5.70896">
        <ele>979.9</ele>
        <time>2014-03-19T12:56:46Z</time>
      </trkpt>
      <trkpt lat="43.31356" lon="5.70889">
        <ele>979.9</ele>
        <time>2014-03-19T12:56:50Z</time>
      </trkpt>
      <trkpt lat="43.31355" lon="5.70884">
        <ele>979.7</ele>
        <time>2014-03-19T12:56:54Z</time>
      </trkpt>
      <trkpt lat="43.31354" lon="5.70878">
        <ele>979.2</ele>
        <time>2014-03-19T12:56:58Z</time>
      </trkpt>
      <trkpt lat="43.31354" lon="5.70872">
        <ele>979.2</ele>
        <time>2014-03-19T12:57:02Z</time>
      </trkpt>
      <trkpt lat="43.31352" lon="5.70867">
        <ele>978.7</ele>
        <time>2014-03-19T12:57:06Z</time>
      </trkpt>
      <trkpt lat="43.31351" lon="5.70865">
        <ele>978.5</ele>
        <time>2014-03-19T12:57:07Z</time>
      </trkpt>
      <trkpt lat="43.31348" lon="5.70858">
        <ele>978.2</ele>
        <time>2014-03-19T12:57:12Z</time>
      </trkpt>
      <trkpt lat="43.31346" lon="5.70853">
        <ele>977.2</ele>
        <time>2014-03-19T12:57:17Z</time>
      </trkpt>
      <trkpt lat="43.31343" lon="5.7085">
        <ele>977.2</ele>
        <time>2014-03-19T12:57:21Z</time>
      </trkpt>
      <trkpt lat="43.31341" lon="5.70846">
        <ele>976.7</ele>
        <time>2014-03-19T12:57:24Z</time>
      </trkpt>
      <trkpt lat="43.3134" lon="5.70841">
        <ele>976.2</ele>
        <time>2014-03-19T12:57:28Z</time>
      </trkpt>
      <trkpt lat="43.31338" lon="5.70836">
        <ele>975.2</ele>
        <time>2014-03-19T12:57:32Z</time>
      </trkpt>
      <trkpt lat="43.31337" lon="5.70831">
        <ele>974.2</ele>
        <time>2014-03-19T12:57:36Z</time>
      </trkpt>
      <trkpt lat="43.31335" lon="5.70826">
        <ele>973.7</ele>
        <time>2014-03-19T12:57:39Z</time>
      </trkpt>
      <trkpt lat="43.31334" lon="5.70821">
        <ele>973.5</ele>
        <time>2014-03-19T12:57:43Z</time>
      </trkpt>
      <trkpt lat="43.31333" lon="5.70815">
        <ele>973.5</ele>
        <time>2014-03-19T12:57:47Z</time>
      </trkpt>
      <trkpt lat="43.31332" lon="5.70811">
        <ele>973.7</ele>
        <time>2014-03-19T12:57:50Z</time>
      </trkpt>
      <trkpt lat="43.3133" lon="5.70806">
        <ele>974</ele>
        <time>2014-03-19T12:57:53Z</time>
      </trkpt>
      <trkpt lat="43.31329" lon="5.70801">
        <ele>974</ele>
        <time>2014-03-19T12:57:57Z</time>
      </trkpt>
      <trkpt lat="43.31327" lon="5.70796">
        <ele>974.2</ele>
        <time>2014-03-19T12:58:01Z</time>
      </trkpt>
      <trkpt lat="43.31324" lon="5.70792">
        <ele>974</ele>
        <time>2014-03-19T12:58:05Z</time>
      </trkpt>
      <trkpt lat="43.31322" lon="5.70787">
        <ele>974</ele>
        <time>2014-03-19T12:58:09Z</time>
      </trkpt>
      <trkpt lat="43.31321" lon="5.70785">
        <ele>973.9</ele>
        <time>2014-03-19T12:58:10Z</time>
      </trkpt>
      <trkpt lat="43.31317" lon="5.70779">
        <ele>973.5</ele>
        <time>2014-03-19T12:58:15Z</time>
      </trkpt>
      <trkpt lat="43.31314" lon="5.70776">
        <ele>973.5</ele>
        <time>2014-03-19T12:58:18Z</time>
      </trkpt>
      <trkpt lat="43.31312" lon="5.70771">
        <ele>973.4</ele>
        <time>2014-03-19T12:58:22Z</time>
      </trkpt>
      <trkpt lat="43.31309" lon="5.70766">
        <ele>973.2</ele>
        <time>2014-03-19T12:58:26Z</time>
      </trkpt>
      <trkpt lat="43.31307" lon="5.70762">
        <ele>973</ele>
        <time>2014-03-19T12:58:30Z</time>
      </trkpt>
      <trkpt lat="43.31304" lon="5.70757">
        <ele>973</ele>
        <time>2014-03-19T12:58:34Z</time>
      </trkpt>
      <trkpt lat="43.31303" lon="5.70752">
        <ele>973</ele>
        <time>2014-03-19T12:58:37Z</time>
      </trkpt>
      <trkpt lat="43.31301" lon="5.70747">
        <ele>972.7</ele>
        <time>2014-03-19T12:58:41Z</time>
      </trkpt>
      <trkpt lat="43.31299" lon="5.70743">
        <ele>972.7</ele>
        <time>2014-03-19T12:58:44Z</time>
      </trkpt>
      <trkpt lat="43.31296" lon="5.70738">
        <ele>972.5</ele>
        <time>2014-03-19T12:58:48Z</time>
      </trkpt>
      <trkpt lat="43.31294" lon="5.70733">
        <ele>972.7</ele>
        <time>2014-03-19T12:58:52Z</time>
      </trkpt>
      <trkpt lat="43.31291" lon="5.70728">
        <ele>973.4</ele>
        <time>2014-03-19T12:58:56Z</time>
      </trkpt>
      <trkpt lat="43.31288" lon="5.70724">
        <ele>973.2</ele>
        <time>2014-03-19T12:59:00Z</time>
      </trkpt>
      <trkpt lat="43.31286" lon="5.70719">
        <ele>972.9</ele>
        <time>2014-03-19T12:59:04Z</time>
      </trkpt>
      <trkpt lat="43.31284" lon="5.70715">
        <ele>972.7</ele>
        <time>2014-03-19T12:59:08Z</time>
      </trkpt>
      <trkpt lat="43.31281" lon="5.70712">
        <ele>972.7</ele>
        <time>2014-03-19T12:59:11Z</time>
      </trkpt>
      <trkpt lat="43.3128" lon="5.70711">
        <ele>972.7</ele>
        <time>2014-03-19T12:59:12Z</time>
      </trkpt>
      <trkpt lat="43.31276" lon="5.70703">
        <ele>973</ele>
        <time>2014-03-19T12:59:19Z</time>
      </trkpt>
      <trkpt lat="43.31274" lon="5.70698">
        <ele>973</ele>
        <time>2014-03-19T12:59:23Z</time>
      </trkpt>
      <trkpt lat="43.31271" lon="5.70694">
        <ele>973</ele>
        <time>2014-03-19T12:59:27Z</time>
      </trkpt>
      <trkpt lat="43.31269" lon="5.7069">
        <ele>973</ele>
        <time>2014-03-19T12:59:31Z</time>
      </trkpt>
      <trkpt lat="43.31266" lon="5.70686">
        <ele>972.7</ele>
        <time>2014-03-19T12:59:35Z</time>
      </trkpt>
      <trkpt lat="43.31263" lon="5.70682">
        <ele>972.5</ele>
        <time>2014-03-19T12:59:39Z</time>
      </trkpt>
      <trkpt lat="43.3126" lon="5.70678">
        <ele>972.2</ele>
        <time>2014-03-19T12:59:43Z</time>
      </trkpt>
      <trkpt lat="43.31257" lon="5.70673">
        <ele>971.9</ele>
        <time>2014-03-19T12:59:47Z</time>
      </trkpt>
      <trkpt lat="43.31254" lon="5.70671">
        <ele>971</ele>
        <time>2014-03-19T12:59:51Z</time>
      </trkpt>
      <trkpt lat="43.3125" lon="5.70668">
        <ele>970.4</ele>
        <time>2014-03-19T12:59:55Z</time>
      </trkpt>
      <trkpt lat="43.31248" lon="5.70665">
        <ele>969.9</ele>
        <time>2014-03-19T12:59:58Z</time>
      </trkpt>
      <trkpt lat="43.31247" lon="5.7066">
        <ele>969.7</ele>
        <time>2014-03-19T13:00:01Z</time>
      </trkpt>
      <trkpt lat="43.31246" lon="5.70655">
        <ele>969.5</ele>
        <time>2014-03-19T13:00:04Z</time>
      </trkpt>
      <trkpt lat="43.31244" lon="5.70651">
        <ele>969.5</ele>
        <time>2014-03-19T13:00:07Z</time>
      </trkpt>
      <trkpt lat="43.31243" lon="5.70646">
        <ele>969.5</ele>
        <time>2014-03-19T13:00:10Z</time>
      </trkpt>
      <trkpt lat="43.31242" lon="5.70641">
        <ele>969.2</ele>
        <time>2014-03-19T13:00:13Z</time>
      </trkpt>
      <trkpt lat="43.31241" lon="5.7064">
        <ele>969.2</ele>
        <time>2014-03-19T13:00:14Z</time>
      </trkpt>
      <trkpt lat="43.3124" lon="5.7063">
        <ele>969</ele>
        <time>2014-03-19T13:00:21Z</time>
      </trkpt>
      <trkpt lat="43.3124" lon="5.70624">
        <ele>969</ele>
        <time>2014-03-19T13:00:25Z</time>
      </trkpt>
      <trkpt lat="43.31239" lon="5.70619">
        <ele>969.2</ele>
        <time>2014-03-19T13:00:28Z</time>
      </trkpt>
      <trkpt lat="43.31239" lon="5.70615">
        <ele>969.2</ele>
        <time>2014-03-19T13:00:31Z</time>
      </trkpt>
      <trkpt lat="43.31238" lon="5.70609">
        <ele>969</ele>
        <time>2014-03-19T13:00:35Z</time>
      </trkpt>
      <trkpt lat="43.31238" lon="5.70603">
        <ele>968.5</ele>
        <time>2014-03-19T13:00:39Z</time>
      </trkpt>
      <trkpt lat="43.31237" lon="5.70598">
        <ele>968.7</ele>
        <time>2014-03-19T13:00:42Z</time>
      </trkpt>
      <trkpt lat="43.31237" lon="5.70593">
        <ele>968.9</ele>
        <time>2014-03-19T13:00:45Z</time>
      </trkpt>
      <trkpt lat="43.31236" lon="5.70588">
        <ele>968.7</ele>
        <time>2014-03-19T13:00:49Z</time>
      </trkpt>
      <trkpt lat="43.31235" lon="5.70582">
        <ele>968.7</ele>
        <time>2014-03-19T13:00:53Z</time>
      </trkpt>
      <trkpt lat="43.31234" lon="5.70577">
        <ele>968.5</ele>
        <time>2014-03-19T13:00:56Z</time>
      </trkpt>
      <trkpt lat="43.31234" lon="5.70572">
        <ele>968.2</ele>
        <time>2014-03-19T13:00:59Z</time>
      </trkpt>
      <trkpt lat="43.31233" lon="5.70568">
        <ele>968</ele>
        <time>2014-03-19T13:01:02Z</time>
      </trkpt>
      <trkpt lat="43.31232" lon="5.70563">
        <ele>968</ele>
        <time>2014-03-19T13:01:05Z</time>
      </trkpt>
      <trkpt lat="43.31231" lon="5.70558">
        <ele>968.2</ele>
        <time>2014-03-19T13:01:08Z</time>
      </trkpt>
      <trkpt lat="43.31231" lon="5.70552">
        <ele>968.5</ele>
        <time>2014-03-19T13:01:12Z</time>
      </trkpt>
      <trkpt lat="43.31231" lon="5.70547">
        <ele>968.5</ele>
        <time>2014-03-19T13:01:15Z</time>
      </trkpt>
      <trkpt lat="43.3123" lon="5.70545">
        <ele>968.5</ele>
        <time>2014-03-19T13:01:16Z</time>
      </trkpt>
      <trkpt lat="43.31228" lon="5.70536">
        <ele>967.7</ele>
        <time>2014-03-19T13:01:22Z</time>
      </trkpt>
      <trkpt lat="43.31227" lon="5.70532">
        <ele>967</ele>
        <time>2014-03-19T13:01:25Z</time>
      </trkpt>
      <trkpt lat="43.31226" lon="5.70528">
        <ele>966.7</ele>
        <time>2014-03-19T13:01:28Z</time>
      </trkpt>
      <trkpt lat="43.31225" lon="5.70523">
        <ele>966.5</ele>
        <time>2014-03-19T13:01:31Z</time>
      </trkpt>
      <trkpt lat="43.31223" lon="5.70518">
        <ele>966.5</ele>
        <time>2014-03-19T13:01:35Z</time>
      </trkpt>
      <trkpt lat="43.31221" lon="5.70513">
        <ele>966.7</ele>
        <time>2014-03-19T13:01:38Z</time>
      </trkpt>
      <trkpt lat="43.31219" lon="5.70509">
        <ele>967.5</ele>
        <time>2014-03-19T13:01:41Z</time>
      </trkpt>
      <trkpt lat="43.31218" lon="5.70504">
        <ele>967.7</ele>
        <time>2014-03-19T13:01:44Z</time>
      </trkpt>
      <trkpt lat="43.31216" lon="5.70499">
        <ele>968.4</ele>
        <time>2014-03-19T13:01:47Z</time>
      </trkpt>
      <trkpt lat="43.31215" lon="5.70494">
        <ele>968.7</ele>
        <time>2014-03-19T13:01:51Z</time>
      </trkpt>
      <trkpt lat="43.31214" lon="5.70489">
        <ele>969</ele>
        <time>2014-03-19T13:01:54Z</time>
      </trkpt>
      <trkpt lat="43.31213" lon="5.70483">
        <ele>969</ele>
        <time>2014-03-19T13:01:58Z</time>
      </trkpt>
      <trkpt lat="43.31213" lon="5.70477">
        <ele>969.2</ele>
        <time>2014-03-19T13:02:02Z</time>
      </trkpt>
      <trkpt lat="43.31212" lon="5.70472">
        <ele>969.2</ele>
        <time>2014-03-19T13:02:05Z</time>
      </trkpt>
      <trkpt lat="43.31212" lon="5.70466">
        <ele>969.4</ele>
        <time>2014-03-19T13:02:09Z</time>
      </trkpt>
      <trkpt lat="43.31212" lon="5.70461">
        <ele>969.4</ele>
        <time>2014-03-19T13:02:12Z</time>
      </trkpt>
      <trkpt lat="43.31211" lon="5.70456">
        <ele>969.5</ele>
        <time>2014-03-19T13:02:15Z</time>
      </trkpt>
      <trkpt lat="43.31211" lon="5.70452">
        <ele>969.7</ele>
        <time>2014-03-19T13:02:18Z</time>
      </trkpt>
      <trkpt lat="43.31211" lon="5.7045">
        <ele>969.7</ele>
        <time>2014-03-19T13:02:19Z</time>
      </trkpt>
      <trkpt lat="43.31209" lon="5.70442">
        <ele>969.9</ele>
        <time>2014-03-19T13:02:24Z</time>
      </trkpt>
      <trkpt lat="43.3121" lon="5.70436">
        <ele>969.9</ele>
        <time>2014-03-19T13:02:28Z</time>
      </trkpt>
      <trkpt lat="43.3121" lon="5.7043">
        <ele>968.9</ele>
        <time>2014-03-19T13:02:32Z</time>
      </trkpt>
      <trkpt lat="43.3121" lon="5.70424">
        <ele>968.9</ele>
        <time>2014-03-19T13:02:36Z</time>
      </trkpt>
      <trkpt lat="43.3121" lon="5.70418">
        <ele>969</ele>
        <time>2014-03-19T13:02:40Z</time>
      </trkpt>
      <trkpt lat="43.31209" lon="5.70412">
        <ele>969</ele>
        <time>2014-03-19T13:02:44Z</time>
      </trkpt>
      <trkpt lat="43.31209" lon="5.70407">
        <ele>969.2</ele>
        <time>2014-03-19T13:02:47Z</time>
      </trkpt>
      <trkpt lat="43.31209" lon="5.70403">
        <ele>969.2</ele>
        <time>2014-03-19T13:02:50Z</time>
      </trkpt>
      <trkpt lat="43.31208" lon="5.70398">
        <ele>969.4</ele>
        <time>2014-03-19T13:02:53Z</time>
      </trkpt>
      <trkpt lat="43.31208" lon="5.70393">
        <ele>969.4</ele>
        <time>2014-03-19T13:02:56Z</time>
      </trkpt>
      <trkpt lat="43.31207" lon="5.70389">
        <ele>969.5</ele>
        <time>2014-03-19T13:02:59Z</time>
      </trkpt>
      <trkpt lat="43.31206" lon="5.70384">
        <ele>969.7</ele>
        <time>2014-03-19T13:03:02Z</time>
      </trkpt>
      <trkpt lat="43.31205" lon="5.70379">
        <ele>969.7</ele>
        <time>2014-03-19T13:03:05Z</time>
      </trkpt>
      <trkpt lat="43.31204" lon="5.70374">
        <ele>969.7</ele>
        <time>2014-03-19T13:03:08Z</time>
      </trkpt>
      <trkpt lat="43.31203" lon="5.70369">
        <ele>969.7</ele>
        <time>2014-03-19T13:03:11Z</time>
      </trkpt>
      <trkpt lat="43.31202" lon="5.70363">
        <ele>969.2</ele>
        <time>2014-03-19T13:03:15Z</time>
      </trkpt>
      <trkpt lat="43.31201" lon="5.70359">
        <ele>968.9</ele>
        <time>2014-03-19T13:03:18Z</time>
      </trkpt>
      <trkpt lat="43.312" lon="5.70354">
        <ele>968.7</ele>
        <time>2014-03-19T13:03:21Z</time>
      </trkpt>
      <trkpt lat="43.312" lon="5.70352">
        <ele>968.5</ele>
        <time>2014-03-19T13:03:22Z</time>
      </trkpt>
      <trkpt lat="43.31198" lon="5.70344">
        <ele>968.2</ele>
        <time>2014-03-19T13:03:27Z</time>
      </trkpt>
      <trkpt lat="43.31197" lon="5.70339">
        <ele>968</ele>
        <time>2014-03-19T13:03:30Z</time>
      </trkpt>
      <trkpt lat="43.31196" lon="5.70334">
        <ele>968.2</ele>
        <time>2014-03-19T13:03:33Z</time>
      </trkpt>
      <trkpt lat="43.31195" lon="5.7033">
        <ele>968</ele>
        <time>2014-03-19T13:03:36Z</time>
      </trkpt>
      <trkpt lat="43.31193" lon="5.70325">
        <ele>967.5</ele>
        <time>2014-03-19T13:03:39Z</time>
      </trkpt>
      <trkpt lat="43.31192" lon="5.7032">
        <ele>967</ele>
        <time>2014-03-19T13:03:42Z</time>
      </trkpt>
      <trkpt lat="43.31192" lon="5.70314">
        <ele>966.7</ele>
        <time>2014-03-19T13:03:45Z</time>
      </trkpt>
      <trkpt lat="43.31192" lon="5.70309">
        <ele>966.4</ele>
        <time>2014-03-19T13:03:48Z</time>
      </trkpt>
      <trkpt lat="43.31191" lon="5.70304">
        <ele>966.5</ele>
        <time>2014-03-19T13:03:51Z</time>
      </trkpt>
      <trkpt lat="43.31191" lon="5.70299">
        <ele>966.2</ele>
        <time>2014-03-19T13:03:54Z</time>
      </trkpt>
      <trkpt lat="43.3119" lon="5.70293">
        <ele>966</ele>
        <time>2014-03-19T13:03:58Z</time>
      </trkpt>
      <trkpt lat="43.31189" lon="5.70287">
        <ele>965.5</ele>
        <time>2014-03-19T13:04:02Z</time>
      </trkpt>
      <trkpt lat="43.31188" lon="5.70282">
        <ele>965.5</ele>
        <time>2014-03-19T13:04:06Z</time>
      </trkpt>
      <trkpt lat="43.31187" lon="5.70277">
        <ele>966</ele>
        <time>2014-03-19T13:04:09Z</time>
      </trkpt>
      <trkpt lat="43.31186" lon="5.70273">
        <ele>965.9</ele>
        <time>2014-03-19T13:04:12Z</time>
      </trkpt>
      <trkpt lat="43.31184" lon="5.70268">
        <ele>965.9</ele>
        <time>2014-03-19T13:04:15Z</time>
      </trkpt>
      <trkpt lat="43.31183" lon="5.70263">
        <ele>966.2</ele>
        <time>2014-03-19T13:04:18Z</time>
      </trkpt>
      <trkpt lat="43.31182" lon="5.70258">
        <ele>966.4</ele>
        <time>2014-03-19T13:04:21Z</time>
      </trkpt>
      <trkpt lat="43.31181" lon="5.70254">
        <ele>966.7</ele>
        <time>2014-03-19T13:04:24Z</time>
      </trkpt>
      <trkpt lat="43.31181" lon="5.70252">
        <ele>966.7</ele>
        <time>2014-03-19T13:04:25Z</time>
      </trkpt>
      <trkpt lat="43.31179" lon="5.70243">
        <ele>967</ele>
        <time>2014-03-19T13:04:31Z</time>
      </trkpt>
      <trkpt lat="43.31177" lon="5.70238">
        <ele>966.9</ele>
        <time>2014-03-19T13:04:34Z</time>
      </trkpt>
      <trkpt lat="43.31176" lon="5.70233">
        <ele>966.7</ele>
        <time>2014-03-19T13:04:37Z</time>
      </trkpt>
      <trkpt lat="43.31174" lon="5.70228">
        <ele>966.7</ele>
        <time>2014-03-19T13:04:40Z</time>
      </trkpt>
      <trkpt lat="43.31173" lon="5.70224">
        <ele>966.9</ele>
        <time>2014-03-19T13:04:43Z</time>
      </trkpt>
      <trkpt lat="43.31172" lon="5.7022">
        <ele>967</ele>
        <time>2014-03-19T13:04:46Z</time>
      </trkpt>
      <trkpt lat="43.31171" lon="5.70215">
        <ele>967.4</ele>
        <time>2014-03-19T13:04:49Z</time>
      </trkpt>
      <trkpt lat="43.31169" lon="5.70209">
        <ele>967.5</ele>
        <time>2014-03-19T13:04:53Z</time>
      </trkpt>
      <trkpt lat="43.31168" lon="5.70205">
        <ele>967.5</ele>
        <time>2014-03-19T13:04:56Z</time>
      </trkpt>
      <trkpt lat="43.31167" lon="5.702">
        <ele>967.4</ele>
        <time>2014-03-19T13:04:59Z</time>
      </trkpt>
      <trkpt lat="43.31166" lon="5.70195">
        <ele>967.2</ele>
        <time>2014-03-19T13:05:02Z</time>
      </trkpt>
      <trkpt lat="43.31165" lon="5.7019">
        <ele>967</ele>
        <time>2014-03-19T13:05:05Z</time>
      </trkpt>
      <trkpt lat="43.31164" lon="5.70186">
        <ele>967.2</ele>
        <time>2014-03-19T13:05:08Z</time>
      </trkpt>
      <trkpt lat="43.31163" lon="5.70181">
        <ele>966.9</ele>
        <time>2014-03-19T13:05:11Z</time>
      </trkpt>
      <trkpt lat="43.31162" lon="5.70176">
        <ele>966.5</ele>
        <time>2014-03-19T13:05:14Z</time>
      </trkpt>
      <trkpt lat="43.3116" lon="5.70172">
        <ele>966</ele>
        <time>2014-03-19T13:05:17Z</time>
      </trkpt>
      <trkpt lat="43.31159" lon="5.70167">
        <ele>965.7</ele>
        <time>2014-03-19T13:05:20Z</time>
      </trkpt>
      <trkpt lat="43.31158" lon="5.70163">
        <ele>965.5</ele>
        <time>2014-03-19T13:05:23Z</time>
      </trkpt>
      <trkpt lat="43.31156" lon="5.70157">
        <ele>964.7</ele>
        <time>2014-03-19T13:05:27Z</time>
      </trkpt>
      <trkpt lat="43.31156" lon="5.70156">
        <ele>964.2</ele>
        <time>2014-03-19T13:05:28Z</time>
      </trkpt>
      <trkpt lat="43.31155" lon="5.70148">
        <ele>963</ele>
        <time>2014-03-19T13:05:33Z</time>
      </trkpt>
      <trkpt lat="43.31155" lon="5.70142">
        <ele>962.2</ele>
        <time>2014-03-19T13:05:37Z</time>
      </trkpt>
      <trkpt lat="43.31154" lon="5.70137">
        <ele>961</ele>
        <time>2014-03-19T13:05:41Z</time>
      </trkpt>
      <trkpt lat="43.31153" lon="5.70132">
        <ele>959.7</ele>
        <time>2014-03-19T13:05:44Z</time>
      </trkpt>
      <trkpt lat="43.31152" lon="5.70128">
        <ele>959.4</ele>
        <time>2014-03-19T13:05:47Z</time>
      </trkpt>
      <trkpt lat="43.31151" lon="5.70122">
        <ele>959.4</ele>
        <time>2014-03-19T13:05:51Z</time>
      </trkpt>
      <trkpt lat="43.31149" lon="5.70117">
        <ele>959.5</ele>
        <time>2014-03-19T13:05:55Z</time>
      </trkpt>
      <trkpt lat="43.31147" lon="5.70113">
        <ele>959.7</ele>
        <time>2014-03-19T13:05:58Z</time>
      </trkpt>
      <trkpt lat="43.31144" lon="5.70109">
        <ele>959.9</ele>
        <time>2014-03-19T13:06:01Z</time>
      </trkpt>
      <trkpt lat="43.31142" lon="5.70104">
        <ele>960</ele>
        <time>2014-03-19T13:06:05Z</time>
      </trkpt>
      <trkpt lat="43.3114" lon="5.70098">
        <ele>960.2</ele>
        <time>2014-03-19T13:06:09Z</time>
      </trkpt>
      <trkpt lat="43.31139" lon="5.70094">
        <ele>960</ele>
        <time>2014-03-19T13:06:12Z</time>
      </trkpt>
      <trkpt lat="43.31138" lon="5.70089">
        <ele>960</ele>
        <time>2014-03-19T13:06:15Z</time>
      </trkpt>
      <trkpt lat="43.31137" lon="5.70085">
        <ele>959.9</ele>
        <time>2014-03-19T13:06:18Z</time>
      </trkpt>
      <trkpt lat="43.31136" lon="5.7008">
        <ele>959.7</ele>
        <time>2014-03-19T13:06:21Z</time>
      </trkpt>
      <trkpt lat="43.31135" lon="5.70074">
        <ele>959.9</ele>
        <time>2014-03-19T13:06:25Z</time>
      </trkpt>
      <trkpt lat="43.31133" lon="5.70069">
        <ele>960.5</ele>
        <time>2014-03-19T13:06:29Z</time>
      </trkpt>
      <trkpt lat="43.31133" lon="5.70067">
        <ele>961</ele>
        <time>2014-03-19T13:06:30Z</time>
      </trkpt>
      <trkpt lat="43.31129" lon="5.70059">
        <ele>962.5</ele>
        <time>2014-03-19T13:06:36Z</time>
      </trkpt>
      <trkpt lat="43.31128" lon="5.70055">
        <ele>963</ele>
        <time>2014-03-19T13:06:39Z</time>
      </trkpt>
      <trkpt lat="43.31126" lon="5.70051">
        <ele>963.4</ele>
        <time>2014-03-19T13:06:42Z</time>
      </trkpt>
      <trkpt lat="43.31124" lon="5.70047">
        <ele>963.7</ele>
        <time>2014-03-19T13:06:45Z</time>
      </trkpt>
      <trkpt lat="43.31122" lon="5.70042">
        <ele>964.7</ele>
        <time>2014-03-19T13:06:48Z</time>
      </trkpt>
      <trkpt lat="43.31121" lon="5.70038">
        <ele>965</ele>
        <time>2014-03-19T13:06:51Z</time>
      </trkpt>
      <trkpt lat="43.31119" lon="5.70032">
        <ele>965.5</ele>
        <time>2014-03-19T13:06:55Z</time>
      </trkpt>
      <trkpt lat="43.31118" lon="5.70028">
        <ele>965.5</ele>
        <time>2014-03-19T13:06:58Z</time>
      </trkpt>
      <trkpt lat="43.31117" lon="5.70023">
        <ele>966</ele>
        <time>2014-03-19T13:07:01Z</time>
      </trkpt>
      <trkpt lat="43.31115" lon="5.70019">
        <ele>966.4</ele>
        <time>2014-03-19T13:07:04Z</time>
      </trkpt>
      <trkpt lat="43.31114" lon="5.70015">
        <ele>966.9</ele>
        <time>2014-03-19T13:07:07Z</time>
      </trkpt>
      <trkpt lat="43.31113" lon="5.7001">
        <ele>967.4</ele>
        <time>2014-03-19T13:07:10Z</time>
      </trkpt>
      <trkpt lat="43.31112" lon="5.70005">
        <ele>967.5</ele>
        <time>2014-03-19T13:07:13Z</time>
      </trkpt>
      <trkpt lat="43.3111" lon="5.70001">
        <ele>967.5</ele>
        <time>2014-03-19T13:07:16Z</time>
      </trkpt>
      <trkpt lat="43.31109" lon="5.69997">
        <ele>967.5</ele>
        <time>2014-03-19T13:07:19Z</time>
      </trkpt>
      <trkpt lat="43.31108" lon="5.69992">
        <ele>967.5</ele>
        <time>2014-03-19T13:07:22Z</time>
      </trkpt>
      <trkpt lat="43.31107" lon="5.69987">
        <ele>967.5</ele>
        <time>2014-03-19T13:07:26Z</time>
      </trkpt>
      <trkpt lat="43.31106" lon="5.69981">
        <ele>967.5</ele>
        <time>2014-03-19T13:07:30Z</time>
      </trkpt>
      <trkpt lat="43.31106" lon="5.69979">
        <ele>967.7</ele>
        <time>2014-03-19T13:07:31Z</time>
      </trkpt>
      <trkpt lat="43.31103" lon="5.69972">
        <ele>967.9</ele>
        <time>2014-03-19T13:07:36Z</time>
      </trkpt>
      <trkpt lat="43.31101" lon="5.69967">
        <ele>968</ele>
        <time>2014-03-19T13:07:40Z</time>
      </trkpt>
      <trkpt lat="43.311" lon="5.69962">
        <ele>968</ele>
        <time>2014-03-19T13:07:43Z</time>
      </trkpt>
      <trkpt lat="43.31099" lon="5.69956">
        <ele>968.4</ele>
        <time>2014-03-19T13:07:47Z</time>
      </trkpt>
      <trkpt lat="43.31098" lon="5.69952">
        <ele>968.5</ele>
        <time>2014-03-19T13:07:51Z</time>
      </trkpt>
      <trkpt lat="43.31097" lon="5.69946">
        <ele>968.7</ele>
        <time>2014-03-19T13:07:55Z</time>
      </trkpt>
      <trkpt lat="43.31096" lon="5.69941">
        <ele>969.2</ele>
        <time>2014-03-19T13:07:58Z</time>
      </trkpt>
      <trkpt lat="43.31095" lon="5.69935">
        <ele>968.7</ele>
        <time>2014-03-19T13:08:02Z</time>
      </trkpt>
      <trkpt lat="43.31096" lon="5.6993">
        <ele>968.7</ele>
        <time>2014-03-19T13:08:06Z</time>
      </trkpt>
      <trkpt lat="43.31096" lon="5.69924">
        <ele>968.2</ele>
        <time>2014-03-19T13:08:10Z</time>
      </trkpt>
      <trkpt lat="43.31096" lon="5.69919">
        <ele>968.4</ele>
        <time>2014-03-19T13:08:14Z</time>
      </trkpt>
      <trkpt lat="43.31095" lon="5.69913">
        <ele>968.4</ele>
        <time>2014-03-19T13:08:19Z</time>
      </trkpt>
      <trkpt lat="43.31094" lon="5.69908">
        <ele>968.2</ele>
        <time>2014-03-19T13:08:25Z</time>
      </trkpt>
      <trkpt lat="43.31092" lon="5.69902">
        <ele>967.9</ele>
        <time>2014-03-19T13:08:29Z</time>
      </trkpt>
      <trkpt lat="43.31091" lon="5.69897">
        <ele>967.5</ele>
        <time>2014-03-19T13:08:33Z</time>
      </trkpt>
      <trkpt lat="43.3109" lon="5.69896">
        <ele>967.2</ele>
        <time>2014-03-19T13:08:34Z</time>
      </trkpt>
      <trkpt lat="43.31087" lon="5.69888">
        <ele>966.2</ele>
        <time>2014-03-19T13:08:41Z</time>
      </trkpt>
      <trkpt lat="43.31085" lon="5.69883">
        <ele>965.2</ele>
        <time>2014-03-19T13:08:46Z</time>
      </trkpt>
      <trkpt lat="43.31084" lon="5.69878">
        <ele>964.9</ele>
        <time>2014-03-19T13:08:50Z</time>
      </trkpt>
      <trkpt lat="43.31083" lon="5.69872">
        <ele>964.4</ele>
        <time>2014-03-19T13:08:55Z</time>
      </trkpt>
      <trkpt lat="43.31082" lon="5.69867">
        <ele>963.7</ele>
        <time>2014-03-19T13:08:59Z</time>
      </trkpt>
      <trkpt lat="43.31081" lon="5.69863">
        <ele>962.9</ele>
        <time>2014-03-19T13:09:02Z</time>
      </trkpt>
      <trkpt lat="43.3108" lon="5.69858">
        <ele>961.9</ele>
        <time>2014-03-19T13:09:05Z</time>
      </trkpt>
      <trkpt lat="43.31079" lon="5.69852">
        <ele>961</ele>
        <time>2014-03-19T13:09:09Z</time>
      </trkpt>
      <trkpt lat="43.31078" lon="5.69846">
        <ele>960</ele>
        <time>2014-03-19T13:09:13Z</time>
      </trkpt>
      <trkpt lat="43.31077" lon="5.69841">
        <ele>959.2</ele>
        <time>2014-03-19T13:09:17Z</time>
      </trkpt>
      <trkpt lat="43.31076" lon="5.69835">
        <ele>958.7</ele>
        <time>2014-03-19T13:09:21Z</time>
      </trkpt>
      <trkpt lat="43.31074" lon="5.6983">
        <ele>957.7</ele>
        <time>2014-03-19T13:09:25Z</time>
      </trkpt>
      <trkpt lat="43.31073" lon="5.69826">
        <ele>957.2</ele>
        <time>2014-03-19T13:09:28Z</time>
      </trkpt>
      <trkpt lat="43.31071" lon="5.69821">
        <ele>956.7</ele>
        <time>2014-03-19T13:09:32Z</time>
      </trkpt>
      <trkpt lat="43.31071" lon="5.69815">
        <ele>956.5</ele>
        <time>2014-03-19T13:09:36Z</time>
      </trkpt>
      <trkpt lat="43.3107" lon="5.69814">
        <ele>956.5</ele>
        <time>2014-03-19T13:09:37Z</time>
      </trkpt>
      <trkpt lat="43.31076" lon="5.69805">
        <ele>953.7</ele>
        <time>2014-03-19T13:12:24Z</time>
      </trkpt>
      <trkpt lat="43.31076" lon="5.69805">
        <ele>953.5</ele>
        <time>2014-03-19T13:12:25Z</time>
      </trkpt>
      <trkpt lat="43.31084" lon="5.69804">
        <ele>955.5</ele>
        <time>2014-03-19T13:12:39Z</time>
      </trkpt>
      <trkpt lat="43.31088" lon="5.69802">
        <ele>956.5</ele>
        <time>2014-03-19T13:12:49Z</time>
      </trkpt>
      <trkpt lat="43.31092" lon="5.69801">
        <ele>957.2</ele>
        <time>2014-03-19T13:12:56Z</time>
      </trkpt>
      <trkpt lat="43.31096" lon="5.69799">
        <ele>957.7</ele>
        <time>2014-03-19T13:13:02Z</time>
      </trkpt>
      <trkpt lat="43.311" lon="5.69798">
        <ele>958.5</ele>
        <time>2014-03-19T13:13:08Z</time>
      </trkpt>
      <trkpt lat="43.31104" lon="5.69796">
        <ele>959.2</ele>
        <time>2014-03-19T13:13:15Z</time>
      </trkpt>
      <trkpt lat="43.31105" lon="5.69791">
        <ele>959</ele>
        <time>2014-03-19T13:13:22Z</time>
      </trkpt>
      <trkpt lat="43.31107" lon="5.69786">
        <ele>958.5</ele>
        <time>2014-03-19T13:13:27Z</time>
      </trkpt>
      <trkpt lat="43.31108" lon="5.69785">
        <ele>958.4</ele>
        <time>2014-03-19T13:13:28Z</time>
      </trkpt>
      <trkpt lat="43.31111" lon="5.69776">
        <ele>957.9</ele>
        <time>2014-03-19T13:13:36Z</time>
      </trkpt>
      <trkpt lat="43.31112" lon="5.6977">
        <ele>959.2</ele>
        <time>2014-03-19T13:13:40Z</time>
      </trkpt>
      <trkpt lat="43.31113" lon="5.69765">
        <ele>960.2</ele>
        <time>2014-03-19T13:13:44Z</time>
      </trkpt>
      <trkpt lat="43.31114" lon="5.6976">
        <ele>961.2</ele>
        <time>2014-03-19T13:13:48Z</time>
      </trkpt>
      <trkpt lat="43.31115" lon="5.69754">
        <ele>960.9</ele>
        <time>2014-03-19T13:13:53Z</time>
      </trkpt>
      <trkpt lat="43.31117" lon="5.6975">
        <ele>961</ele>
        <time>2014-03-19T13:13:57Z</time>
      </trkpt>
      <trkpt lat="43.31118" lon="5.69745">
        <ele>960.9</ele>
        <time>2014-03-19T13:14:01Z</time>
      </trkpt>
      <trkpt lat="43.31119" lon="5.6974">
        <ele>961.2</ele>
        <time>2014-03-19T13:14:05Z</time>
      </trkpt>
      <trkpt lat="43.3112" lon="5.69735">
        <ele>961.4</ele>
        <time>2014-03-19T13:14:09Z</time>
      </trkpt>
      <trkpt lat="43.31122" lon="5.6973">
        <ele>961.7</ele>
        <time>2014-03-19T13:14:14Z</time>
      </trkpt>
      <trkpt lat="43.31124" lon="5.69725">
        <ele>962</ele>
        <time>2014-03-19T13:14:19Z</time>
      </trkpt>
      <trkpt lat="43.31126" lon="5.6972">
        <ele>962.2</ele>
        <time>2014-03-19T13:14:24Z</time>
      </trkpt>
      <trkpt lat="43.31128" lon="5.69716">
        <ele>962.7</ele>
        <time>2014-03-19T13:14:28Z</time>
      </trkpt>
      <trkpt lat="43.31129" lon="5.69715">
        <ele>962.7</ele>
        <time>2014-03-19T13:14:29Z</time>
      </trkpt>
      <trkpt lat="43.31133" lon="5.69706">
        <ele>963.5</ele>
        <time>2014-03-19T13:14:39Z</time>
      </trkpt>
      <trkpt lat="43.31136" lon="5.69702">
        <ele>964.4</ele>
        <time>2014-03-19T13:14:45Z</time>
      </trkpt>
      <trkpt lat="43.3114" lon="5.69699">
        <ele>965.7</ele>
        <time>2014-03-19T13:14:51Z</time>
      </trkpt>
      <trkpt lat="43.31143" lon="5.69696">
        <ele>966</ele>
        <time>2014-03-19T13:14:55Z</time>
      </trkpt>
      <trkpt lat="43.31147" lon="5.69693">
        <ele>967</ele>
        <time>2014-03-19T13:15:01Z</time>
      </trkpt>
      <trkpt lat="43.31148" lon="5.69687">
        <ele>966.9</ele>
        <time>2014-03-19T13:15:09Z</time>
      </trkpt>
      <trkpt lat="43.31148" lon="5.69681">
        <ele>967.5</ele>
        <time>2014-03-19T13:15:15Z</time>
      </trkpt>
      <trkpt lat="43.31149" lon="5.69676">
        <ele>970.4</ele>
        <time>2014-03-19T13:15:21Z</time>
      </trkpt>
      <trkpt lat="43.31149" lon="5.6967">
        <ele>972.2</ele>
        <time>2014-03-19T13:15:26Z</time>
      </trkpt>
      <trkpt lat="43.31148" lon="5.69664">
        <ele>973.2</ele>
        <time>2014-03-19T13:15:31Z</time>
      </trkpt>
      <trkpt lat="43.31148" lon="5.69663">
        <ele>973.5</ele>
        <time>2014-03-19T13:15:32Z</time>
      </trkpt>
      <trkpt lat="43.31147" lon="5.69652">
        <ele>974</ele>
        <time>2014-03-19T13:15:41Z</time>
      </trkpt>
      <trkpt lat="43.31146" lon="5.69647">
        <ele>974.7</ele>
        <time>2014-03-19T13:15:45Z</time>
      </trkpt>
      <trkpt lat="43.31145" lon="5.69642">
        <ele>975</ele>
        <time>2014-03-19T13:15:49Z</time>
      </trkpt>
      <trkpt lat="43.31144" lon="5.69636">
        <ele>975.4</ele>
        <time>2014-03-19T13:15:53Z</time>
      </trkpt>
      <trkpt lat="43.31142" lon="5.69631">
        <ele>975.7</ele>
        <time>2014-03-19T13:15:57Z</time>
      </trkpt>
      <trkpt lat="43.31141" lon="5.69626">
        <ele>976</ele>
        <time>2014-03-19T13:16:01Z</time>
      </trkpt>
      <trkpt lat="43.3114" lon="5.69621">
        <ele>976.2</ele>
        <time>2014-03-19T13:16:05Z</time>
      </trkpt>
      <trkpt lat="43.31139" lon="5.69615">
        <ele>976</ele>
        <time>2014-03-19T13:16:09Z</time>
      </trkpt>
      <trkpt lat="43.31138" lon="5.6961">
        <ele>976.2</ele>
        <time>2014-03-19T13:16:13Z</time>
      </trkpt>
      <trkpt lat="43.31136" lon="5.69605">
        <ele>975.7</ele>
        <time>2014-03-19T13:16:17Z</time>
      </trkpt>
      <trkpt lat="43.31135" lon="5.696">
        <ele>975.5</ele>
        <time>2014-03-19T13:16:21Z</time>
      </trkpt>
      <trkpt lat="43.31134" lon="5.69595">
        <ele>975.2</ele>
        <time>2014-03-19T13:16:25Z</time>
      </trkpt>
      <trkpt lat="43.31132" lon="5.6959">
        <ele>975</ele>
        <time>2014-03-19T13:16:29Z</time>
      </trkpt>
      <trkpt lat="43.3113" lon="5.69585">
        <ele>974.7</ele>
        <time>2014-03-19T13:16:33Z</time>
      </trkpt>
      <trkpt lat="43.3113" lon="5.69584">
        <ele>974.7</ele>
        <time>2014-03-19T13:16:34Z</time>
      </trkpt>
      <trkpt lat="43.31127" lon="5.69575">
        <ele>974</ele>
        <time>2014-03-19T13:16:41Z</time>
      </trkpt>
      <trkpt lat="43.31126" lon="5.6957">
        <ele>974</ele>
        <time>2014-03-19T13:16:45Z</time>
      </trkpt>
      <trkpt lat="43.31125" lon="5.69564">
        <ele>973.5</ele>
        <time>2014-03-19T13:16:49Z</time>
      </trkpt>
      <trkpt lat="43.31123" lon="5.69559">
        <ele>973.2</ele>
        <time>2014-03-19T13:16:53Z</time>
      </trkpt>
      <trkpt lat="43.31121" lon="5.69555">
        <ele>972.7</ele>
        <time>2014-03-19T13:16:57Z</time>
      </trkpt>
      <trkpt lat="43.31119" lon="5.69549">
        <ele>972.4</ele>
        <time>2014-03-19T13:17:01Z</time>
      </trkpt>
      <trkpt lat="43.31118" lon="5.69544">
        <ele>971.9</ele>
        <time>2014-03-19T13:17:05Z</time>
      </trkpt>
      <trkpt lat="43.31116" lon="5.6954">
        <ele>971.7</ele>
        <time>2014-03-19T13:17:09Z</time>
      </trkpt>
      <trkpt lat="43.31115" lon="5.69534">
        <ele>970.5</ele>
        <time>2014-03-19T13:17:14Z</time>
      </trkpt>
      <trkpt lat="43.31114" lon="5.6953">
        <ele>969.7</ele>
        <time>2014-03-19T13:17:18Z</time>
      </trkpt>
      <trkpt lat="43.31113" lon="5.69524">
        <ele>969.7</ele>
        <time>2014-03-19T13:17:22Z</time>
      </trkpt>
      <trkpt lat="43.31111" lon="5.69519">
        <ele>969.5</ele>
        <time>2014-03-19T13:17:26Z</time>
      </trkpt>
      <trkpt lat="43.31109" lon="5.69514">
        <ele>969</ele>
        <time>2014-03-19T13:17:30Z</time>
      </trkpt>
      <trkpt lat="43.31107" lon="5.69509">
        <ele>968.7</ele>
        <time>2014-03-19T13:17:34Z</time>
      </trkpt>
      <trkpt lat="43.31106" lon="5.69508">
        <ele>968.5</ele>
        <time>2014-03-19T13:17:35Z</time>
      </trkpt>
      <trkpt lat="43.31105" lon="5.69499">
        <ele>968.2</ele>
        <time>2014-03-19T13:17:42Z</time>
      </trkpt>
      <trkpt lat="43.31103" lon="5.69494">
        <ele>967.4</ele>
        <time>2014-03-19T13:17:46Z</time>
      </trkpt>
      <trkpt lat="43.31102" lon="5.69489">
        <ele>966.9</ele>
        <time>2014-03-19T13:17:50Z</time>
      </trkpt>
      <trkpt lat="43.311" lon="5.69484">
        <ele>966.4</ele>
        <time>2014-03-19T13:17:54Z</time>
      </trkpt>
      <trkpt lat="43.31098" lon="5.69479">
        <ele>965.5</ele>
        <time>2014-03-19T13:17:58Z</time>
      </trkpt>
      <trkpt lat="43.31097" lon="5.69475">
        <ele>965.5</ele>
        <time>2014-03-19T13:18:01Z</time>
      </trkpt>
      <trkpt lat="43.31095" lon="5.6947">
        <ele>965</ele>
        <time>2014-03-19T13:18:04Z</time>
      </trkpt>
      <trkpt lat="43.31094" lon="5.69465">
        <ele>965.2</ele>
        <time>2014-03-19T13:18:07Z</time>
      </trkpt>
      <trkpt lat="43.31093" lon="5.69461">
        <ele>965.2</ele>
        <time>2014-03-19T13:18:10Z</time>
      </trkpt>
      <trkpt lat="43.31091" lon="5.69456">
        <ele>965.4</ele>
        <time>2014-03-19T13:18:13Z</time>
      </trkpt>
      <trkpt lat="43.31089" lon="5.69452">
        <ele>965.2</ele>
        <time>2014-03-19T13:18:17Z</time>
      </trkpt>
      <trkpt lat="43.31086" lon="5.69447">
        <ele>964.7</ele>
        <time>2014-03-19T13:18:22Z</time>
      </trkpt>
      <trkpt lat="43.31084" lon="5.69443">
        <ele>963.5</ele>
        <time>2014-03-19T13:18:27Z</time>
      </trkpt>
      <trkpt lat="43.31081" lon="5.69438">
        <ele>962.5</ele>
        <time>2014-03-19T13:18:32Z</time>
      </trkpt>
      <trkpt lat="43.31079" lon="5.69434">
        <ele>962</ele>
        <time>2014-03-19T13:18:36Z</time>
      </trkpt>
      <trkpt lat="43.31078" lon="5.69434">
        <ele>962</ele>
        <time>2014-03-19T13:18:37Z</time>
      </trkpt>
      <trkpt lat="43.31074" lon="5.69429">
        <ele>960.2</ele>
        <time>2014-03-19T13:19:14Z</time>
      </trkpt>
      <trkpt lat="43.31078" lon="5.69427">
        <ele>957.2</ele>
        <time>2014-03-19T13:19:33Z</time>
      </trkpt>
      <trkpt lat="43.31081" lon="5.69431">
        <ele>957.2</ele>
        <time>2014-03-19T13:19:39Z</time>
      </trkpt>
      <trkpt lat="43.31082" lon="5.69431">
        <ele>957</ele>
        <time>2014-03-19T13:19:40Z</time>
      </trkpt>
      <trkpt lat="43.31082" lon="5.69421">
        <ele>952.9</ele>
        <time>2014-03-19T13:20:07Z</time>
      </trkpt>
      <trkpt lat="43.31086" lon="5.69419">
        <ele>952</ele>
        <time>2014-03-19T13:20:25Z</time>
      </trkpt>
      <trkpt lat="43.31084" lon="5.69413">
        <ele>951.7</ele>
        <time>2014-03-19T13:20:46Z</time>
      </trkpt>
      <trkpt lat="43.31083" lon="5.69413">
        <ele>951.5</ele>
        <time>2014-03-19T13:20:47Z</time>
      </trkpt>
      <trkpt lat="43.31079" lon="5.69404">
        <ele>948.7</ele>
        <time>2014-03-19T13:21:07Z</time>
      </trkpt>
      <trkpt lat="43.31076" lon="5.694">
        <ele>948.7</ele>
        <time>2014-03-19T13:21:12Z</time>
      </trkpt>
      <trkpt lat="43.31073" lon="5.69398">
        <ele>946</ele>
        <time>2014-03-19T13:21:19Z</time>
      </trkpt>
      <trkpt lat="43.3107" lon="5.69394">
        <ele>944.9</ele>
        <time>2014-03-19T13:21:32Z</time>
      </trkpt>
      <trkpt lat="43.31067" lon="5.6939">
        <ele>943.2</ele>
        <time>2014-03-19T13:21:50Z</time>
      </trkpt>
      <trkpt lat="43.31066" lon="5.6939">
        <ele>942.9</ele>
        <time>2014-03-19T13:21:51Z</time>
      </trkpt>
      <trkpt lat="43.31069" lon="5.6938">
        <ele>938</ele>
        <time>2014-03-19T13:22:47Z</time>
      </trkpt>
      <trkpt lat="43.31067" lon="5.69375">
        <ele>937.2</ele>
        <time>2014-03-19T13:23:41Z</time>
      </trkpt>
      <trkpt lat="43.31067" lon="5.69375">
        <ele>936.7</ele>
        <time>2014-03-19T13:23:42Z</time>
      </trkpt>
      <trkpt lat="43.31069" lon="5.69365">
        <ele>932.2</ele>
        <time>2014-03-19T13:23:57Z</time>
      </trkpt>
      <trkpt lat="43.31071" lon="5.69361">
        <ele>929.7</ele>
        <time>2014-03-19T13:24:02Z</time>
      </trkpt>
      <trkpt lat="43.31071" lon="5.69355">
        <ele>927.2</ele>
        <time>2014-03-19T13:24:08Z</time>
      </trkpt>
      <trkpt lat="43.31072" lon="5.6935">
        <ele>929.4</ele>
        <time>2014-03-19T13:24:13Z</time>
      </trkpt>
      <trkpt lat="43.31071" lon="5.69345">
        <ele>928.7</ele>
        <time>2014-03-19T13:24:17Z</time>
      </trkpt>
      <trkpt lat="43.31072" lon="5.6934">
        <ele>925.2</ele>
        <time>2014-03-19T13:24:21Z</time>
      </trkpt>
      <trkpt lat="43.31071" lon="5.69335">
        <ele>922.5</ele>
        <time>2014-03-19T13:24:25Z</time>
      </trkpt>
      <trkpt lat="43.31069" lon="5.69329">
        <ele>919.9</ele>
        <time>2014-03-19T13:24:30Z</time>
      </trkpt>
      <trkpt lat="43.3107" lon="5.69324">
        <ele>918.7</ele>
        <time>2014-03-19T13:24:35Z</time>
      </trkpt>
      <trkpt lat="43.3107" lon="5.69318">
        <ele>920.2</ele>
        <time>2014-03-19T13:24:40Z</time>
      </trkpt>
      <trkpt lat="43.31069" lon="5.69312">
        <ele>921.4</ele>
        <time>2014-03-19T13:24:46Z</time>
      </trkpt>
      <trkpt lat="43.31069" lon="5.69312">
        <ele>921.2</ele>
        <time>2014-03-19T13:24:47Z</time>
      </trkpt>
      <trkpt lat="43.31064" lon="5.69303">
        <ele>919.2</ele>
        <time>2014-03-19T13:25:00Z</time>
      </trkpt>
      <trkpt lat="43.31061" lon="5.693">
        <ele>918.2</ele>
        <time>2014-03-19T13:25:06Z</time>
      </trkpt>
      <trkpt lat="43.31057" lon="5.69297">
        <ele>916.2</ele>
        <time>2014-03-19T13:25:10Z</time>
      </trkpt>
      <trkpt lat="43.31055" lon="5.69293">
        <ele>916</ele>
        <time>2014-03-19T13:25:15Z</time>
      </trkpt>
      <trkpt lat="43.31053" lon="5.69287">
        <ele>915.7</ele>
        <time>2014-03-19T13:25:20Z</time>
      </trkpt>
      <trkpt lat="43.31051" lon="5.69282">
        <ele>914.2</ele>
        <time>2014-03-19T13:25:25Z</time>
      </trkpt>
      <trkpt lat="43.3105" lon="5.69278">
        <ele>914</ele>
        <time>2014-03-19T13:25:29Z</time>
      </trkpt>
      <trkpt lat="43.31048" lon="5.69272">
        <ele>914.5</ele>
        <time>2014-03-19T13:25:33Z</time>
      </trkpt>
      <trkpt lat="43.31047" lon="5.69267">
        <ele>915.2</ele>
        <time>2014-03-19T13:25:38Z</time>
      </trkpt>
      <trkpt lat="43.31048" lon="5.69261">
        <ele>914.4</ele>
        <time>2014-03-19T13:25:44Z</time>
      </trkpt>
      <trkpt lat="43.31049" lon="5.69255">
        <ele>913.4</ele>
        <time>2014-03-19T13:25:51Z</time>
      </trkpt>
      <trkpt lat="43.31049" lon="5.69253">
        <ele>913.7</ele>
        <time>2014-03-19T13:25:52Z</time>
      </trkpt>
      <trkpt lat="43.31046" lon="5.69245">
        <ele>912.2</ele>
        <time>2014-03-19T13:26:04Z</time>
      </trkpt>
      <trkpt lat="43.31045" lon="5.69239">
        <ele>913.7</ele>
        <time>2014-03-19T13:26:14Z</time>
      </trkpt>
      <trkpt lat="43.31043" lon="5.69235">
        <ele>913.5</ele>
        <time>2014-03-19T13:26:19Z</time>
      </trkpt>
      <trkpt lat="43.3104" lon="5.6923">
        <ele>911</ele>
        <time>2014-03-19T13:26:24Z</time>
      </trkpt>
      <trkpt lat="43.31038" lon="5.69225">
        <ele>910.7</ele>
        <time>2014-03-19T13:26:30Z</time>
      </trkpt>
      <trkpt lat="43.31037" lon="5.6922">
        <ele>909.5</ele>
        <time>2014-03-19T13:26:36Z</time>
      </trkpt>
      <trkpt lat="43.31035" lon="5.69215">
        <ele>909.4</ele>
        <time>2014-03-19T13:26:40Z</time>
      </trkpt>
      <trkpt lat="43.31033" lon="5.6921">
        <ele>909.7</ele>
        <time>2014-03-19T13:26:46Z</time>
      </trkpt>
      <trkpt lat="43.31031" lon="5.69205">
        <ele>907.4</ele>
        <time>2014-03-19T13:26:58Z</time>
      </trkpt>
      <trkpt lat="43.3103" lon="5.69205">
        <ele>907</ele>
        <time>2014-03-19T13:26:59Z</time>
      </trkpt>
      <trkpt lat="43.31023" lon="5.692">
        <ele>909.5</ele>
        <time>2014-03-19T13:27:15Z</time>
      </trkpt>
      <trkpt lat="43.31021" lon="5.69195">
        <ele>911.5</ele>
        <time>2014-03-19T13:27:24Z</time>
      </trkpt>
      <trkpt lat="43.31021" lon="5.6919">
        <ele>915.5</ele>
        <time>2014-03-19T13:27:39Z</time>
      </trkpt>
      <trkpt lat="43.31023" lon="5.69185">
        <ele>918.2</ele>
        <time>2014-03-19T13:27:45Z</time>
      </trkpt>
      <trkpt lat="43.3102" lon="5.6918">
        <ele>911.5</ele>
        <time>2014-03-19T13:28:03Z</time>
      </trkpt>
      <trkpt lat="43.3102" lon="5.6918">
        <ele>911.2</ele>
        <time>2014-03-19T13:28:04Z</time>
      </trkpt>
      <trkpt lat="43.31015" lon="5.69173">
        <ele>904.9</ele>
        <time>2014-03-19T13:28:26Z</time>
      </trkpt>
      <trkpt lat="43.31013" lon="5.69167">
        <ele>901.9</ele>
        <time>2014-03-19T13:28:41Z</time>
      </trkpt>
      <trkpt lat="43.31014" lon="5.69161">
        <ele>897.7</ele>
        <time>2014-03-19T13:28:58Z</time>
      </trkpt>
      <trkpt lat="43.31012" lon="5.69156">
        <ele>893.2</ele>
        <time>2014-03-19T13:29:12Z</time>
      </trkpt>
      <trkpt lat="43.31012" lon="5.69156">
        <ele>893</ele>
        <time>2014-03-19T13:29:13Z</time>
      </trkpt>
      <trkpt lat="43.31009" lon="5.69146">
        <ele>894</ele>
        <time>2014-03-19T13:29:28Z</time>
      </trkpt>
      <trkpt lat="43.31008" lon="5.69141">
        <ele>890.9</ele>
        <time>2014-03-19T13:29:33Z</time>
      </trkpt>
      <trkpt lat="43.31005" lon="5.69136">
        <ele>889.7</ele>
        <time>2014-03-19T13:29:37Z</time>
      </trkpt>
      <trkpt lat="43.31003" lon="5.69132">
        <ele>889.5</ele>
        <time>2014-03-19T13:29:42Z</time>
      </trkpt>
      <trkpt lat="43.31" lon="5.69127">
        <ele>890.5</ele>
        <time>2014-03-19T13:29:48Z</time>
      </trkpt>
      <trkpt lat="43.30998" lon="5.69122">
        <ele>891.7</ele>
        <time>2014-03-19T13:29:58Z</time>
      </trkpt>
      <trkpt lat="43.30994" lon="5.69119">
        <ele>889</ele>
        <time>2014-03-19T13:30:18Z</time>
      </trkpt>
      <trkpt lat="43.30994" lon="5.69119">
        <ele>888.4</ele>
        <time>2014-03-19T13:30:19Z</time>
      </trkpt>
      <trkpt lat="43.30987" lon="5.69113">
        <ele>881.9</ele>
        <time>2014-03-19T13:30:42Z</time>
      </trkpt>
      <trkpt lat="43.30986" lon="5.69107">
        <ele>880.9</ele>
        <time>2014-03-19T13:30:51Z</time>
      </trkpt>
      <trkpt lat="43.30984" lon="5.69102">
        <ele>880.2</ele>
        <time>2014-03-19T13:31:00Z</time>
      </trkpt>
      <trkpt lat="43.30982" lon="5.69097">
        <ele>880.2</ele>
        <time>2014-03-19T13:31:13Z</time>
      </trkpt>
      <trkpt lat="43.3098" lon="5.69092">
        <ele>878</ele>
        <time>2014-03-19T13:31:25Z</time>
      </trkpt>
      <trkpt lat="43.3098" lon="5.69091">
        <ele>877.7</ele>
        <time>2014-03-19T13:31:26Z</time>
      </trkpt>
      <trkpt lat="43.30977" lon="5.69081">
        <ele>877.5</ele>
        <time>2014-03-19T13:31:47Z</time>
      </trkpt>
      <trkpt lat="43.30978" lon="5.69075">
        <ele>874.5</ele>
        <time>2014-03-19T13:32:08Z</time>
      </trkpt>
      <trkpt lat="43.30981" lon="5.6907">
        <ele>870.2</ele>
        <time>2014-03-19T13:32:20Z</time>
      </trkpt>
      <trkpt lat="43.30979" lon="5.69065">
        <ele>870.5</ele>
        <time>2014-03-19T13:32:29Z</time>
      </trkpt>
      <trkpt lat="43.30979" lon="5.69065">
        <ele>870.7</ele>
        <time>2014-03-19T13:32:30Z</time>
      </trkpt>
      <trkpt lat="43.30974" lon="5.69056">
        <ele>869.7</ele>
        <time>2014-03-19T13:32:50Z</time>
      </trkpt>
      <trkpt lat="43.30971" lon="5.69053">
        <ele>868.4</ele>
        <time>2014-03-19T13:32:58Z</time>
      </trkpt>
      <trkpt lat="43.3097" lon="5.69047">
        <ele>868</ele>
        <time>2014-03-19T13:33:03Z</time>
      </trkpt>
      <trkpt lat="43.30969" lon="5.69043">
        <ele>867.9</ele>
        <time>2014-03-19T13:33:09Z</time>
      </trkpt>
      <trkpt lat="43.30967" lon="5.69038">
        <ele>864.4</ele>
        <time>2014-03-19T13:33:23Z</time>
      </trkpt>
      <trkpt lat="43.30964" lon="5.69033">
        <ele>861.7</ele>
        <time>2014-03-19T13:33:34Z</time>
      </trkpt>
      <trkpt lat="43.30964" lon="5.69033">
        <ele>861.7</ele>
        <time>2014-03-19T13:33:35Z</time>
      </trkpt>
      <trkpt lat="43.30958" lon="5.69025">
        <ele>864.4</ele>
        <time>2014-03-19T13:33:54Z</time>
      </trkpt>
      <trkpt lat="43.30956" lon="5.6902">
        <ele>862.7</ele>
        <time>2014-03-19T13:34:04Z</time>
      </trkpt>
      <trkpt lat="43.30954" lon="5.69015">
        <ele>861.5</ele>
        <time>2014-03-19T13:34:13Z</time>
      </trkpt>
      <trkpt lat="43.30952" lon="5.6901">
        <ele>860</ele>
        <time>2014-03-19T13:34:22Z</time>
      </trkpt>
      <trkpt lat="43.30952" lon="5.69004">
        <ele>856.2</ele>
        <time>2014-03-19T13:34:31Z</time>
      </trkpt>
      <trkpt lat="43.30955" lon="5.68999">
        <ele>850.7</ele>
        <time>2014-03-19T13:34:40Z</time>
      </trkpt>
      <trkpt lat="43.30955" lon="5.68999">
        <ele>850.7</ele>
        <time>2014-03-19T13:34:41Z</time>
      </trkpt>
      <trkpt lat="43.3096" lon="5.6899">
        <ele>846.5</ele>
        <time>2014-03-19T13:34:56Z</time>
      </trkpt>
      <trkpt lat="43.30957" lon="5.68985">
        <ele>846.7</ele>
        <time>2014-03-19T13:35:03Z</time>
      </trkpt>
      <trkpt lat="43.30955" lon="5.68981">
        <ele>848.4</ele>
        <time>2014-03-19T13:35:10Z</time>
      </trkpt>
      <trkpt lat="43.30952" lon="5.68976">
        <ele>849</ele>
        <time>2014-03-19T13:35:19Z</time>
      </trkpt>
      <trkpt lat="43.30952" lon="5.6897">
        <ele>843.2</ele>
        <time>2014-03-19T13:35:31Z</time>
      </trkpt>
      <trkpt lat="43.30953" lon="5.68965">
        <ele>840.7</ele>
        <time>2014-03-19T13:35:40Z</time>
      </trkpt>
      <trkpt lat="43.30954" lon="5.68959">
        <ele>841.2</ele>
        <time>2014-03-19T13:35:47Z</time>
      </trkpt>
      <trkpt lat="43.30954" lon="5.68958">
        <ele>841.5</ele>
        <time>2014-03-19T13:35:48Z</time>
      </trkpt>
      <trkpt lat="43.30951" lon="5.68948">
        <ele>840.7</ele>
        <time>2014-03-19T13:36:07Z</time>
      </trkpt>
      <trkpt lat="43.30948" lon="5.68944">
        <ele>840.4</ele>
        <time>2014-03-19T13:36:12Z</time>
      </trkpt>
      <trkpt lat="43.30945" lon="5.6894">
        <ele>839</ele>
        <time>2014-03-19T13:36:19Z</time>
      </trkpt>
      <trkpt lat="43.30944" lon="5.68934">
        <ele>839.2</ele>
        <time>2014-03-19T13:36:25Z</time>
      </trkpt>
      <trkpt lat="43.30943" lon="5.68929">
        <ele>838.7</ele>
        <time>2014-03-19T13:36:32Z</time>
      </trkpt>
      <trkpt lat="43.3094" lon="5.68925">
        <ele>836.7</ele>
        <time>2014-03-19T13:36:38Z</time>
      </trkpt>
      <trkpt lat="43.30938" lon="5.6892">
        <ele>836.5</ele>
        <time>2014-03-19T13:36:43Z</time>
      </trkpt>
      <trkpt lat="43.30938" lon="5.68914">
        <ele>836.4</ele>
        <time>2014-03-19T13:36:49Z</time>
      </trkpt>
      <trkpt lat="43.30939" lon="5.68913">
        <ele>836</ele>
        <time>2014-03-19T13:36:50Z</time>
      </trkpt>
      <trkpt lat="43.30941" lon="5.68903">
        <ele>836</ele>
        <time>2014-03-19T13:37:01Z</time>
      </trkpt>
      <trkpt lat="43.3094" lon="5.68898">
        <ele>833.2</ele>
        <time>2014-03-19T13:37:09Z</time>
      </trkpt>
      <trkpt lat="43.30939" lon="5.68892">
        <ele>833.9</ele>
        <time>2014-03-19T13:37:18Z</time>
      </trkpt>
      <trkpt lat="43.30938" lon="5.68887">
        <ele>833.5</ele>
        <time>2014-03-19T13:37:24Z</time>
      </trkpt>
      <trkpt lat="43.30936" lon="5.68882">
        <ele>832.2</ele>
        <time>2014-03-19T13:37:30Z</time>
      </trkpt>
      <trkpt lat="43.30933" lon="5.68878">
        <ele>833.4</ele>
        <time>2014-03-19T13:37:41Z</time>
      </trkpt>
      <trkpt lat="43.30931" lon="5.68873">
        <ele>832.2</ele>
        <time>2014-03-19T13:37:50Z</time>
      </trkpt>
      <trkpt lat="43.3093" lon="5.68873">
        <ele>832</ele>
        <time>2014-03-19T13:37:51Z</time>
      </trkpt>
      <trkpt lat="43.30925" lon="5.68866">
        <ele>827.7</ele>
        <time>2014-03-19T13:38:16Z</time>
      </trkpt>
      <trkpt lat="43.30922" lon="5.68861">
        <ele>826</ele>
        <time>2014-03-19T13:38:28Z</time>
      </trkpt>
      <trkpt lat="43.3092" lon="5.68856">
        <ele>826</ele>
        <time>2014-03-19T13:38:41Z</time>
      </trkpt>
      <trkpt lat="43.30918" lon="5.6885">
        <ele>826.4</ele>
        <time>2014-03-19T13:39:01Z</time>
      </trkpt>
      <trkpt lat="43.30919" lon="5.6885">
        <ele>826.2</ele>
        <time>2014-03-19T13:39:02Z</time>
      </trkpt>
      <trkpt lat="43.30921" lon="5.68842">
        <ele>821.7</ele>
        <time>2014-03-19T13:39:37Z</time>
      </trkpt>
      <trkpt lat="43.30919" lon="5.68836">
        <ele>816</ele>
        <time>2014-03-19T13:39:55Z</time>
      </trkpt>
      <trkpt lat="43.30917" lon="5.68832">
        <ele>814.5</ele>
        <time>2014-03-19T13:40:11Z</time>
      </trkpt>
      <trkpt lat="43.30916" lon="5.68832">
        <ele>814.2</ele>
        <time>2014-03-19T13:40:12Z</time>
      </trkpt>
      <trkpt lat="43.30911" lon="5.68824">
        <ele>810.5</ele>
        <time>2014-03-19T13:40:32Z</time>
      </trkpt>
      <trkpt lat="43.30909" lon="5.68819">
        <ele>814.5</ele>
        <time>2014-03-19T13:40:48Z</time>
      </trkpt>
      <trkpt lat="43.30912" lon="5.68814">
        <ele>809.5</ele>
        <time>2014-03-19T13:42:16Z</time>
      </trkpt>
      <trkpt lat="43.30912" lon="5.68815">
        <ele>808.9</ele>
        <time>2014-03-19T13:42:17Z</time>
      </trkpt>
      <trkpt lat="43.30908" lon="5.68805">
        <ele>808.9</ele>
        <time>2014-03-19T13:42:36Z</time>
      </trkpt>
      <trkpt lat="43.30907" lon="5.68799">
        <ele>808.5</ele>
        <time>2014-03-19T13:42:47Z</time>
      </trkpt>
      <trkpt lat="43.30906" lon="5.68794">
        <ele>808.5</ele>
        <time>2014-03-19T13:42:55Z</time>
      </trkpt>
      <trkpt lat="43.30904" lon="5.68789">
        <ele>804.9</ele>
        <time>2014-03-19T13:43:06Z</time>
      </trkpt>
      <trkpt lat="43.30901" lon="5.68788">
        <ele>806</ele>
        <time>2014-03-19T13:43:10Z</time>
      </trkpt>
      <trkpt lat="43.30899" lon="5.68784">
        <ele>813</ele>
        <time>2014-03-19T13:43:13Z</time>
      </trkpt>
      <trkpt lat="43.30896" lon="5.6878">
        <ele>803.4</ele>
        <time>2014-03-19T13:43:37Z</time>
      </trkpt>
      <trkpt lat="43.30895" lon="5.68779">
        <ele>803</ele>
        <time>2014-03-19T13:43:38Z</time>
      </trkpt>
      <trkpt lat="43.30888" lon="5.68774">
        <ele>798.2</ele>
        <time>2014-03-19T13:43:55Z</time>
      </trkpt>
      <trkpt lat="43.30885" lon="5.6877">
        <ele>797.4</ele>
        <time>2014-03-19T13:44:09Z</time>
      </trkpt>
      <trkpt lat="43.30882" lon="5.68768">
        <ele>795.9</ele>
        <time>2014-03-19T13:44:18Z</time>
      </trkpt>
      <trkpt lat="43.30878" lon="5.68766">
        <ele>794.2</ele>
        <time>2014-03-19T13:44:23Z</time>
      </trkpt>
      <trkpt lat="43.30874" lon="5.68763">
        <ele>794.5</ele>
        <time>2014-03-19T13:44:28Z</time>
      </trkpt>
      <trkpt lat="43.30871" lon="5.6876">
        <ele>792.9</ele>
        <time>2014-03-19T13:44:37Z</time>
      </trkpt>
      <trkpt lat="43.30867" lon="5.68758">
        <ele>791.7</ele>
        <time>2014-03-19T13:44:43Z</time>
      </trkpt>
      <trkpt lat="43.30867" lon="5.68757">
        <ele>792.5</ele>
        <time>2014-03-19T13:44:44Z</time>
      </trkpt>
      <trkpt lat="43.30862" lon="5.68764">
        <ele>779</ele>
        <time>2014-03-19T13:44:59Z</time>
      </trkpt>
      <trkpt lat="43.30864" lon="5.68758">
        <ele>772.5</ele>
        <time>2014-03-19T13:45:21Z</time>
      </trkpt>
      <trkpt lat="43.30867" lon="5.68755">
        <ele>782</ele>
        <time>2014-03-19T13:45:33Z</time>
      </trkpt>
      <trkpt lat="43.3087" lon="5.68754">
        <ele>787</ele>
        <time>2014-03-19T13:46:02Z</time>
      </trkpt>
      <trkpt lat="43.30876" lon="5.68755">
        <ele>788.5</ele>
        <time>2014-03-19T13:46:03Z</time>
      </trkpt>
      <trkpt lat="43.30871" lon="5.68755">
        <ele>785.2</ele>
        <time>2014-03-19T13:46:23Z</time>
      </trkpt>
      <trkpt lat="43.30869" lon="5.6875">
        <ele>787.7</ele>
        <time>2014-03-19T13:47:11Z</time>
      </trkpt>
      <trkpt lat="43.30869" lon="5.68749">
        <ele>787.7</ele>
        <time>2014-03-19T13:47:12Z</time>
      </trkpt>
      <trkpt lat="43.30874" lon="5.68742">
        <ele>788.7</ele>
        <time>2014-03-19T13:47:36Z</time>
      </trkpt>
      <trkpt lat="43.30878" lon="5.68738">
        <ele>789.2</ele>
        <time>2014-03-19T13:47:42Z</time>
      </trkpt>
      <trkpt lat="43.3088" lon="5.68735">
        <ele>790.2</ele>
        <time>2014-03-19T13:47:48Z</time>
      </trkpt>
      <trkpt lat="43.30884" lon="5.68732">
        <ele>790.7</ele>
        <time>2014-03-19T13:47:53Z</time>
      </trkpt>
      <trkpt lat="43.30887" lon="5.68728">
        <ele>791.4</ele>
        <time>2014-03-19T13:48:01Z</time>
      </trkpt>
      <trkpt lat="43.3089" lon="5.68723">
        <ele>793.7</ele>
        <time>2014-03-19T13:48:12Z</time>
      </trkpt>
      <trkpt lat="43.30891" lon="5.68722">
        <ele>793.9</ele>
        <time>2014-03-19T13:48:13Z</time>
      </trkpt>
      <trkpt lat="43.30895" lon="5.68714">
        <ele>795.9</ele>
        <time>2014-03-19T13:48:24Z</time>
      </trkpt>
      <trkpt lat="43.30897" lon="5.68709">
        <ele>796.2</ele>
        <time>2014-03-19T13:48:29Z</time>
      </trkpt>
      <trkpt lat="43.30899" lon="5.68704">
        <ele>796.2</ele>
        <time>2014-03-19T13:48:34Z</time>
      </trkpt>
      <trkpt lat="43.30901" lon="5.687">
        <ele>796.4</ele>
        <time>2014-03-19T13:48:44Z</time>
      </trkpt>
      <trkpt lat="43.30903" lon="5.68694">
        <ele>796.7</ele>
        <time>2014-03-19T13:48:50Z</time>
      </trkpt>
      <trkpt lat="43.30906" lon="5.6869">
        <ele>797</ele>
        <time>2014-03-19T13:48:56Z</time>
      </trkpt>
      <trkpt lat="43.30909" lon="5.68687">
        <ele>797.7</ele>
        <time>2014-03-19T13:49:02Z</time>
      </trkpt>
      <trkpt lat="43.30913" lon="5.68685">
        <ele>798.5</ele>
        <time>2014-03-19T13:49:09Z</time>
      </trkpt>
      <trkpt lat="43.30917" lon="5.68683">
        <ele>798.5</ele>
        <time>2014-03-19T13:49:18Z</time>
      </trkpt>
      <trkpt lat="43.30917" lon="5.68683">
        <ele>798.4</ele>
        <time>2014-03-19T13:49:19Z</time>
      </trkpt>
      <trkpt lat="43.30924" lon="5.68678">
        <ele>800</ele>
        <time>2014-03-19T13:49:36Z</time>
      </trkpt>
      <trkpt lat="43.30927" lon="5.68674">
        <ele>802</ele>
        <time>2014-03-19T13:49:42Z</time>
      </trkpt>
      <trkpt lat="43.30931" lon="5.68671">
        <ele>802.9</ele>
        <time>2014-03-19T13:49:51Z</time>
      </trkpt>
      <trkpt lat="43.30934" lon="5.68668">
        <ele>802.7</ele>
        <time>2014-03-19T13:49:58Z</time>
      </trkpt>
      <trkpt lat="43.30937" lon="5.68664">
        <ele>801.9</ele>
        <time>2014-03-19T13:50:08Z</time>
      </trkpt>
      <trkpt lat="43.30941" lon="5.68661">
        <ele>800.2</ele>
        <time>2014-03-19T13:50:13Z</time>
      </trkpt>
      <trkpt lat="43.30945" lon="5.6866">
        <ele>799</ele>
        <time>2014-03-19T13:50:19Z</time>
      </trkpt>
      <trkpt lat="43.30945" lon="5.6866">
        <ele>798.7</ele>
        <time>2014-03-19T13:50:20Z</time>
      </trkpt>
      <trkpt lat="43.30952" lon="5.68655">
        <ele>800.5</ele>
        <time>2014-03-19T13:50:31Z</time>
      </trkpt>
      <trkpt lat="43.30955" lon="5.68656">
        <ele>799.5</ele>
        <time>2014-03-19T13:50:34Z</time>
      </trkpt>
      <trkpt lat="43.30959" lon="5.68658">
        <ele>798.4</ele>
        <time>2014-03-19T13:50:38Z</time>
      </trkpt>
      <trkpt lat="43.30963" lon="5.68655">
        <ele>797.9</ele>
        <time>2014-03-19T13:50:43Z</time>
      </trkpt>
      <trkpt lat="43.30966" lon="5.68652">
        <ele>797.2</ele>
        <time>2014-03-19T13:50:48Z</time>
      </trkpt>
      <trkpt lat="43.30971" lon="5.68652">
        <ele>796</ele>
        <time>2014-03-19T13:50:53Z</time>
      </trkpt>
      <trkpt lat="43.30974" lon="5.68651">
        <ele>795.5</ele>
        <time>2014-03-19T13:50:59Z</time>
      </trkpt>
      <trkpt lat="43.30979" lon="5.68651">
        <ele>795.7</ele>
        <time>2014-03-19T13:51:05Z</time>
      </trkpt>
      <trkpt lat="43.30982" lon="5.68649">
        <ele>797</ele>
        <time>2014-03-19T13:51:11Z</time>
      </trkpt>
      <trkpt lat="43.30985" lon="5.68645">
        <ele>799.2</ele>
        <time>2014-03-19T13:51:17Z</time>
      </trkpt>
      <trkpt lat="43.30989" lon="5.68643">
        <ele>799</ele>
        <time>2014-03-19T13:51:25Z</time>
      </trkpt>
      <trkpt lat="43.30989" lon="5.68642">
        <ele>799.2</ele>
        <time>2014-03-19T13:51:26Z</time>
      </trkpt>
      <trkpt lat="43.30994" lon="5.68633">
        <ele>801.7</ele>
        <time>2014-03-19T13:51:37Z</time>
      </trkpt>
      <trkpt lat="43.30997" lon="5.68632">
        <ele>801</ele>
        <time>2014-03-19T13:51:42Z</time>
      </trkpt>
      <trkpt lat="43.31001" lon="5.68628">
        <ele>798.2</ele>
        <time>2014-03-19T13:51:50Z</time>
      </trkpt>
      <trkpt lat="43.31005" lon="5.68626">
        <ele>796.5</ele>
        <time>2014-03-19T13:51:57Z</time>
      </trkpt>
      <trkpt lat="43.31009" lon="5.68627">
        <ele>794.2</ele>
        <time>2014-03-19T13:52:04Z</time>
      </trkpt>
      <trkpt lat="43.31013" lon="5.68627">
        <ele>791.5</ele>
        <time>2014-03-19T13:52:11Z</time>
      </trkpt>
      <trkpt lat="43.31017" lon="5.68629">
        <ele>805.9</ele>
        <time>2014-03-19T13:52:41Z</time>
      </trkpt>
      <trkpt lat="43.31018" lon="5.68629">
        <ele>806</ele>
        <time>2014-03-19T13:52:42Z</time>
      </trkpt>
      <trkpt lat="43.31024" lon="5.68624">
        <ele>803.2</ele>
        <time>2014-03-19T13:52:51Z</time>
      </trkpt>
      <trkpt lat="43.31028" lon="5.68623">
        <ele>801.7</ele>
        <time>2014-03-19T13:52:56Z</time>
      </trkpt>
      <trkpt lat="43.31032" lon="5.6862">
        <ele>800.2</ele>
        <time>2014-03-19T13:53:06Z</time>
      </trkpt>
      <trkpt lat="43.31035" lon="5.68619">
        <ele>798.7</ele>
        <time>2014-03-19T13:53:10Z</time>
      </trkpt>
      <trkpt lat="43.31039" lon="5.68617">
        <ele>798.5</ele>
        <time>2014-03-19T13:53:15Z</time>
      </trkpt>
      <trkpt lat="43.31043" lon="5.68616">
        <ele>797.4</ele>
        <time>2014-03-19T13:53:22Z</time>
      </trkpt>
      <trkpt lat="43.31047" lon="5.68617">
        <ele>797</ele>
        <time>2014-03-19T13:53:27Z</time>
      </trkpt>
      <trkpt lat="43.31051" lon="5.68617">
        <ele>796.5</ele>
        <time>2014-03-19T13:53:33Z</time>
      </trkpt>
      <trkpt lat="43.31055" lon="5.68617">
        <ele>797.2</ele>
        <time>2014-03-19T13:53:39Z</time>
      </trkpt>
      <trkpt lat="43.31058" lon="5.68613">
        <ele>802.2</ele>
        <time>2014-03-19T13:53:46Z</time>
      </trkpt>
      <trkpt lat="43.31059" lon="5.68613">
        <ele>802.5</ele>
        <time>2014-03-19T13:53:47Z</time>
      </trkpt>
      <trkpt lat="43.31055" lon="5.68623">
        <ele>798.2</ele>
        <time>2014-03-19T13:54:18Z</time>
      </trkpt>
      <trkpt lat="43.31054" lon="5.68617">
        <ele>793.4</ele>
        <time>2014-03-19T13:54:47Z</time>
      </trkpt>
      <trkpt lat="43.31054" lon="5.68615">
        <ele>794.4</ele>
        <time>2014-03-19T13:54:48Z</time>
      </trkpt>
      <trkpt lat="43.31055" lon="5.68611">
        <ele>805</ele>
        <time>2014-03-19T13:55:19Z</time>
      </trkpt>
      <trkpt lat="43.3106" lon="5.68613">
        <ele>802.5</ele>
        <time>2014-03-19T13:55:23Z</time>
      </trkpt>
      <trkpt lat="43.31062" lon="5.68618">
        <ele>800.2</ele>
        <time>2014-03-19T13:55:45Z</time>
      </trkpt>
      <trkpt lat="43.31064" lon="5.68622">
        <ele>798.2</ele>
        <time>2014-03-19T13:55:52Z</time>
      </trkpt>
      <trkpt lat="43.31066" lon="5.68622">
        <ele>798.7</ele>
        <time>2014-03-19T13:55:53Z</time>
      </trkpt>
      <trkpt lat="43.31073" lon="5.68623">
        <ele>799.4</ele>
        <time>2014-03-19T13:56:01Z</time>
      </trkpt>
      <trkpt lat="43.31077" lon="5.68624">
        <ele>800.4</ele>
        <time>2014-03-19T13:56:06Z</time>
      </trkpt>
      <trkpt lat="43.3108" lon="5.68625">
        <ele>800.2</ele>
        <time>2014-03-19T13:56:15Z</time>
      </trkpt>
      <trkpt lat="43.31085" lon="5.68626">
        <ele>800.7</ele>
        <time>2014-03-19T13:56:19Z</time>
      </trkpt>
      <trkpt lat="43.31089" lon="5.68626">
        <ele>802.5</ele>
        <time>2014-03-19T13:56:23Z</time>
      </trkpt>
      <trkpt lat="43.31093" lon="5.68626">
        <ele>801.9</ele>
        <time>2014-03-19T13:56:27Z</time>
      </trkpt>
      <trkpt lat="43.31097" lon="5.68626">
        <ele>803.5</ele>
        <time>2014-03-19T13:56:30Z</time>
      </trkpt>
      <trkpt lat="43.31101" lon="5.68626">
        <ele>804.9</ele>
        <time>2014-03-19T13:56:34Z</time>
      </trkpt>
      <trkpt lat="43.31105" lon="5.68626">
        <ele>805.7</ele>
        <time>2014-03-19T13:56:39Z</time>
      </trkpt>
      <trkpt lat="43.31109" lon="5.68627">
        <ele>806.5</ele>
        <time>2014-03-19T13:56:45Z</time>
      </trkpt>
      <trkpt lat="43.31113" lon="5.68629">
        <ele>806.7</ele>
        <time>2014-03-19T13:56:50Z</time>
      </trkpt>
      <trkpt lat="43.31117" lon="5.6863">
        <ele>805.7</ele>
        <time>2014-03-19T13:56:55Z</time>
      </trkpt>
      <trkpt lat="43.31118" lon="5.6863">
        <ele>806.2</ele>
        <time>2014-03-19T13:56:56Z</time>
      </trkpt>
      <trkpt lat="43.31124" lon="5.68634">
        <ele>807.2</ele>
        <time>2014-03-19T13:57:04Z</time>
      </trkpt>
      <trkpt lat="43.31127" lon="5.68637">
        <ele>808.4</ele>
        <time>2014-03-19T13:57:10Z</time>
      </trkpt>
      <trkpt lat="43.31131" lon="5.68638">
        <ele>809.5</ele>
        <time>2014-03-19T13:57:14Z</time>
      </trkpt>
      <trkpt lat="43.31134" lon="5.6864">
        <ele>809.4</ele>
        <time>2014-03-19T13:57:17Z</time>
      </trkpt>
      <trkpt lat="43.31137" lon="5.6864">
        <ele>810.5</ele>
        <time>2014-03-19T13:57:20Z</time>
      </trkpt>
      <trkpt lat="43.31141" lon="5.68641">
        <ele>811.7</ele>
        <time>2014-03-19T13:57:24Z</time>
      </trkpt>
      <trkpt lat="43.31145" lon="5.68643">
        <ele>811.9</ele>
        <time>2014-03-19T13:57:29Z</time>
      </trkpt>
      <trkpt lat="43.3115" lon="5.68644">
        <ele>812</ele>
        <time>2014-03-19T13:57:34Z</time>
      </trkpt>
      <trkpt lat="43.31153" lon="5.68646">
        <ele>811.2</ele>
        <time>2014-03-19T13:57:39Z</time>
      </trkpt>
      <trkpt lat="43.31157" lon="5.68649">
        <ele>811.2</ele>
        <time>2014-03-19T13:57:46Z</time>
      </trkpt>
      <trkpt lat="43.31161" lon="5.68651">
        <ele>813</ele>
        <time>2014-03-19T13:57:52Z</time>
      </trkpt>
      <trkpt lat="43.31164" lon="5.68654">
        <ele>813.4</ele>
        <time>2014-03-19T13:57:58Z</time>
      </trkpt>
      <trkpt lat="43.31165" lon="5.68655">
        <ele>813.4</ele>
        <time>2014-03-19T13:57:59Z</time>
      </trkpt>
      <trkpt lat="43.3117" lon="5.68662">
        <ele>811.9</ele>
        <time>2014-03-19T13:58:10Z</time>
      </trkpt>
      <trkpt lat="43.31173" lon="5.68665">
        <ele>812.5</ele>
        <time>2014-03-19T13:58:15Z</time>
      </trkpt>
      <trkpt lat="43.31177" lon="5.68667">
        <ele>813</ele>
        <time>2014-03-19T13:58:20Z</time>
      </trkpt>
      <trkpt lat="43.31181" lon="5.68669">
        <ele>814.4</ele>
        <time>2014-03-19T13:58:24Z</time>
      </trkpt>
      <trkpt lat="43.31184" lon="5.68671">
        <ele>815.5</ele>
        <time>2014-03-19T13:58:28Z</time>
      </trkpt>
      <trkpt lat="43.31188" lon="5.68673">
        <ele>816.2</ele>
        <time>2014-03-19T13:58:32Z</time>
      </trkpt>
      <trkpt lat="43.31192" lon="5.68675">
        <ele>816.9</ele>
        <time>2014-03-19T13:58:40Z</time>
      </trkpt>
      <trkpt lat="43.31195" lon="5.68678">
        <ele>816</ele>
        <time>2014-03-19T13:58:48Z</time>
      </trkpt>
      <trkpt lat="43.31198" lon="5.6868">
        <ele>817</ele>
        <time>2014-03-19T13:58:50Z</time>
      </trkpt>
      <trkpt lat="43.31202" lon="5.68681">
        <ele>818.5</ele>
        <time>2014-03-19T13:58:53Z</time>
      </trkpt>
      <trkpt lat="43.31205" lon="5.68681">
        <ele>820</ele>
        <time>2014-03-19T13:58:55Z</time>
      </trkpt>
      <trkpt lat="43.31209" lon="5.68682">
        <ele>820.5</ele>
        <time>2014-03-19T13:59:00Z</time>
      </trkpt>
      <trkpt lat="43.31211" lon="5.68683">
        <ele>821</ele>
        <time>2014-03-19T13:59:01Z</time>
      </trkpt>
      <trkpt lat="43.31216" lon="5.68686">
        <ele>822.7</ele>
        <time>2014-03-19T13:59:08Z</time>
      </trkpt>
      <trkpt lat="43.3122" lon="5.68688">
        <ele>824.7</ele>
        <time>2014-03-19T13:59:12Z</time>
      </trkpt>
      <trkpt lat="43.31223" lon="5.6869">
        <ele>826.2</ele>
        <time>2014-03-19T13:59:16Z</time>
      </trkpt>
      <trkpt lat="43.31227" lon="5.68693">
        <ele>826.2</ele>
        <time>2014-03-19T13:59:21Z</time>
      </trkpt>
      <trkpt lat="43.31229" lon="5.68697">
        <ele>825.5</ele>
        <time>2014-03-19T13:59:27Z</time>
      </trkpt>
      <trkpt lat="43.31233" lon="5.687">
        <ele>826.2</ele>
        <time>2014-03-19T13:59:32Z</time>
      </trkpt>
      <trkpt lat="43.31236" lon="5.68704">
        <ele>827.2</ele>
        <time>2014-03-19T13:59:38Z</time>
      </trkpt>
      <trkpt lat="43.3124" lon="5.68706">
        <ele>829</ele>
        <time>2014-03-19T13:59:45Z</time>
      </trkpt>
      <trkpt lat="43.31244" lon="5.68709">
        <ele>828.2</ele>
        <time>2014-03-19T13:59:49Z</time>
      </trkpt>
      <trkpt lat="43.31247" lon="5.68713">
        <ele>828.7</ele>
        <time>2014-03-19T13:59:54Z</time>
      </trkpt>
      <trkpt lat="43.3125" lon="5.68716">
        <ele>830.5</ele>
        <time>2014-03-19T13:59:59Z</time>
      </trkpt>
      <trkpt lat="43.31254" lon="5.68719">
        <ele>831.5</ele>
        <time>2014-03-19T14:00:05Z</time>
      </trkpt>
      <trkpt lat="43.31255" lon="5.6872">
        <ele>831.9</ele>
        <time>2014-03-19T14:00:06Z</time>
      </trkpt>
      <trkpt lat="43.31261" lon="5.68725">
        <ele>833</ele>
        <time>2014-03-19T14:00:15Z</time>
      </trkpt>
      <trkpt lat="43.31264" lon="5.6873">
        <ele>832.7</ele>
        <time>2014-03-19T14:00:21Z</time>
      </trkpt>
      <trkpt lat="43.31268" lon="5.68732">
        <ele>834.4</ele>
        <time>2014-03-19T14:00:26Z</time>
      </trkpt>
      <trkpt lat="43.3127" lon="5.68737">
        <ele>834.7</ele>
        <time>2014-03-19T14:00:34Z</time>
      </trkpt>
      <trkpt lat="43.31271" lon="5.68742">
        <ele>831.5</ele>
        <time>2014-03-19T14:00:40Z</time>
      </trkpt>
      <trkpt lat="43.31274" lon="5.68743">
        <ele>834</ele>
        <time>2014-03-19T14:00:42Z</time>
      </trkpt>
      <trkpt lat="43.31277" lon="5.68745">
        <ele>835.2</ele>
        <time>2014-03-19T14:00:45Z</time>
      </trkpt>
      <trkpt lat="43.3128" lon="5.6875">
        <ele>834.2</ele>
        <time>2014-03-19T14:00:51Z</time>
      </trkpt>
      <trkpt lat="43.31284" lon="5.68752">
        <ele>835.9</ele>
        <time>2014-03-19T14:00:55Z</time>
      </trkpt>
      <trkpt lat="43.31287" lon="5.68755">
        <ele>837.5</ele>
        <time>2014-03-19T14:01:00Z</time>
      </trkpt>
      <trkpt lat="43.3129" lon="5.6876">
        <ele>837.2</ele>
        <time>2014-03-19T14:01:08Z</time>
      </trkpt>
      <trkpt lat="43.31291" lon="5.68761">
        <ele>837.7</ele>
        <time>2014-03-19T14:01:09Z</time>
      </trkpt>
      <trkpt lat="43.31297" lon="5.68764">
        <ele>840.5</ele>
        <time>2014-03-19T14:01:15Z</time>
      </trkpt>
      <trkpt lat="43.31301" lon="5.68767">
        <ele>842</ele>
        <time>2014-03-19T14:01:20Z</time>
      </trkpt>
      <trkpt lat="43.31302" lon="5.68772">
        <ele>839.7</ele>
        <time>2014-03-19T14:01:26Z</time>
      </trkpt>
      <trkpt lat="43.31304" lon="5.68777">
        <ele>839.2</ele>
        <time>2014-03-19T14:01:33Z</time>
      </trkpt>
      <trkpt lat="43.31307" lon="5.6878">
        <ele>840.4</ele>
        <time>2014-03-19T14:01:39Z</time>
      </trkpt>
      <trkpt lat="43.31311" lon="5.6878">
        <ele>842.7</ele>
        <time>2014-03-19T14:01:41Z</time>
      </trkpt>
      <trkpt lat="43.31314" lon="5.68783">
        <ele>845</ele>
        <time>2014-03-19T14:01:57Z</time>
      </trkpt>
      <trkpt lat="43.31318" lon="5.68787">
        <ele>845.5</ele>
        <time>2014-03-19T14:02:02Z</time>
      </trkpt>
      <trkpt lat="43.31319" lon="5.68792">
        <ele>843.2</ele>
        <time>2014-03-19T14:02:07Z</time>
      </trkpt>
      <trkpt lat="43.3132" lon="5.68798">
        <ele>841.5</ele>
        <time>2014-03-19T14:02:14Z</time>
      </trkpt>
      <trkpt lat="43.3132" lon="5.68799">
        <ele>840.9</ele>
        <time>2014-03-19T14:02:15Z</time>
      </trkpt>
      <trkpt lat="43.31326" lon="5.68806">
        <ele>842</ele>
        <time>2014-03-19T14:02:25Z</time>
      </trkpt>
      <trkpt lat="43.31329" lon="5.6881">
        <ele>842.5</ele>
        <time>2014-03-19T14:02:31Z</time>
      </trkpt>
      <trkpt lat="43.31332" lon="5.68813">
        <ele>843.5</ele>
        <time>2014-03-19T14:02:36Z</time>
      </trkpt>
      <trkpt lat="43.31336" lon="5.68815">
        <ele>845.7</ele>
        <time>2014-03-19T14:02:39Z</time>
      </trkpt>
      <trkpt lat="43.31337" lon="5.68821">
        <ele>845</ele>
        <time>2014-03-19T14:02:45Z</time>
      </trkpt>
      <trkpt lat="43.3134" lon="5.68825">
        <ele>842.7</ele>
        <time>2014-03-19T14:02:56Z</time>
      </trkpt>
      <trkpt lat="43.31344" lon="5.68826">
        <ele>846.7</ele>
        <time>2014-03-19T14:03:03Z</time>
      </trkpt>
      <trkpt lat="43.31348" lon="5.68826">
        <ele>850.9</ele>
        <time>2014-03-19T14:03:12Z</time>
      </trkpt>
      <trkpt lat="43.31353" lon="5.68826">
        <ele>856.2</ele>
        <time>2014-03-19T14:04:59Z</time>
      </trkpt>
      <trkpt lat="43.31353" lon="5.68826">
        <ele>856.2</ele>
        <time>2014-03-19T14:05:00Z</time>
      </trkpt>
      <trkpt lat="43.31352" lon="5.68819">
        <ele>854.7</ele>
        <time>2014-03-19T14:06:20Z</time>
      </trkpt>
      <trkpt lat="43.31345" lon="5.68813">
        <ele>852.5</ele>
        <time>2014-03-19T14:06:33Z</time>
      </trkpt>
      <trkpt lat="43.31344" lon="5.68807">
        <ele>849.5</ele>
        <time>2014-03-19T14:06:41Z</time>
      </trkpt>
      <trkpt lat="43.31342" lon="5.68802">
        <ele>850</ele>
        <time>2014-03-19T14:06:47Z</time>
      </trkpt>
      <trkpt lat="43.3134" lon="5.68797">
        <ele>848.5</ele>
        <time>2014-03-19T14:06:54Z</time>
      </trkpt>
      <trkpt lat="43.31337" lon="5.68792">
        <ele>845.7</ele>
        <time>2014-03-19T14:07:01Z</time>
      </trkpt>
      <trkpt lat="43.31335" lon="5.68789">
        <ele>846</ele>
        <time>2014-03-19T14:07:05Z</time>
      </trkpt>
      <trkpt lat="43.31331" lon="5.68785">
        <ele>845.2</ele>
        <time>2014-03-19T14:07:10Z</time>
      </trkpt>
      <trkpt lat="43.31328" lon="5.68782">
        <ele>842.7</ele>
        <time>2014-03-19T14:07:15Z</time>
      </trkpt>
      <trkpt lat="43.31324" lon="5.6878">
        <ele>839.5</ele>
        <time>2014-03-19T14:07:20Z</time>
      </trkpt>
      <trkpt lat="43.31324" lon="5.68779">
        <ele>838.9</ele>
        <time>2014-03-19T14:07:21Z</time>
      </trkpt>
      <trkpt lat="43.31319" lon="5.68772">
        <ele>835.5</ele>
        <time>2014-03-19T14:07:28Z</time>
      </trkpt>
      <trkpt lat="43.31317" lon="5.68767">
        <ele>839.4</ele>
        <time>2014-03-19T14:07:32Z</time>
      </trkpt>
      <trkpt lat="43.31315" lon="5.68762">
        <ele>842.5</ele>
        <time>2014-03-19T14:07:37Z</time>
      </trkpt>
      <trkpt lat="43.31312" lon="5.68759">
        <ele>842.9</ele>
        <time>2014-03-19T14:07:43Z</time>
      </trkpt>
      <trkpt lat="43.31309" lon="5.68756">
        <ele>843.5</ele>
        <time>2014-03-19T14:07:48Z</time>
      </trkpt>
      <trkpt lat="43.31306" lon="5.68752">
        <ele>843.2</ele>
        <time>2014-03-19T14:07:52Z</time>
      </trkpt>
      <trkpt lat="43.31302" lon="5.68749">
        <ele>840.2</ele>
        <time>2014-03-19T14:07:59Z</time>
      </trkpt>
      <trkpt lat="43.31298" lon="5.68747">
        <ele>839.2</ele>
        <time>2014-03-19T14:08:05Z</time>
      </trkpt>
      <trkpt lat="43.31295" lon="5.68744">
        <ele>839.2</ele>
        <time>2014-03-19T14:08:12Z</time>
      </trkpt>
      <trkpt lat="43.31292" lon="5.6874">
        <ele>839.5</ele>
        <time>2014-03-19T14:08:21Z</time>
      </trkpt>
      <trkpt lat="43.31292" lon="5.68739">
        <ele>839.5</ele>
        <time>2014-03-19T14:08:22Z</time>
      </trkpt>
      <trkpt lat="43.31288" lon="5.6873">
        <ele>836.2</ele>
        <time>2014-03-19T14:08:37Z</time>
      </trkpt>
      <trkpt lat="43.31286" lon="5.68725">
        <ele>833</ele>
        <time>2014-03-19T14:08:45Z</time>
      </trkpt>
      <trkpt lat="43.31283" lon="5.6872">
        <ele>829.9</ele>
        <time>2014-03-19T14:08:52Z</time>
      </trkpt>
      <trkpt lat="43.31279" lon="5.68718">
        <ele>828.5</ele>
        <time>2014-03-19T14:09:00Z</time>
      </trkpt>
      <trkpt lat="43.31276" lon="5.68715">
        <ele>827.7</ele>
        <time>2014-03-19T14:09:06Z</time>
      </trkpt>
      <trkpt lat="43.31272" lon="5.68711">
        <ele>828.2</ele>
        <time>2014-03-19T14:09:14Z</time>
      </trkpt>
      <trkpt lat="43.3127" lon="5.68706">
        <ele>827.9</ele>
        <time>2014-03-19T14:09:24Z</time>
      </trkpt>
      <trkpt lat="43.3127" lon="5.68706">
        <ele>828</ele>
        <time>2014-03-19T14:09:25Z</time>
      </trkpt>
      <trkpt lat="43.3127" lon="5.68695">
        <ele>828.4</ele>
        <time>2014-03-19T14:09:39Z</time>
      </trkpt>
      <trkpt lat="43.31269" lon="5.68689">
        <ele>826.9</ele>
        <time>2014-03-19T14:09:47Z</time>
      </trkpt>
      <trkpt lat="43.31269" lon="5.68683">
        <ele>825.2</ele>
        <time>2014-03-19T14:09:56Z</time>
      </trkpt>
      <trkpt lat="43.31266" lon="5.68679">
        <ele>824</ele>
        <time>2014-03-19T14:10:03Z</time>
      </trkpt>
      <trkpt lat="43.31263" lon="5.68676">
        <ele>821.2</ele>
        <time>2014-03-19T14:10:11Z</time>
      </trkpt>
      <trkpt lat="43.31259" lon="5.68673">
        <ele>820.2</ele>
        <time>2014-03-19T14:10:17Z</time>
      </trkpt>
      <trkpt lat="43.31256" lon="5.68669">
        <ele>820.2</ele>
        <time>2014-03-19T14:10:22Z</time>
      </trkpt>
      <trkpt lat="43.31252" lon="5.68667">
        <ele>819.5</ele>
        <time>2014-03-19T14:10:28Z</time>
      </trkpt>
      <trkpt lat="43.31252" lon="5.68666">
        <ele>819.5</ele>
        <time>2014-03-19T14:10:29Z</time>
      </trkpt>
      <trkpt lat="43.31245" lon="5.68662">
        <ele>813.5</ele>
        <time>2014-03-19T14:10:41Z</time>
      </trkpt>
      <trkpt lat="43.31241" lon="5.6866">
        <ele>812.5</ele>
        <time>2014-03-19T14:10:47Z</time>
      </trkpt>
      <trkpt lat="43.31238" lon="5.68658">
        <ele>810.2</ele>
        <time>2014-03-19T14:10:54Z</time>
      </trkpt>
      <trkpt lat="43.31235" lon="5.68654">
        <ele>810.9</ele>
        <time>2014-03-19T14:10:59Z</time>
      </trkpt>
      <trkpt lat="43.31233" lon="5.6865">
        <ele>809.9</ele>
        <time>2014-03-19T14:11:03Z</time>
      </trkpt>
      <trkpt lat="43.31229" lon="5.68647">
        <ele>808.2</ele>
        <time>2014-03-19T14:11:08Z</time>
      </trkpt>
      <trkpt lat="43.31226" lon="5.68644">
        <ele>807.2</ele>
        <time>2014-03-19T14:11:13Z</time>
      </trkpt>
      <trkpt lat="43.31224" lon="5.68638">
        <ele>807.5</ele>
        <time>2014-03-19T14:11:19Z</time>
      </trkpt>
      <trkpt lat="43.31222" lon="5.68634">
        <ele>806.9</ele>
        <time>2014-03-19T14:11:24Z</time>
      </trkpt>
      <trkpt lat="43.31218" lon="5.6863">
        <ele>808</ele>
        <time>2014-03-19T14:11:30Z</time>
      </trkpt>
      <trkpt lat="43.31218" lon="5.6863">
        <ele>807.9</ele>
        <time>2014-03-19T14:11:31Z</time>
      </trkpt>
      <trkpt lat="43.3121" lon="5.6863">
        <ele>804.2</ele>
        <time>2014-03-19T14:11:51Z</time>
      </trkpt>
      <trkpt lat="43.31206" lon="5.68627">
        <ele>801.7</ele>
        <time>2014-03-19T14:12:07Z</time>
      </trkpt>
      <trkpt lat="43.31204" lon="5.68622">
        <ele>801.5</ele>
        <time>2014-03-19T14:12:20Z</time>
      </trkpt>
      <trkpt lat="43.312" lon="5.68618">
        <ele>800.7</ele>
        <time>2014-03-19T14:12:32Z</time>
      </trkpt>
      <trkpt lat="43.312" lon="5.68617">
        <ele>800.5</ele>
        <time>2014-03-19T14:12:33Z</time>
      </trkpt>
      <trkpt lat="43.31192" lon="5.68614">
        <ele>797.5</ele>
        <time>2014-03-19T14:12:56Z</time>
      </trkpt>
      <trkpt lat="43.31192" lon="5.68608">
        <ele>799.5</ele>
        <time>2014-03-19T14:13:05Z</time>
      </trkpt>
      <trkpt lat="43.3119" lon="5.68603">
        <ele>798.4</ele>
        <time>2014-03-19T14:13:12Z</time>
      </trkpt>
      <trkpt lat="43.31187" lon="5.68599">
        <ele>798.2</ele>
        <time>2014-03-19T14:13:21Z</time>
      </trkpt>
      <trkpt lat="43.31183" lon="5.68598">
        <ele>795.7</ele>
        <time>2014-03-19T14:13:29Z</time>
      </trkpt>
      <trkpt lat="43.31179" lon="5.68595">
        <ele>794.2</ele>
        <time>2014-03-19T14:13:38Z</time>
      </trkpt>
      <trkpt lat="43.31179" lon="5.68595">
        <ele>794.2</ele>
        <time>2014-03-19T14:13:39Z</time>
      </trkpt>
      <trkpt lat="43.31172" lon="5.6859">
        <ele>793.5</ele>
        <time>2014-03-19T14:13:53Z</time>
      </trkpt>
      <trkpt lat="43.31168" lon="5.68588">
        <ele>789</ele>
        <time>2014-03-19T14:14:01Z</time>
      </trkpt>
      <trkpt lat="43.31165" lon="5.68584">
        <ele>785</ele>
        <time>2014-03-19T14:14:09Z</time>
      </trkpt>
      <trkpt lat="43.31163" lon="5.68578">
        <ele>784.5</ele>
        <time>2014-03-19T14:14:15Z</time>
      </trkpt>
      <trkpt lat="43.31161" lon="5.68574">
        <ele>783</ele>
        <time>2014-03-19T14:14:21Z</time>
      </trkpt>
      <trkpt lat="43.31158" lon="5.6857">
        <ele>782.7</ele>
        <time>2014-03-19T14:14:28Z</time>
      </trkpt>
      <trkpt lat="43.31154" lon="5.68568">
        <ele>783.2</ele>
        <time>2014-03-19T14:14:37Z</time>
      </trkpt>
      <trkpt lat="43.3115" lon="5.68565">
        <ele>781.5</ele>
        <time>2014-03-19T14:14:46Z</time>
      </trkpt>
      <trkpt lat="43.3115" lon="5.68564">
        <ele>781.4</ele>
        <time>2014-03-19T14:14:47Z</time>
      </trkpt>
      <trkpt lat="43.31144" lon="5.68558">
        <ele>778.7</ele>
        <time>2014-03-19T14:15:03Z</time>
      </trkpt>
      <trkpt lat="43.31141" lon="5.68554">
        <ele>778.2</ele>
        <time>2014-03-19T14:15:11Z</time>
      </trkpt>
      <trkpt lat="43.31142" lon="5.68549">
        <ele>780.7</ele>
        <time>2014-03-19T14:15:18Z</time>
      </trkpt>
      <trkpt lat="43.31144" lon="5.68544">
        <ele>780.4</ele>
        <time>2014-03-19T14:15:25Z</time>
      </trkpt>
      <trkpt lat="43.31142" lon="5.68539">
        <ele>779.4</ele>
        <time>2014-03-19T14:15:34Z</time>
      </trkpt>
      <trkpt lat="43.31141" lon="5.68533">
        <ele>779.9</ele>
        <time>2014-03-19T14:15:42Z</time>
      </trkpt>
      <trkpt lat="43.31137" lon="5.68532">
        <ele>777.7</ele>
        <time>2014-03-19T14:15:58Z</time>
      </trkpt>
      <trkpt lat="43.31136" lon="5.68532">
        <ele>777.7</ele>
        <time>2014-03-19T14:15:59Z</time>
      </trkpt>
      <trkpt lat="43.31134" lon="5.68525">
        <ele>774.9</ele>
        <time>2014-03-19T14:16:12Z</time>
      </trkpt>
      <trkpt lat="43.31132" lon="5.6852">
        <ele>773.2</ele>
        <time>2014-03-19T14:16:23Z</time>
      </trkpt>
      <trkpt lat="43.3113" lon="5.68514">
        <ele>772.7</ele>
        <time>2014-03-19T14:16:35Z</time>
      </trkpt>
      <trkpt lat="43.3113" lon="5.68508">
        <ele>772.5</ele>
        <time>2014-03-19T14:16:57Z</time>
      </trkpt>
      <trkpt lat="43.31127" lon="5.68505">
        <ele>768</ele>
        <time>2014-03-19T14:17:12Z</time>
      </trkpt>
      <trkpt lat="43.31127" lon="5.68504">
        <ele>768</ele>
        <time>2014-03-19T14:17:13Z</time>
      </trkpt>
      <trkpt lat="43.3112" lon="5.68498">
        <ele>765.5</ele>
        <time>2014-03-19T14:17:27Z</time>
      </trkpt>
      <trkpt lat="43.31117" lon="5.68494">
        <ele>764.2</ele>
        <time>2014-03-19T14:17:32Z</time>
      </trkpt>
      <trkpt lat="43.31113" lon="5.68492">
        <ele>764.9</ele>
        <time>2014-03-19T14:17:41Z</time>
      </trkpt>
      <trkpt lat="43.31111" lon="5.68487">
        <ele>769.2</ele>
        <time>2014-03-19T14:17:49Z</time>
      </trkpt>
      <trkpt lat="43.31107" lon="5.68485">
        <ele>769.2</ele>
        <time>2014-03-19T14:17:59Z</time>
      </trkpt>
      <trkpt lat="43.31104" lon="5.68483">
        <ele>769.4</ele>
        <time>2014-03-19T14:18:12Z</time>
      </trkpt>
      <trkpt lat="43.311" lon="5.68483">
        <ele>767.2</ele>
        <time>2014-03-19T14:18:18Z</time>
      </trkpt>
      <trkpt lat="43.31099" lon="5.68483">
        <ele>766.7</ele>
        <time>2014-03-19T14:18:19Z</time>
      </trkpt>
      <trkpt lat="43.31093" lon="5.68475">
        <ele>764</ele>
        <time>2014-03-19T14:18:30Z</time>
      </trkpt>
      <trkpt lat="43.31091" lon="5.68471">
        <ele>762.5</ele>
        <time>2014-03-19T14:18:38Z</time>
      </trkpt>
      <trkpt lat="43.31087" lon="5.68468">
        <ele>760.7</ele>
        <time>2014-03-19T14:18:45Z</time>
      </trkpt>
      <trkpt lat="43.31084" lon="5.68466">
        <ele>758.5</ele>
        <time>2014-03-19T14:18:51Z</time>
      </trkpt>
      <trkpt lat="43.3108" lon="5.68465">
        <ele>754</ele>
        <time>2014-03-19T14:19:01Z</time>
      </trkpt>
      <trkpt lat="43.3108" lon="5.68459">
        <ele>751.9</ele>
        <time>2014-03-19T14:19:13Z</time>
      </trkpt>
      <trkpt lat="43.31077" lon="5.68455">
        <ele>747.9</ele>
        <time>2014-03-19T14:19:21Z</time>
      </trkpt>
      <trkpt lat="43.31076" lon="5.68454">
        <ele>747.4</ele>
        <time>2014-03-19T14:19:22Z</time>
      </trkpt>
      <trkpt lat="43.31069" lon="5.68451">
        <ele>745</ele>
        <time>2014-03-19T14:19:32Z</time>
      </trkpt>
      <trkpt lat="43.31065" lon="5.68449">
        <ele>747.5</ele>
        <time>2014-03-19T14:19:37Z</time>
      </trkpt>
      <trkpt lat="43.31062" lon="5.68446">
        <ele>746.2</ele>
        <time>2014-03-19T14:19:46Z</time>
      </trkpt>
      <trkpt lat="43.31059" lon="5.68442">
        <ele>746</ele>
        <time>2014-03-19T14:19:52Z</time>
      </trkpt>
      <trkpt lat="43.31057" lon="5.68437">
        <ele>745.9</ele>
        <time>2014-03-19T14:20:00Z</time>
      </trkpt>
      <trkpt lat="43.31054" lon="5.68432">
        <ele>746.4</ele>
        <time>2014-03-19T14:20:07Z</time>
      </trkpt>
      <trkpt lat="43.31051" lon="5.68429">
        <ele>745.5</ele>
        <time>2014-03-19T14:20:11Z</time>
      </trkpt>
      <trkpt lat="43.31047" lon="5.68428">
        <ele>745.7</ele>
        <time>2014-03-19T14:20:15Z</time>
      </trkpt>
      <trkpt lat="43.31044" lon="5.68425">
        <ele>746.5</ele>
        <time>2014-03-19T14:20:19Z</time>
      </trkpt>
      <trkpt lat="43.3104" lon="5.68423">
        <ele>746.2</ele>
        <time>2014-03-19T14:20:24Z</time>
      </trkpt>
      <trkpt lat="43.3104" lon="5.68422">
        <ele>746</ele>
        <time>2014-03-19T14:20:25Z</time>
      </trkpt>
      <trkpt lat="43.31035" lon="5.68414">
        <ele>739.7</ele>
        <time>2014-03-19T14:20:41Z</time>
      </trkpt>
      <trkpt lat="43.31035" lon="5.68408">
        <ele>740</ele>
        <time>2014-03-19T14:20:47Z</time>
      </trkpt>
      <trkpt lat="43.31033" lon="5.68404">
        <ele>739.7</ele>
        <time>2014-03-19T14:20:57Z</time>
      </trkpt>
      <trkpt lat="43.3103" lon="5.684">
        <ele>739</ele>
        <time>2014-03-19T14:21:03Z</time>
      </trkpt>
      <trkpt lat="43.31028" lon="5.68395">
        <ele>738.2</ele>
        <time>2014-03-19T14:21:09Z</time>
      </trkpt>
      <trkpt lat="43.31024" lon="5.68391">
        <ele>738</ele>
        <time>2014-03-19T14:21:15Z</time>
      </trkpt>
      <trkpt lat="43.31021" lon="5.68387">
        <ele>737.4</ele>
        <time>2014-03-19T14:21:22Z</time>
      </trkpt>
      <trkpt lat="43.31018" lon="5.68384">
        <ele>737.2</ele>
        <time>2014-03-19T14:21:28Z</time>
      </trkpt>
      <trkpt lat="43.31018" lon="5.68383">
        <ele>737</ele>
        <time>2014-03-19T14:21:29Z</time>
      </trkpt>
      <trkpt lat="43.31013" lon="5.68375">
        <ele>732.7</ele>
        <time>2014-03-19T14:21:43Z</time>
      </trkpt>
      <trkpt lat="43.31009" lon="5.68371">
        <ele>732.4</ele>
        <time>2014-03-19T14:21:49Z</time>
      </trkpt>
      <trkpt lat="43.31007" lon="5.68366">
        <ele>731.7</ele>
        <time>2014-03-19T14:21:58Z</time>
      </trkpt>
      <trkpt lat="43.31005" lon="5.68362">
        <ele>730.4</ele>
        <time>2014-03-19T14:22:09Z</time>
      </trkpt>
      <trkpt lat="43.31002" lon="5.68359">
        <ele>729.7</ele>
        <time>2014-03-19T14:22:17Z</time>
      </trkpt>
      <trkpt lat="43.31001" lon="5.68354">
        <ele>729.5</ele>
        <time>2014-03-19T14:22:23Z</time>
      </trkpt>
      <trkpt lat="43.30998" lon="5.68349">
        <ele>728.9</ele>
        <time>2014-03-19T14:22:29Z</time>
      </trkpt>
      <trkpt lat="43.30998" lon="5.68349">
        <ele>728.9</ele>
        <time>2014-03-19T14:22:30Z</time>
      </trkpt>
      <trkpt lat="43.30992" lon="5.68343">
        <ele>727</ele>
        <time>2014-03-19T14:22:42Z</time>
      </trkpt>
      <trkpt lat="43.3099" lon="5.68338">
        <ele>726</ele>
        <time>2014-03-19T14:22:53Z</time>
      </trkpt>
      <trkpt lat="43.30988" lon="5.68332">
        <ele>725.5</ele>
        <time>2014-03-19T14:23:01Z</time>
      </trkpt>
      <trkpt lat="43.30985" lon="5.68327">
        <ele>722.7</ele>
        <time>2014-03-19T14:23:11Z</time>
      </trkpt>
      <trkpt lat="43.30982" lon="5.68323">
        <ele>721.7</ele>
        <time>2014-03-19T14:23:19Z</time>
      </trkpt>
      <trkpt lat="43.30979" lon="5.68319">
        <ele>720</ele>
        <time>2014-03-19T14:23:26Z</time>
      </trkpt>
      <trkpt lat="43.30977" lon="5.68314">
        <ele>718.7</ele>
        <time>2014-03-19T14:23:33Z</time>
      </trkpt>
      <trkpt lat="43.30977" lon="5.68313">
        <ele>718.5</ele>
        <time>2014-03-19T14:23:34Z</time>
      </trkpt>
      <trkpt lat="43.30976" lon="5.68304">
        <ele>719</ele>
        <time>2014-03-19T14:23:44Z</time>
      </trkpt>
      <trkpt lat="43.30973" lon="5.683">
        <ele>718</ele>
        <time>2014-03-19T14:23:51Z</time>
      </trkpt>
      <trkpt lat="43.3097" lon="5.68295">
        <ele>716.7</ele>
        <time>2014-03-19T14:23:58Z</time>
      </trkpt>
      <trkpt lat="43.30966" lon="5.68294">
        <ele>714.7</ele>
        <time>2014-03-19T14:24:05Z</time>
      </trkpt>
      <trkpt lat="43.30963" lon="5.68289">
        <ele>710.2</ele>
        <time>2014-03-19T14:24:16Z</time>
      </trkpt>
      <trkpt lat="43.30963" lon="5.68283">
        <ele>711.5</ele>
        <time>2014-03-19T14:24:25Z</time>
      </trkpt>
      <trkpt lat="43.30964" lon="5.68278">
        <ele>712.7</ele>
        <time>2014-03-19T14:24:31Z</time>
      </trkpt>
      <trkpt lat="43.30961" lon="5.68273">
        <ele>711.7</ele>
        <time>2014-03-19T14:24:37Z</time>
      </trkpt>
      <trkpt lat="43.30961" lon="5.68272">
        <ele>711.7</ele>
        <time>2014-03-19T14:24:38Z</time>
      </trkpt>
      <trkpt lat="43.30956" lon="5.68263">
        <ele>709.5</ele>
        <time>2014-03-19T14:24:50Z</time>
      </trkpt>
      <trkpt lat="43.30955" lon="5.68257">
        <ele>708.2</ele>
        <time>2014-03-19T14:24:58Z</time>
      </trkpt>
      <trkpt lat="43.30953" lon="5.68252">
        <ele>708</ele>
        <time>2014-03-19T14:25:04Z</time>
      </trkpt>
      <trkpt lat="43.30951" lon="5.68247">
        <ele>707.2</ele>
        <time>2014-03-19T14:25:11Z</time>
      </trkpt>
      <trkpt lat="43.30949" lon="5.68242">
        <ele>705.5</ele>
        <time>2014-03-19T14:25:33Z</time>
      </trkpt>
      <trkpt lat="43.30947" lon="5.68237">
        <ele>703.7</ele>
        <time>2014-03-19T14:25:44Z</time>
      </trkpt>
      <trkpt lat="43.30947" lon="5.68236">
        <ele>703.5</ele>
        <time>2014-03-19T14:25:45Z</time>
      </trkpt>
      <trkpt lat="43.30939" lon="5.68234">
        <ele>699.4</ele>
        <time>2014-03-19T14:26:05Z</time>
      </trkpt>
      <trkpt lat="43.30935" lon="5.68231">
        <ele>700</ele>
        <time>2014-03-19T14:26:15Z</time>
      </trkpt>
      <trkpt lat="43.30932" lon="5.68229">
        <ele>695</ele>
        <time>2014-03-19T14:26:28Z</time>
      </trkpt>
      <trkpt lat="43.30929" lon="5.68225">
        <ele>693.5</ele>
        <time>2014-03-19T14:26:37Z</time>
      </trkpt>
      <trkpt lat="43.30928" lon="5.68219">
        <ele>692.2</ele>
        <time>2014-03-19T14:26:46Z</time>
      </trkpt>
      <trkpt lat="43.30928" lon="5.68218">
        <ele>692</ele>
        <time>2014-03-19T14:26:47Z</time>
      </trkpt>
      <trkpt lat="43.30924" lon="5.68208">
        <ele>687.2</ele>
        <time>2014-03-19T14:27:01Z</time>
      </trkpt>
      <trkpt lat="43.30923" lon="5.68203">
        <ele>686.5</ele>
        <time>2014-03-19T14:27:06Z</time>
      </trkpt>
      <trkpt lat="43.30921" lon="5.68197">
        <ele>685.9</ele>
        <time>2014-03-19T14:27:12Z</time>
      </trkpt>
      <trkpt lat="43.30919" lon="5.68193">
        <ele>686.5</ele>
        <time>2014-03-19T14:27:17Z</time>
      </trkpt>
      <trkpt lat="43.30917" lon="5.68188">
        <ele>684</ele>
        <time>2014-03-19T14:27:24Z</time>
      </trkpt>
      <trkpt lat="43.30914" lon="5.68183">
        <ele>679.9</ele>
        <time>2014-03-19T14:27:32Z</time>
      </trkpt>
      <trkpt lat="43.30912" lon="5.68178">
        <ele>678.4</ele>
        <time>2014-03-19T14:27:37Z</time>
      </trkpt>
      <trkpt lat="43.3091" lon="5.68173">
        <ele>678.2</ele>
        <time>2014-03-19T14:27:43Z</time>
      </trkpt>
      <trkpt lat="43.30907" lon="5.68169">
        <ele>678.2</ele>
        <time>2014-03-19T14:27:49Z</time>
      </trkpt>
      <trkpt lat="43.30906" lon="5.68168">
        <ele>678.5</ele>
        <time>2014-03-19T14:27:50Z</time>
      </trkpt>
      <trkpt lat="43.30902" lon="5.68162">
        <ele>677.9</ele>
        <time>2014-03-19T14:27:58Z</time>
      </trkpt>
      <trkpt lat="43.30902" lon="5.68156">
        <ele>677.7</ele>
        <time>2014-03-19T14:28:05Z</time>
      </trkpt>
      <trkpt lat="43.309" lon="5.68151">
        <ele>677.9</ele>
        <time>2014-03-19T14:28:12Z</time>
      </trkpt>
      <trkpt lat="43.30897" lon="5.68146">
        <ele>676.5</ele>
        <time>2014-03-19T14:28:20Z</time>
      </trkpt>
      <trkpt lat="43.30895" lon="5.68142">
        <ele>676.5</ele>
        <time>2014-03-19T14:28:24Z</time>
      </trkpt>
      <trkpt lat="43.30891" lon="5.6814">
        <ele>675.7</ele>
        <time>2014-03-19T14:28:30Z</time>
      </trkpt>
      <trkpt lat="43.30888" lon="5.68136">
        <ele>672.7</ele>
        <time>2014-03-19T14:28:37Z</time>
      </trkpt>
      <trkpt lat="43.30886" lon="5.68131">
        <ele>672</ele>
        <time>2014-03-19T14:28:45Z</time>
      </trkpt>
      <trkpt lat="43.30883" lon="5.68126">
        <ele>670</ele>
        <time>2014-03-19T14:28:54Z</time>
      </trkpt>
      <trkpt lat="43.30883" lon="5.68126">
        <ele>669.5</ele>
        <time>2014-03-19T14:28:55Z</time>
      </trkpt>
      <trkpt lat="43.30879" lon="5.68116">
        <ele>666.7</ele>
        <time>2014-03-19T14:29:08Z</time>
      </trkpt>
      <trkpt lat="43.30878" lon="5.68111">
        <ele>666.7</ele>
        <time>2014-03-19T14:29:14Z</time>
      </trkpt>
      <trkpt lat="43.30875" lon="5.68108">
        <ele>667.2</ele>
        <time>2014-03-19T14:29:19Z</time>
      </trkpt>
      <trkpt lat="43.30872" lon="5.68104">
        <ele>666.9</ele>
        <time>2014-03-19T14:29:25Z</time>
      </trkpt>
      <trkpt lat="43.30868" lon="5.68102">
        <ele>666.4</ele>
        <time>2014-03-19T14:29:31Z</time>
      </trkpt>
      <trkpt lat="43.30864" lon="5.681">
        <ele>664.9</ele>
        <time>2014-03-19T14:29:36Z</time>
      </trkpt>
      <trkpt lat="43.3086" lon="5.681">
        <ele>663.5</ele>
        <time>2014-03-19T14:29:44Z</time>
      </trkpt>
      <trkpt lat="43.30856" lon="5.68101">
        <ele>662</ele>
        <time>2014-03-19T14:29:50Z</time>
      </trkpt>
      <trkpt lat="43.30852" lon="5.68098">
        <ele>664.7</ele>
        <time>2014-03-19T14:29:55Z</time>
      </trkpt>
      <trkpt lat="43.30852" lon="5.68096">
        <ele>666</ele>
        <time>2014-03-19T14:29:56Z</time>
      </trkpt>
      <trkpt lat="43.30845" lon="5.68093">
        <ele>673.9</ele>
        <time>2014-03-19T14:30:04Z</time>
      </trkpt>
      <trkpt lat="43.30841" lon="5.68094">
        <ele>669</ele>
        <time>2014-03-19T14:30:11Z</time>
      </trkpt>
      <trkpt lat="43.30837" lon="5.68095">
        <ele>660.4</ele>
        <time>2014-03-19T14:30:18Z</time>
      </trkpt>
      <trkpt lat="43.30833" lon="5.68096">
        <ele>659.5</ele>
        <time>2014-03-19T14:30:23Z</time>
      </trkpt>
      <trkpt lat="43.30829" lon="5.68096">
        <ele>659.5</ele>
        <time>2014-03-19T14:30:31Z</time>
      </trkpt>
      <trkpt lat="43.30826" lon="5.681">
        <ele>657.7</ele>
        <time>2014-03-19T14:30:38Z</time>
      </trkpt>
      <trkpt lat="43.30823" lon="5.68103">
        <ele>655.9</ele>
        <time>2014-03-19T14:30:44Z</time>
      </trkpt>
      <trkpt lat="43.3082" lon="5.68106">
        <ele>656</ele>
        <time>2014-03-19T14:30:51Z</time>
      </trkpt>
      <trkpt lat="43.30821" lon="5.68112">
        <ele>658.2</ele>
        <time>2014-03-19T14:31:05Z</time>
      </trkpt>
      <trkpt lat="43.30822" lon="5.68112">
        <ele>658.7</ele>
        <time>2014-03-19T14:31:06Z</time>
      </trkpt>
      <trkpt lat="43.30819" lon="5.68114">
        <ele>665.5</ele>
        <time>2014-03-19T14:31:44Z</time>
      </trkpt>
      <trkpt lat="43.30816" lon="5.6811">
        <ele>670.7</ele>
        <time>2014-03-19T14:32:05Z</time>
      </trkpt>
      <trkpt lat="43.30814" lon="5.68105">
        <ele>670.7</ele>
        <time>2014-03-19T14:32:09Z</time>
      </trkpt>
      <trkpt lat="43.30813" lon="5.68105">
        <ele>670.5</ele>
        <time>2014-03-19T14:32:10Z</time>
      </trkpt>
      <trkpt lat="43.30807" lon="5.68111">
        <ele>662.7</ele>
        <time>2014-03-19T14:32:20Z</time>
      </trkpt>
      <trkpt lat="43.30803" lon="5.68113">
        <ele>659.2</ele>
        <time>2014-03-19T14:32:26Z</time>
      </trkpt>
      <trkpt lat="43.30799" lon="5.68111">
        <ele>659</ele>
        <time>2014-03-19T14:32:32Z</time>
      </trkpt>
      <trkpt lat="43.30795" lon="5.6811">
        <ele>659.5</ele>
        <time>2014-03-19T14:32:41Z</time>
      </trkpt>
      <trkpt lat="43.3079" lon="5.68111">
        <ele>659.7</ele>
        <time>2014-03-19T14:32:59Z</time>
      </trkpt>
      <trkpt lat="43.30794" lon="5.68114">
        <ele>660.4</ele>
        <time>2014-03-19T14:33:58Z</time>
      </trkpt>
      <trkpt lat="43.30794" lon="5.68114">
        <ele>660.2</ele>
        <time>2014-03-19T14:33:59Z</time>
      </trkpt>
      <trkpt lat="43.30792" lon="5.68108">
        <ele>665.7</ele>
        <time>2014-03-19T14:35:17Z</time>
      </trkpt>
      <trkpt lat="43.30788" lon="5.68099">
        <ele>665.2</ele>
        <time>2014-03-19T14:35:33Z</time>
      </trkpt>
      <trkpt lat="43.30784" lon="5.68099">
        <ele>664.9</ele>
        <time>2014-03-19T14:35:50Z</time>
      </trkpt>
      <trkpt lat="43.3078" lon="5.68096">
        <ele>656.5</ele>
        <time>2014-03-19T14:36:08Z</time>
      </trkpt>
      <trkpt lat="43.30778" lon="5.68092">
        <ele>653.9</ele>
        <time>2014-03-19T14:36:17Z</time>
      </trkpt>
      <trkpt lat="43.30778" lon="5.68091">
        <ele>654</ele>
        <time>2014-03-19T14:36:18Z</time>
      </trkpt>
      <trkpt lat="43.30778" lon="5.6808">
        <ele>648.9</ele>
        <time>2014-03-19T14:36:33Z</time>
      </trkpt>
      <trkpt lat="43.30776" lon="5.68075">
        <ele>646.5</ele>
        <time>2014-03-19T14:36:40Z</time>
      </trkpt>
      <trkpt lat="43.30775" lon="5.68069">
        <ele>646.7</ele>
        <time>2014-03-19T14:36:46Z</time>
      </trkpt>
      <trkpt lat="43.30774" lon="5.68064">
        <ele>646.4</ele>
        <time>2014-03-19T14:36:52Z</time>
      </trkpt>
      <trkpt lat="43.30772" lon="5.68059">
        <ele>646.2</ele>
        <time>2014-03-19T14:36:57Z</time>
      </trkpt>
      <trkpt lat="43.30769" lon="5.68056">
        <ele>646</ele>
        <time>2014-03-19T14:37:02Z</time>
      </trkpt>
      <trkpt lat="43.30766" lon="5.68051">
        <ele>645.5</ele>
        <time>2014-03-19T14:37:09Z</time>
      </trkpt>
      <trkpt lat="43.30764" lon="5.68046">
        <ele>644.7</ele>
        <time>2014-03-19T14:37:17Z</time>
      </trkpt>
      <trkpt lat="43.30762" lon="5.68041">
        <ele>644.4</ele>
        <time>2014-03-19T14:37:22Z</time>
      </trkpt>
      <trkpt lat="43.30762" lon="5.6804">
        <ele>644.2</ele>
        <time>2014-03-19T14:37:23Z</time>
      </trkpt>
      <trkpt lat="43.30761" lon="5.6803">
        <ele>641.2</ele>
        <time>2014-03-19T14:37:35Z</time>
      </trkpt>
      <trkpt lat="43.3076" lon="5.68024">
        <ele>640.7</ele>
        <time>2014-03-19T14:37:41Z</time>
      </trkpt>
      <trkpt lat="43.3076" lon="5.68018">
        <ele>639.9</ele>
        <time>2014-03-19T14:37:46Z</time>
      </trkpt>
      <trkpt lat="43.30759" lon="5.68013">
        <ele>638.7</ele>
        <time>2014-03-19T14:37:51Z</time>
      </trkpt>
      <trkpt lat="43.30759" lon="5.68008">
        <ele>638</ele>
        <time>2014-03-19T14:37:56Z</time>
      </trkpt>
      <trkpt lat="43.30758" lon="5.68003">
        <ele>638.4</ele>
        <time>2014-03-19T14:38:00Z</time>
      </trkpt>
      <trkpt lat="43.30757" lon="5.67998">
        <ele>639.7</ele>
        <time>2014-03-19T14:38:04Z</time>
      </trkpt>
      <trkpt lat="43.30754" lon="5.67993">
        <ele>640.4</ele>
        <time>2014-03-19T14:38:10Z</time>
      </trkpt>
      <trkpt lat="43.30752" lon="5.67988">
        <ele>640</ele>
        <time>2014-03-19T14:38:19Z</time>
      </trkpt>
      <trkpt lat="43.30751" lon="5.67982">
        <ele>637.9</ele>
        <time>2014-03-19T14:38:29Z</time>
      </trkpt>
      <trkpt lat="43.30751" lon="5.67982">
        <ele>637.7</ele>
        <time>2014-03-19T14:38:30Z</time>
      </trkpt>
      <trkpt lat="43.30748" lon="5.67972">
        <ele>634</ele>
        <time>2014-03-19T14:38:51Z</time>
      </trkpt>
      <trkpt lat="43.30748" lon="5.67967">
        <ele>632</ele>
        <time>2014-03-19T14:39:03Z</time>
      </trkpt>
      <trkpt lat="43.30746" lon="5.67962">
        <ele>630.7</ele>
        <time>2014-03-19T14:39:11Z</time>
      </trkpt>
      <trkpt lat="43.30744" lon="5.67956">
        <ele>629.2</ele>
        <time>2014-03-19T14:39:38Z</time>
      </trkpt>
      <trkpt lat="43.30744" lon="5.67956">
        <ele>629</ele>
        <time>2014-03-19T14:39:39Z</time>
      </trkpt>
      <trkpt lat="43.30741" lon="5.67946">
        <ele>625.7</ele>
        <time>2014-03-19T14:40:08Z</time>
      </trkpt>
      <trkpt lat="43.30738" lon="5.67942">
        <ele>624.4</ele>
        <time>2014-03-19T14:40:20Z</time>
      </trkpt>
      <trkpt lat="43.30735" lon="5.67938">
        <ele>622.4</ele>
        <time>2014-03-19T14:40:40Z</time>
      </trkpt>
      <trkpt lat="43.30735" lon="5.67937">
        <ele>622.2</ele>
        <time>2014-03-19T14:40:41Z</time>
      </trkpt>
      <trkpt lat="43.30729" lon="5.67929">
        <ele>618.4</ele>
        <time>2014-03-19T14:41:01Z</time>
      </trkpt>
      <trkpt lat="43.30726" lon="5.67925">
        <ele>617.2</ele>
        <time>2014-03-19T14:41:07Z</time>
      </trkpt>
      <trkpt lat="43.30724" lon="5.6792">
        <ele>616.7</ele>
        <time>2014-03-19T14:41:16Z</time>
      </trkpt>
      <trkpt lat="43.30723" lon="5.67914">
        <ele>616.7</ele>
        <time>2014-03-19T14:41:40Z</time>
      </trkpt>
      <trkpt lat="43.30722" lon="5.67908">
        <ele>615.2</ele>
        <time>2014-03-19T14:41:49Z</time>
      </trkpt>
      <trkpt lat="43.30721" lon="5.67908">
        <ele>614.7</ele>
        <time>2014-03-19T14:41:50Z</time>
      </trkpt>
      <trkpt lat="43.30719" lon="5.67897">
        <ele>610.5</ele>
        <time>2014-03-19T14:42:16Z</time>
      </trkpt>
      <trkpt lat="43.30716" lon="5.67893">
        <ele>609</ele>
        <time>2014-03-19T14:42:31Z</time>
      </trkpt>
      <trkpt lat="43.30714" lon="5.67888">
        <ele>606.7</ele>
        <time>2014-03-19T14:42:38Z</time>
      </trkpt>
      <trkpt lat="43.30715" lon="5.67882">
        <ele>607.5</ele>
        <time>2014-03-19T14:42:47Z</time>
      </trkpt>
      <trkpt lat="43.30714" lon="5.67876">
        <ele>606</ele>
        <time>2014-03-19T14:42:57Z</time>
      </trkpt>
      <trkpt lat="43.30714" lon="5.67876">
        <ele>606</ele>
        <time>2014-03-19T14:42:58Z</time>
      </trkpt>
      <trkpt lat="43.30714" lon="5.67864">
        <ele>604.7</ele>
        <time>2014-03-19T14:43:14Z</time>
      </trkpt>
      <trkpt lat="43.30714" lon="5.67858">
        <ele>603.5</ele>
        <time>2014-03-19T14:43:22Z</time>
      </trkpt>
      <trkpt lat="43.30715" lon="5.67852">
        <ele>601.9</ele>
        <time>2014-03-19T14:43:33Z</time>
      </trkpt>
      <trkpt lat="43.30712" lon="5.67847">
        <ele>599</ele>
        <time>2014-03-19T14:43:48Z</time>
      </trkpt>
      <trkpt lat="43.30713" lon="5.67842">
        <ele>597.9</ele>
        <time>2014-03-19T14:43:58Z</time>
      </trkpt>
      <trkpt lat="43.30713" lon="5.67841">
        <ele>597.7</ele>
        <time>2014-03-19T14:43:59Z</time>
      </trkpt>
      <trkpt lat="43.30709" lon="5.67832">
        <ele>593.7</ele>
        <time>2014-03-19T14:44:35Z</time>
      </trkpt>
      <trkpt lat="43.3071" lon="5.67826">
        <ele>592.4</ele>
        <time>2014-03-19T14:45:07Z</time>
      </trkpt>
      <trkpt lat="43.3071" lon="5.67826">
        <ele>592.4</ele>
        <time>2014-03-19T14:45:08Z</time>
      </trkpt>
      <trkpt lat="43.30709" lon="5.67815">
        <ele>586.7</ele>
        <time>2014-03-19T14:45:45Z</time>
      </trkpt>
      <trkpt lat="43.30708" lon="5.67809">
        <ele>587.2</ele>
        <time>2014-03-19T14:45:59Z</time>
      </trkpt>
      <trkpt lat="43.3071" lon="5.67804">
        <ele>587</ele>
        <time>2014-03-19T14:46:06Z</time>
      </trkpt>
      <trkpt lat="43.30711" lon="5.67799">
        <ele>586.4</ele>
        <time>2014-03-19T14:46:12Z</time>
      </trkpt>
      <trkpt lat="43.30711" lon="5.67798">
        <ele>586.2</ele>
        <time>2014-03-19T14:46:13Z</time>
      </trkpt>
      <trkpt lat="43.30712" lon="5.67788">
        <ele>585.2</ele>
        <time>2014-03-19T14:46:25Z</time>
      </trkpt>
      <trkpt lat="43.30714" lon="5.67783">
        <ele>585.7</ele>
        <time>2014-03-19T14:47:07Z</time>
      </trkpt>
      <trkpt lat="43.30718" lon="5.6778">
        <ele>581.7</ele>
        <time>2014-03-19T14:47:44Z</time>
      </trkpt>
      <trkpt lat="43.30718" lon="5.6778">
        <ele>581.7</ele>
        <time>2014-03-19T14:47:45Z</time>
      </trkpt>
      <trkpt lat="43.30726" lon="5.67783">
        <ele>582</ele>
        <time>2014-03-19T14:48:21Z</time>
      </trkpt>
      <trkpt lat="43.30729" lon="5.67783">
        <ele>583.7</ele>
        <time>2014-03-19T14:48:23Z</time>
      </trkpt>
      <trkpt lat="43.30734" lon="5.67785">
        <ele>583</ele>
        <time>2014-03-19T14:48:28Z</time>
      </trkpt>
      <trkpt lat="43.30738" lon="5.67784">
        <ele>582.7</ele>
        <time>2014-03-19T14:48:33Z</time>
      </trkpt>
      <trkpt lat="43.30742" lon="5.67785">
        <ele>581</ele>
        <time>2014-03-19T14:48:40Z</time>
      </trkpt>
      <trkpt lat="43.30745" lon="5.67781">
        <ele>578</ele>
        <time>2014-03-19T14:48:46Z</time>
      </trkpt>
      <trkpt lat="43.30746" lon="5.6778">
        <ele>577.5</ele>
        <time>2014-03-19T14:48:47Z</time>
      </trkpt>
      <trkpt lat="43.30752" lon="5.67775">
        <ele>575.9</ele>
        <time>2014-03-19T14:48:58Z</time>
      </trkpt>
      <trkpt lat="43.30756" lon="5.67773">
        <ele>575</ele>
        <time>2014-03-19T14:49:04Z</time>
      </trkpt>
      <trkpt lat="43.3076" lon="5.67771">
        <ele>574</ele>
        <time>2014-03-19T14:49:11Z</time>
      </trkpt>
      <trkpt lat="43.30764" lon="5.67768">
        <ele>574</ele>
        <time>2014-03-19T14:49:15Z</time>
      </trkpt>
      <trkpt lat="43.30767" lon="5.67766">
        <ele>573.2</ele>
        <time>2014-03-19T14:49:20Z</time>
      </trkpt>
      <trkpt lat="43.30771" lon="5.67764">
        <ele>573.2</ele>
        <time>2014-03-19T14:49:25Z</time>
      </trkpt>
      <trkpt lat="43.30774" lon="5.67762">
        <ele>572.9</ele>
        <time>2014-03-19T14:49:29Z</time>
      </trkpt>
      <trkpt lat="43.30777" lon="5.67758">
        <ele>573</ele>
        <time>2014-03-19T14:49:33Z</time>
      </trkpt>
      <trkpt lat="43.3078" lon="5.67755">
        <ele>574</ele>
        <time>2014-03-19T14:49:37Z</time>
      </trkpt>
      <trkpt lat="43.30783" lon="5.6775">
        <ele>573.5</ele>
        <time>2014-03-19T14:49:43Z</time>
      </trkpt>
      <trkpt lat="43.30786" lon="5.67746">
        <ele>572.9</ele>
        <time>2014-03-19T14:49:48Z</time>
      </trkpt>
      <trkpt lat="43.30786" lon="5.67745">
        <ele>572.7</ele>
        <time>2014-03-19T14:49:49Z</time>
      </trkpt>
      <trkpt lat="43.30791" lon="5.67737">
        <ele>571.2</ele>
        <time>2014-03-19T14:49:58Z</time>
      </trkpt>
      <trkpt lat="43.30793" lon="5.67731">
        <ele>570.7</ele>
        <time>2014-03-19T14:50:04Z</time>
      </trkpt>
      <trkpt lat="43.30795" lon="5.67727">
        <ele>569.7</ele>
        <time>2014-03-19T14:50:09Z</time>
      </trkpt>
      <trkpt lat="43.30795" lon="5.67721">
        <ele>569</ele>
        <time>2014-03-19T14:50:16Z</time>
      </trkpt>
      <trkpt lat="43.30795" lon="5.67716">
        <ele>567.9</ele>
        <time>2014-03-19T14:50:23Z</time>
      </trkpt>
      <trkpt lat="43.30795" lon="5.6771">
        <ele>567.5</ele>
        <time>2014-03-19T14:50:28Z</time>
      </trkpt>
      <trkpt lat="43.30795" lon="5.67704">
        <ele>566.9</ele>
        <time>2014-03-19T14:50:33Z</time>
      </trkpt>
      <trkpt lat="43.30794" lon="5.67699">
        <ele>566.2</ele>
        <time>2014-03-19T14:50:38Z</time>
      </trkpt>
      <trkpt lat="43.30793" lon="5.67694">
        <ele>565.4</ele>
        <time>2014-03-19T14:50:43Z</time>
      </trkpt>
      <trkpt lat="43.30791" lon="5.67688">
        <ele>564.4</ele>
        <time>2014-03-19T14:50:49Z</time>
      </trkpt>
      <trkpt lat="43.30791" lon="5.67687">
        <ele>564.2</ele>
        <time>2014-03-19T14:50:50Z</time>
      </trkpt>
      <trkpt lat="43.30788" lon="5.67678">
        <ele>562.5</ele>
        <time>2014-03-19T14:51:00Z</time>
      </trkpt>
      <trkpt lat="43.30787" lon="5.67673">
        <ele>561.7</ele>
        <time>2014-03-19T14:51:05Z</time>
      </trkpt>
      <trkpt lat="43.30787" lon="5.67667">
        <ele>560.7</ele>
        <time>2014-03-19T14:51:11Z</time>
      </trkpt>
      <trkpt lat="43.30785" lon="5.67661">
        <ele>559.5</ele>
        <time>2014-03-19T14:51:18Z</time>
      </trkpt>
      <trkpt lat="43.30784" lon="5.67656">
        <ele>558.5</ele>
        <time>2014-03-19T14:51:23Z</time>
      </trkpt>
      <trkpt lat="43.30782" lon="5.67651">
        <ele>557.5</ele>
        <time>2014-03-19T14:51:28Z</time>
      </trkpt>
      <trkpt lat="43.30782" lon="5.67646">
        <ele>557</ele>
        <time>2014-03-19T14:51:32Z</time>
      </trkpt>
      <trkpt lat="43.3078" lon="5.67641">
        <ele>556.4</ele>
        <time>2014-03-19T14:51:36Z</time>
      </trkpt>
      <trkpt lat="43.30779" lon="5.67635">
        <ele>555.5</ele>
        <time>2014-03-19T14:51:41Z</time>
      </trkpt>
      <trkpt lat="43.30778" lon="5.6763">
        <ele>555</ele>
        <time>2014-03-19T14:51:45Z</time>
      </trkpt>
      <trkpt lat="43.30777" lon="5.67625">
        <ele>553.9</ele>
        <time>2014-03-19T14:51:49Z</time>
      </trkpt>
      <trkpt lat="43.30776" lon="5.6762">
        <ele>553.2</ele>
        <time>2014-03-19T14:51:53Z</time>
      </trkpt>
      <trkpt lat="43.30776" lon="5.67619">
        <ele>553</ele>
        <time>2014-03-19T14:51:54Z</time>
      </trkpt>
      <trkpt lat="43.30774" lon="5.6761">
        <ele>552</ele>
        <time>2014-03-19T14:52:01Z</time>
      </trkpt>
      <trkpt lat="43.30772" lon="5.67606">
        <ele>551.5</ele>
        <time>2014-03-19T14:52:05Z</time>
      </trkpt>
      <trkpt lat="43.30772" lon="5.67601">
        <ele>551</ele>
        <time>2014-03-19T14:52:09Z</time>
      </trkpt>
      <trkpt lat="43.30771" lon="5.67596">
        <ele>550.7</ele>
        <time>2014-03-19T14:52:13Z</time>
      </trkpt>
      <trkpt lat="43.30771" lon="5.67591">
        <ele>550.4</ele>
        <time>2014-03-19T14:52:17Z</time>
      </trkpt>
      <trkpt lat="43.3077" lon="5.67585">
        <ele>549.7</ele>
        <time>2014-03-19T14:52:22Z</time>
      </trkpt>
      <trkpt lat="43.30769" lon="5.6758">
        <ele>549.2</ele>
        <time>2014-03-19T14:52:26Z</time>
      </trkpt>
      <trkpt lat="43.30768" lon="5.67575">
        <ele>548.5</ele>
        <time>2014-03-19T14:52:30Z</time>
      </trkpt>
      <trkpt lat="43.30766" lon="5.67569">
        <ele>548.5</ele>
        <time>2014-03-19T14:52:34Z</time>
      </trkpt>
      <trkpt lat="43.30765" lon="5.67564">
        <ele>548.5</ele>
        <time>2014-03-19T14:52:38Z</time>
      </trkpt>
      <trkpt lat="43.30764" lon="5.67558">
        <ele>548.2</ele>
        <time>2014-03-19T14:52:49Z</time>
      </trkpt>
      <trkpt lat="43.30762" lon="5.67553">
        <ele>547.5</ele>
        <time>2014-03-19T14:52:55Z</time>
      </trkpt>
      <trkpt lat="43.30762" lon="5.67552">
        <ele>547.5</ele>
        <time>2014-03-19T14:52:56Z</time>
      </trkpt>
      <trkpt lat="43.3076" lon="5.67543">
        <ele>547</ele>
        <time>2014-03-19T14:53:03Z</time>
      </trkpt>
      <trkpt lat="43.30759" lon="5.67539">
        <ele>547.2</ele>
        <time>2014-03-19T14:53:06Z</time>
      </trkpt>
      <trkpt lat="43.30757" lon="5.67534">
        <ele>547.4</ele>
        <time>2014-03-19T14:53:09Z</time>
      </trkpt>
      <trkpt lat="43.30756" lon="5.6753">
        <ele>547.2</ele>
        <time>2014-03-19T14:53:12Z</time>
      </trkpt>
      <trkpt lat="43.30754" lon="5.67524">
        <ele>547.4</ele>
        <time>2014-03-19T14:53:16Z</time>
      </trkpt>
      <trkpt lat="43.30753" lon="5.6752">
        <ele>547.7</ele>
        <time>2014-03-19T14:53:19Z</time>
      </trkpt>
      <trkpt lat="43.30751" lon="5.67516">
        <ele>547.9</ele>
        <time>2014-03-19T14:53:22Z</time>
      </trkpt>
      <trkpt lat="43.30749" lon="5.67511">
        <ele>547.7</ele>
        <time>2014-03-19T14:53:26Z</time>
      </trkpt>
      <trkpt lat="43.30745" lon="5.67508">
        <ele>547.7</ele>
        <time>2014-03-19T14:53:30Z</time>
      </trkpt>
      <trkpt lat="43.30742" lon="5.67504">
        <ele>548.4</ele>
        <time>2014-03-19T14:53:34Z</time>
      </trkpt>
      <trkpt lat="43.30738" lon="5.67502">
        <ele>548.5</ele>
        <time>2014-03-19T14:53:38Z</time>
      </trkpt>
      <trkpt lat="43.30735" lon="5.67498">
        <ele>549</ele>
        <time>2014-03-19T14:53:42Z</time>
      </trkpt>
      <trkpt lat="43.30732" lon="5.67495">
        <ele>549.2</ele>
        <time>2014-03-19T14:53:46Z</time>
      </trkpt>
      <trkpt lat="43.30729" lon="5.67492">
        <ele>549.5</ele>
        <time>2014-03-19T14:53:50Z</time>
      </trkpt>
      <trkpt lat="43.30726" lon="5.67488">
        <ele>549.7</ele>
        <time>2014-03-19T14:53:55Z</time>
      </trkpt>
      <trkpt lat="43.30725" lon="5.67487">
        <ele>549.7</ele>
        <time>2014-03-19T14:53:56Z</time>
      </trkpt>
      <trkpt lat="43.30721" lon="5.67479">
        <ele>549.7</ele>
        <time>2014-03-19T14:54:04Z</time>
      </trkpt>
      <trkpt lat="43.30719" lon="5.67475">
        <ele>549.4</ele>
        <time>2014-03-19T14:54:08Z</time>
      </trkpt>
      <trkpt lat="43.30717" lon="5.6747">
        <ele>548.9</ele>
        <time>2014-03-19T14:54:13Z</time>
      </trkpt>
      <trkpt lat="43.30715" lon="5.67464">
        <ele>548.7</ele>
        <time>2014-03-19T14:54:18Z</time>
      </trkpt>
      <trkpt lat="43.30714" lon="5.67459">
        <ele>549.2</ele>
        <time>2014-03-19T14:54:23Z</time>
      </trkpt>
      <trkpt lat="43.30713" lon="5.67453">
        <ele>549.2</ele>
        <time>2014-03-19T14:54:28Z</time>
      </trkpt>
      <trkpt lat="43.30714" lon="5.67447">
        <ele>548.7</ele>
        <time>2014-03-19T14:54:34Z</time>
      </trkpt>
      <trkpt lat="43.30716" lon="5.67442">
        <ele>548.7</ele>
        <time>2014-03-19T14:54:39Z</time>
      </trkpt>
      <trkpt lat="43.30719" lon="5.67439">
        <ele>548.2</ele>
        <time>2014-03-19T14:54:45Z</time>
      </trkpt>
      <trkpt lat="43.30723" lon="5.67439">
        <ele>547.9</ele>
        <time>2014-03-19T14:54:49Z</time>
      </trkpt>
      <trkpt lat="43.30727" lon="5.67438">
        <ele>548</ele>
        <time>2014-03-19T14:54:53Z</time>
      </trkpt>
      <trkpt lat="43.3073" lon="5.67438">
        <ele>548</ele>
        <time>2014-03-19T14:54:57Z</time>
      </trkpt>
      <trkpt lat="43.30734" lon="5.67438">
        <ele>547.7</ele>
        <time>2014-03-19T14:55:01Z</time>
      </trkpt>
      <trkpt lat="43.30735" lon="5.67438">
        <ele>547.5</ele>
        <time>2014-03-19T14:55:02Z</time>
      </trkpt>
      <trkpt lat="43.30742" lon="5.67437">
        <ele>547.2</ele>
        <time>2014-03-19T14:55:10Z</time>
      </trkpt>
      <trkpt lat="43.30746" lon="5.67436">
        <ele>547.7</ele>
        <time>2014-03-19T14:55:14Z</time>
      </trkpt>
      <trkpt lat="43.30749" lon="5.67436">
        <ele>548</ele>
        <time>2014-03-19T14:55:18Z</time>
      </trkpt>
      <trkpt lat="43.30752" lon="5.67432">
        <ele>547.9</ele>
        <time>2014-03-19T14:55:22Z</time>
      </trkpt>
      <trkpt lat="43.30748" lon="5.67429">
        <ele>544.5</ele>
        <time>2014-03-19T14:55:54Z</time>
      </trkpt>
      <trkpt lat="43.30745" lon="5.67427">
        <ele>543.7</ele>
        <time>2014-03-19T14:55:58Z</time>
      </trkpt>
      <trkpt lat="43.30741" lon="5.67425">
        <ele>542.7</ele>
        <time>2014-03-19T14:56:01Z</time>
      </trkpt>
      <trkpt lat="43.30738" lon="5.67423">
        <ele>542.2</ele>
        <time>2014-03-19T14:56:04Z</time>
      </trkpt>
      <trkpt lat="43.30737" lon="5.67422">
        <ele>542.2</ele>
        <time>2014-03-19T14:56:05Z</time>
      </trkpt>
      <trkpt lat="43.30732" lon="5.67418">
        <ele>542.2</ele>
        <time>2014-03-19T14:56:10Z</time>
      </trkpt>
      <trkpt lat="43.30729" lon="5.67415">
        <ele>542.4</ele>
        <time>2014-03-19T14:56:13Z</time>
      </trkpt>
      <trkpt lat="43.30725" lon="5.67412">
        <ele>541.9</ele>
        <time>2014-03-19T14:56:17Z</time>
      </trkpt>
      <trkpt lat="43.30723" lon="5.67409">
        <ele>541.4</ele>
        <time>2014-03-19T14:56:20Z</time>
      </trkpt>
      <trkpt lat="43.3072" lon="5.67407">
        <ele>541.2</ele>
        <time>2014-03-19T14:56:23Z</time>
      </trkpt>
      <trkpt lat="43.30716" lon="5.67404">
        <ele>540.2</ele>
        <time>2014-03-19T14:56:27Z</time>
      </trkpt>
      <trkpt lat="43.30712" lon="5.67402">
        <ele>539</ele>
        <time>2014-03-19T14:56:32Z</time>
      </trkpt>
      <trkpt lat="43.30709" lon="5.67399">
        <ele>539.5</ele>
        <time>2014-03-19T14:56:35Z</time>
      </trkpt>
      <trkpt lat="43.30705" lon="5.67396">
        <ele>538.7</ele>
        <time>2014-03-19T14:56:39Z</time>
      </trkpt>
      <trkpt lat="43.30702" lon="5.67393">
        <ele>537.2</ele>
        <time>2014-03-19T14:56:43Z</time>
      </trkpt>
      <trkpt lat="43.30699" lon="5.6739">
        <ele>535.9</ele>
        <time>2014-03-19T14:56:47Z</time>
      </trkpt>
      <trkpt lat="43.30696" lon="5.67386">
        <ele>535.2</ele>
        <time>2014-03-19T14:56:51Z</time>
      </trkpt>
      <trkpt lat="43.30692" lon="5.67382">
        <ele>534.7</ele>
        <time>2014-03-19T14:56:55Z</time>
      </trkpt>
      <trkpt lat="43.30689" lon="5.67379">
        <ele>534.4</ele>
        <time>2014-03-19T14:56:59Z</time>
      </trkpt>
      <trkpt lat="43.30685" lon="5.67378">
        <ele>534</ele>
        <time>2014-03-19T14:57:03Z</time>
      </trkpt>
      <trkpt lat="43.30682" lon="5.67375">
        <ele>534.2</ele>
        <time>2014-03-19T14:57:07Z</time>
      </trkpt>
      <trkpt lat="43.30681" lon="5.67374">
        <ele>534.9</ele>
        <time>2014-03-19T14:57:08Z</time>
      </trkpt>
      <trkpt lat="43.30674" lon="5.67373">
        <ele>534</ele>
        <time>2014-03-19T14:57:17Z</time>
      </trkpt>
      <trkpt lat="43.30669" lon="5.67374">
        <ele>532.7</ele>
        <time>2014-03-19T14:57:23Z</time>
      </trkpt>
      <trkpt lat="43.30665" lon="5.67376">
        <ele>532.2</ele>
        <time>2014-03-19T14:57:29Z</time>
      </trkpt>
      <trkpt lat="43.30668" lon="5.67371">
        <ele>528.4</ele>
        <time>2014-03-19T14:58:25Z</time>
      </trkpt>
      <trkpt lat="43.30669" lon="5.67371">
        <ele>526</ele>
        <time>2014-03-19T14:58:26Z</time>
      </trkpt>
      <trkpt lat="43.30675" lon="5.67367">
        <ele>514.9</ele>
        <time>2014-03-19T14:58:33Z</time>
      </trkpt>
      <trkpt lat="43.30678" lon="5.67366">
        <ele>511.5</ele>
        <time>2014-03-19T14:58:37Z</time>
      </trkpt>
      <trkpt lat="43.30682" lon="5.67363">
        <ele>509.2</ele>
        <time>2014-03-19T14:58:41Z</time>
      </trkpt>
      <trkpt lat="43.30686" lon="5.67362">
        <ele>507.8</ele>
        <time>2014-03-19T14:58:45Z</time>
      </trkpt>
      <trkpt lat="43.3069" lon="5.67362">
        <ele>507.2</ele>
        <time>2014-03-19T14:58:49Z</time>
      </trkpt>
      <trkpt lat="43.30694" lon="5.67361">
        <ele>509.3</ele>
        <time>2014-03-19T14:58:52Z</time>
      </trkpt>
      <trkpt lat="43.30698" lon="5.67359">
        <ele>511.3</ele>
        <time>2014-03-19T14:58:55Z</time>
      </trkpt>
      <trkpt lat="43.30701" lon="5.67357">
        <ele>512.4</ele>
        <time>2014-03-19T14:58:58Z</time>
      </trkpt>
      <trkpt lat="43.30705" lon="5.67356">
        <ele>513.2</ele>
        <time>2014-03-19T14:59:01Z</time>
      </trkpt>
      <trkpt lat="43.30708" lon="5.67354">
        <ele>514.7</ele>
        <time>2014-03-19T14:59:04Z</time>
      </trkpt>
      <trkpt lat="43.30712" lon="5.67353">
        <ele>516.2</ele>
        <time>2014-03-19T14:59:07Z</time>
      </trkpt>
      <trkpt lat="43.30716" lon="5.67352">
        <ele>517.4</ele>
        <time>2014-03-19T14:59:10Z</time>
      </trkpt>
      <trkpt lat="43.3072" lon="5.67353">
        <ele>518</ele>
        <time>2014-03-19T14:59:13Z</time>
      </trkpt>
      <trkpt lat="43.30724" lon="5.67353">
        <ele>517.7</ele>
        <time>2014-03-19T14:59:17Z</time>
      </trkpt>
      <trkpt lat="43.30728" lon="5.67352">
        <ele>517</ele>
        <time>2014-03-19T14:59:21Z</time>
      </trkpt>
      <trkpt lat="43.30732" lon="5.67351">
        <ele>517.5</ele>
        <time>2014-03-19T14:59:25Z</time>
      </trkpt>
      <trkpt lat="43.30737" lon="5.67351">
        <ele>517</ele>
        <time>2014-03-19T14:59:29Z</time>
      </trkpt>
      <trkpt lat="43.30738" lon="5.67351">
        <ele>516.5</ele>
        <time>2014-03-19T14:59:30Z</time>
      </trkpt>
      <trkpt lat="43.30743" lon="5.6735">
        <ele>516</ele>
        <time>2014-03-19T14:59:35Z</time>
      </trkpt>
      <trkpt lat="43.30747" lon="5.67349">
        <ele>515.5</ele>
        <time>2014-03-19T14:59:38Z</time>
      </trkpt>
      <trkpt lat="43.3075" lon="5.67348">
        <ele>515</ele>
        <time>2014-03-19T14:59:41Z</time>
      </trkpt>
      <trkpt lat="43.30755" lon="5.67346">
        <ele>514</ele>
        <time>2014-03-19T14:59:45Z</time>
      </trkpt>
      <trkpt lat="43.30758" lon="5.67346">
        <ele>513.7</ele>
        <time>2014-03-19T14:59:48Z</time>
      </trkpt>
      <trkpt lat="43.30762" lon="5.67347">
        <ele>513.7</ele>
        <time>2014-03-19T14:59:51Z</time>
      </trkpt>
      <trkpt lat="43.30765" lon="5.67348">
        <ele>513.9</ele>
        <time>2014-03-19T14:59:54Z</time>
      </trkpt>
      <trkpt lat="43.30769" lon="5.67351">
        <ele>514.5</ele>
        <time>2014-03-19T14:59:57Z</time>
      </trkpt>
      <trkpt lat="43.30772" lon="5.67353">
        <ele>515.5</ele>
        <time>2014-03-19T15:00:00Z</time>
      </trkpt>
      <trkpt lat="43.30775" lon="5.67356">
        <ele>516.7</ele>
        <time>2014-03-19T15:00:03Z</time>
      </trkpt>
      <trkpt lat="43.30779" lon="5.67359">
        <ele>519.4</ele>
        <time>2014-03-19T15:00:06Z</time>
      </trkpt>
      <trkpt lat="43.30782" lon="5.67363">
        <ele>520.5</ele>
        <time>2014-03-19T15:00:09Z</time>
      </trkpt>
      <trkpt lat="43.30785" lon="5.67366">
        <ele>520.9</ele>
        <time>2014-03-19T15:00:12Z</time>
      </trkpt>
      <trkpt lat="43.30789" lon="5.67369">
        <ele>522</ele>
        <time>2014-03-19T15:00:15Z</time>
      </trkpt>
      <trkpt lat="43.30792" lon="5.67373">
        <ele>517.5</ele>
        <time>2014-03-19T15:00:19Z</time>
      </trkpt>
      <trkpt lat="43.30795" lon="5.67378">
        <ele>514.5</ele>
        <time>2014-03-19T15:00:23Z</time>
      </trkpt>
      <trkpt lat="43.30796" lon="5.67383">
        <ele>512.5</ele>
        <time>2014-03-19T15:00:27Z</time>
      </trkpt>
      <trkpt lat="43.30797" lon="5.67389">
        <ele>507.7</ele>
        <time>2014-03-19T15:00:32Z</time>
      </trkpt>
      <trkpt lat="43.30797" lon="5.6739">
        <ele>506.7</ele>
        <time>2014-03-19T15:00:33Z</time>
      </trkpt>
      <trkpt lat="43.30801" lon="5.67399">
        <ele>503</ele>
        <time>2014-03-19T15:00:40Z</time>
      </trkpt>
      <trkpt lat="43.30803" lon="5.67403">
        <ele>502.8</ele>
        <time>2014-03-19T15:00:44Z</time>
      </trkpt>
      <trkpt lat="43.30805" lon="5.67409">
        <ele>503</ele>
        <time>2014-03-19T15:00:48Z</time>
      </trkpt>
      <trkpt lat="43.30806" lon="5.67414">
        <ele>503.7</ele>
        <time>2014-03-19T15:00:51Z</time>
      </trkpt>
      <trkpt lat="43.30807" lon="5.6742">
        <ele>502.5</ele>
        <time>2014-03-19T15:00:55Z</time>
      </trkpt>
      <trkpt lat="43.30808" lon="5.67424">
        <ele>502.7</ele>
        <time>2014-03-19T15:00:57Z</time>
      </trkpt>
      <trkpt lat="43.30809" lon="5.67429">
        <ele>502.5</ele>
        <time>2014-03-19T15:01:00Z</time>
      </trkpt>
      <trkpt lat="43.30809" lon="5.67434">
        <ele>501.2</ele>
        <time>2014-03-19T15:01:04Z</time>
      </trkpt>
      <trkpt lat="43.3081" lon="5.67439">
        <ele>502.6</ele>
        <time>2014-03-19T15:01:07Z</time>
      </trkpt>
      <trkpt lat="43.3081" lon="5.67444">
        <ele>502.3</ele>
        <time>2014-03-19T15:01:10Z</time>
      </trkpt>
      <trkpt lat="43.30811" lon="5.6745">
        <ele>503.2</ele>
        <time>2014-03-19T15:01:14Z</time>
      </trkpt>
      <trkpt lat="43.3081" lon="5.67455">
        <ele>502.7</ele>
        <time>2014-03-19T15:01:18Z</time>
      </trkpt>
      <trkpt lat="43.3081" lon="5.6746">
        <ele>503.2</ele>
        <time>2014-03-19T15:01:22Z</time>
      </trkpt>
      <trkpt lat="43.3081" lon="5.67466">
        <ele>502.7</ele>
        <time>2014-03-19T15:01:26Z</time>
      </trkpt>
      <trkpt lat="43.30809" lon="5.67471">
        <ele>503.2</ele>
        <time>2014-03-19T15:01:30Z</time>
      </trkpt>
      <trkpt lat="43.30809" lon="5.67475">
        <ele>504.5</ele>
        <time>2014-03-19T15:01:33Z</time>
      </trkpt>
      <trkpt lat="43.3081" lon="5.67477">
        <ele>504.7</ele>
        <time>2014-03-19T15:01:34Z</time>
      </trkpt>
      <trkpt lat="43.3081" lon="5.67486">
        <ele>509.7</ele>
        <time>2014-03-19T15:01:40Z</time>
      </trkpt>
      <trkpt lat="43.30811" lon="5.67491">
        <ele>513</ele>
        <time>2014-03-19T15:01:43Z</time>
      </trkpt>
      <trkpt lat="43.30812" lon="5.67496">
        <ele>514.5</ele>
        <time>2014-03-19T15:01:47Z</time>
      </trkpt>
      <trkpt lat="43.30815" lon="5.675">
        <ele>517.2</ele>
        <time>2014-03-19T15:01:50Z</time>
      </trkpt>
      <trkpt lat="43.30819" lon="5.675">
        <ele>520.2</ele>
        <time>2014-03-19T15:01:54Z</time>
      </trkpt>
      <trkpt lat="43.30823" lon="5.67496">
        <ele>520.7</ele>
        <time>2014-03-19T15:02:00Z</time>
      </trkpt>
      <trkpt lat="43.30824" lon="5.67491">
        <ele>520.5</ele>
        <time>2014-03-19T15:02:05Z</time>
      </trkpt>
      <trkpt lat="43.30822" lon="5.67486">
        <ele>518.9</ele>
        <time>2014-03-19T15:02:09Z</time>
      </trkpt>
      <trkpt lat="43.30822" lon="5.6748">
        <ele>514.7</ele>
        <time>2014-03-19T15:02:16Z</time>
      </trkpt>
      <trkpt lat="43.3082" lon="5.67475">
        <ele>511.1</ele>
        <time>2014-03-19T15:02:21Z</time>
      </trkpt>
      <trkpt lat="43.30821" lon="5.67469">
        <ele>509.2</ele>
        <time>2014-03-19T15:02:25Z</time>
      </trkpt>
      <trkpt lat="43.30822" lon="5.67464">
        <ele>508.7</ele>
        <time>2014-03-19T15:02:29Z</time>
      </trkpt>
      <trkpt lat="43.30823" lon="5.67459">
        <ele>507.1</ele>
        <time>2014-03-19T15:02:33Z</time>
      </trkpt>
      <trkpt lat="43.30823" lon="5.67455">
        <ele>506.7</ele>
        <time>2014-03-19T15:02:37Z</time>
      </trkpt>
      <trkpt lat="43.30823" lon="5.67453">
        <ele>506.6</ele>
        <time>2014-03-19T15:02:38Z</time>
      </trkpt>
      <trkpt lat="43.30825" lon="5.67443">
        <ele>505.8</ele>
        <time>2014-03-19T15:02:46Z</time>
      </trkpt>
      <trkpt lat="43.30825" lon="5.67438">
        <ele>505.3</ele>
        <time>2014-03-19T15:02:51Z</time>
      </trkpt>
      <trkpt lat="43.30827" lon="5.67433">
        <ele>505.5</ele>
        <time>2014-03-19T15:02:56Z</time>
      </trkpt>
      <trkpt lat="43.30828" lon="5.67428">
        <ele>504.7</ele>
        <time>2014-03-19T15:03:01Z</time>
      </trkpt>
      <trkpt lat="43.3083" lon="5.67422">
        <ele>502.7</ele>
        <time>2014-03-19T15:03:08Z</time>
      </trkpt>
      <trkpt lat="43.3083" lon="5.67416">
        <ele>499.3</ele>
        <time>2014-03-19T15:03:14Z</time>
      </trkpt>
      <trkpt lat="43.30829" lon="5.67411">
        <ele>499.5</ele>
        <time>2014-03-19T15:03:18Z</time>
      </trkpt>
      <trkpt lat="43.30827" lon="5.67406">
        <ele>498.2</ele>
        <time>2014-03-19T15:03:25Z</time>
      </trkpt>
      <trkpt lat="43.30828" lon="5.674">
        <ele>497.7</ele>
        <time>2014-03-19T15:03:31Z</time>
      </trkpt>
      <trkpt lat="43.30828" lon="5.67394">
        <ele>497.3</ele>
        <time>2014-03-19T15:03:38Z</time>
      </trkpt>
      <trkpt lat="43.30828" lon="5.67393">
        <ele>497.2</ele>
        <time>2014-03-19T15:03:39Z</time>
      </trkpt>
      <trkpt lat="43.30831" lon="5.67383">
        <ele>497.8</ele>
        <time>2014-03-19T15:03:49Z</time>
      </trkpt>
      <trkpt lat="43.3083" lon="5.67377">
        <ele>497.5</ele>
        <time>2014-03-19T15:03:58Z</time>
      </trkpt>
      <trkpt lat="43.30831" lon="5.67371">
        <ele>496.2</ele>
        <time>2014-03-19T15:04:09Z</time>
      </trkpt>
      <trkpt lat="43.30832" lon="5.67366">
        <ele>498.2</ele>
        <time>2014-03-19T15:04:14Z</time>
      </trkpt>
      <trkpt lat="43.30834" lon="5.67361">
        <ele>500.5</ele>
        <time>2014-03-19T15:04:20Z</time>
      </trkpt>
      <trkpt lat="43.30832" lon="5.67356">
        <ele>500.2</ele>
        <time>2014-03-19T15:04:25Z</time>
      </trkpt>
      <trkpt lat="43.3083" lon="5.67351">
        <ele>500.8</ele>
        <time>2014-03-19T15:04:30Z</time>
      </trkpt>
      <trkpt lat="43.3083" lon="5.67345">
        <ele>499.2</ele>
        <time>2014-03-19T15:04:35Z</time>
      </trkpt>
      <trkpt lat="43.30829" lon="5.6734">
        <ele>496.7</ele>
        <time>2014-03-19T15:04:40Z</time>
      </trkpt>
      <trkpt lat="43.30829" lon="5.67338">
        <ele>496.5</ele>
        <time>2014-03-19T15:04:41Z</time>
      </trkpt>
      <trkpt lat="43.30827" lon="5.67329">
        <ele>494.6</ele>
        <time>2014-03-19T15:04:50Z</time>
      </trkpt>
      <trkpt lat="43.30827" lon="5.67323">
        <ele>495.5</ele>
        <time>2014-03-19T15:04:55Z</time>
      </trkpt>
      <trkpt lat="43.30826" lon="5.67318">
        <ele>495.5</ele>
        <time>2014-03-19T15:04:59Z</time>
      </trkpt>
      <trkpt lat="43.30824" lon="5.67314">
        <ele>496.2</ele>
        <time>2014-03-19T15:05:02Z</time>
      </trkpt>
      <trkpt lat="43.30822" lon="5.67309">
        <ele>495.7</ele>
        <time>2014-03-19T15:05:07Z</time>
      </trkpt>
      <trkpt lat="43.3082" lon="5.67304">
        <ele>495.1</ele>
        <time>2014-03-19T15:05:12Z</time>
      </trkpt>
      <trkpt lat="43.30818" lon="5.673">
        <ele>496</ele>
        <time>2014-03-19T15:05:16Z</time>
      </trkpt>
      <trkpt lat="43.30815" lon="5.67296">
        <ele>495.2</ele>
        <time>2014-03-19T15:05:21Z</time>
      </trkpt>
      <trkpt lat="43.30812" lon="5.67291">
        <ele>495.2</ele>
        <time>2014-03-19T15:05:27Z</time>
      </trkpt>
      <trkpt lat="43.30809" lon="5.67288">
        <ele>494.5</ele>
        <time>2014-03-19T15:05:33Z</time>
      </trkpt>
      <trkpt lat="43.30806" lon="5.67284">
        <ele>493.1</ele>
        <time>2014-03-19T15:05:40Z</time>
      </trkpt>
      <trkpt lat="43.30803" lon="5.6728">
        <ele>492.2</ele>
        <time>2014-03-19T15:05:45Z</time>
      </trkpt>
      <trkpt lat="43.30802" lon="5.67279">
        <ele>491.6</ele>
        <time>2014-03-19T15:05:46Z</time>
      </trkpt>
      <trkpt lat="43.30797" lon="5.67275">
        <ele>489.8</ele>
        <time>2014-03-19T15:05:53Z</time>
      </trkpt>
      <trkpt lat="43.30793" lon="5.67274">
        <ele>490.2</ele>
        <time>2014-03-19T15:05:57Z</time>
      </trkpt>
      <trkpt lat="43.30789" lon="5.67273">
        <ele>490.6</ele>
        <time>2014-03-19T15:06:00Z</time>
      </trkpt>
      <trkpt lat="43.30785" lon="5.67273">
        <ele>490.3</ele>
        <time>2014-03-19T15:06:04Z</time>
      </trkpt>
      <trkpt lat="43.30781" lon="5.67272">
        <ele>491.2</ele>
        <time>2014-03-19T15:06:07Z</time>
      </trkpt>
      <trkpt lat="43.30777" lon="5.6727">
        <ele>491.3</ele>
        <time>2014-03-19T15:06:11Z</time>
      </trkpt>
      <trkpt lat="43.30774" lon="5.67269">
        <ele>489.8</ele>
        <time>2014-03-19T15:06:16Z</time>
      </trkpt>
      <trkpt lat="43.30769" lon="5.67269">
        <ele>487.8</ele>
        <time>2014-03-19T15:06:22Z</time>
      </trkpt>
      <trkpt lat="43.30766" lon="5.67269">
        <ele>488</ele>
        <time>2014-03-19T15:06:25Z</time>
      </trkpt>
      <trkpt lat="43.30762" lon="5.67269">
        <ele>488.3</ele>
        <time>2014-03-19T15:06:29Z</time>
      </trkpt>
      <trkpt lat="43.30758" lon="5.67269">
        <ele>490.7</ele>
        <time>2014-03-19T15:06:32Z</time>
      </trkpt>
      <trkpt lat="43.30754" lon="5.67268">
        <ele>492.7</ele>
        <time>2014-03-19T15:06:35Z</time>
      </trkpt>
      <trkpt lat="43.3075" lon="5.67267">
        <ele>496</ele>
        <time>2014-03-19T15:06:38Z</time>
      </trkpt>
      <trkpt lat="43.30746" lon="5.67269">
        <ele>492.3</ele>
        <time>2014-03-19T15:06:44Z</time>
      </trkpt>
      <trkpt lat="43.30742" lon="5.67269">
        <ele>490.6</ele>
        <time>2014-03-19T15:06:50Z</time>
      </trkpt>
      <trkpt lat="43.30741" lon="5.67269">
        <ele>490.7</ele>
        <time>2014-03-19T15:06:51Z</time>
      </trkpt>
      <trkpt lat="43.30734" lon="5.6727">
        <ele>486.2</ele>
        <time>2014-03-19T15:07:01Z</time>
      </trkpt>
      <trkpt lat="43.3073" lon="5.67269">
        <ele>485.8</ele>
        <time>2014-03-19T15:07:05Z</time>
      </trkpt>
      <trkpt lat="43.30726" lon="5.67268">
        <ele>485.8</ele>
        <time>2014-03-19T15:07:10Z</time>
      </trkpt>
      <trkpt lat="43.30722" lon="5.67268">
        <ele>486.2</ele>
        <time>2014-03-19T15:07:14Z</time>
      </trkpt>
      <trkpt lat="43.30718" lon="5.67266">
        <ele>485.7</ele>
        <time>2014-03-19T15:07:18Z</time>
      </trkpt>
      <trkpt lat="43.30714" lon="5.67265">
        <ele>485.2</ele>
        <time>2014-03-19T15:07:22Z</time>
      </trkpt>
      <trkpt lat="43.30711" lon="5.67264">
        <ele>486.2</ele>
        <time>2014-03-19T15:07:24Z</time>
      </trkpt>
      <trkpt lat="43.30707" lon="5.67262">
        <ele>487</ele>
        <time>2014-03-19T15:07:27Z</time>
      </trkpt>
      <trkpt lat="43.30703" lon="5.6726">
        <ele>483.7</ele>
        <time>2014-03-19T15:07:33Z</time>
      </trkpt>
      <trkpt lat="43.30699" lon="5.67258">
        <ele>480.5</ele>
        <time>2014-03-19T15:07:39Z</time>
      </trkpt>
      <trkpt lat="43.30695" lon="5.67256">
        <ele>479.8</ele>
        <time>2014-03-19T15:07:44Z</time>
      </trkpt>
      <trkpt lat="43.30691" lon="5.67255">
        <ele>478.8</ele>
        <time>2014-03-19T15:07:49Z</time>
      </trkpt>
      <trkpt lat="43.30688" lon="5.67253">
        <ele>478.7</ele>
        <time>2014-03-19T15:07:53Z</time>
      </trkpt>
      <trkpt lat="43.30687" lon="5.67253">
        <ele>478.8</ele>
        <time>2014-03-19T15:07:54Z</time>
      </trkpt>
      <trkpt lat="43.3068" lon="5.67248">
        <ele>479.2</ele>
        <time>2014-03-19T15:08:02Z</time>
      </trkpt>
      <trkpt lat="43.30676" lon="5.67247">
        <ele>477.7</ele>
        <time>2014-03-19T15:08:07Z</time>
      </trkpt>
      <trkpt lat="43.30673" lon="5.67246">
        <ele>477.2</ele>
        <time>2014-03-19T15:08:11Z</time>
      </trkpt>
      <trkpt lat="43.30669" lon="5.67243">
        <ele>477</ele>
        <time>2014-03-19T15:08:16Z</time>
      </trkpt>
      <trkpt lat="43.30665" lon="5.67241">
        <ele>475</ele>
        <time>2014-03-19T15:08:24Z</time>
      </trkpt>
      <trkpt lat="43.30661" lon="5.6724">
        <ele>474.1</ele>
        <time>2014-03-19T15:08:29Z</time>
      </trkpt>
      <trkpt lat="43.30658" lon="5.67236">
        <ele>473.2</ele>
        <time>2014-03-19T15:08:34Z</time>
      </trkpt>
      <trkpt lat="43.30654" lon="5.67233">
        <ele>472.2</ele>
        <time>2014-03-19T15:08:39Z</time>
      </trkpt>
      <trkpt lat="43.30651" lon="5.67229">
        <ele>472</ele>
        <time>2014-03-19T15:08:44Z</time>
      </trkpt>
      <trkpt lat="43.30647" lon="5.67227">
        <ele>472.1</ele>
        <time>2014-03-19T15:08:48Z</time>
      </trkpt>
      <trkpt lat="43.30643" lon="5.67225">
        <ele>472.1</ele>
        <time>2014-03-19T15:08:52Z</time>
      </trkpt>
      <trkpt lat="43.30639" lon="5.67223">
        <ele>471.2</ele>
        <time>2014-03-19T15:08:57Z</time>
      </trkpt>
      <trkpt lat="43.30638" lon="5.67223">
        <ele>471</ele>
        <time>2014-03-19T15:08:58Z</time>
      </trkpt>
      <trkpt lat="43.3063" lon="5.67222">
        <ele>470.6</ele>
        <time>2014-03-19T15:09:19Z</time>
      </trkpt>
      <trkpt lat="43.30626" lon="5.67223">
        <ele>468.3</ele>
        <time>2014-03-19T15:09:36Z</time>
      </trkpt>
      <trkpt lat="43.30623" lon="5.67225">
        <ele>467</ele>
        <time>2014-03-19T15:09:43Z</time>
      </trkpt>
      <trkpt lat="43.3062" lon="5.67229">
        <ele>468.7</ele>
        <time>2014-03-19T15:10:00Z</time>
      </trkpt>
      <trkpt lat="43.30619" lon="5.6723">
        <ele>468.8</ele>
        <time>2014-03-19T15:10:01Z</time>
      </trkpt>
      <trkpt lat="43.30614" lon="5.67236">
        <ele>469.2</ele>
        <time>2014-03-19T15:10:10Z</time>
      </trkpt>
      <trkpt lat="43.3061" lon="5.67237">
        <ele>469.8</ele>
        <time>2014-03-19T15:10:13Z</time>
      </trkpt>
      <trkpt lat="43.30606" lon="5.67238">
        <ele>470.2</ele>
        <time>2014-03-19T15:10:16Z</time>
      </trkpt>
      <trkpt lat="43.30602" lon="5.67238">
        <ele>470.5</ele>
        <time>2014-03-19T15:10:19Z</time>
      </trkpt>
      <trkpt lat="43.30598" lon="5.67241">
        <ele>471.6</ele>
        <time>2014-03-19T15:10:23Z</time>
      </trkpt>
      <trkpt lat="43.30594" lon="5.67241">
        <ele>471.6</ele>
        <time>2014-03-19T15:10:26Z</time>
      </trkpt>
      <trkpt lat="43.3059" lon="5.67241">
        <ele>471</ele>
        <time>2014-03-19T15:10:30Z</time>
      </trkpt>
      <trkpt lat="43.30586" lon="5.67242">
        <ele>471.7</ele>
        <time>2014-03-19T15:10:33Z</time>
      </trkpt>
      <trkpt lat="43.30582" lon="5.67243">
        <ele>471.5</ele>
        <time>2014-03-19T15:10:36Z</time>
      </trkpt>
      <trkpt lat="43.30577" lon="5.67243">
        <ele>471.7</ele>
        <time>2014-03-19T15:10:40Z</time>
      </trkpt>
      <trkpt lat="43.30573" lon="5.67245">
        <ele>471.7</ele>
        <time>2014-03-19T15:10:44Z</time>
      </trkpt>
      <trkpt lat="43.30569" lon="5.67246">
        <ele>471.7</ele>
        <time>2014-03-19T15:10:48Z</time>
      </trkpt>
      <trkpt lat="43.30566" lon="5.67247">
        <ele>471.7</ele>
        <time>2014-03-19T15:10:51Z</time>
      </trkpt>
      <trkpt lat="43.30561" lon="5.67246">
        <ele>473.2</ele>
        <time>2014-03-19T15:10:54Z</time>
      </trkpt>
      <trkpt lat="43.30558" lon="5.67246">
        <ele>474.2</ele>
        <time>2014-03-19T15:10:57Z</time>
      </trkpt>
      <trkpt lat="43.30554" lon="5.67246">
        <ele>474.8</ele>
        <time>2014-03-19T15:11:01Z</time>
      </trkpt>
      <trkpt lat="43.30552" lon="5.67246">
        <ele>475.5</ele>
        <time>2014-03-19T15:11:02Z</time>
      </trkpt>
      <trkpt lat="43.30547" lon="5.67239">
        <ele>474.5</ele>
        <time>2014-03-19T15:11:11Z</time>
      </trkpt>
      <trkpt lat="43.30545" lon="5.67235">
        <ele>473.1</ele>
        <time>2014-03-19T15:11:16Z</time>
      </trkpt>
      <trkpt lat="43.30542" lon="5.67233">
        <ele>474.7</ele>
        <time>2014-03-19T15:11:20Z</time>
      </trkpt>
      <trkpt lat="43.30538" lon="5.67229">
        <ele>477</ele>
        <time>2014-03-19T15:11:30Z</time>
      </trkpt>
      <trkpt lat="43.30537" lon="5.67224">
        <ele>474.7</ele>
        <time>2014-03-19T15:11:37Z</time>
      </trkpt>
      <trkpt lat="43.30534" lon="5.6722">
        <ele>475.7</ele>
        <time>2014-03-19T15:11:42Z</time>
      </trkpt>
      <trkpt lat="43.30532" lon="5.67215">
        <ele>474.5</ele>
        <time>2014-03-19T15:11:47Z</time>
      </trkpt>
      <trkpt lat="43.30529" lon="5.67211">
        <ele>473.2</ele>
        <time>2014-03-19T15:11:52Z</time>
      </trkpt>
      <trkpt lat="43.30527" lon="5.67206">
        <ele>471.7</ele>
        <time>2014-03-19T15:11:58Z</time>
      </trkpt>
      <trkpt lat="43.30524" lon="5.67201">
        <ele>469.8</ele>
        <time>2014-03-19T15:12:04Z</time>
      </trkpt>
      <trkpt lat="43.30523" lon="5.672">
        <ele>469.7</ele>
        <time>2014-03-19T15:12:05Z</time>
      </trkpt>
      <trkpt lat="43.30519" lon="5.67192">
        <ele>469.8</ele>
        <time>2014-03-19T15:12:14Z</time>
      </trkpt>
      <trkpt lat="43.30517" lon="5.67188">
        <ele>471.2</ele>
        <time>2014-03-19T15:12:17Z</time>
      </trkpt>
      <trkpt lat="43.30515" lon="5.67183">
        <ele>471.7</ele>
        <time>2014-03-19T15:12:21Z</time>
      </trkpt>
      <trkpt lat="43.30514" lon="5.67177">
        <ele>472.1</ele>
        <time>2014-03-19T15:12:25Z</time>
      </trkpt>
      <trkpt lat="43.30512" lon="5.67172">
        <ele>472.1</ele>
        <time>2014-03-19T15:12:29Z</time>
      </trkpt>
      <trkpt lat="43.30511" lon="5.67166">
        <ele>471.7</ele>
        <time>2014-03-19T15:12:33Z</time>
      </trkpt>
      <trkpt lat="43.3051" lon="5.67161">
        <ele>471.7</ele>
        <time>2014-03-19T15:12:37Z</time>
      </trkpt>
      <trkpt lat="43.30509" lon="5.67156">
        <ele>472</ele>
        <time>2014-03-19T15:12:40Z</time>
      </trkpt>
      <trkpt lat="43.30508" lon="5.67151">
        <ele>472.6</ele>
        <time>2014-03-19T15:12:43Z</time>
      </trkpt>
      <trkpt lat="43.30508" lon="5.67145">
        <ele>472.7</ele>
        <time>2014-03-19T15:12:47Z</time>
      </trkpt>
      <trkpt lat="43.30508" lon="5.6714">
        <ele>472.7</ele>
        <time>2014-03-19T15:12:51Z</time>
      </trkpt>
      <trkpt lat="43.30509" lon="5.67134">
        <ele>472.6</ele>
        <time>2014-03-19T15:12:55Z</time>
      </trkpt>
      <trkpt lat="43.3051" lon="5.67128">
        <ele>472.2</ele>
        <time>2014-03-19T15:12:59Z</time>
      </trkpt>
      <trkpt lat="43.3051" lon="5.67123">
        <ele>472</ele>
        <time>2014-03-19T15:13:03Z</time>
      </trkpt>
      <trkpt lat="43.30511" lon="5.67117">
        <ele>471.7</ele>
        <time>2014-03-19T15:13:07Z</time>
      </trkpt>
      <trkpt lat="43.3051" lon="5.67116">
        <ele>471.7</ele>
        <time>2014-03-19T15:13:08Z</time>
      </trkpt>
      <trkpt lat="43.30507" lon="5.67107">
        <ele>470.1</ele>
        <time>2014-03-19T15:13:16Z</time>
      </trkpt>
      <trkpt lat="43.30505" lon="5.67104">
        <ele>469.5</ele>
        <time>2014-03-19T15:13:20Z</time>
      </trkpt>
      <trkpt lat="43.30503" lon="5.67099">
        <ele>468.5</ele>
        <time>2014-03-19T15:13:25Z</time>
      </trkpt>
      <trkpt lat="43.305" lon="5.67095">
        <ele>469.2</ele>
        <time>2014-03-19T15:13:28Z</time>
      </trkpt>
      <trkpt lat="43.30497" lon="5.67091">
        <ele>469.6</ele>
        <time>2014-03-19T15:13:31Z</time>
      </trkpt>
      <trkpt lat="43.30495" lon="5.67087">
        <ele>468.7</ele>
        <time>2014-03-19T15:13:35Z</time>
      </trkpt>
      <trkpt lat="43.30492" lon="5.67084">
        <ele>468.7</ele>
        <time>2014-03-19T15:13:39Z</time>
      </trkpt>
      <trkpt lat="43.30489" lon="5.67079">
        <ele>467.7</ele>
        <time>2014-03-19T15:13:44Z</time>
      </trkpt>
      <trkpt lat="43.30486" lon="5.67075">
        <ele>467.7</ele>
        <time>2014-03-19T15:13:49Z</time>
      </trkpt>
      <trkpt lat="43.30484" lon="5.6707">
        <ele>467.2</ele>
        <time>2014-03-19T15:13:54Z</time>
      </trkpt>
      <trkpt lat="43.30481" lon="5.67066">
        <ele>467.2</ele>
        <time>2014-03-19T15:14:00Z</time>
      </trkpt>
      <trkpt lat="43.30478" lon="5.67063">
        <ele>466.7</ele>
        <time>2014-03-19T15:14:05Z</time>
      </trkpt>
      <trkpt lat="43.30475" lon="5.67059">
        <ele>467.8</ele>
        <time>2014-03-19T15:14:08Z</time>
      </trkpt>
      <trkpt lat="43.30474" lon="5.67058">
        <ele>468.5</ele>
        <time>2014-03-19T15:14:09Z</time>
      </trkpt>
      <trkpt lat="43.3047" lon="5.6705">
        <ele>468</ele>
        <time>2014-03-19T15:14:19Z</time>
      </trkpt>
      <trkpt lat="43.30468" lon="5.67045">
        <ele>468.2</ele>
        <time>2014-03-19T15:14:23Z</time>
      </trkpt>
      <trkpt lat="43.30468" lon="5.67039">
        <ele>468.2</ele>
        <time>2014-03-19T15:14:27Z</time>
      </trkpt>
      <trkpt lat="43.3047" lon="5.67034">
        <ele>468.5</ele>
        <time>2014-03-19T15:14:32Z</time>
      </trkpt>
      <trkpt lat="43.30471" lon="5.67029">
        <ele>468.5</ele>
        <time>2014-03-19T15:14:36Z</time>
      </trkpt>
      <trkpt lat="43.30473" lon="5.67025">
        <ele>468.2</ele>
        <time>2014-03-19T15:14:40Z</time>
      </trkpt>
      <trkpt lat="43.30476" lon="5.6702">
        <ele>468.1</ele>
        <time>2014-03-19T15:14:45Z</time>
      </trkpt>
      <trkpt lat="43.30479" lon="5.67016">
        <ele>467.8</ele>
        <time>2014-03-19T15:14:50Z</time>
      </trkpt>
      <trkpt lat="43.30481" lon="5.67011">
        <ele>467.7</ele>
        <time>2014-03-19T15:14:55Z</time>
      </trkpt>
      <trkpt lat="43.30484" lon="5.67008">
        <ele>466.7</ele>
        <time>2014-03-19T15:15:01Z</time>
      </trkpt>
      <trkpt lat="43.30487" lon="5.67004">
        <ele>465.5</ele>
        <time>2014-03-19T15:15:07Z</time>
      </trkpt>
      <trkpt lat="43.30491" lon="5.67002">
        <ele>462.7</ele>
        <time>2014-03-19T15:15:13Z</time>
      </trkpt>
      <trkpt lat="43.30492" lon="5.67001">
        <ele>462.1</ele>
        <time>2014-03-19T15:15:14Z</time>
      </trkpt>
      <trkpt lat="43.30498" lon="5.66995">
        <ele>461</ele>
        <time>2014-03-19T15:15:23Z</time>
      </trkpt>
      <trkpt lat="43.30501" lon="5.66992">
        <ele>460.2</ele>
        <time>2014-03-19T15:15:27Z</time>
      </trkpt>
      <trkpt lat="43.30504" lon="5.66988">
        <ele>460.8</ele>
        <time>2014-03-19T15:15:32Z</time>
      </trkpt>
      <trkpt lat="43.30507" lon="5.66985">
        <ele>460.7</ele>
        <time>2014-03-19T15:15:36Z</time>
      </trkpt>
      <trkpt lat="43.3051" lon="5.66982">
        <ele>460</ele>
        <time>2014-03-19T15:15:40Z</time>
      </trkpt>
      <trkpt lat="43.30513" lon="5.66979">
        <ele>460.2</ele>
        <time>2014-03-19T15:15:44Z</time>
      </trkpt>
      <trkpt lat="43.30515" lon="5.66974">
        <ele>460.8</ele>
        <time>2014-03-19T15:15:48Z</time>
      </trkpt>
      <trkpt lat="43.30518" lon="5.6697">
        <ele>459.5</ele>
        <time>2014-03-19T15:15:53Z</time>
      </trkpt>
      <trkpt lat="43.30521" lon="5.66966">
        <ele>458.3</ele>
        <time>2014-03-19T15:15:57Z</time>
      </trkpt>
      <trkpt lat="43.30524" lon="5.66962">
        <ele>457.7</ele>
        <time>2014-03-19T15:16:01Z</time>
      </trkpt>
      <trkpt lat="43.30527" lon="5.6696">
        <ele>456.8</ele>
        <time>2014-03-19T15:16:05Z</time>
      </trkpt>
      <trkpt lat="43.30531" lon="5.66959">
        <ele>455.5</ele>
        <time>2014-03-19T15:16:10Z</time>
      </trkpt>
      <trkpt lat="43.30535" lon="5.66958">
        <ele>453.6</ele>
        <time>2014-03-19T15:16:15Z</time>
      </trkpt>
      <trkpt lat="43.30536" lon="5.66959">
        <ele>453.7</ele>
        <time>2014-03-19T15:16:16Z</time>
      </trkpt>
      <trkpt lat="43.30544" lon="5.66958">
        <ele>451</ele>
        <time>2014-03-19T15:16:27Z</time>
      </trkpt>
      <trkpt lat="43.30548" lon="5.66956">
        <ele>449.8</ele>
        <time>2014-03-19T15:16:32Z</time>
      </trkpt>
      <trkpt lat="43.3055" lon="5.66952">
        <ele>451.7</ele>
        <time>2014-03-19T15:16:36Z</time>
      </trkpt>
      <trkpt lat="43.30553" lon="5.66948">
        <ele>453.1</ele>
        <time>2014-03-19T15:16:40Z</time>
      </trkpt>
      <trkpt lat="43.30555" lon="5.66944">
        <ele>454.3</ele>
        <time>2014-03-19T15:16:44Z</time>
      </trkpt>
      <trkpt lat="43.30557" lon="5.66939">
        <ele>454.8</ele>
        <time>2014-03-19T15:16:48Z</time>
      </trkpt>
      <trkpt lat="43.30558" lon="5.66933">
        <ele>455</ele>
        <time>2014-03-19T15:16:53Z</time>
      </trkpt>
      <trkpt lat="43.30558" lon="5.66928">
        <ele>455.1</ele>
        <time>2014-03-19T15:16:58Z</time>
      </trkpt>
      <trkpt lat="43.30559" lon="5.66922">
        <ele>455.2</ele>
        <time>2014-03-19T15:17:02Z</time>
      </trkpt>
      <trkpt lat="43.3056" lon="5.66917">
        <ele>455.3</ele>
        <time>2014-03-19T15:17:06Z</time>
      </trkpt>
      <trkpt lat="43.3056" lon="5.66912">
        <ele>455.5</ele>
        <time>2014-03-19T15:17:10Z</time>
      </trkpt>
      <trkpt lat="43.30561" lon="5.66906">
        <ele>455.1</ele>
        <time>2014-03-19T15:17:16Z</time>
      </trkpt>
      <trkpt lat="43.30561" lon="5.66905">
        <ele>455.2</ele>
        <time>2014-03-19T15:17:17Z</time>
      </trkpt>
      <trkpt lat="43.30561" lon="5.66895">
        <ele>454.6</ele>
        <time>2014-03-19T15:17:24Z</time>
      </trkpt>
      <trkpt lat="43.30562" lon="5.6689">
        <ele>454.2</ele>
        <time>2014-03-19T15:17:29Z</time>
      </trkpt>
      <trkpt lat="43.30563" lon="5.66884">
        <ele>453.5</ele>
        <time>2014-03-19T15:17:36Z</time>
      </trkpt>
      <trkpt lat="43.30565" lon="5.66879">
        <ele>453.2</ele>
        <time>2014-03-19T15:17:43Z</time>
      </trkpt>
      <trkpt lat="43.30567" lon="5.66874">
        <ele>451.7</ele>
        <time>2014-03-19T15:17:49Z</time>
      </trkpt>
      <trkpt lat="43.30569" lon="5.66869">
        <ele>451.1</ele>
        <time>2014-03-19T15:17:55Z</time>
      </trkpt>
      <trkpt lat="43.3057" lon="5.66864">
        <ele>449.8</ele>
        <time>2014-03-19T15:18:01Z</time>
      </trkpt>
      <trkpt lat="43.30573" lon="5.66859">
        <ele>448.7</ele>
        <time>2014-03-19T15:18:08Z</time>
      </trkpt>
      <trkpt lat="43.30575" lon="5.66854">
        <ele>447.7</ele>
        <time>2014-03-19T15:18:14Z</time>
      </trkpt>
      <trkpt lat="43.30578" lon="5.66849">
        <ele>447.2</ele>
        <time>2014-03-19T15:18:19Z</time>
      </trkpt>
      <trkpt lat="43.30578" lon="5.66848">
        <ele>447.1</ele>
        <time>2014-03-19T15:18:20Z</time>
      </trkpt>
      <trkpt lat="43.30583" lon="5.6684">
        <ele>445.5</ele>
        <time>2014-03-19T15:18:38Z</time>
      </trkpt>
      <trkpt lat="43.30581" lon="5.66835">
        <ele>442.6</ele>
        <time>2014-03-19T15:19:03Z</time>
      </trkpt>
      <trkpt lat="43.30577" lon="5.66833">
        <ele>441.7</ele>
        <time>2014-03-19T15:19:11Z</time>
      </trkpt>
      <trkpt lat="43.30573" lon="5.66833">
        <ele>439.8</ele>
        <time>2014-03-19T15:19:18Z</time>
      </trkpt>
      <trkpt lat="43.3057" lon="5.66836">
        <ele>439.2</ele>
        <time>2014-03-19T15:19:26Z</time>
      </trkpt>
      <trkpt lat="43.30569" lon="5.66836">
        <ele>439.1</ele>
        <time>2014-03-19T15:19:27Z</time>
      </trkpt>
      <trkpt lat="43.30562" lon="5.66838">
        <ele>437.7</ele>
        <time>2014-03-19T15:19:37Z</time>
      </trkpt>
      <trkpt lat="43.30558" lon="5.6684">
        <ele>437.3</ele>
        <time>2014-03-19T15:19:42Z</time>
      </trkpt>
      <trkpt lat="43.30554" lon="5.6684">
        <ele>438.5</ele>
        <time>2014-03-19T15:19:46Z</time>
      </trkpt>
      <trkpt lat="43.30549" lon="5.66843">
        <ele>437.7</ele>
        <time>2014-03-19T15:19:58Z</time>
      </trkpt>
      <trkpt lat="43.30545" lon="5.66844">
        <ele>434.2</ele>
        <time>2014-03-19T15:20:08Z</time>
      </trkpt>
      <trkpt lat="43.30541" lon="5.66845">
        <ele>432.6</ele>
        <time>2014-03-19T15:20:15Z</time>
      </trkpt>
      <trkpt lat="43.30537" lon="5.66844">
        <ele>432.8</ele>
        <time>2014-03-19T15:20:22Z</time>
      </trkpt>
      <trkpt lat="43.30535" lon="5.66841">
        <ele>430</ele>
        <time>2014-03-19T15:20:27Z</time>
      </trkpt>
      <trkpt lat="43.30534" lon="5.66839">
        <ele>430.7</ele>
        <time>2014-03-19T15:20:28Z</time>
      </trkpt>
      <trkpt lat="43.30537" lon="5.6683">
        <ele>429.8</ele>
        <time>2014-03-19T15:20:36Z</time>
      </trkpt>
      <trkpt lat="43.3054" lon="5.66826">
        <ele>430</ele>
        <time>2014-03-19T15:20:40Z</time>
      </trkpt>
      <trkpt lat="43.30543" lon="5.66823">
        <ele>429.2</ele>
        <time>2014-03-19T15:20:45Z</time>
      </trkpt>
      <trkpt lat="43.30547" lon="5.6682">
        <ele>427.8</ele>
        <time>2014-03-19T15:20:51Z</time>
      </trkpt>
      <trkpt lat="43.30551" lon="5.66819">
        <ele>427.1</ele>
        <time>2014-03-19T15:20:57Z</time>
      </trkpt>
      <trkpt lat="43.30555" lon="5.66817">
        <ele>428.3</ele>
        <time>2014-03-19T15:21:01Z</time>
      </trkpt>
      <trkpt lat="43.30558" lon="5.66815">
        <ele>429</ele>
        <time>2014-03-19T15:21:05Z</time>
      </trkpt>
      <trkpt lat="43.30562" lon="5.66812">
        <ele>428.8</ele>
        <time>2014-03-19T15:21:09Z</time>
      </trkpt>
      <trkpt lat="43.30566" lon="5.66811">
        <ele>428.8</ele>
        <time>2014-03-19T15:21:13Z</time>
      </trkpt>
      <trkpt lat="43.3057" lon="5.6681">
        <ele>430.5</ele>
        <time>2014-03-19T15:21:17Z</time>
      </trkpt>
      <trkpt lat="43.30574" lon="5.66807">
        <ele>434</ele>
        <time>2014-03-19T15:21:21Z</time>
      </trkpt>
      <trkpt lat="43.30577" lon="5.66805">
        <ele>434.2</ele>
        <time>2014-03-19T15:21:25Z</time>
      </trkpt>
      <trkpt lat="43.30574" lon="5.668">
        <ele>434.2</ele>
        <time>2014-03-19T15:21:56Z</time>
      </trkpt>
      <trkpt lat="43.30574" lon="5.668">
        <ele>434.2</ele>
        <time>2014-03-19T15:21:57Z</time>
      </trkpt>
    </trkseg>
  </trk>
</gpx>